<?xml version="1.0" encoding="UTF-8" standalone="no" ?>
<gpx xmlns="http://www.topografix.com/GPX/1/1" xmlns:xsi="http://www.w3.org/2001/XMLSchema-instance" xsi:schemaLocation="http://www.topografix.com/GPX/1/1 http://www.topografix.com/GPX/1/1/gpx.xsd" version="1.1" creator="VisuGPX - https://www.visugpx.com">
  <metadata>
    <name>forêt de Dourdan (mixte Polaire-Grangeoise)</name>
    <desc><![CDATA[rando avec Anna sur un parcours mélange des randos "Polaire" et "Grangeoise" en partant du carrefour du Rendez-vous près du péage de Saint Arnoult.
Dénivelé barométrique: 648 m]]></desc>
  </metadata>
  <trk>
    <name><![CDATA[2021-06-03 14:12]]></name>
    <desc><![CDATA[<p>Heure de départ: 06/03/2021 14:13<br/>Heure d'arrivée: 06/03/2021 18:47<br/>Distance: 46,9 km (04:34)<br/>Temps déplacement: 03:27<br/>Vitesse moyenne: 10,26 km/h<br/>Vitesse moyenne mouv.: 13,54 km/h<br/>Vitesse Max.: 38,96 km/h<br/>Altitude minimale: 84 m<br/>Altitude maximale: 217 m<br/>Vitesse de montée: 427,9 m/h<br/>Vitesse de descente: -473 m/h<br/>Gain d'altitude: 994 m<br/>Perte d'altitude: -994 m<br/>Temps de montée: 02:19<br/>Temps de descente: 02:06<br/></p><hr align="center" width="480" style="height: 2px; width: 517px"/>]]></desc>
    <trkseg>
      <trkpt lat="48.55882" lon="1.95054">
        <ele>169.1</ele>
        <time>2021-06-03T12:13:39Z</time>
      </trkpt>
      <trkpt lat="48.5588" lon="1.95061">
        <ele>169.3</ele>
        <time>2021-06-03T12:13:45Z</time>
      </trkpt>
      <trkpt lat="48.55878" lon="1.95073">
        <ele>169.7</ele>
        <time>2021-06-03T12:13:49Z</time>
      </trkpt>
      <trkpt lat="48.55876" lon="1.9508">
        <ele>169.9</ele>
        <time>2021-06-03T12:13:51Z</time>
      </trkpt>
      <trkpt lat="48.55874" lon="1.95088">
        <ele>170.1</ele>
        <time>2021-06-03T12:13:53Z</time>
      </trkpt>
      <trkpt lat="48.55872" lon="1.95094">
        <ele>170.3</ele>
        <time>2021-06-03T12:13:55Z</time>
      </trkpt>
      <trkpt lat="48.5587" lon="1.95101">
        <ele>170.4</ele>
        <time>2021-06-03T12:13:57Z</time>
      </trkpt>
      <trkpt lat="48.55869" lon="1.95108">
        <ele>170.5</ele>
        <time>2021-06-03T12:13:59Z</time>
      </trkpt>
      <trkpt lat="48.55873" lon="1.95101">
        <ele>170.3</ele>
        <time>2021-06-03T12:14:19Z</time>
      </trkpt>
      <trkpt lat="48.55875" lon="1.95091">
        <ele>170</ele>
        <time>2021-06-03T12:14:21Z</time>
      </trkpt>
      <trkpt lat="48.55879" lon="1.9508">
        <ele>169.7</ele>
        <time>2021-06-03T12:14:23Z</time>
      </trkpt>
      <trkpt lat="48.55883" lon="1.95069">
        <ele>169.2</ele>
        <time>2021-06-03T12:14:25Z</time>
      </trkpt>
      <trkpt lat="48.55887" lon="1.95057">
        <ele>168.7</ele>
        <time>2021-06-03T12:14:27Z</time>
      </trkpt>
      <trkpt lat="48.5589" lon="1.95046">
        <ele>168.3</ele>
        <time>2021-06-03T12:14:29Z</time>
      </trkpt>
      <trkpt lat="48.55894" lon="1.95036">
        <ele>167.8</ele>
        <time>2021-06-03T12:14:31Z</time>
      </trkpt>
      <trkpt lat="48.55898" lon="1.95026">
        <ele>167.3</ele>
        <time>2021-06-03T12:14:33Z</time>
      </trkpt>
      <trkpt lat="48.55901" lon="1.95016">
        <ele>166.9</ele>
        <time>2021-06-03T12:14:35Z</time>
      </trkpt>
      <trkpt lat="48.55904" lon="1.95007">
        <ele>166.4</ele>
        <time>2021-06-03T12:14:37Z</time>
      </trkpt>
      <trkpt lat="48.55906" lon="1.94996">
        <ele>166</ele>
        <time>2021-06-03T12:14:39Z</time>
      </trkpt>
      <trkpt lat="48.55902" lon="1.94986">
        <ele>166.3</ele>
        <time>2021-06-03T12:14:41Z</time>
      </trkpt>
      <trkpt lat="48.55899" lon="1.94981">
        <ele>166.6</ele>
        <time>2021-06-03T12:14:43Z</time>
      </trkpt>
      <trkpt lat="48.55905" lon="1.94985">
        <ele>166.1</ele>
        <time>2021-06-03T12:15:19Z</time>
      </trkpt>
      <trkpt lat="48.55907" lon="1.94996">
        <ele>165.9</ele>
        <time>2021-06-03T12:15:23Z</time>
      </trkpt>
      <trkpt lat="48.55906" lon="1.95003">
        <ele>166.1</ele>
        <time>2021-06-03T12:15:25Z</time>
      </trkpt>
      <trkpt lat="48.55904" lon="1.95011">
        <ele>166.5</ele>
        <time>2021-06-03T12:15:27Z</time>
      </trkpt>
      <trkpt lat="48.55901" lon="1.95019">
        <ele>166.9</ele>
        <time>2021-06-03T12:15:29Z</time>
      </trkpt>
      <trkpt lat="48.55898" lon="1.95027">
        <ele>167.3</ele>
        <time>2021-06-03T12:15:31Z</time>
      </trkpt>
      <trkpt lat="48.55895" lon="1.95035">
        <ele>167.7</ele>
        <time>2021-06-03T12:15:33Z</time>
      </trkpt>
      <trkpt lat="48.55893" lon="1.95042">
        <ele>168</ele>
        <time>2021-06-03T12:15:35Z</time>
      </trkpt>
      <trkpt lat="48.55891" lon="1.95049">
        <ele>168.3</ele>
        <time>2021-06-03T12:15:37Z</time>
      </trkpt>
      <trkpt lat="48.55888" lon="1.95057">
        <ele>168.7</ele>
        <time>2021-06-03T12:15:39Z</time>
      </trkpt>
      <trkpt lat="48.55885" lon="1.95065">
        <ele>169</ele>
        <time>2021-06-03T12:15:41Z</time>
      </trkpt>
      <trkpt lat="48.55882" lon="1.95073">
        <ele>169.4</ele>
        <time>2021-06-03T12:15:43Z</time>
      </trkpt>
      <trkpt lat="48.55879" lon="1.95081">
        <ele>169.7</ele>
        <time>2021-06-03T12:15:45Z</time>
      </trkpt>
      <trkpt lat="48.55876" lon="1.95088">
        <ele>170</ele>
        <time>2021-06-03T12:15:47Z</time>
      </trkpt>
      <trkpt lat="48.55874" lon="1.95096">
        <ele>170.1</ele>
        <time>2021-06-03T12:15:49Z</time>
      </trkpt>
      <trkpt lat="48.55872" lon="1.95103">
        <ele>170.3</ele>
        <time>2021-06-03T12:15:51Z</time>
      </trkpt>
      <trkpt lat="48.5587" lon="1.9511">
        <ele>170.5</ele>
        <time>2021-06-03T12:15:53Z</time>
      </trkpt>
      <trkpt lat="48.55869" lon="1.95118">
        <ele>170.6</ele>
        <time>2021-06-03T12:15:55Z</time>
      </trkpt>
      <trkpt lat="48.5587" lon="1.95126">
        <ele>170.5</ele>
        <time>2021-06-03T12:15:57Z</time>
      </trkpt>
      <trkpt lat="48.55877" lon="1.95137">
        <ele>170.2</ele>
        <time>2021-06-03T12:16:01Z</time>
      </trkpt>
      <trkpt lat="48.55883" lon="1.95141">
        <ele>169.9</ele>
        <time>2021-06-03T12:16:03Z</time>
      </trkpt>
      <trkpt lat="48.55889" lon="1.95147">
        <ele>169.8</ele>
        <time>2021-06-03T12:16:05Z</time>
      </trkpt>
      <trkpt lat="48.55894" lon="1.95156">
        <ele>169.7</ele>
        <time>2021-06-03T12:16:07Z</time>
      </trkpt>
      <trkpt lat="48.55901" lon="1.9516">
        <ele>169.5</ele>
        <time>2021-06-03T12:16:09Z</time>
      </trkpt>
      <trkpt lat="48.55907" lon="1.95166">
        <ele>169.3</ele>
        <time>2021-06-03T12:16:11Z</time>
      </trkpt>
      <trkpt lat="48.55913" lon="1.95172">
        <ele>169.3</ele>
        <time>2021-06-03T12:16:13Z</time>
      </trkpt>
      <trkpt lat="48.55921" lon="1.95177">
        <ele>169</ele>
        <time>2021-06-03T12:16:15Z</time>
      </trkpt>
      <trkpt lat="48.5593" lon="1.95185">
        <ele>168.7</ele>
        <time>2021-06-03T12:16:17Z</time>
      </trkpt>
      <trkpt lat="48.55936" lon="1.95197">
        <ele>168.6</ele>
        <time>2021-06-03T12:16:19Z</time>
      </trkpt>
      <trkpt lat="48.55938" lon="1.95211">
        <ele>168.8</ele>
        <time>2021-06-03T12:16:21Z</time>
      </trkpt>
      <trkpt lat="48.55941" lon="1.95224">
        <ele>168.9</ele>
        <time>2021-06-03T12:16:23Z</time>
      </trkpt>
      <trkpt lat="48.55943" lon="1.95239">
        <ele>169.1</ele>
        <time>2021-06-03T12:16:25Z</time>
      </trkpt>
      <trkpt lat="48.55945" lon="1.95254">
        <ele>169.4</ele>
        <time>2021-06-03T12:16:27Z</time>
      </trkpt>
      <trkpt lat="48.55946" lon="1.95268">
        <ele>169.6</ele>
        <time>2021-06-03T12:16:29Z</time>
      </trkpt>
      <trkpt lat="48.55948" lon="1.95284">
        <ele>169.8</ele>
        <time>2021-06-03T12:16:31Z</time>
      </trkpt>
      <trkpt lat="48.55949" lon="1.95299">
        <ele>170</ele>
        <time>2021-06-03T12:16:33Z</time>
      </trkpt>
      <trkpt lat="48.55949" lon="1.95312">
        <ele>170.2</ele>
        <time>2021-06-03T12:16:35Z</time>
      </trkpt>
      <trkpt lat="48.55951" lon="1.95326">
        <ele>170.4</ele>
        <time>2021-06-03T12:16:37Z</time>
      </trkpt>
      <trkpt lat="48.55951" lon="1.95341">
        <ele>170.6</ele>
        <time>2021-06-03T12:16:39Z</time>
      </trkpt>
      <trkpt lat="48.55951" lon="1.95356">
        <ele>170.7</ele>
        <time>2021-06-03T12:16:41Z</time>
      </trkpt>
      <trkpt lat="48.55951" lon="1.95368">
        <ele>170.9</ele>
        <time>2021-06-03T12:16:43Z</time>
      </trkpt>
      <trkpt lat="48.55951" lon="1.95382">
        <ele>171</ele>
        <time>2021-06-03T12:16:45Z</time>
      </trkpt>
      <trkpt lat="48.55951" lon="1.95396">
        <ele>171.1</ele>
        <time>2021-06-03T12:16:47Z</time>
      </trkpt>
      <trkpt lat="48.55952" lon="1.95409">
        <ele>171.2</ele>
        <time>2021-06-03T12:16:49Z</time>
      </trkpt>
      <trkpt lat="48.55954" lon="1.95422">
        <ele>171.1</ele>
        <time>2021-06-03T12:16:51Z</time>
      </trkpt>
      <trkpt lat="48.55956" lon="1.95435">
        <ele>170.8</ele>
        <time>2021-06-03T12:16:53Z</time>
      </trkpt>
      <trkpt lat="48.55959" lon="1.95447">
        <ele>170.4</ele>
        <time>2021-06-03T12:16:55Z</time>
      </trkpt>
      <trkpt lat="48.55963" lon="1.9546">
        <ele>170</ele>
        <time>2021-06-03T12:16:57Z</time>
      </trkpt>
      <trkpt lat="48.55967" lon="1.95474">
        <ele>169.6</ele>
        <time>2021-06-03T12:16:59Z</time>
      </trkpt>
      <trkpt lat="48.5597" lon="1.95487">
        <ele>169.3</ele>
        <time>2021-06-03T12:17:01Z</time>
      </trkpt>
      <trkpt lat="48.55974" lon="1.955">
        <ele>168.9</ele>
        <time>2021-06-03T12:17:03Z</time>
      </trkpt>
      <trkpt lat="48.55977" lon="1.95512">
        <ele>168.7</ele>
        <time>2021-06-03T12:17:05Z</time>
      </trkpt>
      <trkpt lat="48.55979" lon="1.95527">
        <ele>168.5</ele>
        <time>2021-06-03T12:17:07Z</time>
      </trkpt>
      <trkpt lat="48.55981" lon="1.95543">
        <ele>168.3</ele>
        <time>2021-06-03T12:17:09Z</time>
      </trkpt>
      <trkpt lat="48.55981" lon="1.95557">
        <ele>168.2</ele>
        <time>2021-06-03T12:17:11Z</time>
      </trkpt>
      <trkpt lat="48.5598" lon="1.95573">
        <ele>168.1</ele>
        <time>2021-06-03T12:17:13Z</time>
      </trkpt>
      <trkpt lat="48.55981" lon="1.95588">
        <ele>167.9</ele>
        <time>2021-06-03T12:17:15Z</time>
      </trkpt>
      <trkpt lat="48.55981" lon="1.95604">
        <ele>167.5</ele>
        <time>2021-06-03T12:17:17Z</time>
      </trkpt>
      <trkpt lat="48.5598" lon="1.95619">
        <ele>167.1</ele>
        <time>2021-06-03T12:17:19Z</time>
      </trkpt>
      <trkpt lat="48.55982" lon="1.95634">
        <ele>166.8</ele>
        <time>2021-06-03T12:17:21Z</time>
      </trkpt>
      <trkpt lat="48.55982" lon="1.9565">
        <ele>166.4</ele>
        <time>2021-06-03T12:17:23Z</time>
      </trkpt>
      <trkpt lat="48.55984" lon="1.95664">
        <ele>166.1</ele>
        <time>2021-06-03T12:17:25Z</time>
      </trkpt>
      <trkpt lat="48.55984" lon="1.95681">
        <ele>165.9</ele>
        <time>2021-06-03T12:17:27Z</time>
      </trkpt>
      <trkpt lat="48.55985" lon="1.95696">
        <ele>165.8</ele>
        <time>2021-06-03T12:17:29Z</time>
      </trkpt>
      <trkpt lat="48.55986" lon="1.95712">
        <ele>165.7</ele>
        <time>2021-06-03T12:17:31Z</time>
      </trkpt>
      <trkpt lat="48.55985" lon="1.9573">
        <ele>165.6</ele>
        <time>2021-06-03T12:17:33Z</time>
      </trkpt>
      <trkpt lat="48.55986" lon="1.95747">
        <ele>165.5</ele>
        <time>2021-06-03T12:17:35Z</time>
      </trkpt>
      <trkpt lat="48.55989" lon="1.95764">
        <ele>165.7</ele>
        <time>2021-06-03T12:17:37Z</time>
      </trkpt>
      <trkpt lat="48.55992" lon="1.9578">
        <ele>166</ele>
        <time>2021-06-03T12:17:39Z</time>
      </trkpt>
      <trkpt lat="48.55993" lon="1.95796">
        <ele>166.3</ele>
        <time>2021-06-03T12:17:41Z</time>
      </trkpt>
      <trkpt lat="48.55995" lon="1.95813">
        <ele>166.6</ele>
        <time>2021-06-03T12:17:43Z</time>
      </trkpt>
      <trkpt lat="48.55997" lon="1.9583">
        <ele>167</ele>
        <time>2021-06-03T12:17:45Z</time>
      </trkpt>
      <trkpt lat="48.56" lon="1.95846">
        <ele>167</ele>
        <time>2021-06-03T12:17:47Z</time>
      </trkpt>
      <trkpt lat="48.56002" lon="1.95862">
        <ele>166.8</ele>
        <time>2021-06-03T12:17:49Z</time>
      </trkpt>
      <trkpt lat="48.56003" lon="1.95878">
        <ele>166.8</ele>
        <time>2021-06-03T12:17:51Z</time>
      </trkpt>
      <trkpt lat="48.56004" lon="1.95896">
        <ele>166.7</ele>
        <time>2021-06-03T12:17:53Z</time>
      </trkpt>
      <trkpt lat="48.56007" lon="1.95911">
        <ele>166.6</ele>
        <time>2021-06-03T12:17:55Z</time>
      </trkpt>
      <trkpt lat="48.56008" lon="1.95926">
        <ele>166.2</ele>
        <time>2021-06-03T12:17:57Z</time>
      </trkpt>
      <trkpt lat="48.5601" lon="1.95935">
        <ele>165.8</ele>
        <time>2021-06-03T12:17:59Z</time>
      </trkpt>
      <trkpt lat="48.5601" lon="1.95945">
        <ele>165.5</ele>
        <time>2021-06-03T12:18:01Z</time>
      </trkpt>
      <trkpt lat="48.56005" lon="1.95957">
        <ele>165.4</ele>
        <time>2021-06-03T12:18:05Z</time>
      </trkpt>
      <trkpt lat="48.56" lon="1.95962">
        <ele>165.4</ele>
        <time>2021-06-03T12:18:09Z</time>
      </trkpt>
      <trkpt lat="48.56002" lon="1.95978">
        <ele>164.7</ele>
        <time>2021-06-03T12:18:13Z</time>
      </trkpt>
      <trkpt lat="48.56003" lon="1.9599">
        <ele>164.3</ele>
        <time>2021-06-03T12:18:15Z</time>
      </trkpt>
      <trkpt lat="48.56005" lon="1.96001">
        <ele>163.9</ele>
        <time>2021-06-03T12:18:17Z</time>
      </trkpt>
      <trkpt lat="48.56006" lon="1.96013">
        <ele>163.8</ele>
        <time>2021-06-03T12:18:19Z</time>
      </trkpt>
      <trkpt lat="48.56008" lon="1.96023">
        <ele>163.6</ele>
        <time>2021-06-03T12:18:21Z</time>
      </trkpt>
      <trkpt lat="48.5601" lon="1.96035">
        <ele>163.5</ele>
        <time>2021-06-03T12:18:23Z</time>
      </trkpt>
      <trkpt lat="48.56011" lon="1.9605">
        <ele>163.3</ele>
        <time>2021-06-03T12:18:25Z</time>
      </trkpt>
      <trkpt lat="48.56012" lon="1.96063">
        <ele>163.1</ele>
        <time>2021-06-03T12:18:27Z</time>
      </trkpt>
      <trkpt lat="48.56014" lon="1.96076">
        <ele>162.9</ele>
        <time>2021-06-03T12:18:29Z</time>
      </trkpt>
      <trkpt lat="48.56016" lon="1.96089">
        <ele>162.9</ele>
        <time>2021-06-03T12:18:31Z</time>
      </trkpt>
      <trkpt lat="48.56018" lon="1.96102">
        <ele>163</ele>
        <time>2021-06-03T12:18:33Z</time>
      </trkpt>
      <trkpt lat="48.56021" lon="1.96116">
        <ele>163</ele>
        <time>2021-06-03T12:18:35Z</time>
      </trkpt>
      <trkpt lat="48.56025" lon="1.96128">
        <ele>163.1</ele>
        <time>2021-06-03T12:18:37Z</time>
      </trkpt>
      <trkpt lat="48.56028" lon="1.96141">
        <ele>163.1</ele>
        <time>2021-06-03T12:18:39Z</time>
      </trkpt>
      <trkpt lat="48.56032" lon="1.96154">
        <ele>163.1</ele>
        <time>2021-06-03T12:18:41Z</time>
      </trkpt>
      <trkpt lat="48.56036" lon="1.96165">
        <ele>163.1</ele>
        <time>2021-06-03T12:18:43Z</time>
      </trkpt>
      <trkpt lat="48.56038" lon="1.9618">
        <ele>163.3</ele>
        <time>2021-06-03T12:18:45Z</time>
      </trkpt>
      <trkpt lat="48.56042" lon="1.96193">
        <ele>163.5</ele>
        <time>2021-06-03T12:18:47Z</time>
      </trkpt>
      <trkpt lat="48.56046" lon="1.96209">
        <ele>163.6</ele>
        <time>2021-06-03T12:18:49Z</time>
      </trkpt>
      <trkpt lat="48.56049" lon="1.96224">
        <ele>163.8</ele>
        <time>2021-06-03T12:18:51Z</time>
      </trkpt>
      <trkpt lat="48.5605" lon="1.96242">
        <ele>164.1</ele>
        <time>2021-06-03T12:18:53Z</time>
      </trkpt>
      <trkpt lat="48.56052" lon="1.96258">
        <ele>164.1</ele>
        <time>2021-06-03T12:18:55Z</time>
      </trkpt>
      <trkpt lat="48.56053" lon="1.96276">
        <ele>164.2</ele>
        <time>2021-06-03T12:18:57Z</time>
      </trkpt>
      <trkpt lat="48.56057" lon="1.96291">
        <ele>164.1</ele>
        <time>2021-06-03T12:18:59Z</time>
      </trkpt>
      <trkpt lat="48.56057" lon="1.96308">
        <ele>164.2</ele>
        <time>2021-06-03T12:19:01Z</time>
      </trkpt>
      <trkpt lat="48.56058" lon="1.96325">
        <ele>164.3</ele>
        <time>2021-06-03T12:19:03Z</time>
      </trkpt>
      <trkpt lat="48.56059" lon="1.96342">
        <ele>164.2</ele>
        <time>2021-06-03T12:19:05Z</time>
      </trkpt>
      <trkpt lat="48.5606" lon="1.9636">
        <ele>163.9</ele>
        <time>2021-06-03T12:19:07Z</time>
      </trkpt>
      <trkpt lat="48.56064" lon="1.96376">
        <ele>163.6</ele>
        <time>2021-06-03T12:19:09Z</time>
      </trkpt>
      <trkpt lat="48.56066" lon="1.96392">
        <ele>163.4</ele>
        <time>2021-06-03T12:19:11Z</time>
      </trkpt>
      <trkpt lat="48.56067" lon="1.9641">
        <ele>163.1</ele>
        <time>2021-06-03T12:19:13Z</time>
      </trkpt>
      <trkpt lat="48.56069" lon="1.96428">
        <ele>162.9</ele>
        <time>2021-06-03T12:19:15Z</time>
      </trkpt>
      <trkpt lat="48.56069" lon="1.96445">
        <ele>162.7</ele>
        <time>2021-06-03T12:19:17Z</time>
      </trkpt>
      <trkpt lat="48.56069" lon="1.96463">
        <ele>162.4</ele>
        <time>2021-06-03T12:19:19Z</time>
      </trkpt>
      <trkpt lat="48.56069" lon="1.96479">
        <ele>162.2</ele>
        <time>2021-06-03T12:19:21Z</time>
      </trkpt>
      <trkpt lat="48.56067" lon="1.96496">
        <ele>162</ele>
        <time>2021-06-03T12:19:23Z</time>
      </trkpt>
      <trkpt lat="48.56064" lon="1.96514">
        <ele>161.8</ele>
        <time>2021-06-03T12:19:25Z</time>
      </trkpt>
      <trkpt lat="48.56061" lon="1.96532">
        <ele>161.5</ele>
        <time>2021-06-03T12:19:27Z</time>
      </trkpt>
      <trkpt lat="48.56059" lon="1.9655">
        <ele>161.3</ele>
        <time>2021-06-03T12:19:29Z</time>
      </trkpt>
      <trkpt lat="48.56057" lon="1.96566">
        <ele>161.2</ele>
        <time>2021-06-03T12:19:31Z</time>
      </trkpt>
      <trkpt lat="48.56056" lon="1.96582">
        <ele>161</ele>
        <time>2021-06-03T12:19:33Z</time>
      </trkpt>
      <trkpt lat="48.56056" lon="1.96595">
        <ele>161</ele>
        <time>2021-06-03T12:19:35Z</time>
      </trkpt>
      <trkpt lat="48.56053" lon="1.96606">
        <ele>161.2</ele>
        <time>2021-06-03T12:19:37Z</time>
      </trkpt>
      <trkpt lat="48.56054" lon="1.96618">
        <ele>161.2</ele>
        <time>2021-06-03T12:19:39Z</time>
      </trkpt>
      <trkpt lat="48.56053" lon="1.96628">
        <ele>161.3</ele>
        <time>2021-06-03T12:19:41Z</time>
      </trkpt>
      <trkpt lat="48.5605" lon="1.96641">
        <ele>161.5</ele>
        <time>2021-06-03T12:19:43Z</time>
      </trkpt>
      <trkpt lat="48.56049" lon="1.96654">
        <ele>161.6</ele>
        <time>2021-06-03T12:19:45Z</time>
      </trkpt>
      <trkpt lat="48.56046" lon="1.96669">
        <ele>161.8</ele>
        <time>2021-06-03T12:19:47Z</time>
      </trkpt>
      <trkpt lat="48.56042" lon="1.96684">
        <ele>162</ele>
        <time>2021-06-03T12:19:49Z</time>
      </trkpt>
      <trkpt lat="48.56041" lon="1.967">
        <ele>162</ele>
        <time>2021-06-03T12:19:51Z</time>
      </trkpt>
      <trkpt lat="48.56039" lon="1.96713">
        <ele>162.1</ele>
        <time>2021-06-03T12:19:53Z</time>
      </trkpt>
      <trkpt lat="48.56038" lon="1.96726">
        <ele>162.1</ele>
        <time>2021-06-03T12:19:55Z</time>
      </trkpt>
      <trkpt lat="48.56035" lon="1.9674">
        <ele>162.2</ele>
        <time>2021-06-03T12:19:57Z</time>
      </trkpt>
      <trkpt lat="48.56033" lon="1.96757">
        <ele>162.2</ele>
        <time>2021-06-03T12:19:59Z</time>
      </trkpt>
      <trkpt lat="48.56031" lon="1.96772">
        <ele>162.1</ele>
        <time>2021-06-03T12:20:01Z</time>
      </trkpt>
      <trkpt lat="48.5603" lon="1.96786">
        <ele>162</ele>
        <time>2021-06-03T12:20:03Z</time>
      </trkpt>
      <trkpt lat="48.56029" lon="1.96801">
        <ele>161.9</ele>
        <time>2021-06-03T12:20:05Z</time>
      </trkpt>
      <trkpt lat="48.56026" lon="1.96817">
        <ele>161.8</ele>
        <time>2021-06-03T12:20:07Z</time>
      </trkpt>
      <trkpt lat="48.56021" lon="1.96831">
        <ele>161.8</ele>
        <time>2021-06-03T12:20:09Z</time>
      </trkpt>
      <trkpt lat="48.56016" lon="1.96847">
        <ele>161.8</ele>
        <time>2021-06-03T12:20:11Z</time>
      </trkpt>
      <trkpt lat="48.5601" lon="1.96863">
        <ele>161.9</ele>
        <time>2021-06-03T12:20:13Z</time>
      </trkpt>
      <trkpt lat="48.56005" lon="1.96877">
        <ele>162</ele>
        <time>2021-06-03T12:20:15Z</time>
      </trkpt>
      <trkpt lat="48.56" lon="1.96892">
        <ele>162</ele>
        <time>2021-06-03T12:20:17Z</time>
      </trkpt>
      <trkpt lat="48.55995" lon="1.96908">
        <ele>162.1</ele>
        <time>2021-06-03T12:20:19Z</time>
      </trkpt>
      <trkpt lat="48.55989" lon="1.96924">
        <ele>162.2</ele>
        <time>2021-06-03T12:20:21Z</time>
      </trkpt>
      <trkpt lat="48.55982" lon="1.96939">
        <ele>162.4</ele>
        <time>2021-06-03T12:20:23Z</time>
      </trkpt>
      <trkpt lat="48.55977" lon="1.96954">
        <ele>162.5</ele>
        <time>2021-06-03T12:20:25Z</time>
      </trkpt>
      <trkpt lat="48.55972" lon="1.9697">
        <ele>162.5</ele>
        <time>2021-06-03T12:20:27Z</time>
      </trkpt>
      <trkpt lat="48.55967" lon="1.96984">
        <ele>162.6</ele>
        <time>2021-06-03T12:20:29Z</time>
      </trkpt>
      <trkpt lat="48.55958" lon="1.96997">
        <ele>162.5</ele>
        <time>2021-06-03T12:20:31Z</time>
      </trkpt>
      <trkpt lat="48.55949" lon="1.97008">
        <ele>162.3</ele>
        <time>2021-06-03T12:20:33Z</time>
      </trkpt>
      <trkpt lat="48.55941" lon="1.9702">
        <ele>162.1</ele>
        <time>2021-06-03T12:20:35Z</time>
      </trkpt>
      <trkpt lat="48.55933" lon="1.97031">
        <ele>161.9</ele>
        <time>2021-06-03T12:20:37Z</time>
      </trkpt>
      <trkpt lat="48.55923" lon="1.97042">
        <ele>161.6</ele>
        <time>2021-06-03T12:20:39Z</time>
      </trkpt>
      <trkpt lat="48.55918" lon="1.97058">
        <ele>161.3</ele>
        <time>2021-06-03T12:20:41Z</time>
      </trkpt>
      <trkpt lat="48.55914" lon="1.97072">
        <ele>161.1</ele>
        <time>2021-06-03T12:20:43Z</time>
      </trkpt>
      <trkpt lat="48.55913" lon="1.97089">
        <ele>161</ele>
        <time>2021-06-03T12:20:45Z</time>
      </trkpt>
      <trkpt lat="48.55911" lon="1.97104">
        <ele>161</ele>
        <time>2021-06-03T12:20:47Z</time>
      </trkpt>
      <trkpt lat="48.55911" lon="1.97123">
        <ele>161.1</ele>
        <time>2021-06-03T12:20:49Z</time>
      </trkpt>
      <trkpt lat="48.55906" lon="1.97139">
        <ele>161.2</ele>
        <time>2021-06-03T12:20:51Z</time>
      </trkpt>
      <trkpt lat="48.55904" lon="1.97156">
        <ele>161.3</ele>
        <time>2021-06-03T12:20:53Z</time>
      </trkpt>
      <trkpt lat="48.55899" lon="1.97171">
        <ele>161.4</ele>
        <time>2021-06-03T12:20:55Z</time>
      </trkpt>
      <trkpt lat="48.55892" lon="1.97182">
        <ele>161.5</ele>
        <time>2021-06-03T12:20:57Z</time>
      </trkpt>
      <trkpt lat="48.55883" lon="1.97191">
        <ele>161.6</ele>
        <time>2021-06-03T12:20:59Z</time>
      </trkpt>
      <trkpt lat="48.55873" lon="1.97203">
        <ele>161.9</ele>
        <time>2021-06-03T12:21:01Z</time>
      </trkpt>
      <trkpt lat="48.55863" lon="1.97215">
        <ele>162.1</ele>
        <time>2021-06-03T12:21:03Z</time>
      </trkpt>
      <trkpt lat="48.55852" lon="1.97228">
        <ele>162.4</ele>
        <time>2021-06-03T12:21:05Z</time>
      </trkpt>
      <trkpt lat="48.55843" lon="1.97241">
        <ele>162.7</ele>
        <time>2021-06-03T12:21:07Z</time>
      </trkpt>
      <trkpt lat="48.55832" lon="1.97255">
        <ele>162.9</ele>
        <time>2021-06-03T12:21:09Z</time>
      </trkpt>
      <trkpt lat="48.55822" lon="1.97268">
        <ele>162.7</ele>
        <time>2021-06-03T12:21:11Z</time>
      </trkpt>
      <trkpt lat="48.55812" lon="1.97277">
        <ele>162.7</ele>
        <time>2021-06-03T12:21:13Z</time>
      </trkpt>
      <trkpt lat="48.55804" lon="1.97284">
        <ele>162.7</ele>
        <time>2021-06-03T12:21:15Z</time>
      </trkpt>
      <trkpt lat="48.55795" lon="1.97291">
        <ele>162.7</ele>
        <time>2021-06-03T12:21:17Z</time>
      </trkpt>
      <trkpt lat="48.55789" lon="1.97299">
        <ele>162.7</ele>
        <time>2021-06-03T12:21:19Z</time>
      </trkpt>
      <trkpt lat="48.55782" lon="1.9731">
        <ele>162.6</ele>
        <time>2021-06-03T12:21:21Z</time>
      </trkpt>
      <trkpt lat="48.55775" lon="1.97319">
        <ele>162.6</ele>
        <time>2021-06-03T12:21:23Z</time>
      </trkpt>
      <trkpt lat="48.55766" lon="1.97328">
        <ele>162.7</ele>
        <time>2021-06-03T12:21:25Z</time>
      </trkpt>
      <trkpt lat="48.55759" lon="1.97339">
        <ele>162.6</ele>
        <time>2021-06-03T12:21:27Z</time>
      </trkpt>
      <trkpt lat="48.55752" lon="1.97351">
        <ele>162.5</ele>
        <time>2021-06-03T12:21:29Z</time>
      </trkpt>
      <trkpt lat="48.55744" lon="1.97361">
        <ele>162.6</ele>
        <time>2021-06-03T12:21:31Z</time>
      </trkpt>
      <trkpt lat="48.55736" lon="1.97367">
        <ele>162.7</ele>
        <time>2021-06-03T12:21:33Z</time>
      </trkpt>
      <trkpt lat="48.55729" lon="1.97374">
        <ele>162.8</ele>
        <time>2021-06-03T12:21:35Z</time>
      </trkpt>
      <trkpt lat="48.55721" lon="1.97376">
        <ele>163</ele>
        <time>2021-06-03T12:21:37Z</time>
      </trkpt>
      <trkpt lat="48.5571" lon="1.9738">
        <ele>163.3</ele>
        <time>2021-06-03T12:21:39Z</time>
      </trkpt>
      <trkpt lat="48.55699" lon="1.97384">
        <ele>163.6</ele>
        <time>2021-06-03T12:21:41Z</time>
      </trkpt>
      <trkpt lat="48.55689" lon="1.9739">
        <ele>163.9</ele>
        <time>2021-06-03T12:21:43Z</time>
      </trkpt>
      <trkpt lat="48.55679" lon="1.97401">
        <ele>163.9</ele>
        <time>2021-06-03T12:21:45Z</time>
      </trkpt>
      <trkpt lat="48.55669" lon="1.97413">
        <ele>164</ele>
        <time>2021-06-03T12:21:47Z</time>
      </trkpt>
      <trkpt lat="48.55658" lon="1.97426">
        <ele>163.8</ele>
        <time>2021-06-03T12:21:49Z</time>
      </trkpt>
      <trkpt lat="48.55647" lon="1.97436">
        <ele>163.7</ele>
        <time>2021-06-03T12:21:51Z</time>
      </trkpt>
      <trkpt lat="48.55637" lon="1.97447">
        <ele>163.7</ele>
        <time>2021-06-03T12:21:53Z</time>
      </trkpt>
      <trkpt lat="48.55628" lon="1.97459">
        <ele>163.6</ele>
        <time>2021-06-03T12:21:55Z</time>
      </trkpt>
      <trkpt lat="48.55619" lon="1.97472">
        <ele>163.7</ele>
        <time>2021-06-03T12:21:57Z</time>
      </trkpt>
      <trkpt lat="48.55612" lon="1.97485">
        <ele>163.8</ele>
        <time>2021-06-03T12:21:59Z</time>
      </trkpt>
      <trkpt lat="48.55605" lon="1.97499">
        <ele>164</ele>
        <time>2021-06-03T12:22:01Z</time>
      </trkpt>
      <trkpt lat="48.55595" lon="1.97514">
        <ele>163.8</ele>
        <time>2021-06-03T12:22:03Z</time>
      </trkpt>
      <trkpt lat="48.55586" lon="1.97527">
        <ele>163.6</ele>
        <time>2021-06-03T12:22:05Z</time>
      </trkpt>
      <trkpt lat="48.55578" lon="1.97538">
        <ele>163.2</ele>
        <time>2021-06-03T12:22:07Z</time>
      </trkpt>
      <trkpt lat="48.5557" lon="1.9755">
        <ele>162.8</ele>
        <time>2021-06-03T12:22:09Z</time>
      </trkpt>
      <trkpt lat="48.55565" lon="1.97563">
        <ele>162.3</ele>
        <time>2021-06-03T12:22:11Z</time>
      </trkpt>
      <trkpt lat="48.55558" lon="1.9757">
        <ele>162.2</ele>
        <time>2021-06-03T12:22:13Z</time>
      </trkpt>
      <trkpt lat="48.5555" lon="1.97579">
        <ele>162</ele>
        <time>2021-06-03T12:22:15Z</time>
      </trkpt>
      <trkpt lat="48.55541" lon="1.97588">
        <ele>161.9</ele>
        <time>2021-06-03T12:22:17Z</time>
      </trkpt>
      <trkpt lat="48.55532" lon="1.97599">
        <ele>161.9</ele>
        <time>2021-06-03T12:22:19Z</time>
      </trkpt>
      <trkpt lat="48.55525" lon="1.97607">
        <ele>161.9</ele>
        <time>2021-06-03T12:22:21Z</time>
      </trkpt>
      <trkpt lat="48.55518" lon="1.97616">
        <ele>161.9</ele>
        <time>2021-06-03T12:22:23Z</time>
      </trkpt>
      <trkpt lat="48.55511" lon="1.97629">
        <ele>161.7</ele>
        <time>2021-06-03T12:22:25Z</time>
      </trkpt>
      <trkpt lat="48.55503" lon="1.97638">
        <ele>161.6</ele>
        <time>2021-06-03T12:22:27Z</time>
      </trkpt>
      <trkpt lat="48.55496" lon="1.9765">
        <ele>161.5</ele>
        <time>2021-06-03T12:22:29Z</time>
      </trkpt>
      <trkpt lat="48.55489" lon="1.97661">
        <ele>161.5</ele>
        <time>2021-06-03T12:22:31Z</time>
      </trkpt>
      <trkpt lat="48.55482" lon="1.97673">
        <ele>161.6</ele>
        <time>2021-06-03T12:22:33Z</time>
      </trkpt>
      <trkpt lat="48.55475" lon="1.97683">
        <ele>161.7</ele>
        <time>2021-06-03T12:22:35Z</time>
      </trkpt>
      <trkpt lat="48.55468" lon="1.97697">
        <ele>161.8</ele>
        <time>2021-06-03T12:22:37Z</time>
      </trkpt>
      <trkpt lat="48.55461" lon="1.9771">
        <ele>161.9</ele>
        <time>2021-06-03T12:22:39Z</time>
      </trkpt>
      <trkpt lat="48.55453" lon="1.97718">
        <ele>162.1</ele>
        <time>2021-06-03T12:22:41Z</time>
      </trkpt>
      <trkpt lat="48.55446" lon="1.97731">
        <ele>162.2</ele>
        <time>2021-06-03T12:22:43Z</time>
      </trkpt>
      <trkpt lat="48.55437" lon="1.97741">
        <ele>162.4</ele>
        <time>2021-06-03T12:22:45Z</time>
      </trkpt>
      <trkpt lat="48.5543" lon="1.97754">
        <ele>162.6</ele>
        <time>2021-06-03T12:22:47Z</time>
      </trkpt>
      <trkpt lat="48.55423" lon="1.97763">
        <ele>162.9</ele>
        <time>2021-06-03T12:22:49Z</time>
      </trkpt>
      <trkpt lat="48.55416" lon="1.97774">
        <ele>163.3</ele>
        <time>2021-06-03T12:22:51Z</time>
      </trkpt>
      <trkpt lat="48.5541" lon="1.97785">
        <ele>163.7</ele>
        <time>2021-06-03T12:22:53Z</time>
      </trkpt>
      <trkpt lat="48.55404" lon="1.97795">
        <ele>164.1</ele>
        <time>2021-06-03T12:22:55Z</time>
      </trkpt>
      <trkpt lat="48.55398" lon="1.97805">
        <ele>164.4</ele>
        <time>2021-06-03T12:22:57Z</time>
      </trkpt>
      <trkpt lat="48.55392" lon="1.97816">
        <ele>164.7</ele>
        <time>2021-06-03T12:22:59Z</time>
      </trkpt>
      <trkpt lat="48.55386" lon="1.97826">
        <ele>165</ele>
        <time>2021-06-03T12:23:01Z</time>
      </trkpt>
      <trkpt lat="48.5538" lon="1.97837">
        <ele>165.2</ele>
        <time>2021-06-03T12:23:03Z</time>
      </trkpt>
      <trkpt lat="48.55379" lon="1.97853">
        <ele>164.8</ele>
        <time>2021-06-03T12:23:05Z</time>
      </trkpt>
      <trkpt lat="48.55382" lon="1.97864">
        <ele>164.4</ele>
        <time>2021-06-03T12:23:07Z</time>
      </trkpt>
      <trkpt lat="48.5538" lon="1.97873">
        <ele>164.2</ele>
        <time>2021-06-03T12:23:11Z</time>
      </trkpt>
      <trkpt lat="48.55372" lon="1.97877">
        <ele>164.3</ele>
        <time>2021-06-03T12:23:15Z</time>
      </trkpt>
      <trkpt lat="48.55369" lon="1.97885">
        <ele>164.1</ele>
        <time>2021-06-03T12:23:17Z</time>
      </trkpt>
      <trkpt lat="48.55363" lon="1.97892">
        <ele>164.1</ele>
        <time>2021-06-03T12:23:19Z</time>
      </trkpt>
      <trkpt lat="48.55359" lon="1.97902">
        <ele>163.8</ele>
        <time>2021-06-03T12:23:21Z</time>
      </trkpt>
      <trkpt lat="48.55351" lon="1.97914">
        <ele>163.7</ele>
        <time>2021-06-03T12:23:23Z</time>
      </trkpt>
      <trkpt lat="48.55343" lon="1.97923">
        <ele>163.6</ele>
        <time>2021-06-03T12:23:25Z</time>
      </trkpt>
      <trkpt lat="48.55335" lon="1.97931">
        <ele>163.6</ele>
        <time>2021-06-03T12:23:27Z</time>
      </trkpt>
      <trkpt lat="48.55328" lon="1.97941">
        <ele>163.6</ele>
        <time>2021-06-03T12:23:29Z</time>
      </trkpt>
      <trkpt lat="48.5532" lon="1.9795">
        <ele>163.5</ele>
        <time>2021-06-03T12:23:31Z</time>
      </trkpt>
      <trkpt lat="48.55313" lon="1.9796">
        <ele>163.5</ele>
        <time>2021-06-03T12:23:33Z</time>
      </trkpt>
      <trkpt lat="48.55305" lon="1.97968">
        <ele>163.5</ele>
        <time>2021-06-03T12:23:35Z</time>
      </trkpt>
      <trkpt lat="48.55298" lon="1.97973">
        <ele>163.5</ele>
        <time>2021-06-03T12:23:37Z</time>
      </trkpt>
      <trkpt lat="48.55291" lon="1.97975">
        <ele>163.6</ele>
        <time>2021-06-03T12:23:39Z</time>
      </trkpt>
      <trkpt lat="48.55284" lon="1.97982">
        <ele>163.6</ele>
        <time>2021-06-03T12:23:41Z</time>
      </trkpt>
      <trkpt lat="48.55276" lon="1.9799">
        <ele>163.6</ele>
        <time>2021-06-03T12:23:43Z</time>
      </trkpt>
      <trkpt lat="48.55269" lon="1.97998">
        <ele>163.6</ele>
        <time>2021-06-03T12:23:45Z</time>
      </trkpt>
      <trkpt lat="48.55261" lon="1.98007">
        <ele>163.6</ele>
        <time>2021-06-03T12:23:47Z</time>
      </trkpt>
      <trkpt lat="48.55253" lon="1.9801">
        <ele>163.7</ele>
        <time>2021-06-03T12:23:49Z</time>
      </trkpt>
      <trkpt lat="48.55245" lon="1.98014">
        <ele>163.8</ele>
        <time>2021-06-03T12:23:51Z</time>
      </trkpt>
      <trkpt lat="48.55238" lon="1.98021">
        <ele>163.9</ele>
        <time>2021-06-03T12:23:53Z</time>
      </trkpt>
      <trkpt lat="48.55232" lon="1.98027">
        <ele>163.9</ele>
        <time>2021-06-03T12:23:55Z</time>
      </trkpt>
      <trkpt lat="48.55227" lon="1.98032">
        <ele>163.9</ele>
        <time>2021-06-03T12:23:57Z</time>
      </trkpt>
      <trkpt lat="48.55224" lon="1.98038">
        <ele>163.9</ele>
        <time>2021-06-03T12:24:05Z</time>
      </trkpt>
      <trkpt lat="48.55222" lon="1.98044">
        <ele>163.8</ele>
        <time>2021-06-03T12:24:15Z</time>
      </trkpt>
      <trkpt lat="48.55217" lon="1.98051">
        <ele>163.7</ele>
        <time>2021-06-03T12:24:25Z</time>
      </trkpt>
      <trkpt lat="48.55212" lon="1.98053">
        <ele>163.8</ele>
        <time>2021-06-03T12:24:29Z</time>
      </trkpt>
      <trkpt lat="48.55209" lon="1.9806">
        <ele>163.7</ele>
        <time>2021-06-03T12:24:53Z</time>
      </trkpt>
      <trkpt lat="48.55204" lon="1.98065">
        <ele>163.7</ele>
        <time>2021-06-03T12:24:55Z</time>
      </trkpt>
      <trkpt lat="48.55198" lon="1.98071">
        <ele>163.6</ele>
        <time>2021-06-03T12:24:57Z</time>
      </trkpt>
      <trkpt lat="48.55192" lon="1.98079">
        <ele>163.5</ele>
        <time>2021-06-03T12:24:59Z</time>
      </trkpt>
      <trkpt lat="48.55185" lon="1.98087">
        <ele>163.6</ele>
        <time>2021-06-03T12:25:01Z</time>
      </trkpt>
      <trkpt lat="48.5518" lon="1.98096">
        <ele>163.8</ele>
        <time>2021-06-03T12:25:03Z</time>
      </trkpt>
      <trkpt lat="48.55173" lon="1.98106">
        <ele>164.1</ele>
        <time>2021-06-03T12:25:05Z</time>
      </trkpt>
      <trkpt lat="48.55166" lon="1.98116">
        <ele>164.4</ele>
        <time>2021-06-03T12:25:07Z</time>
      </trkpt>
      <trkpt lat="48.55157" lon="1.98123">
        <ele>164.9</ele>
        <time>2021-06-03T12:25:09Z</time>
      </trkpt>
      <trkpt lat="48.55153" lon="1.98134">
        <ele>165.2</ele>
        <time>2021-06-03T12:25:11Z</time>
      </trkpt>
      <trkpt lat="48.55149" lon="1.98143">
        <ele>165.5</ele>
        <time>2021-06-03T12:25:13Z</time>
      </trkpt>
      <trkpt lat="48.55146" lon="1.98148">
        <ele>165.6</ele>
        <time>2021-06-03T12:25:15Z</time>
      </trkpt>
      <trkpt lat="48.55144" lon="1.98155">
        <ele>165.8</ele>
        <time>2021-06-03T12:25:17Z</time>
      </trkpt>
      <trkpt lat="48.55141" lon="1.98164">
        <ele>165.9</ele>
        <time>2021-06-03T12:25:19Z</time>
      </trkpt>
      <trkpt lat="48.55139" lon="1.98173">
        <ele>166.1</ele>
        <time>2021-06-03T12:25:21Z</time>
      </trkpt>
      <trkpt lat="48.55138" lon="1.98185">
        <ele>166.2</ele>
        <time>2021-06-03T12:25:23Z</time>
      </trkpt>
      <trkpt lat="48.55139" lon="1.98197">
        <ele>166.4</ele>
        <time>2021-06-03T12:25:25Z</time>
      </trkpt>
      <trkpt lat="48.55135" lon="1.98208">
        <ele>166.6</ele>
        <time>2021-06-03T12:25:27Z</time>
      </trkpt>
      <trkpt lat="48.55133" lon="1.98218">
        <ele>166.8</ele>
        <time>2021-06-03T12:25:29Z</time>
      </trkpt>
      <trkpt lat="48.55133" lon="1.98228">
        <ele>166.9</ele>
        <time>2021-06-03T12:25:31Z</time>
      </trkpt>
      <trkpt lat="48.55133" lon="1.98238">
        <ele>167.1</ele>
        <time>2021-06-03T12:25:35Z</time>
      </trkpt>
      <trkpt lat="48.55129" lon="1.98247">
        <ele>167.3</ele>
        <time>2021-06-03T12:25:37Z</time>
      </trkpt>
      <trkpt lat="48.55127" lon="1.98255">
        <ele>167.3</ele>
        <time>2021-06-03T12:25:39Z</time>
      </trkpt>
      <trkpt lat="48.55128" lon="1.98265">
        <ele>166.9</ele>
        <time>2021-06-03T12:25:41Z</time>
      </trkpt>
      <trkpt lat="48.55132" lon="1.98274">
        <ele>166.5</ele>
        <time>2021-06-03T12:25:43Z</time>
      </trkpt>
      <trkpt lat="48.55136" lon="1.98284">
        <ele>166.1</ele>
        <time>2021-06-03T12:25:45Z</time>
      </trkpt>
      <trkpt lat="48.55142" lon="1.98294">
        <ele>165.7</ele>
        <time>2021-06-03T12:25:47Z</time>
      </trkpt>
      <trkpt lat="48.55147" lon="1.98305">
        <ele>165.2</ele>
        <time>2021-06-03T12:25:49Z</time>
      </trkpt>
      <trkpt lat="48.55152" lon="1.98318">
        <ele>164.8</ele>
        <time>2021-06-03T12:25:51Z</time>
      </trkpt>
      <trkpt lat="48.55158" lon="1.98329">
        <ele>164.3</ele>
        <time>2021-06-03T12:25:53Z</time>
      </trkpt>
      <trkpt lat="48.55163" lon="1.98341">
        <ele>163.6</ele>
        <time>2021-06-03T12:25:55Z</time>
      </trkpt>
      <trkpt lat="48.55167" lon="1.98352">
        <ele>162.7</ele>
        <time>2021-06-03T12:25:57Z</time>
      </trkpt>
      <trkpt lat="48.55172" lon="1.98363">
        <ele>161.7</ele>
        <time>2021-06-03T12:25:59Z</time>
      </trkpt>
      <trkpt lat="48.55172" lon="1.98377">
        <ele>160.7</ele>
        <time>2021-06-03T12:26:01Z</time>
      </trkpt>
      <trkpt lat="48.55177" lon="1.9839">
        <ele>159.6</ele>
        <time>2021-06-03T12:26:03Z</time>
      </trkpt>
      <trkpt lat="48.55182" lon="1.98401">
        <ele>158.7</ele>
        <time>2021-06-03T12:26:05Z</time>
      </trkpt>
      <trkpt lat="48.55184" lon="1.98412">
        <ele>157.9</ele>
        <time>2021-06-03T12:26:07Z</time>
      </trkpt>
      <trkpt lat="48.55188" lon="1.98424">
        <ele>157.2</ele>
        <time>2021-06-03T12:26:09Z</time>
      </trkpt>
      <trkpt lat="48.55191" lon="1.98435">
        <ele>156.8</ele>
        <time>2021-06-03T12:26:11Z</time>
      </trkpt>
      <trkpt lat="48.55195" lon="1.98447">
        <ele>156.4</ele>
        <time>2021-06-03T12:26:13Z</time>
      </trkpt>
      <trkpt lat="48.55198" lon="1.98458">
        <ele>155.9</ele>
        <time>2021-06-03T12:26:15Z</time>
      </trkpt>
      <trkpt lat="48.55201" lon="1.98468">
        <ele>155.6</ele>
        <time>2021-06-03T12:26:17Z</time>
      </trkpt>
      <trkpt lat="48.55204" lon="1.98475">
        <ele>155.3</ele>
        <time>2021-06-03T12:26:19Z</time>
      </trkpt>
      <trkpt lat="48.55208" lon="1.98486">
        <ele>154.9</ele>
        <time>2021-06-03T12:26:21Z</time>
      </trkpt>
      <trkpt lat="48.55212" lon="1.98495">
        <ele>154.6</ele>
        <time>2021-06-03T12:26:23Z</time>
      </trkpt>
      <trkpt lat="48.55216" lon="1.98507">
        <ele>154.2</ele>
        <time>2021-06-03T12:26:25Z</time>
      </trkpt>
      <trkpt lat="48.55219" lon="1.98518">
        <ele>153.9</ele>
        <time>2021-06-03T12:26:27Z</time>
      </trkpt>
      <trkpt lat="48.55223" lon="1.98527">
        <ele>153.6</ele>
        <time>2021-06-03T12:26:29Z</time>
      </trkpt>
      <trkpt lat="48.55228" lon="1.98537">
        <ele>153.2</ele>
        <time>2021-06-03T12:26:31Z</time>
      </trkpt>
      <trkpt lat="48.55231" lon="1.9855">
        <ele>152.9</ele>
        <time>2021-06-03T12:26:33Z</time>
      </trkpt>
      <trkpt lat="48.55234" lon="1.98562">
        <ele>152.6</ele>
        <time>2021-06-03T12:26:35Z</time>
      </trkpt>
      <trkpt lat="48.55238" lon="1.98575">
        <ele>152.2</ele>
        <time>2021-06-03T12:26:37Z</time>
      </trkpt>
      <trkpt lat="48.55243" lon="1.98588">
        <ele>151.9</ele>
        <time>2021-06-03T12:26:39Z</time>
      </trkpt>
      <trkpt lat="48.55246" lon="1.98598">
        <ele>151.7</ele>
        <time>2021-06-03T12:26:41Z</time>
      </trkpt>
      <trkpt lat="48.55249" lon="1.98608">
        <ele>151.4</ele>
        <time>2021-06-03T12:26:43Z</time>
      </trkpt>
      <trkpt lat="48.55253" lon="1.98617">
        <ele>151.1</ele>
        <time>2021-06-03T12:26:45Z</time>
      </trkpt>
      <trkpt lat="48.55257" lon="1.98628">
        <ele>150.7</ele>
        <time>2021-06-03T12:26:47Z</time>
      </trkpt>
      <trkpt lat="48.55262" lon="1.9864">
        <ele>150.3</ele>
        <time>2021-06-03T12:26:49Z</time>
      </trkpt>
      <trkpt lat="48.55268" lon="1.98652">
        <ele>149.9</ele>
        <time>2021-06-03T12:26:51Z</time>
      </trkpt>
      <trkpt lat="48.55272" lon="1.98663">
        <ele>149.5</ele>
        <time>2021-06-03T12:26:53Z</time>
      </trkpt>
      <trkpt lat="48.55276" lon="1.98674">
        <ele>149.2</ele>
        <time>2021-06-03T12:26:55Z</time>
      </trkpt>
      <trkpt lat="48.5528" lon="1.98687">
        <ele>148.9</ele>
        <time>2021-06-03T12:26:57Z</time>
      </trkpt>
      <trkpt lat="48.55283" lon="1.98702">
        <ele>148.5</ele>
        <time>2021-06-03T12:26:59Z</time>
      </trkpt>
      <trkpt lat="48.55285" lon="1.98717">
        <ele>148.2</ele>
        <time>2021-06-03T12:27:01Z</time>
      </trkpt>
      <trkpt lat="48.55288" lon="1.98731">
        <ele>147.9</ele>
        <time>2021-06-03T12:27:03Z</time>
      </trkpt>
      <trkpt lat="48.5529" lon="1.98743">
        <ele>147.7</ele>
        <time>2021-06-03T12:27:05Z</time>
      </trkpt>
      <trkpt lat="48.55289" lon="1.98754">
        <ele>147.6</ele>
        <time>2021-06-03T12:27:07Z</time>
      </trkpt>
      <trkpt lat="48.55289" lon="1.98767">
        <ele>147.6</ele>
        <time>2021-06-03T12:27:09Z</time>
      </trkpt>
      <trkpt lat="48.55289" lon="1.98791">
        <ele>147.8</ele>
        <time>2021-06-03T12:27:13Z</time>
      </trkpt>
      <trkpt lat="48.55288" lon="1.98804">
        <ele>147.8</ele>
        <time>2021-06-03T12:27:15Z</time>
      </trkpt>
      <trkpt lat="48.55288" lon="1.98815">
        <ele>147.9</ele>
        <time>2021-06-03T12:27:17Z</time>
      </trkpt>
      <trkpt lat="48.55289" lon="1.98828">
        <ele>148</ele>
        <time>2021-06-03T12:27:19Z</time>
      </trkpt>
      <trkpt lat="48.55289" lon="1.9884">
        <ele>147.8</ele>
        <time>2021-06-03T12:27:21Z</time>
      </trkpt>
      <trkpt lat="48.55288" lon="1.98852">
        <ele>147.6</ele>
        <time>2021-06-03T12:27:23Z</time>
      </trkpt>
      <trkpt lat="48.55288" lon="1.98862">
        <ele>147.4</ele>
        <time>2021-06-03T12:27:25Z</time>
      </trkpt>
      <trkpt lat="48.55288" lon="1.98871">
        <ele>147.1</ele>
        <time>2021-06-03T12:27:27Z</time>
      </trkpt>
      <trkpt lat="48.55288" lon="1.9888">
        <ele>146.9</ele>
        <time>2021-06-03T12:27:29Z</time>
      </trkpt>
      <trkpt lat="48.55288" lon="1.98889">
        <ele>146.7</ele>
        <time>2021-06-03T12:27:31Z</time>
      </trkpt>
      <trkpt lat="48.55288" lon="1.98898">
        <ele>146.5</ele>
        <time>2021-06-03T12:27:33Z</time>
      </trkpt>
      <trkpt lat="48.55288" lon="1.98909">
        <ele>146.3</ele>
        <time>2021-06-03T12:27:35Z</time>
      </trkpt>
      <trkpt lat="48.55288" lon="1.9892">
        <ele>146.1</ele>
        <time>2021-06-03T12:27:37Z</time>
      </trkpt>
      <trkpt lat="48.55288" lon="1.98931">
        <ele>146</ele>
        <time>2021-06-03T12:27:39Z</time>
      </trkpt>
      <trkpt lat="48.55287" lon="1.98942">
        <ele>146</ele>
        <time>2021-06-03T12:27:41Z</time>
      </trkpt>
      <trkpt lat="48.55288" lon="1.98953">
        <ele>145.9</ele>
        <time>2021-06-03T12:27:43Z</time>
      </trkpt>
      <trkpt lat="48.55287" lon="1.98964">
        <ele>145.9</ele>
        <time>2021-06-03T12:27:45Z</time>
      </trkpt>
      <trkpt lat="48.55288" lon="1.98974">
        <ele>145.8</ele>
        <time>2021-06-03T12:27:47Z</time>
      </trkpt>
      <trkpt lat="48.55287" lon="1.98983">
        <ele>145.8</ele>
        <time>2021-06-03T12:27:49Z</time>
      </trkpt>
      <trkpt lat="48.55287" lon="1.98994">
        <ele>145.7</ele>
        <time>2021-06-03T12:27:51Z</time>
      </trkpt>
      <trkpt lat="48.55287" lon="1.99005">
        <ele>145.6</ele>
        <time>2021-06-03T12:27:53Z</time>
      </trkpt>
      <trkpt lat="48.55288" lon="1.99017">
        <ele>145.5</ele>
        <time>2021-06-03T12:27:55Z</time>
      </trkpt>
      <trkpt lat="48.55288" lon="1.99028">
        <ele>145.4</ele>
        <time>2021-06-03T12:27:57Z</time>
      </trkpt>
      <trkpt lat="48.55288" lon="1.9904">
        <ele>145.3</ele>
        <time>2021-06-03T12:27:59Z</time>
      </trkpt>
      <trkpt lat="48.55287" lon="1.99051">
        <ele>145.3</ele>
        <time>2021-06-03T12:28:01Z</time>
      </trkpt>
      <trkpt lat="48.55286" lon="1.99063">
        <ele>145.2</ele>
        <time>2021-06-03T12:28:03Z</time>
      </trkpt>
      <trkpt lat="48.55286" lon="1.99074">
        <ele>145.1</ele>
        <time>2021-06-03T12:28:05Z</time>
      </trkpt>
      <trkpt lat="48.55287" lon="1.99086">
        <ele>145</ele>
        <time>2021-06-03T12:28:07Z</time>
      </trkpt>
      <trkpt lat="48.55286" lon="1.99098">
        <ele>144.8</ele>
        <time>2021-06-03T12:28:09Z</time>
      </trkpt>
      <trkpt lat="48.55286" lon="1.99112">
        <ele>144.6</ele>
        <time>2021-06-03T12:28:11Z</time>
      </trkpt>
      <trkpt lat="48.55286" lon="1.99127">
        <ele>144.4</ele>
        <time>2021-06-03T12:28:13Z</time>
      </trkpt>
      <trkpt lat="48.55286" lon="1.99143">
        <ele>144.2</ele>
        <time>2021-06-03T12:28:15Z</time>
      </trkpt>
      <trkpt lat="48.55285" lon="1.99159">
        <ele>143.9</ele>
        <time>2021-06-03T12:28:17Z</time>
      </trkpt>
      <trkpt lat="48.55285" lon="1.99176">
        <ele>143.7</ele>
        <time>2021-06-03T12:28:19Z</time>
      </trkpt>
      <trkpt lat="48.55285" lon="1.99192">
        <ele>143.4</ele>
        <time>2021-06-03T12:28:21Z</time>
      </trkpt>
      <trkpt lat="48.55287" lon="1.99208">
        <ele>143.2</ele>
        <time>2021-06-03T12:28:23Z</time>
      </trkpt>
      <trkpt lat="48.55289" lon="1.99224">
        <ele>142.9</ele>
        <time>2021-06-03T12:28:25Z</time>
      </trkpt>
      <trkpt lat="48.5529" lon="1.99239">
        <ele>142.7</ele>
        <time>2021-06-03T12:28:27Z</time>
      </trkpt>
      <trkpt lat="48.55292" lon="1.99255">
        <ele>142.3</ele>
        <time>2021-06-03T12:28:29Z</time>
      </trkpt>
      <trkpt lat="48.55295" lon="1.99273">
        <ele>141.4</ele>
        <time>2021-06-03T12:28:31Z</time>
      </trkpt>
      <trkpt lat="48.55297" lon="1.99291">
        <ele>140.6</ele>
        <time>2021-06-03T12:28:33Z</time>
      </trkpt>
      <trkpt lat="48.55301" lon="1.9931">
        <ele>139.7</ele>
        <time>2021-06-03T12:28:35Z</time>
      </trkpt>
      <trkpt lat="48.55305" lon="1.9933">
        <ele>138.8</ele>
        <time>2021-06-03T12:28:37Z</time>
      </trkpt>
      <trkpt lat="48.55308" lon="1.9935">
        <ele>138</ele>
        <time>2021-06-03T12:28:39Z</time>
      </trkpt>
      <trkpt lat="48.55312" lon="1.99372">
        <ele>137.1</ele>
        <time>2021-06-03T12:28:41Z</time>
      </trkpt>
      <trkpt lat="48.55317" lon="1.99394">
        <ele>136.3</ele>
        <time>2021-06-03T12:28:43Z</time>
      </trkpt>
      <trkpt lat="48.55323" lon="1.99416">
        <ele>135.7</ele>
        <time>2021-06-03T12:28:45Z</time>
      </trkpt>
      <trkpt lat="48.55328" lon="1.99437">
        <ele>134.6</ele>
        <time>2021-06-03T12:28:47Z</time>
      </trkpt>
      <trkpt lat="48.55332" lon="1.99458">
        <ele>133.5</ele>
        <time>2021-06-03T12:28:49Z</time>
      </trkpt>
      <trkpt lat="48.55333" lon="1.99479">
        <ele>132.2</ele>
        <time>2021-06-03T12:28:51Z</time>
      </trkpt>
      <trkpt lat="48.55333" lon="1.99501">
        <ele>131</ele>
        <time>2021-06-03T12:28:53Z</time>
      </trkpt>
      <trkpt lat="48.55331" lon="1.99524">
        <ele>130.1</ele>
        <time>2021-06-03T12:28:55Z</time>
      </trkpt>
      <trkpt lat="48.55329" lon="1.99548">
        <ele>129.3</ele>
        <time>2021-06-03T12:28:57Z</time>
      </trkpt>
      <trkpt lat="48.55328" lon="1.99572">
        <ele>128.5</ele>
        <time>2021-06-03T12:28:59Z</time>
      </trkpt>
      <trkpt lat="48.5533" lon="1.99597">
        <ele>128.3</ele>
        <time>2021-06-03T12:29:01Z</time>
      </trkpt>
      <trkpt lat="48.55333" lon="1.9962">
        <ele>128.4</ele>
        <time>2021-06-03T12:29:03Z</time>
      </trkpt>
      <trkpt lat="48.5534" lon="1.99639">
        <ele>128.4</ele>
        <time>2021-06-03T12:29:05Z</time>
      </trkpt>
      <trkpt lat="48.5535" lon="1.99658">
        <ele>128</ele>
        <time>2021-06-03T12:29:07Z</time>
      </trkpt>
      <trkpt lat="48.55359" lon="1.99673">
        <ele>127.7</ele>
        <time>2021-06-03T12:29:09Z</time>
      </trkpt>
      <trkpt lat="48.55368" lon="1.99689">
        <ele>127.5</ele>
        <time>2021-06-03T12:29:11Z</time>
      </trkpt>
      <trkpt lat="48.55377" lon="1.99703">
        <ele>127.2</ele>
        <time>2021-06-03T12:29:13Z</time>
      </trkpt>
      <trkpt lat="48.55381" lon="1.99715">
        <ele>127.1</ele>
        <time>2021-06-03T12:29:15Z</time>
      </trkpt>
      <trkpt lat="48.55384" lon="1.99726">
        <ele>127.1</ele>
        <time>2021-06-03T12:29:17Z</time>
      </trkpt>
      <trkpt lat="48.55387" lon="1.99737">
        <ele>126.9</ele>
        <time>2021-06-03T12:29:19Z</time>
      </trkpt>
      <trkpt lat="48.55394" lon="1.99749">
        <ele>126.5</ele>
        <time>2021-06-03T12:29:21Z</time>
      </trkpt>
      <trkpt lat="48.554" lon="1.99764">
        <ele>125.7</ele>
        <time>2021-06-03T12:29:23Z</time>
      </trkpt>
      <trkpt lat="48.55407" lon="1.9978">
        <ele>124.8</ele>
        <time>2021-06-03T12:29:25Z</time>
      </trkpt>
      <trkpt lat="48.55411" lon="1.99796">
        <ele>124.1</ele>
        <time>2021-06-03T12:29:27Z</time>
      </trkpt>
      <trkpt lat="48.55415" lon="1.99814">
        <ele>123.5</ele>
        <time>2021-06-03T12:29:29Z</time>
      </trkpt>
      <trkpt lat="48.55418" lon="1.99831">
        <ele>123</ele>
        <time>2021-06-03T12:29:31Z</time>
      </trkpt>
      <trkpt lat="48.55419" lon="1.99848">
        <ele>122.8</ele>
        <time>2021-06-03T12:29:33Z</time>
      </trkpt>
      <trkpt lat="48.55421" lon="1.99865">
        <ele>122.5</ele>
        <time>2021-06-03T12:29:35Z</time>
      </trkpt>
      <trkpt lat="48.55423" lon="1.99882">
        <ele>122.3</ele>
        <time>2021-06-03T12:29:37Z</time>
      </trkpt>
      <trkpt lat="48.55426" lon="1.99898">
        <ele>122.1</ele>
        <time>2021-06-03T12:29:39Z</time>
      </trkpt>
      <trkpt lat="48.55428" lon="1.99915">
        <ele>121.9</ele>
        <time>2021-06-03T12:29:41Z</time>
      </trkpt>
      <trkpt lat="48.5543" lon="1.9993">
        <ele>121.8</ele>
        <time>2021-06-03T12:29:43Z</time>
      </trkpt>
      <trkpt lat="48.55433" lon="1.99945">
        <ele>121.7</ele>
        <time>2021-06-03T12:29:45Z</time>
      </trkpt>
      <trkpt lat="48.55435" lon="1.99961">
        <ele>121.7</ele>
        <time>2021-06-03T12:29:47Z</time>
      </trkpt>
      <trkpt lat="48.55437" lon="1.99976">
        <ele>121.6</ele>
        <time>2021-06-03T12:29:49Z</time>
      </trkpt>
      <trkpt lat="48.55439" lon="1.9999">
        <ele>121.5</ele>
        <time>2021-06-03T12:29:51Z</time>
      </trkpt>
      <trkpt lat="48.55441" lon="2.00004">
        <ele>121.4</ele>
        <time>2021-06-03T12:29:53Z</time>
      </trkpt>
      <trkpt lat="48.55443" lon="2.00017">
        <ele>121.5</ele>
        <time>2021-06-03T12:29:55Z</time>
      </trkpt>
      <trkpt lat="48.55446" lon="2.0003">
        <ele>121.5</ele>
        <time>2021-06-03T12:29:57Z</time>
      </trkpt>
      <trkpt lat="48.55448" lon="2.00043">
        <ele>121.6</ele>
        <time>2021-06-03T12:29:59Z</time>
      </trkpt>
      <trkpt lat="48.55451" lon="2.00056">
        <ele>121.6</ele>
        <time>2021-06-03T12:30:01Z</time>
      </trkpt>
      <trkpt lat="48.55453" lon="2.00068">
        <ele>121.6</ele>
        <time>2021-06-03T12:30:03Z</time>
      </trkpt>
      <trkpt lat="48.55455" lon="2.00081">
        <ele>121.6</ele>
        <time>2021-06-03T12:30:05Z</time>
      </trkpt>
      <trkpt lat="48.55458" lon="2.00094">
        <ele>121.6</ele>
        <time>2021-06-03T12:30:07Z</time>
      </trkpt>
      <trkpt lat="48.55459" lon="2.00108">
        <ele>121.6</ele>
        <time>2021-06-03T12:30:09Z</time>
      </trkpt>
      <trkpt lat="48.5546" lon="2.00121">
        <ele>121.7</ele>
        <time>2021-06-03T12:30:11Z</time>
      </trkpt>
      <trkpt lat="48.55461" lon="2.00134">
        <ele>121.7</ele>
        <time>2021-06-03T12:30:13Z</time>
      </trkpt>
      <trkpt lat="48.55462" lon="2.00149">
        <ele>121.7</ele>
        <time>2021-06-03T12:30:15Z</time>
      </trkpt>
      <trkpt lat="48.55463" lon="2.00163">
        <ele>121.8</ele>
        <time>2021-06-03T12:30:17Z</time>
      </trkpt>
      <trkpt lat="48.55464" lon="2.00178">
        <ele>121.6</ele>
        <time>2021-06-03T12:30:19Z</time>
      </trkpt>
      <trkpt lat="48.55465" lon="2.00192">
        <ele>121.3</ele>
        <time>2021-06-03T12:30:21Z</time>
      </trkpt>
      <trkpt lat="48.55465" lon="2.00206">
        <ele>121</ele>
        <time>2021-06-03T12:30:23Z</time>
      </trkpt>
      <trkpt lat="48.55465" lon="2.0022">
        <ele>120.7</ele>
        <time>2021-06-03T12:30:25Z</time>
      </trkpt>
      <trkpt lat="48.55465" lon="2.00235">
        <ele>120.5</ele>
        <time>2021-06-03T12:30:27Z</time>
      </trkpt>
      <trkpt lat="48.55465" lon="2.0025">
        <ele>120.3</ele>
        <time>2021-06-03T12:30:29Z</time>
      </trkpt>
      <trkpt lat="48.55463" lon="2.00264">
        <ele>120.1</ele>
        <time>2021-06-03T12:30:31Z</time>
      </trkpt>
      <trkpt lat="48.55461" lon="2.00279">
        <ele>119.9</ele>
        <time>2021-06-03T12:30:33Z</time>
      </trkpt>
      <trkpt lat="48.55458" lon="2.00292">
        <ele>119.7</ele>
        <time>2021-06-03T12:30:35Z</time>
      </trkpt>
      <trkpt lat="48.55453" lon="2.00301">
        <ele>119.7</ele>
        <time>2021-06-03T12:30:37Z</time>
      </trkpt>
      <trkpt lat="48.55448" lon="2.00301">
        <ele>119.9</ele>
        <time>2021-06-03T12:30:39Z</time>
      </trkpt>
      <trkpt lat="48.55448" lon="2.00294">
        <ele>120</ele>
        <time>2021-06-03T12:33:37Z</time>
      </trkpt>
      <trkpt lat="48.55446" lon="2.00301">
        <ele>119.9</ele>
        <time>2021-06-03T12:42:19Z</time>
      </trkpt>
      <trkpt lat="48.55441" lon="2.00293">
        <ele>120.2</ele>
        <time>2021-06-03T12:42:51Z</time>
      </trkpt>
      <trkpt lat="48.55435" lon="2.0029">
        <ele>120.5</ele>
        <time>2021-06-03T12:42:55Z</time>
      </trkpt>
      <trkpt lat="48.55428" lon="2.00285">
        <ele>120.8</ele>
        <time>2021-06-03T12:42:59Z</time>
      </trkpt>
      <trkpt lat="48.55424" lon="2.00282">
        <ele>121</ele>
        <time>2021-06-03T12:43:01Z</time>
      </trkpt>
      <trkpt lat="48.55416" lon="2.00277">
        <ele>121.4</ele>
        <time>2021-06-03T12:43:05Z</time>
      </trkpt>
      <trkpt lat="48.55412" lon="2.00275">
        <ele>121.9</ele>
        <time>2021-06-03T12:43:07Z</time>
      </trkpt>
      <trkpt lat="48.55408" lon="2.00273">
        <ele>122.5</ele>
        <time>2021-06-03T12:43:09Z</time>
      </trkpt>
      <trkpt lat="48.55403" lon="2.0027">
        <ele>123.1</ele>
        <time>2021-06-03T12:43:11Z</time>
      </trkpt>
      <trkpt lat="48.55394" lon="2.00266">
        <ele>124.2</ele>
        <time>2021-06-03T12:43:15Z</time>
      </trkpt>
      <trkpt lat="48.55386" lon="2.00261">
        <ele>125.3</ele>
        <time>2021-06-03T12:43:19Z</time>
      </trkpt>
      <trkpt lat="48.55382" lon="2.00259">
        <ele>125.8</ele>
        <time>2021-06-03T12:43:21Z</time>
      </trkpt>
      <trkpt lat="48.55374" lon="2.00256">
        <ele>126.9</ele>
        <time>2021-06-03T12:43:25Z</time>
      </trkpt>
      <trkpt lat="48.55367" lon="2.00252">
        <ele>127.9</ele>
        <time>2021-06-03T12:43:29Z</time>
      </trkpt>
      <trkpt lat="48.5536" lon="2.00249">
        <ele>128.8</ele>
        <time>2021-06-03T12:43:33Z</time>
      </trkpt>
      <trkpt lat="48.55353" lon="2.00247">
        <ele>129.7</ele>
        <time>2021-06-03T12:43:37Z</time>
      </trkpt>
      <trkpt lat="48.55345" lon="2.00244">
        <ele>130.7</ele>
        <time>2021-06-03T12:43:41Z</time>
      </trkpt>
      <trkpt lat="48.55337" lon="2.00242">
        <ele>131.6</ele>
        <time>2021-06-03T12:43:45Z</time>
      </trkpt>
      <trkpt lat="48.55333" lon="2.00241">
        <ele>132.1</ele>
        <time>2021-06-03T12:43:47Z</time>
      </trkpt>
      <trkpt lat="48.55325" lon="2.0024">
        <ele>132.5</ele>
        <time>2021-06-03T12:43:51Z</time>
      </trkpt>
      <trkpt lat="48.55316" lon="2.00242">
        <ele>132.9</ele>
        <time>2021-06-03T12:43:55Z</time>
      </trkpt>
      <trkpt lat="48.55307" lon="2.0024">
        <ele>133.3</ele>
        <time>2021-06-03T12:43:59Z</time>
      </trkpt>
      <trkpt lat="48.55299" lon="2.0024">
        <ele>133.7</ele>
        <time>2021-06-03T12:44:03Z</time>
      </trkpt>
      <trkpt lat="48.55294" lon="2.00239">
        <ele>134</ele>
        <time>2021-06-03T12:44:05Z</time>
      </trkpt>
      <trkpt lat="48.55285" lon="2.00237">
        <ele>134.4</ele>
        <time>2021-06-03T12:44:09Z</time>
      </trkpt>
      <trkpt lat="48.55276" lon="2.00236">
        <ele>134.8</ele>
        <time>2021-06-03T12:44:13Z</time>
      </trkpt>
      <trkpt lat="48.55272" lon="2.00236">
        <ele>135</ele>
        <time>2021-06-03T12:44:15Z</time>
      </trkpt>
      <trkpt lat="48.55263" lon="2.00236">
        <ele>135.4</ele>
        <time>2021-06-03T12:44:19Z</time>
      </trkpt>
      <trkpt lat="48.55255" lon="2.00235">
        <ele>135.8</ele>
        <time>2021-06-03T12:44:23Z</time>
      </trkpt>
      <trkpt lat="48.5525" lon="2.00235">
        <ele>136</ele>
        <time>2021-06-03T12:44:25Z</time>
      </trkpt>
      <trkpt lat="48.55241" lon="2.00234">
        <ele>136.3</ele>
        <time>2021-06-03T12:44:29Z</time>
      </trkpt>
      <trkpt lat="48.55235" lon="2.00237">
        <ele>136.6</ele>
        <time>2021-06-03T12:44:33Z</time>
      </trkpt>
      <trkpt lat="48.5523" lon="2.00237">
        <ele>136.7</ele>
        <time>2021-06-03T12:44:35Z</time>
      </trkpt>
      <trkpt lat="48.55225" lon="2.00239">
        <ele>136.9</ele>
        <time>2021-06-03T12:44:37Z</time>
      </trkpt>
      <trkpt lat="48.55217" lon="2.00238">
        <ele>137.2</ele>
        <time>2021-06-03T12:44:41Z</time>
      </trkpt>
      <trkpt lat="48.55212" lon="2.00238">
        <ele>137.4</ele>
        <time>2021-06-03T12:44:43Z</time>
      </trkpt>
      <trkpt lat="48.55207" lon="2.00239">
        <ele>137.6</ele>
        <time>2021-06-03T12:44:45Z</time>
      </trkpt>
      <trkpt lat="48.55202" lon="2.00239">
        <ele>137.7</ele>
        <time>2021-06-03T12:44:47Z</time>
      </trkpt>
      <trkpt lat="48.55196" lon="2.0024">
        <ele>137.9</ele>
        <time>2021-06-03T12:44:49Z</time>
      </trkpt>
      <trkpt lat="48.55191" lon="2.0024">
        <ele>138.1</ele>
        <time>2021-06-03T12:44:51Z</time>
      </trkpt>
      <trkpt lat="48.55185" lon="2.0024">
        <ele>138.3</ele>
        <time>2021-06-03T12:44:53Z</time>
      </trkpt>
      <trkpt lat="48.5518" lon="2.00239">
        <ele>138.5</ele>
        <time>2021-06-03T12:44:55Z</time>
      </trkpt>
      <trkpt lat="48.55174" lon="2.0024">
        <ele>138.7</ele>
        <time>2021-06-03T12:44:57Z</time>
      </trkpt>
      <trkpt lat="48.55168" lon="2.00239">
        <ele>139</ele>
        <time>2021-06-03T12:44:59Z</time>
      </trkpt>
      <trkpt lat="48.55162" lon="2.00239">
        <ele>139</ele>
        <time>2021-06-03T12:45:01Z</time>
      </trkpt>
      <trkpt lat="48.55156" lon="2.00239">
        <ele>139</ele>
        <time>2021-06-03T12:45:03Z</time>
      </trkpt>
      <trkpt lat="48.55149" lon="2.00238">
        <ele>139.1</ele>
        <time>2021-06-03T12:45:05Z</time>
      </trkpt>
      <trkpt lat="48.55142" lon="2.00238">
        <ele>139.1</ele>
        <time>2021-06-03T12:45:07Z</time>
      </trkpt>
      <trkpt lat="48.55135" lon="2.00237">
        <ele>139.1</ele>
        <time>2021-06-03T12:45:09Z</time>
      </trkpt>
      <trkpt lat="48.55128" lon="2.00237">
        <ele>139.1</ele>
        <time>2021-06-03T12:45:11Z</time>
      </trkpt>
      <trkpt lat="48.55122" lon="2.00238">
        <ele>139.2</ele>
        <time>2021-06-03T12:45:13Z</time>
      </trkpt>
      <trkpt lat="48.55114" lon="2.00237">
        <ele>139.2</ele>
        <time>2021-06-03T12:45:15Z</time>
      </trkpt>
      <trkpt lat="48.55108" lon="2.00236">
        <ele>139.2</ele>
        <time>2021-06-03T12:45:17Z</time>
      </trkpt>
      <trkpt lat="48.55101" lon="2.00235">
        <ele>139.3</ele>
        <time>2021-06-03T12:45:19Z</time>
      </trkpt>
      <trkpt lat="48.55095" lon="2.00234">
        <ele>139.3</ele>
        <time>2021-06-03T12:45:21Z</time>
      </trkpt>
      <trkpt lat="48.55089" lon="2.00233">
        <ele>139.4</ele>
        <time>2021-06-03T12:45:23Z</time>
      </trkpt>
      <trkpt lat="48.55083" lon="2.00232">
        <ele>139.4</ele>
        <time>2021-06-03T12:45:25Z</time>
      </trkpt>
      <trkpt lat="48.55076" lon="2.00233">
        <ele>139.3</ele>
        <time>2021-06-03T12:45:27Z</time>
      </trkpt>
      <trkpt lat="48.55071" lon="2.00233">
        <ele>139.2</ele>
        <time>2021-06-03T12:45:29Z</time>
      </trkpt>
      <trkpt lat="48.55064" lon="2.00232">
        <ele>139.1</ele>
        <time>2021-06-03T12:45:31Z</time>
      </trkpt>
      <trkpt lat="48.55059" lon="2.00232">
        <ele>139</ele>
        <time>2021-06-03T12:45:33Z</time>
      </trkpt>
      <trkpt lat="48.55053" lon="2.00232">
        <ele>138.9</ele>
        <time>2021-06-03T12:45:35Z</time>
      </trkpt>
      <trkpt lat="48.55049" lon="2.00232">
        <ele>138.9</ele>
        <time>2021-06-03T12:45:37Z</time>
      </trkpt>
      <trkpt lat="48.55043" lon="2.00232">
        <ele>138.8</ele>
        <time>2021-06-03T12:45:39Z</time>
      </trkpt>
      <trkpt lat="48.55037" lon="2.00232">
        <ele>138.7</ele>
        <time>2021-06-03T12:45:41Z</time>
      </trkpt>
      <trkpt lat="48.55031" lon="2.00232">
        <ele>138.6</ele>
        <time>2021-06-03T12:45:43Z</time>
      </trkpt>
      <trkpt lat="48.55026" lon="2.00232">
        <ele>138.5</ele>
        <time>2021-06-03T12:45:45Z</time>
      </trkpt>
      <trkpt lat="48.5502" lon="2.00232">
        <ele>138.4</ele>
        <time>2021-06-03T12:45:47Z</time>
      </trkpt>
      <trkpt lat="48.55014" lon="2.00232">
        <ele>138.3</ele>
        <time>2021-06-03T12:45:49Z</time>
      </trkpt>
      <trkpt lat="48.55009" lon="2.00232">
        <ele>138.2</ele>
        <time>2021-06-03T12:45:51Z</time>
      </trkpt>
      <trkpt lat="48.55001" lon="2.00232">
        <ele>138.1</ele>
        <time>2021-06-03T12:45:55Z</time>
      </trkpt>
      <trkpt lat="48.54993" lon="2.00232">
        <ele>138.1</ele>
        <time>2021-06-03T12:45:59Z</time>
      </trkpt>
      <trkpt lat="48.54987" lon="2.00233">
        <ele>138.1</ele>
        <time>2021-06-03T12:46:01Z</time>
      </trkpt>
      <trkpt lat="48.5498" lon="2.00232">
        <ele>138.2</ele>
        <time>2021-06-03T12:46:03Z</time>
      </trkpt>
      <trkpt lat="48.54973" lon="2.00232">
        <ele>138.2</ele>
        <time>2021-06-03T12:46:05Z</time>
      </trkpt>
      <trkpt lat="48.54967" lon="2.00232">
        <ele>138.3</ele>
        <time>2021-06-03T12:46:07Z</time>
      </trkpt>
      <trkpt lat="48.5496" lon="2.0023">
        <ele>138.4</ele>
        <time>2021-06-03T12:46:09Z</time>
      </trkpt>
      <trkpt lat="48.54954" lon="2.00229">
        <ele>138.5</ele>
        <time>2021-06-03T12:46:11Z</time>
      </trkpt>
      <trkpt lat="48.54947" lon="2.00228">
        <ele>138.6</ele>
        <time>2021-06-03T12:46:13Z</time>
      </trkpt>
      <trkpt lat="48.54941" lon="2.00227">
        <ele>138.7</ele>
        <time>2021-06-03T12:46:15Z</time>
      </trkpt>
      <trkpt lat="48.54934" lon="2.00226">
        <ele>138.8</ele>
        <time>2021-06-03T12:46:17Z</time>
      </trkpt>
      <trkpt lat="48.54928" lon="2.00226">
        <ele>138.8</ele>
        <time>2021-06-03T12:46:19Z</time>
      </trkpt>
      <trkpt lat="48.54921" lon="2.00227">
        <ele>138.8</ele>
        <time>2021-06-03T12:46:21Z</time>
      </trkpt>
      <trkpt lat="48.54915" lon="2.00231">
        <ele>138.8</ele>
        <time>2021-06-03T12:46:23Z</time>
      </trkpt>
      <trkpt lat="48.54909" lon="2.00237">
        <ele>139</ele>
        <time>2021-06-03T12:46:25Z</time>
      </trkpt>
      <trkpt lat="48.54903" lon="2.00244">
        <ele>139.3</ele>
        <time>2021-06-03T12:46:27Z</time>
      </trkpt>
      <trkpt lat="48.54897" lon="2.0025">
        <ele>139.6</ele>
        <time>2021-06-03T12:46:29Z</time>
      </trkpt>
      <trkpt lat="48.5489" lon="2.00256">
        <ele>140.4</ele>
        <time>2021-06-03T12:46:31Z</time>
      </trkpt>
      <trkpt lat="48.54884" lon="2.00262">
        <ele>141.2</ele>
        <time>2021-06-03T12:46:33Z</time>
      </trkpt>
      <trkpt lat="48.54878" lon="2.00268">
        <ele>141.9</ele>
        <time>2021-06-03T12:46:35Z</time>
      </trkpt>
      <trkpt lat="48.54871" lon="2.00274">
        <ele>142.7</ele>
        <time>2021-06-03T12:46:37Z</time>
      </trkpt>
      <trkpt lat="48.54866" lon="2.00278">
        <ele>143.3</ele>
        <time>2021-06-03T12:46:39Z</time>
      </trkpt>
      <trkpt lat="48.5486" lon="2.00283">
        <ele>144</ele>
        <time>2021-06-03T12:46:41Z</time>
      </trkpt>
      <trkpt lat="48.54854" lon="2.00288">
        <ele>144.7</ele>
        <time>2021-06-03T12:46:43Z</time>
      </trkpt>
      <trkpt lat="48.54848" lon="2.00292">
        <ele>145.3</ele>
        <time>2021-06-03T12:46:45Z</time>
      </trkpt>
      <trkpt lat="48.54843" lon="2.00297">
        <ele>145.9</ele>
        <time>2021-06-03T12:46:47Z</time>
      </trkpt>
      <trkpt lat="48.54838" lon="2.00301">
        <ele>146.5</ele>
        <time>2021-06-03T12:46:49Z</time>
      </trkpt>
      <trkpt lat="48.54832" lon="2.00305">
        <ele>147</ele>
        <time>2021-06-03T12:46:51Z</time>
      </trkpt>
      <trkpt lat="48.54827" lon="2.00311">
        <ele>147.4</ele>
        <time>2021-06-03T12:46:53Z</time>
      </trkpt>
      <trkpt lat="48.54821" lon="2.00317">
        <ele>147.7</ele>
        <time>2021-06-03T12:46:55Z</time>
      </trkpt>
      <trkpt lat="48.54816" lon="2.00322">
        <ele>148.1</ele>
        <time>2021-06-03T12:46:57Z</time>
      </trkpt>
      <trkpt lat="48.5481" lon="2.00327">
        <ele>148.4</ele>
        <time>2021-06-03T12:46:59Z</time>
      </trkpt>
      <trkpt lat="48.54805" lon="2.00333">
        <ele>148.7</ele>
        <time>2021-06-03T12:47:01Z</time>
      </trkpt>
      <trkpt lat="48.54801" lon="2.00338">
        <ele>148.9</ele>
        <time>2021-06-03T12:47:03Z</time>
      </trkpt>
      <trkpt lat="48.54795" lon="2.00344">
        <ele>149.2</ele>
        <time>2021-06-03T12:47:05Z</time>
      </trkpt>
      <trkpt lat="48.5479" lon="2.00348">
        <ele>149.4</ele>
        <time>2021-06-03T12:47:07Z</time>
      </trkpt>
      <trkpt lat="48.54787" lon="2.00355">
        <ele>149.6</ele>
        <time>2021-06-03T12:47:09Z</time>
      </trkpt>
      <trkpt lat="48.54782" lon="2.00359">
        <ele>149.7</ele>
        <time>2021-06-03T12:47:11Z</time>
      </trkpt>
      <trkpt lat="48.54777" lon="2.00364">
        <ele>149.8</ele>
        <time>2021-06-03T12:47:13Z</time>
      </trkpt>
      <trkpt lat="48.54771" lon="2.00368">
        <ele>149.9</ele>
        <time>2021-06-03T12:47:15Z</time>
      </trkpt>
      <trkpt lat="48.54766" lon="2.00372">
        <ele>150</ele>
        <time>2021-06-03T12:47:17Z</time>
      </trkpt>
      <trkpt lat="48.54762" lon="2.00379">
        <ele>150</ele>
        <time>2021-06-03T12:47:19Z</time>
      </trkpt>
      <trkpt lat="48.54758" lon="2.00382">
        <ele>150</ele>
        <time>2021-06-03T12:47:21Z</time>
      </trkpt>
      <trkpt lat="48.54754" lon="2.00386">
        <ele>150</ele>
        <time>2021-06-03T12:47:23Z</time>
      </trkpt>
      <trkpt lat="48.54749" lon="2.0039">
        <ele>150</ele>
        <time>2021-06-03T12:47:25Z</time>
      </trkpt>
      <trkpt lat="48.54744" lon="2.00394">
        <ele>150.1</ele>
        <time>2021-06-03T12:47:27Z</time>
      </trkpt>
      <trkpt lat="48.54739" lon="2.004">
        <ele>150.2</ele>
        <time>2021-06-03T12:47:29Z</time>
      </trkpt>
      <trkpt lat="48.54734" lon="2.00403">
        <ele>150.2</ele>
        <time>2021-06-03T12:47:31Z</time>
      </trkpt>
      <trkpt lat="48.54729" lon="2.00408">
        <ele>150.3</ele>
        <time>2021-06-03T12:47:33Z</time>
      </trkpt>
      <trkpt lat="48.54723" lon="2.00413">
        <ele>150.3</ele>
        <time>2021-06-03T12:47:35Z</time>
      </trkpt>
      <trkpt lat="48.54718" lon="2.00417">
        <ele>150.4</ele>
        <time>2021-06-03T12:47:37Z</time>
      </trkpt>
      <trkpt lat="48.54713" lon="2.00422">
        <ele>150.4</ele>
        <time>2021-06-03T12:47:39Z</time>
      </trkpt>
      <trkpt lat="48.54709" lon="2.00427">
        <ele>150.5</ele>
        <time>2021-06-03T12:47:41Z</time>
      </trkpt>
      <trkpt lat="48.54704" lon="2.00433">
        <ele>150.6</ele>
        <time>2021-06-03T12:47:43Z</time>
      </trkpt>
      <trkpt lat="48.54698" lon="2.00438">
        <ele>150.6</ele>
        <time>2021-06-03T12:47:45Z</time>
      </trkpt>
      <trkpt lat="48.54693" lon="2.00443">
        <ele>150.7</ele>
        <time>2021-06-03T12:47:47Z</time>
      </trkpt>
      <trkpt lat="48.54688" lon="2.00446">
        <ele>150.7</ele>
        <time>2021-06-03T12:47:49Z</time>
      </trkpt>
      <trkpt lat="48.54682" lon="2.00451">
        <ele>150.8</ele>
        <time>2021-06-03T12:47:51Z</time>
      </trkpt>
      <trkpt lat="48.54677" lon="2.00455">
        <ele>150.9</ele>
        <time>2021-06-03T12:47:53Z</time>
      </trkpt>
      <trkpt lat="48.54671" lon="2.00461">
        <ele>150.9</ele>
        <time>2021-06-03T12:47:55Z</time>
      </trkpt>
      <trkpt lat="48.54664" lon="2.00466">
        <ele>151.1</ele>
        <time>2021-06-03T12:47:57Z</time>
      </trkpt>
      <trkpt lat="48.54658" lon="2.00472">
        <ele>151.3</ele>
        <time>2021-06-03T12:47:59Z</time>
      </trkpt>
      <trkpt lat="48.54651" lon="2.00477">
        <ele>151.4</ele>
        <time>2021-06-03T12:48:01Z</time>
      </trkpt>
      <trkpt lat="48.54646" lon="2.00485">
        <ele>151.5</ele>
        <time>2021-06-03T12:48:03Z</time>
      </trkpt>
      <trkpt lat="48.54639" lon="2.00491">
        <ele>151.7</ele>
        <time>2021-06-03T12:48:05Z</time>
      </trkpt>
      <trkpt lat="48.54632" lon="2.00497">
        <ele>151.8</ele>
        <time>2021-06-03T12:48:07Z</time>
      </trkpt>
      <trkpt lat="48.54626" lon="2.00503">
        <ele>152</ele>
        <time>2021-06-03T12:48:09Z</time>
      </trkpt>
      <trkpt lat="48.5462" lon="2.00508">
        <ele>152.1</ele>
        <time>2021-06-03T12:48:11Z</time>
      </trkpt>
      <trkpt lat="48.54614" lon="2.00513">
        <ele>152.3</ele>
        <time>2021-06-03T12:48:13Z</time>
      </trkpt>
      <trkpt lat="48.54609" lon="2.0052">
        <ele>152.4</ele>
        <time>2021-06-03T12:48:15Z</time>
      </trkpt>
      <trkpt lat="48.54603" lon="2.00525">
        <ele>152.5</ele>
        <time>2021-06-03T12:48:17Z</time>
      </trkpt>
      <trkpt lat="48.54597" lon="2.00531">
        <ele>152.7</ele>
        <time>2021-06-03T12:48:19Z</time>
      </trkpt>
      <trkpt lat="48.54592" lon="2.00538">
        <ele>152.8</ele>
        <time>2021-06-03T12:48:21Z</time>
      </trkpt>
      <trkpt lat="48.54586" lon="2.00546">
        <ele>152.9</ele>
        <time>2021-06-03T12:48:23Z</time>
      </trkpt>
      <trkpt lat="48.54581" lon="2.00554">
        <ele>153</ele>
        <time>2021-06-03T12:48:25Z</time>
      </trkpt>
      <trkpt lat="48.54576" lon="2.00562">
        <ele>153.1</ele>
        <time>2021-06-03T12:48:27Z</time>
      </trkpt>
      <trkpt lat="48.54571" lon="2.0057">
        <ele>153.2</ele>
        <time>2021-06-03T12:48:29Z</time>
      </trkpt>
      <trkpt lat="48.54566" lon="2.00577">
        <ele>153.2</ele>
        <time>2021-06-03T12:48:31Z</time>
      </trkpt>
      <trkpt lat="48.54561" lon="2.00584">
        <ele>153.3</ele>
        <time>2021-06-03T12:48:33Z</time>
      </trkpt>
      <trkpt lat="48.54554" lon="2.00592">
        <ele>153.3</ele>
        <time>2021-06-03T12:48:35Z</time>
      </trkpt>
      <trkpt lat="48.54548" lon="2.00601">
        <ele>153.3</ele>
        <time>2021-06-03T12:48:37Z</time>
      </trkpt>
      <trkpt lat="48.54541" lon="2.0061">
        <ele>153.3</ele>
        <time>2021-06-03T12:48:39Z</time>
      </trkpt>
      <trkpt lat="48.54534" lon="2.00619">
        <ele>153.4</ele>
        <time>2021-06-03T12:48:41Z</time>
      </trkpt>
      <trkpt lat="48.54527" lon="2.00627">
        <ele>153.5</ele>
        <time>2021-06-03T12:48:43Z</time>
      </trkpt>
      <trkpt lat="48.5452" lon="2.00634">
        <ele>153.6</ele>
        <time>2021-06-03T12:48:45Z</time>
      </trkpt>
      <trkpt lat="48.54514" lon="2.00641">
        <ele>153.7</ele>
        <time>2021-06-03T12:48:47Z</time>
      </trkpt>
      <trkpt lat="48.54506" lon="2.00647">
        <ele>153.9</ele>
        <time>2021-06-03T12:48:49Z</time>
      </trkpt>
      <trkpt lat="48.54499" lon="2.00652">
        <ele>154</ele>
        <time>2021-06-03T12:48:51Z</time>
      </trkpt>
      <trkpt lat="48.54492" lon="2.00659">
        <ele>154.1</ele>
        <time>2021-06-03T12:48:53Z</time>
      </trkpt>
      <trkpt lat="48.54485" lon="2.00664">
        <ele>154.2</ele>
        <time>2021-06-03T12:48:55Z</time>
      </trkpt>
      <trkpt lat="48.54479" lon="2.00669">
        <ele>154.2</ele>
        <time>2021-06-03T12:48:57Z</time>
      </trkpt>
      <trkpt lat="48.54472" lon="2.00675">
        <ele>154.3</ele>
        <time>2021-06-03T12:48:59Z</time>
      </trkpt>
      <trkpt lat="48.54465" lon="2.0068">
        <ele>154.3</ele>
        <time>2021-06-03T12:49:01Z</time>
      </trkpt>
      <trkpt lat="48.54458" lon="2.00685">
        <ele>154.4</ele>
        <time>2021-06-03T12:49:03Z</time>
      </trkpt>
      <trkpt lat="48.54452" lon="2.0069">
        <ele>154.5</ele>
        <time>2021-06-03T12:49:05Z</time>
      </trkpt>
      <trkpt lat="48.54445" lon="2.00696">
        <ele>154.5</ele>
        <time>2021-06-03T12:49:07Z</time>
      </trkpt>
      <trkpt lat="48.54438" lon="2.007">
        <ele>154.6</ele>
        <time>2021-06-03T12:49:09Z</time>
      </trkpt>
      <trkpt lat="48.54431" lon="2.00705">
        <ele>154.7</ele>
        <time>2021-06-03T12:49:11Z</time>
      </trkpt>
      <trkpt lat="48.54423" lon="2.0071">
        <ele>154.9</ele>
        <time>2021-06-03T12:49:13Z</time>
      </trkpt>
      <trkpt lat="48.54416" lon="2.00715">
        <ele>155</ele>
        <time>2021-06-03T12:49:15Z</time>
      </trkpt>
      <trkpt lat="48.54409" lon="2.00719">
        <ele>155.1</ele>
        <time>2021-06-03T12:49:17Z</time>
      </trkpt>
      <trkpt lat="48.54401" lon="2.00723">
        <ele>155.2</ele>
        <time>2021-06-03T12:49:19Z</time>
      </trkpt>
      <trkpt lat="48.54393" lon="2.00726">
        <ele>155.4</ele>
        <time>2021-06-03T12:49:21Z</time>
      </trkpt>
      <trkpt lat="48.54386" lon="2.00728">
        <ele>155.5</ele>
        <time>2021-06-03T12:49:23Z</time>
      </trkpt>
      <trkpt lat="48.54378" lon="2.00731">
        <ele>155.6</ele>
        <time>2021-06-03T12:49:25Z</time>
      </trkpt>
      <trkpt lat="48.54371" lon="2.00733">
        <ele>155.7</ele>
        <time>2021-06-03T12:49:27Z</time>
      </trkpt>
      <trkpt lat="48.54363" lon="2.00734">
        <ele>155.8</ele>
        <time>2021-06-03T12:49:29Z</time>
      </trkpt>
      <trkpt lat="48.54355" lon="2.00736">
        <ele>155.9</ele>
        <time>2021-06-03T12:49:31Z</time>
      </trkpt>
      <trkpt lat="48.54347" lon="2.00736">
        <ele>156</ele>
        <time>2021-06-03T12:49:33Z</time>
      </trkpt>
      <trkpt lat="48.5434" lon="2.00737">
        <ele>156.1</ele>
        <time>2021-06-03T12:49:35Z</time>
      </trkpt>
      <trkpt lat="48.54332" lon="2.00737">
        <ele>156.2</ele>
        <time>2021-06-03T12:49:37Z</time>
      </trkpt>
      <trkpt lat="48.54325" lon="2.00737">
        <ele>156.2</ele>
        <time>2021-06-03T12:49:39Z</time>
      </trkpt>
      <trkpt lat="48.54317" lon="2.00738">
        <ele>156.3</ele>
        <time>2021-06-03T12:49:41Z</time>
      </trkpt>
      <trkpt lat="48.5431" lon="2.00737">
        <ele>156.3</ele>
        <time>2021-06-03T12:49:43Z</time>
      </trkpt>
      <trkpt lat="48.54302" lon="2.00736">
        <ele>156.4</ele>
        <time>2021-06-03T12:49:45Z</time>
      </trkpt>
      <trkpt lat="48.54295" lon="2.00736">
        <ele>156.5</ele>
        <time>2021-06-03T12:49:47Z</time>
      </trkpt>
      <trkpt lat="48.54288" lon="2.00734">
        <ele>156.6</ele>
        <time>2021-06-03T12:49:49Z</time>
      </trkpt>
      <trkpt lat="48.54281" lon="2.00733">
        <ele>156.7</ele>
        <time>2021-06-03T12:49:51Z</time>
      </trkpt>
      <trkpt lat="48.54274" lon="2.0073">
        <ele>156.9</ele>
        <time>2021-06-03T12:49:53Z</time>
      </trkpt>
      <trkpt lat="48.54267" lon="2.00727">
        <ele>157.1</ele>
        <time>2021-06-03T12:49:55Z</time>
      </trkpt>
      <trkpt lat="48.5426" lon="2.00723">
        <ele>157.4</ele>
        <time>2021-06-03T12:49:57Z</time>
      </trkpt>
      <trkpt lat="48.54254" lon="2.0072">
        <ele>157.7</ele>
        <time>2021-06-03T12:49:59Z</time>
      </trkpt>
      <trkpt lat="48.54248" lon="2.00715">
        <ele>158.2</ele>
        <time>2021-06-03T12:50:01Z</time>
      </trkpt>
      <trkpt lat="48.54242" lon="2.00711">
        <ele>158.7</ele>
        <time>2021-06-03T12:50:03Z</time>
      </trkpt>
      <trkpt lat="48.54237" lon="2.00706">
        <ele>159.3</ele>
        <time>2021-06-03T12:50:05Z</time>
      </trkpt>
      <trkpt lat="48.54231" lon="2.00702">
        <ele>159.9</ele>
        <time>2021-06-03T12:50:07Z</time>
      </trkpt>
      <trkpt lat="48.54225" lon="2.00696">
        <ele>160.6</ele>
        <time>2021-06-03T12:50:09Z</time>
      </trkpt>
      <trkpt lat="48.5422" lon="2.00688">
        <ele>161.3</ele>
        <time>2021-06-03T12:50:11Z</time>
      </trkpt>
      <trkpt lat="48.54215" lon="2.00682">
        <ele>162.1</ele>
        <time>2021-06-03T12:50:13Z</time>
      </trkpt>
      <trkpt lat="48.54207" lon="2.00679">
        <ele>162.7</ele>
        <time>2021-06-03T12:50:15Z</time>
      </trkpt>
      <trkpt lat="48.542" lon="2.00679">
        <ele>163.1</ele>
        <time>2021-06-03T12:50:17Z</time>
      </trkpt>
      <trkpt lat="48.54192" lon="2.0068">
        <ele>163.5</ele>
        <time>2021-06-03T12:50:19Z</time>
      </trkpt>
      <trkpt lat="48.54185" lon="2.00681">
        <ele>163.7</ele>
        <time>2021-06-03T12:50:21Z</time>
      </trkpt>
      <trkpt lat="48.54178" lon="2.00682">
        <ele>164.1</ele>
        <time>2021-06-03T12:50:23Z</time>
      </trkpt>
      <trkpt lat="48.54171" lon="2.00683">
        <ele>164.4</ele>
        <time>2021-06-03T12:50:25Z</time>
      </trkpt>
      <trkpt lat="48.54165" lon="2.00685">
        <ele>164.5</ele>
        <time>2021-06-03T12:50:27Z</time>
      </trkpt>
      <trkpt lat="48.54158" lon="2.00687">
        <ele>164.6</ele>
        <time>2021-06-03T12:50:29Z</time>
      </trkpt>
      <trkpt lat="48.54151" lon="2.00687">
        <ele>164.8</ele>
        <time>2021-06-03T12:50:31Z</time>
      </trkpt>
      <trkpt lat="48.54143" lon="2.00686">
        <ele>165</ele>
        <time>2021-06-03T12:50:33Z</time>
      </trkpt>
      <trkpt lat="48.54135" lon="2.00686">
        <ele>165.3</ele>
        <time>2021-06-03T12:50:35Z</time>
      </trkpt>
      <trkpt lat="48.54128" lon="2.00683">
        <ele>165.6</ele>
        <time>2021-06-03T12:50:37Z</time>
      </trkpt>
      <trkpt lat="48.54121" lon="2.00679">
        <ele>166</ele>
        <time>2021-06-03T12:50:39Z</time>
      </trkpt>
      <trkpt lat="48.54117" lon="2.00675">
        <ele>166.3</ele>
        <time>2021-06-03T12:50:41Z</time>
      </trkpt>
      <trkpt lat="48.54111" lon="2.0067">
        <ele>166.5</ele>
        <time>2021-06-03T12:50:45Z</time>
      </trkpt>
      <trkpt lat="48.5411" lon="2.00662">
        <ele>166.8</ele>
        <time>2021-06-03T12:50:49Z</time>
      </trkpt>
      <trkpt lat="48.54113" lon="2.00654">
        <ele>166.8</ele>
        <time>2021-06-03T12:50:51Z</time>
      </trkpt>
      <trkpt lat="48.54117" lon="2.00645">
        <ele>167</ele>
        <time>2021-06-03T12:50:53Z</time>
      </trkpt>
      <trkpt lat="48.54119" lon="2.00631">
        <ele>167.2</ele>
        <time>2021-06-03T12:50:55Z</time>
      </trkpt>
      <trkpt lat="48.54122" lon="2.0062">
        <ele>167.4</ele>
        <time>2021-06-03T12:50:57Z</time>
      </trkpt>
      <trkpt lat="48.54126" lon="2.00609">
        <ele>167.5</ele>
        <time>2021-06-03T12:50:59Z</time>
      </trkpt>
      <trkpt lat="48.54129" lon="2.00596">
        <ele>167.8</ele>
        <time>2021-06-03T12:51:01Z</time>
      </trkpt>
      <trkpt lat="48.54133" lon="2.00583">
        <ele>168</ele>
        <time>2021-06-03T12:51:03Z</time>
      </trkpt>
      <trkpt lat="48.54136" lon="2.00571">
        <ele>167.7</ele>
        <time>2021-06-03T12:51:05Z</time>
      </trkpt>
      <trkpt lat="48.54139" lon="2.00559">
        <ele>167.5</ele>
        <time>2021-06-03T12:51:07Z</time>
      </trkpt>
      <trkpt lat="48.54143" lon="2.00551">
        <ele>167.4</ele>
        <time>2021-06-03T12:51:09Z</time>
      </trkpt>
      <trkpt lat="48.54145" lon="2.0054">
        <ele>167.2</ele>
        <time>2021-06-03T12:51:11Z</time>
      </trkpt>
      <trkpt lat="48.54148" lon="2.0053">
        <ele>167.1</ele>
        <time>2021-06-03T12:51:13Z</time>
      </trkpt>
      <trkpt lat="48.54151" lon="2.00521">
        <ele>167</ele>
        <time>2021-06-03T12:51:15Z</time>
      </trkpt>
      <trkpt lat="48.54154" lon="2.00509">
        <ele>166.8</ele>
        <time>2021-06-03T12:51:17Z</time>
      </trkpt>
      <trkpt lat="48.54157" lon="2.00497">
        <ele>166.7</ele>
        <time>2021-06-03T12:51:19Z</time>
      </trkpt>
      <trkpt lat="48.5416" lon="2.00486">
        <ele>166.5</ele>
        <time>2021-06-03T12:51:21Z</time>
      </trkpt>
      <trkpt lat="48.54163" lon="2.00474">
        <ele>166.2</ele>
        <time>2021-06-03T12:51:23Z</time>
      </trkpt>
      <trkpt lat="48.54168" lon="2.00467">
        <ele>166.2</ele>
        <time>2021-06-03T12:51:25Z</time>
      </trkpt>
      <trkpt lat="48.5417" lon="2.00454">
        <ele>165.9</ele>
        <time>2021-06-03T12:51:27Z</time>
      </trkpt>
      <trkpt lat="48.54174" lon="2.00443">
        <ele>165.7</ele>
        <time>2021-06-03T12:51:29Z</time>
      </trkpt>
      <trkpt lat="48.54177" lon="2.00428">
        <ele>165.4</ele>
        <time>2021-06-03T12:51:31Z</time>
      </trkpt>
      <trkpt lat="48.5418" lon="2.00414">
        <ele>165.1</ele>
        <time>2021-06-03T12:51:33Z</time>
      </trkpt>
      <trkpt lat="48.54185" lon="2.00402">
        <ele>164.7</ele>
        <time>2021-06-03T12:51:35Z</time>
      </trkpt>
      <trkpt lat="48.5419" lon="2.00388">
        <ele>164.3</ele>
        <time>2021-06-03T12:51:37Z</time>
      </trkpt>
      <trkpt lat="48.54195" lon="2.00374">
        <ele>164</ele>
        <time>2021-06-03T12:51:39Z</time>
      </trkpt>
      <trkpt lat="48.54199" lon="2.0036">
        <ele>163.7</ele>
        <time>2021-06-03T12:51:41Z</time>
      </trkpt>
      <trkpt lat="48.54203" lon="2.00344">
        <ele>163.5</ele>
        <time>2021-06-03T12:51:43Z</time>
      </trkpt>
      <trkpt lat="48.54207" lon="2.00329">
        <ele>163.3</ele>
        <time>2021-06-03T12:51:45Z</time>
      </trkpt>
      <trkpt lat="48.54205" lon="2.00321">
        <ele>162.9</ele>
        <time>2021-06-03T12:51:47Z</time>
      </trkpt>
      <trkpt lat="48.54203" lon="2.00314">
        <ele>162.6</ele>
        <time>2021-06-03T12:51:49Z</time>
      </trkpt>
      <trkpt lat="48.54206" lon="2.00306">
        <ele>162.6</ele>
        <time>2021-06-03T12:51:51Z</time>
      </trkpt>
      <trkpt lat="48.54208" lon="2.003">
        <ele>162.5</ele>
        <time>2021-06-03T12:51:53Z</time>
      </trkpt>
      <trkpt lat="48.54209" lon="2.00292">
        <ele>162.3</ele>
        <time>2021-06-03T12:51:55Z</time>
      </trkpt>
      <trkpt lat="48.54214" lon="2.00287">
        <ele>162.4</ele>
        <time>2021-06-03T12:51:57Z</time>
      </trkpt>
      <trkpt lat="48.5422" lon="2.00278">
        <ele>162.4</ele>
        <time>2021-06-03T12:52:01Z</time>
      </trkpt>
      <trkpt lat="48.54223" lon="2.00272">
        <ele>162.4</ele>
        <time>2021-06-03T12:52:03Z</time>
      </trkpt>
      <trkpt lat="48.54227" lon="2.00266">
        <ele>162.4</ele>
        <time>2021-06-03T12:52:05Z</time>
      </trkpt>
      <trkpt lat="48.54231" lon="2.00257">
        <ele>162.3</ele>
        <time>2021-06-03T12:52:07Z</time>
      </trkpt>
      <trkpt lat="48.54234" lon="2.00248">
        <ele>162.2</ele>
        <time>2021-06-03T12:52:09Z</time>
      </trkpt>
      <trkpt lat="48.54238" lon="2.00235">
        <ele>162.2</ele>
        <time>2021-06-03T12:52:11Z</time>
      </trkpt>
      <trkpt lat="48.54239" lon="2.00221">
        <ele>162.1</ele>
        <time>2021-06-03T12:52:13Z</time>
      </trkpt>
      <trkpt lat="48.54241" lon="2.00208">
        <ele>162.1</ele>
        <time>2021-06-03T12:52:15Z</time>
      </trkpt>
      <trkpt lat="48.54243" lon="2.00194">
        <ele>162</ele>
        <time>2021-06-03T12:52:17Z</time>
      </trkpt>
      <trkpt lat="48.54247" lon="2.00179">
        <ele>162</ele>
        <time>2021-06-03T12:52:19Z</time>
      </trkpt>
      <trkpt lat="48.5425" lon="2.00165">
        <ele>162</ele>
        <time>2021-06-03T12:52:21Z</time>
      </trkpt>
      <trkpt lat="48.54254" lon="2.00154">
        <ele>162.3</ele>
        <time>2021-06-03T12:52:23Z</time>
      </trkpt>
      <trkpt lat="48.54256" lon="2.00138">
        <ele>162.6</ele>
        <time>2021-06-03T12:52:25Z</time>
      </trkpt>
      <trkpt lat="48.54259" lon="2.00123">
        <ele>162.9</ele>
        <time>2021-06-03T12:52:27Z</time>
      </trkpt>
      <trkpt lat="48.54262" lon="2.0011">
        <ele>163.3</ele>
        <time>2021-06-03T12:52:29Z</time>
      </trkpt>
      <trkpt lat="48.54265" lon="2.00097">
        <ele>163.5</ele>
        <time>2021-06-03T12:52:31Z</time>
      </trkpt>
      <trkpt lat="48.54269" lon="2.00086">
        <ele>163.9</ele>
        <time>2021-06-03T12:52:33Z</time>
      </trkpt>
      <trkpt lat="48.5427" lon="2.00071">
        <ele>164.1</ele>
        <time>2021-06-03T12:52:35Z</time>
      </trkpt>
      <trkpt lat="48.54273" lon="2.00058">
        <ele>164.3</ele>
        <time>2021-06-03T12:52:37Z</time>
      </trkpt>
      <trkpt lat="48.54276" lon="2.00044">
        <ele>164.6</ele>
        <time>2021-06-03T12:52:39Z</time>
      </trkpt>
      <trkpt lat="48.54278" lon="2.00029">
        <ele>164.8</ele>
        <time>2021-06-03T12:52:41Z</time>
      </trkpt>
      <trkpt lat="48.5428" lon="2.00013">
        <ele>165</ele>
        <time>2021-06-03T12:52:43Z</time>
      </trkpt>
      <trkpt lat="48.54283" lon="2.00001">
        <ele>165.2</ele>
        <time>2021-06-03T12:52:45Z</time>
      </trkpt>
      <trkpt lat="48.54287" lon="1.99989">
        <ele>165.7</ele>
        <time>2021-06-03T12:52:47Z</time>
      </trkpt>
      <trkpt lat="48.54289" lon="1.99976">
        <ele>166.2</ele>
        <time>2021-06-03T12:52:49Z</time>
      </trkpt>
      <trkpt lat="48.54291" lon="1.99961">
        <ele>166.6</ele>
        <time>2021-06-03T12:52:51Z</time>
      </trkpt>
      <trkpt lat="48.54293" lon="1.99948">
        <ele>167.1</ele>
        <time>2021-06-03T12:52:53Z</time>
      </trkpt>
      <trkpt lat="48.54295" lon="1.99933">
        <ele>167.5</ele>
        <time>2021-06-03T12:52:55Z</time>
      </trkpt>
      <trkpt lat="48.54298" lon="1.99919">
        <ele>167.9</ele>
        <time>2021-06-03T12:52:57Z</time>
      </trkpt>
      <trkpt lat="48.54299" lon="1.99904">
        <ele>168.1</ele>
        <time>2021-06-03T12:52:59Z</time>
      </trkpt>
      <trkpt lat="48.54302" lon="1.9989">
        <ele>168.1</ele>
        <time>2021-06-03T12:53:01Z</time>
      </trkpt>
      <trkpt lat="48.54305" lon="1.99876">
        <ele>168.2</ele>
        <time>2021-06-03T12:53:03Z</time>
      </trkpt>
      <trkpt lat="48.54307" lon="1.99863">
        <ele>168.2</ele>
        <time>2021-06-03T12:53:05Z</time>
      </trkpt>
      <trkpt lat="48.54311" lon="1.99848">
        <ele>168.2</ele>
        <time>2021-06-03T12:53:07Z</time>
      </trkpt>
      <trkpt lat="48.54315" lon="1.99834">
        <ele>168.2</ele>
        <time>2021-06-03T12:53:09Z</time>
      </trkpt>
      <trkpt lat="48.54315" lon="1.9982">
        <ele>168.2</ele>
        <time>2021-06-03T12:53:11Z</time>
      </trkpt>
      <trkpt lat="48.54319" lon="1.99809">
        <ele>168.2</ele>
        <time>2021-06-03T12:53:13Z</time>
      </trkpt>
      <trkpt lat="48.54322" lon="1.99797">
        <ele>168.1</ele>
        <time>2021-06-03T12:53:15Z</time>
      </trkpt>
      <trkpt lat="48.54325" lon="1.99786">
        <ele>168.1</ele>
        <time>2021-06-03T12:53:17Z</time>
      </trkpt>
      <trkpt lat="48.54328" lon="1.99773">
        <ele>168.1</ele>
        <time>2021-06-03T12:53:19Z</time>
      </trkpt>
      <trkpt lat="48.54331" lon="1.99761">
        <ele>168</ele>
        <time>2021-06-03T12:53:21Z</time>
      </trkpt>
      <trkpt lat="48.54335" lon="1.99748">
        <ele>167.9</ele>
        <time>2021-06-03T12:53:23Z</time>
      </trkpt>
      <trkpt lat="48.54336" lon="1.99733">
        <ele>167.9</ele>
        <time>2021-06-03T12:53:25Z</time>
      </trkpt>
      <trkpt lat="48.54338" lon="1.99721">
        <ele>167.8</ele>
        <time>2021-06-03T12:53:27Z</time>
      </trkpt>
      <trkpt lat="48.54338" lon="1.99708">
        <ele>167.8</ele>
        <time>2021-06-03T12:53:29Z</time>
      </trkpt>
      <trkpt lat="48.54339" lon="1.99698">
        <ele>167.8</ele>
        <time>2021-06-03T12:53:31Z</time>
      </trkpt>
      <trkpt lat="48.54338" lon="1.99689">
        <ele>167.8</ele>
        <time>2021-06-03T12:53:33Z</time>
      </trkpt>
      <trkpt lat="48.54336" lon="1.99682">
        <ele>167.9</ele>
        <time>2021-06-03T12:53:35Z</time>
      </trkpt>
      <trkpt lat="48.54336" lon="1.99672">
        <ele>167.9</ele>
        <time>2021-06-03T12:53:39Z</time>
      </trkpt>
      <trkpt lat="48.54332" lon="1.99662">
        <ele>168</ele>
        <time>2021-06-03T12:53:43Z</time>
      </trkpt>
      <trkpt lat="48.54329" lon="1.99653">
        <ele>168</ele>
        <time>2021-06-03T12:53:47Z</time>
      </trkpt>
      <trkpt lat="48.54325" lon="1.99645">
        <ele>168</ele>
        <time>2021-06-03T12:53:51Z</time>
      </trkpt>
      <trkpt lat="48.54321" lon="1.99638">
        <ele>167.9</ele>
        <time>2021-06-03T12:53:55Z</time>
      </trkpt>
      <trkpt lat="48.54316" lon="1.99632">
        <ele>167.9</ele>
        <time>2021-06-03T12:54:33Z</time>
      </trkpt>
      <trkpt lat="48.54313" lon="1.99627">
        <ele>167.8</ele>
        <time>2021-06-03T12:54:35Z</time>
      </trkpt>
      <trkpt lat="48.54307" lon="1.9962">
        <ele>167.6</ele>
        <time>2021-06-03T12:54:37Z</time>
      </trkpt>
      <trkpt lat="48.54301" lon="1.99615">
        <ele>167.4</ele>
        <time>2021-06-03T12:54:39Z</time>
      </trkpt>
      <trkpt lat="48.54294" lon="1.99608">
        <ele>167.2</ele>
        <time>2021-06-03T12:54:41Z</time>
      </trkpt>
      <trkpt lat="48.54287" lon="1.99603">
        <ele>166.9</ele>
        <time>2021-06-03T12:54:43Z</time>
      </trkpt>
      <trkpt lat="48.54279" lon="1.99598">
        <ele>166.5</ele>
        <time>2021-06-03T12:54:45Z</time>
      </trkpt>
      <trkpt lat="48.54273" lon="1.99592">
        <ele>166.1</ele>
        <time>2021-06-03T12:54:47Z</time>
      </trkpt>
      <trkpt lat="48.54264" lon="1.99587">
        <ele>165.7</ele>
        <time>2021-06-03T12:54:49Z</time>
      </trkpt>
      <trkpt lat="48.54257" lon="1.99583">
        <ele>165.2</ele>
        <time>2021-06-03T12:54:51Z</time>
      </trkpt>
      <trkpt lat="48.54251" lon="1.99578">
        <ele>164.9</ele>
        <time>2021-06-03T12:54:53Z</time>
      </trkpt>
      <trkpt lat="48.54247" lon="1.99572">
        <ele>164.9</ele>
        <time>2021-06-03T12:54:55Z</time>
      </trkpt>
      <trkpt lat="48.54241" lon="1.99571">
        <ele>164.8</ele>
        <time>2021-06-03T12:55:03Z</time>
      </trkpt>
      <trkpt lat="48.54236" lon="1.99569">
        <ele>164.8</ele>
        <time>2021-06-03T12:55:07Z</time>
      </trkpt>
      <trkpt lat="48.54228" lon="1.99563">
        <ele>164.7</ele>
        <time>2021-06-03T12:55:11Z</time>
      </trkpt>
      <trkpt lat="48.54233" lon="1.99549">
        <ele>164.5</ele>
        <time>2021-06-03T12:55:15Z</time>
      </trkpt>
      <trkpt lat="48.54237" lon="1.9954">
        <ele>164.4</ele>
        <time>2021-06-03T12:55:17Z</time>
      </trkpt>
      <trkpt lat="48.54239" lon="1.99529">
        <ele>164.3</ele>
        <time>2021-06-03T12:55:19Z</time>
      </trkpt>
      <trkpt lat="48.54241" lon="1.99519">
        <ele>164.1</ele>
        <time>2021-06-03T12:55:21Z</time>
      </trkpt>
      <trkpt lat="48.54243" lon="1.99509">
        <ele>164</ele>
        <time>2021-06-03T12:55:23Z</time>
      </trkpt>
      <trkpt lat="48.54246" lon="1.99498">
        <ele>164</ele>
        <time>2021-06-03T12:55:25Z</time>
      </trkpt>
      <trkpt lat="48.54248" lon="1.99487">
        <ele>164.1</ele>
        <time>2021-06-03T12:55:27Z</time>
      </trkpt>
      <trkpt lat="48.54245" lon="1.99478">
        <ele>164.2</ele>
        <time>2021-06-03T12:55:29Z</time>
      </trkpt>
      <trkpt lat="48.54238" lon="1.99476">
        <ele>164.2</ele>
        <time>2021-06-03T12:55:35Z</time>
      </trkpt>
      <trkpt lat="48.54235" lon="1.9947">
        <ele>164.2</ele>
        <time>2021-06-03T12:55:39Z</time>
      </trkpt>
      <trkpt lat="48.54229" lon="1.99465">
        <ele>164.3</ele>
        <time>2021-06-03T12:55:43Z</time>
      </trkpt>
      <trkpt lat="48.54223" lon="1.99461">
        <ele>164.3</ele>
        <time>2021-06-03T12:55:45Z</time>
      </trkpt>
      <trkpt lat="48.54216" lon="1.99455">
        <ele>164.3</ele>
        <time>2021-06-03T12:55:47Z</time>
      </trkpt>
      <trkpt lat="48.54208" lon="1.9945">
        <ele>164.4</ele>
        <time>2021-06-03T12:55:49Z</time>
      </trkpt>
      <trkpt lat="48.542" lon="1.99445">
        <ele>164.5</ele>
        <time>2021-06-03T12:55:51Z</time>
      </trkpt>
      <trkpt lat="48.54192" lon="1.99438">
        <ele>164.6</ele>
        <time>2021-06-03T12:55:53Z</time>
      </trkpt>
      <trkpt lat="48.54183" lon="1.99431">
        <ele>164.7</ele>
        <time>2021-06-03T12:55:55Z</time>
      </trkpt>
      <trkpt lat="48.54174" lon="1.99425">
        <ele>164.8</ele>
        <time>2021-06-03T12:55:57Z</time>
      </trkpt>
      <trkpt lat="48.54164" lon="1.99419">
        <ele>165</ele>
        <time>2021-06-03T12:55:59Z</time>
      </trkpt>
      <trkpt lat="48.54154" lon="1.99412">
        <ele>165</ele>
        <time>2021-06-03T12:56:01Z</time>
      </trkpt>
      <trkpt lat="48.54143" lon="1.99403">
        <ele>164.8</ele>
        <time>2021-06-03T12:56:03Z</time>
      </trkpt>
      <trkpt lat="48.54132" lon="1.99395">
        <ele>164.8</ele>
        <time>2021-06-03T12:56:05Z</time>
      </trkpt>
      <trkpt lat="48.54121" lon="1.99387">
        <ele>164.7</ele>
        <time>2021-06-03T12:56:07Z</time>
      </trkpt>
      <trkpt lat="48.54112" lon="1.9938">
        <ele>164.6</ele>
        <time>2021-06-03T12:56:09Z</time>
      </trkpt>
      <trkpt lat="48.54103" lon="1.99374">
        <ele>164.6</ele>
        <time>2021-06-03T12:56:11Z</time>
      </trkpt>
      <trkpt lat="48.54094" lon="1.99366">
        <ele>164.6</ele>
        <time>2021-06-03T12:56:13Z</time>
      </trkpt>
      <trkpt lat="48.54084" lon="1.99358">
        <ele>164.6</ele>
        <time>2021-06-03T12:56:15Z</time>
      </trkpt>
      <trkpt lat="48.54074" lon="1.99352">
        <ele>164.1</ele>
        <time>2021-06-03T12:56:17Z</time>
      </trkpt>
      <trkpt lat="48.54064" lon="1.99346">
        <ele>163.5</ele>
        <time>2021-06-03T12:56:19Z</time>
      </trkpt>
      <trkpt lat="48.54055" lon="1.99338">
        <ele>163.1</ele>
        <time>2021-06-03T12:56:21Z</time>
      </trkpt>
      <trkpt lat="48.54044" lon="1.99328">
        <ele>162.1</ele>
        <time>2021-06-03T12:56:23Z</time>
      </trkpt>
      <trkpt lat="48.54033" lon="1.9932">
        <ele>160.9</ele>
        <time>2021-06-03T12:56:25Z</time>
      </trkpt>
      <trkpt lat="48.54026" lon="1.99313">
        <ele>160</ele>
        <time>2021-06-03T12:56:27Z</time>
      </trkpt>
      <trkpt lat="48.54022" lon="1.99308">
        <ele>159.4</ele>
        <time>2021-06-03T12:56:29Z</time>
      </trkpt>
      <trkpt lat="48.54018" lon="1.99305">
        <ele>159.1</ele>
        <time>2021-06-03T12:57:27Z</time>
      </trkpt>
      <trkpt lat="48.54013" lon="1.993">
        <ele>158.5</ele>
        <time>2021-06-03T12:57:49Z</time>
      </trkpt>
      <trkpt lat="48.54007" lon="1.99296">
        <ele>158</ele>
        <time>2021-06-03T12:57:51Z</time>
      </trkpt>
      <trkpt lat="48.54" lon="1.99291">
        <ele>157.4</ele>
        <time>2021-06-03T12:57:53Z</time>
      </trkpt>
      <trkpt lat="48.53993" lon="1.99287">
        <ele>156.2</ele>
        <time>2021-06-03T12:57:55Z</time>
      </trkpt>
      <trkpt lat="48.53986" lon="1.99282">
        <ele>154.9</ele>
        <time>2021-06-03T12:57:57Z</time>
      </trkpt>
      <trkpt lat="48.53976" lon="1.99276">
        <ele>153</ele>
        <time>2021-06-03T12:57:59Z</time>
      </trkpt>
      <trkpt lat="48.53967" lon="1.99271">
        <ele>151.4</ele>
        <time>2021-06-03T12:58:01Z</time>
      </trkpt>
      <trkpt lat="48.5396" lon="1.99262">
        <ele>149.7</ele>
        <time>2021-06-03T12:58:03Z</time>
      </trkpt>
      <trkpt lat="48.53954" lon="1.99252">
        <ele>148.1</ele>
        <time>2021-06-03T12:58:05Z</time>
      </trkpt>
      <trkpt lat="48.53948" lon="1.99244">
        <ele>146.8</ele>
        <time>2021-06-03T12:58:07Z</time>
      </trkpt>
      <trkpt lat="48.53945" lon="1.99238">
        <ele>146</ele>
        <time>2021-06-03T12:58:09Z</time>
      </trkpt>
      <trkpt lat="48.53943" lon="1.9923">
        <ele>145.3</ele>
        <time>2021-06-03T12:58:11Z</time>
      </trkpt>
      <trkpt lat="48.53944" lon="1.99211">
        <ele>144.3</ele>
        <time>2021-06-03T12:58:15Z</time>
      </trkpt>
      <trkpt lat="48.53947" lon="1.992">
        <ele>143.9</ele>
        <time>2021-06-03T12:58:17Z</time>
      </trkpt>
      <trkpt lat="48.53947" lon="1.99185">
        <ele>143</ele>
        <time>2021-06-03T12:58:19Z</time>
      </trkpt>
      <trkpt lat="48.5395" lon="1.99175">
        <ele>142.6</ele>
        <time>2021-06-03T12:58:21Z</time>
      </trkpt>
      <trkpt lat="48.53951" lon="1.99164">
        <ele>141.9</ele>
        <time>2021-06-03T12:58:25Z</time>
      </trkpt>
      <trkpt lat="48.53959" lon="1.9916">
        <ele>142.1</ele>
        <time>2021-06-03T12:58:29Z</time>
      </trkpt>
      <trkpt lat="48.53964" lon="1.99157">
        <ele>142.2</ele>
        <time>2021-06-03T12:58:31Z</time>
      </trkpt>
      <trkpt lat="48.53973" lon="1.99155">
        <ele>142.6</ele>
        <time>2021-06-03T12:58:33Z</time>
      </trkpt>
      <trkpt lat="48.53978" lon="1.99153">
        <ele>142.7</ele>
        <time>2021-06-03T12:58:35Z</time>
      </trkpt>
      <trkpt lat="48.53983" lon="1.99138">
        <ele>142</ele>
        <time>2021-06-03T12:58:39Z</time>
      </trkpt>
      <trkpt lat="48.5399" lon="1.99127">
        <ele>141.6</ele>
        <time>2021-06-03T12:58:41Z</time>
      </trkpt>
      <trkpt lat="48.53995" lon="1.99116">
        <ele>141.1</ele>
        <time>2021-06-03T12:58:43Z</time>
      </trkpt>
      <trkpt lat="48.53992" lon="1.99098">
        <ele>139.7</ele>
        <time>2021-06-03T12:58:45Z</time>
      </trkpt>
      <trkpt lat="48.53993" lon="1.99074">
        <ele>138.3</ele>
        <time>2021-06-03T12:58:47Z</time>
      </trkpt>
      <trkpt lat="48.53984" lon="1.99061">
        <ele>137.4</ele>
        <time>2021-06-03T12:58:49Z</time>
      </trkpt>
      <trkpt lat="48.53976" lon="1.99051">
        <ele>136.6</ele>
        <time>2021-06-03T12:58:51Z</time>
      </trkpt>
      <trkpt lat="48.53966" lon="1.99042">
        <ele>135.7</ele>
        <time>2021-06-03T12:58:53Z</time>
      </trkpt>
      <trkpt lat="48.53956" lon="1.99034">
        <ele>134.8</ele>
        <time>2021-06-03T12:58:55Z</time>
      </trkpt>
      <trkpt lat="48.53944" lon="1.99029">
        <ele>133.9</ele>
        <time>2021-06-03T12:58:57Z</time>
      </trkpt>
      <trkpt lat="48.53934" lon="1.99018">
        <ele>132.9</ele>
        <time>2021-06-03T12:58:59Z</time>
      </trkpt>
      <trkpt lat="48.53924" lon="1.99006">
        <ele>131.7</ele>
        <time>2021-06-03T12:59:01Z</time>
      </trkpt>
      <trkpt lat="48.53909" lon="1.99">
        <ele>130.8</ele>
        <time>2021-06-03T12:59:03Z</time>
      </trkpt>
      <trkpt lat="48.53896" lon="1.98989">
        <ele>129.8</ele>
        <time>2021-06-03T12:59:05Z</time>
      </trkpt>
      <trkpt lat="48.53885" lon="1.98976">
        <ele>128.5</ele>
        <time>2021-06-03T12:59:07Z</time>
      </trkpt>
      <trkpt lat="48.53875" lon="1.98964">
        <ele>127.2</ele>
        <time>2021-06-03T12:59:09Z</time>
      </trkpt>
      <trkpt lat="48.53871" lon="1.98956">
        <ele>126.3</ele>
        <time>2021-06-03T12:59:13Z</time>
      </trkpt>
      <trkpt lat="48.53871" lon="1.98949">
        <ele>125.8</ele>
        <time>2021-06-03T12:59:15Z</time>
      </trkpt>
      <trkpt lat="48.53873" lon="1.98941">
        <ele>125.3</ele>
        <time>2021-06-03T12:59:21Z</time>
      </trkpt>
      <trkpt lat="48.53872" lon="1.98949">
        <ele>125.8</ele>
        <time>2021-06-03T12:59:29Z</time>
      </trkpt>
      <trkpt lat="48.53861" lon="1.9895">
        <ele>125.3</ele>
        <time>2021-06-03T12:59:33Z</time>
      </trkpt>
      <trkpt lat="48.53852" lon="1.98948">
        <ele>124.5</ele>
        <time>2021-06-03T12:59:35Z</time>
      </trkpt>
      <trkpt lat="48.53844" lon="1.98945">
        <ele>123.7</ele>
        <time>2021-06-03T12:59:37Z</time>
      </trkpt>
      <trkpt lat="48.53838" lon="1.98947">
        <ele>123.6</ele>
        <time>2021-06-03T12:59:39Z</time>
      </trkpt>
      <trkpt lat="48.53831" lon="1.98945">
        <ele>122.9</ele>
        <time>2021-06-03T12:59:41Z</time>
      </trkpt>
      <trkpt lat="48.53822" lon="1.98945">
        <ele>122.1</ele>
        <time>2021-06-03T12:59:43Z</time>
      </trkpt>
      <trkpt lat="48.53811" lon="1.98949">
        <ele>121.5</ele>
        <time>2021-06-03T12:59:45Z</time>
      </trkpt>
      <trkpt lat="48.53799" lon="1.98951">
        <ele>120.7</ele>
        <time>2021-06-03T12:59:47Z</time>
      </trkpt>
      <trkpt lat="48.53787" lon="1.98952">
        <ele>119.7</ele>
        <time>2021-06-03T12:59:49Z</time>
      </trkpt>
      <trkpt lat="48.53777" lon="1.98955">
        <ele>119.2</ele>
        <time>2021-06-03T12:59:51Z</time>
      </trkpt>
      <trkpt lat="48.53765" lon="1.98955">
        <ele>118.1</ele>
        <time>2021-06-03T12:59:53Z</time>
      </trkpt>
      <trkpt lat="48.53752" lon="1.9896">
        <ele>117.4</ele>
        <time>2021-06-03T12:59:55Z</time>
      </trkpt>
      <trkpt lat="48.53743" lon="1.98968">
        <ele>117.7</ele>
        <time>2021-06-03T12:59:57Z</time>
      </trkpt>
      <trkpt lat="48.53735" lon="1.9897">
        <ele>117.7</ele>
        <time>2021-06-03T12:59:59Z</time>
      </trkpt>
      <trkpt lat="48.53727" lon="1.9898">
        <ele>118.2</ele>
        <time>2021-06-03T13:00:03Z</time>
      </trkpt>
      <trkpt lat="48.53722" lon="1.98987">
        <ele>118.5</ele>
        <time>2021-06-03T13:00:05Z</time>
      </trkpt>
      <trkpt lat="48.53715" lon="1.98998">
        <ele>118.8</ele>
        <time>2021-06-03T13:00:07Z</time>
      </trkpt>
      <trkpt lat="48.53715" lon="1.99012">
        <ele>120</ele>
        <time>2021-06-03T13:00:09Z</time>
      </trkpt>
      <trkpt lat="48.53715" lon="1.99025">
        <ele>121.2</ele>
        <time>2021-06-03T13:00:11Z</time>
      </trkpt>
      <trkpt lat="48.53709" lon="1.99034">
        <ele>121.8</ele>
        <time>2021-06-03T13:00:13Z</time>
      </trkpt>
      <trkpt lat="48.53706" lon="1.99042">
        <ele>122.4</ele>
        <time>2021-06-03T13:00:15Z</time>
      </trkpt>
      <trkpt lat="48.53699" lon="1.99038">
        <ele>121.7</ele>
        <time>2021-06-03T13:00:19Z</time>
      </trkpt>
      <trkpt lat="48.53695" lon="1.99029">
        <ele>120.6</ele>
        <time>2021-06-03T13:00:21Z</time>
      </trkpt>
      <trkpt lat="48.53692" lon="1.99019">
        <ele>119.5</ele>
        <time>2021-06-03T13:00:23Z</time>
      </trkpt>
      <trkpt lat="48.53689" lon="1.9901">
        <ele>118.4</ele>
        <time>2021-06-03T13:00:25Z</time>
      </trkpt>
      <trkpt lat="48.53685" lon="1.99006">
        <ele>117.8</ele>
        <time>2021-06-03T13:00:35Z</time>
      </trkpt>
      <trkpt lat="48.5368" lon="1.99007">
        <ele>117.6</ele>
        <time>2021-06-03T13:00:53Z</time>
      </trkpt>
      <trkpt lat="48.53674" lon="1.99005">
        <ele>117</ele>
        <time>2021-06-03T13:00:55Z</time>
      </trkpt>
      <trkpt lat="48.53667" lon="1.98999">
        <ele>116</ele>
        <time>2021-06-03T13:00:57Z</time>
      </trkpt>
      <trkpt lat="48.5366" lon="1.98994">
        <ele>115.9</ele>
        <time>2021-06-03T13:00:59Z</time>
      </trkpt>
      <trkpt lat="48.53656" lon="1.9899">
        <ele>115.8</ele>
        <time>2021-06-03T13:01:05Z</time>
      </trkpt>
      <trkpt lat="48.5365" lon="1.98988">
        <ele>115.7</ele>
        <time>2021-06-03T13:01:11Z</time>
      </trkpt>
      <trkpt lat="48.53643" lon="1.98986">
        <ele>115.6</ele>
        <time>2021-06-03T13:01:17Z</time>
      </trkpt>
      <trkpt lat="48.53633" lon="1.98988">
        <ele>115.6</ele>
        <time>2021-06-03T13:01:21Z</time>
      </trkpt>
      <trkpt lat="48.53626" lon="1.98989">
        <ele>115.5</ele>
        <time>2021-06-03T13:01:23Z</time>
      </trkpt>
      <trkpt lat="48.53619" lon="1.98989">
        <ele>115.4</ele>
        <time>2021-06-03T13:01:25Z</time>
      </trkpt>
      <trkpt lat="48.53611" lon="1.98989">
        <ele>115.4</ele>
        <time>2021-06-03T13:01:27Z</time>
      </trkpt>
      <trkpt lat="48.53601" lon="1.9899">
        <ele>115.3</ele>
        <time>2021-06-03T13:01:29Z</time>
      </trkpt>
      <trkpt lat="48.53593" lon="1.98991">
        <ele>115.2</ele>
        <time>2021-06-03T13:01:31Z</time>
      </trkpt>
      <trkpt lat="48.53583" lon="1.98995">
        <ele>115.1</ele>
        <time>2021-06-03T13:01:33Z</time>
      </trkpt>
      <trkpt lat="48.53573" lon="1.99001">
        <ele>114.8</ele>
        <time>2021-06-03T13:01:35Z</time>
      </trkpt>
      <trkpt lat="48.53564" lon="1.99005">
        <ele>114.8</ele>
        <time>2021-06-03T13:01:37Z</time>
      </trkpt>
      <trkpt lat="48.53558" lon="1.99015">
        <ele>115.1</ele>
        <time>2021-06-03T13:01:39Z</time>
      </trkpt>
      <trkpt lat="48.53549" lon="1.99024">
        <ele>115.2</ele>
        <time>2021-06-03T13:01:41Z</time>
      </trkpt>
      <trkpt lat="48.53539" lon="1.99031">
        <ele>115</ele>
        <time>2021-06-03T13:01:43Z</time>
      </trkpt>
      <trkpt lat="48.5353" lon="1.99041">
        <ele>114.7</ele>
        <time>2021-06-03T13:01:45Z</time>
      </trkpt>
      <trkpt lat="48.53521" lon="1.99043">
        <ele>114.3</ele>
        <time>2021-06-03T13:01:47Z</time>
      </trkpt>
      <trkpt lat="48.53514" lon="1.99041">
        <ele>113.9</ele>
        <time>2021-06-03T13:01:49Z</time>
      </trkpt>
      <trkpt lat="48.53509" lon="1.99027">
        <ele>113.5</ele>
        <time>2021-06-03T13:01:51Z</time>
      </trkpt>
      <trkpt lat="48.53507" lon="1.9902">
        <ele>113.3</ele>
        <time>2021-06-03T13:01:53Z</time>
      </trkpt>
      <trkpt lat="48.53503" lon="1.99005">
        <ele>113.1</ele>
        <time>2021-06-03T13:01:55Z</time>
      </trkpt>
      <trkpt lat="48.53498" lon="1.98988">
        <ele>113.2</ele>
        <time>2021-06-03T13:01:57Z</time>
      </trkpt>
      <trkpt lat="48.53495" lon="1.98974">
        <ele>113.3</ele>
        <time>2021-06-03T13:01:59Z</time>
      </trkpt>
      <trkpt lat="48.53492" lon="1.9896">
        <ele>113.4</ele>
        <time>2021-06-03T13:02:01Z</time>
      </trkpt>
      <trkpt lat="48.5349" lon="1.98948">
        <ele>113.5</ele>
        <time>2021-06-03T13:02:03Z</time>
      </trkpt>
      <trkpt lat="48.53486" lon="1.98932">
        <ele>113.6</ele>
        <time>2021-06-03T13:02:05Z</time>
      </trkpt>
      <trkpt lat="48.53482" lon="1.98919">
        <ele>113.7</ele>
        <time>2021-06-03T13:02:07Z</time>
      </trkpt>
      <trkpt lat="48.53478" lon="1.9891">
        <ele>113.7</ele>
        <time>2021-06-03T13:02:09Z</time>
      </trkpt>
      <trkpt lat="48.53471" lon="1.98904">
        <ele>113.4</ele>
        <time>2021-06-03T13:02:11Z</time>
      </trkpt>
      <trkpt lat="48.53466" lon="1.98902">
        <ele>113.2</ele>
        <time>2021-06-03T13:02:13Z</time>
      </trkpt>
      <trkpt lat="48.53464" lon="1.98893">
        <ele>113.4</ele>
        <time>2021-06-03T13:02:25Z</time>
      </trkpt>
      <trkpt lat="48.53461" lon="1.98885">
        <ele>113.5</ele>
        <time>2021-06-03T13:02:27Z</time>
      </trkpt>
      <trkpt lat="48.53456" lon="1.98876">
        <ele>113.6</ele>
        <time>2021-06-03T13:02:29Z</time>
      </trkpt>
      <trkpt lat="48.5345" lon="1.98867">
        <ele>113.6</ele>
        <time>2021-06-03T13:02:31Z</time>
      </trkpt>
      <trkpt lat="48.53445" lon="1.98855">
        <ele>113.8</ele>
        <time>2021-06-03T13:02:33Z</time>
      </trkpt>
      <trkpt lat="48.53439" lon="1.98844">
        <ele>113.9</ele>
        <time>2021-06-03T13:02:35Z</time>
      </trkpt>
      <trkpt lat="48.53433" lon="1.98833">
        <ele>114</ele>
        <time>2021-06-03T13:02:37Z</time>
      </trkpt>
      <trkpt lat="48.53429" lon="1.98822">
        <ele>114.4</ele>
        <time>2021-06-03T13:02:39Z</time>
      </trkpt>
      <trkpt lat="48.53422" lon="1.9881">
        <ele>114.7</ele>
        <time>2021-06-03T13:02:41Z</time>
      </trkpt>
      <trkpt lat="48.53418" lon="1.98798">
        <ele>115.2</ele>
        <time>2021-06-03T13:02:43Z</time>
      </trkpt>
      <trkpt lat="48.53415" lon="1.98786">
        <ele>115.7</ele>
        <time>2021-06-03T13:02:45Z</time>
      </trkpt>
      <trkpt lat="48.53412" lon="1.98774">
        <ele>116.2</ele>
        <time>2021-06-03T13:02:47Z</time>
      </trkpt>
      <trkpt lat="48.53409" lon="1.98764">
        <ele>116.6</ele>
        <time>2021-06-03T13:02:49Z</time>
      </trkpt>
      <trkpt lat="48.53409" lon="1.98754">
        <ele>117.1</ele>
        <time>2021-06-03T13:02:51Z</time>
      </trkpt>
      <trkpt lat="48.53406" lon="1.98745">
        <ele>117.2</ele>
        <time>2021-06-03T13:02:53Z</time>
      </trkpt>
      <trkpt lat="48.53403" lon="1.98734">
        <ele>117.2</ele>
        <time>2021-06-03T13:02:55Z</time>
      </trkpt>
      <trkpt lat="48.53404" lon="1.98726">
        <ele>117.5</ele>
        <time>2021-06-03T13:02:57Z</time>
      </trkpt>
      <trkpt lat="48.53403" lon="1.98714">
        <ele>117.7</ele>
        <time>2021-06-03T13:02:59Z</time>
      </trkpt>
      <trkpt lat="48.53402" lon="1.98701">
        <ele>117.9</ele>
        <time>2021-06-03T13:03:01Z</time>
      </trkpt>
      <trkpt lat="48.534" lon="1.9869">
        <ele>117.9</ele>
        <time>2021-06-03T13:03:03Z</time>
      </trkpt>
      <trkpt lat="48.53399" lon="1.98682">
        <ele>117.9</ele>
        <time>2021-06-03T13:03:05Z</time>
      </trkpt>
      <trkpt lat="48.53398" lon="1.9867">
        <ele>118.2</ele>
        <time>2021-06-03T13:03:07Z</time>
      </trkpt>
      <trkpt lat="48.53396" lon="1.98659">
        <ele>118.2</ele>
        <time>2021-06-03T13:03:09Z</time>
      </trkpt>
      <trkpt lat="48.53396" lon="1.98646">
        <ele>118.3</ele>
        <time>2021-06-03T13:03:11Z</time>
      </trkpt>
      <trkpt lat="48.53395" lon="1.98634">
        <ele>118.5</ele>
        <time>2021-06-03T13:03:13Z</time>
      </trkpt>
      <trkpt lat="48.53396" lon="1.98624">
        <ele>118.8</ele>
        <time>2021-06-03T13:03:15Z</time>
      </trkpt>
      <trkpt lat="48.53396" lon="1.98613">
        <ele>119</ele>
        <time>2021-06-03T13:03:17Z</time>
      </trkpt>
      <trkpt lat="48.53393" lon="1.98599">
        <ele>119</ele>
        <time>2021-06-03T13:03:19Z</time>
      </trkpt>
      <trkpt lat="48.53393" lon="1.98587">
        <ele>119.2</ele>
        <time>2021-06-03T13:03:21Z</time>
      </trkpt>
      <trkpt lat="48.53391" lon="1.98575">
        <ele>119.4</ele>
        <time>2021-06-03T13:03:23Z</time>
      </trkpt>
      <trkpt lat="48.53391" lon="1.98565">
        <ele>119.7</ele>
        <time>2021-06-03T13:03:25Z</time>
      </trkpt>
      <trkpt lat="48.53389" lon="1.98554">
        <ele>120</ele>
        <time>2021-06-03T13:03:27Z</time>
      </trkpt>
      <trkpt lat="48.53387" lon="1.98541">
        <ele>120.2</ele>
        <time>2021-06-03T13:03:29Z</time>
      </trkpt>
      <trkpt lat="48.53384" lon="1.98529">
        <ele>120.5</ele>
        <time>2021-06-03T13:03:31Z</time>
      </trkpt>
      <trkpt lat="48.53384" lon="1.98517">
        <ele>120.9</ele>
        <time>2021-06-03T13:03:33Z</time>
      </trkpt>
      <trkpt lat="48.53382" lon="1.98503">
        <ele>121.2</ele>
        <time>2021-06-03T13:03:35Z</time>
      </trkpt>
      <trkpt lat="48.53381" lon="1.98491">
        <ele>121.6</ele>
        <time>2021-06-03T13:03:37Z</time>
      </trkpt>
      <trkpt lat="48.53381" lon="1.9848">
        <ele>121.8</ele>
        <time>2021-06-03T13:03:39Z</time>
      </trkpt>
      <trkpt lat="48.5338" lon="1.98471">
        <ele>122.1</ele>
        <time>2021-06-03T13:03:41Z</time>
      </trkpt>
      <trkpt lat="48.5338" lon="1.98461">
        <ele>122.4</ele>
        <time>2021-06-03T13:03:43Z</time>
      </trkpt>
      <trkpt lat="48.53379" lon="1.98451">
        <ele>122.6</ele>
        <time>2021-06-03T13:03:45Z</time>
      </trkpt>
      <trkpt lat="48.53377" lon="1.98441">
        <ele>122.9</ele>
        <time>2021-06-03T13:03:47Z</time>
      </trkpt>
      <trkpt lat="48.53376" lon="1.98434">
        <ele>123</ele>
        <time>2021-06-03T13:03:49Z</time>
      </trkpt>
      <trkpt lat="48.53376" lon="1.98419">
        <ele>123.5</ele>
        <time>2021-06-03T13:03:53Z</time>
      </trkpt>
      <trkpt lat="48.5338" lon="1.98414">
        <ele>123.7</ele>
        <time>2021-06-03T13:03:55Z</time>
      </trkpt>
      <trkpt lat="48.53385" lon="1.98409">
        <ele>123.9</ele>
        <time>2021-06-03T13:03:57Z</time>
      </trkpt>
      <trkpt lat="48.53391" lon="1.98398">
        <ele>124</ele>
        <time>2021-06-03T13:04:01Z</time>
      </trkpt>
      <trkpt lat="48.53396" lon="1.98394">
        <ele>124.1</ele>
        <time>2021-06-03T13:04:03Z</time>
      </trkpt>
      <trkpt lat="48.53401" lon="1.98387">
        <ele>124.1</ele>
        <time>2021-06-03T13:04:05Z</time>
      </trkpt>
      <trkpt lat="48.53409" lon="1.98379">
        <ele>124.1</ele>
        <time>2021-06-03T13:04:09Z</time>
      </trkpt>
      <trkpt lat="48.53414" lon="1.98372">
        <ele>123.9</ele>
        <time>2021-06-03T13:04:11Z</time>
      </trkpt>
      <trkpt lat="48.53418" lon="1.98365">
        <ele>123.9</ele>
        <time>2021-06-03T13:04:13Z</time>
      </trkpt>
      <trkpt lat="48.53422" lon="1.98356">
        <ele>124</ele>
        <time>2021-06-03T13:04:15Z</time>
      </trkpt>
      <trkpt lat="48.53428" lon="1.98352">
        <ele>124.3</ele>
        <time>2021-06-03T13:04:17Z</time>
      </trkpt>
      <trkpt lat="48.53437" lon="1.98345">
        <ele>124.8</ele>
        <time>2021-06-03T13:04:21Z</time>
      </trkpt>
      <trkpt lat="48.53443" lon="1.98339">
        <ele>125.3</ele>
        <time>2021-06-03T13:04:23Z</time>
      </trkpt>
      <trkpt lat="48.53447" lon="1.98335">
        <ele>125.6</ele>
        <time>2021-06-03T13:04:25Z</time>
      </trkpt>
      <trkpt lat="48.53453" lon="1.98333">
        <ele>126.1</ele>
        <time>2021-06-03T13:04:27Z</time>
      </trkpt>
      <trkpt lat="48.53462" lon="1.98326">
        <ele>126.8</ele>
        <time>2021-06-03T13:04:31Z</time>
      </trkpt>
      <trkpt lat="48.53467" lon="1.98321">
        <ele>127.2</ele>
        <time>2021-06-03T13:04:33Z</time>
      </trkpt>
      <trkpt lat="48.53472" lon="1.98316">
        <ele>127.6</ele>
        <time>2021-06-03T13:04:35Z</time>
      </trkpt>
      <trkpt lat="48.53479" lon="1.9831">
        <ele>128</ele>
        <time>2021-06-03T13:04:37Z</time>
      </trkpt>
      <trkpt lat="48.53485" lon="1.98306">
        <ele>128.4</ele>
        <time>2021-06-03T13:04:39Z</time>
      </trkpt>
      <trkpt lat="48.5349" lon="1.98301">
        <ele>128.6</ele>
        <time>2021-06-03T13:04:41Z</time>
      </trkpt>
      <trkpt lat="48.53496" lon="1.98295">
        <ele>128.9</ele>
        <time>2021-06-03T13:04:43Z</time>
      </trkpt>
      <trkpt lat="48.53501" lon="1.98289">
        <ele>129</ele>
        <time>2021-06-03T13:04:45Z</time>
      </trkpt>
      <trkpt lat="48.53507" lon="1.98284">
        <ele>129.1</ele>
        <time>2021-06-03T13:04:47Z</time>
      </trkpt>
      <trkpt lat="48.53513" lon="1.98278">
        <ele>129.3</ele>
        <time>2021-06-03T13:04:49Z</time>
      </trkpt>
      <trkpt lat="48.53518" lon="1.98275">
        <ele>129.5</ele>
        <time>2021-06-03T13:04:51Z</time>
      </trkpt>
      <trkpt lat="48.53524" lon="1.9827">
        <ele>129.7</ele>
        <time>2021-06-03T13:04:53Z</time>
      </trkpt>
      <trkpt lat="48.5353" lon="1.98265">
        <ele>130</ele>
        <time>2021-06-03T13:04:55Z</time>
      </trkpt>
      <trkpt lat="48.53535" lon="1.98259">
        <ele>130.2</ele>
        <time>2021-06-03T13:04:57Z</time>
      </trkpt>
      <trkpt lat="48.53541" lon="1.98253">
        <ele>130.5</ele>
        <time>2021-06-03T13:04:59Z</time>
      </trkpt>
      <trkpt lat="48.53547" lon="1.98246">
        <ele>130.9</ele>
        <time>2021-06-03T13:05:01Z</time>
      </trkpt>
      <trkpt lat="48.53552" lon="1.98243">
        <ele>131.2</ele>
        <time>2021-06-03T13:05:03Z</time>
      </trkpt>
      <trkpt lat="48.53557" lon="1.98236">
        <ele>131.5</ele>
        <time>2021-06-03T13:05:05Z</time>
      </trkpt>
      <trkpt lat="48.53563" lon="1.98232">
        <ele>131.8</ele>
        <time>2021-06-03T13:05:07Z</time>
      </trkpt>
      <trkpt lat="48.53568" lon="1.98231">
        <ele>132</ele>
        <time>2021-06-03T13:05:09Z</time>
      </trkpt>
      <trkpt lat="48.53573" lon="1.98225">
        <ele>132.2</ele>
        <time>2021-06-03T13:05:11Z</time>
      </trkpt>
      <trkpt lat="48.53576" lon="1.98219">
        <ele>132.3</ele>
        <time>2021-06-03T13:05:13Z</time>
      </trkpt>
      <trkpt lat="48.53581" lon="1.98215">
        <ele>132.5</ele>
        <time>2021-06-03T13:05:15Z</time>
      </trkpt>
      <trkpt lat="48.53587" lon="1.9821">
        <ele>132.9</ele>
        <time>2021-06-03T13:05:17Z</time>
      </trkpt>
      <trkpt lat="48.53592" lon="1.98206">
        <ele>133.3</ele>
        <time>2021-06-03T13:05:19Z</time>
      </trkpt>
      <trkpt lat="48.53596" lon="1.98201">
        <ele>133.6</ele>
        <time>2021-06-03T13:05:21Z</time>
      </trkpt>
      <trkpt lat="48.536" lon="1.98197">
        <ele>134</ele>
        <time>2021-06-03T13:05:23Z</time>
      </trkpt>
      <trkpt lat="48.53608" lon="1.98189">
        <ele>134.8</ele>
        <time>2021-06-03T13:05:27Z</time>
      </trkpt>
      <trkpt lat="48.53612" lon="1.98185">
        <ele>135.2</ele>
        <time>2021-06-03T13:05:29Z</time>
      </trkpt>
      <trkpt lat="48.53617" lon="1.98181">
        <ele>135.6</ele>
        <time>2021-06-03T13:05:31Z</time>
      </trkpt>
      <trkpt lat="48.53623" lon="1.98174">
        <ele>136.3</ele>
        <time>2021-06-03T13:05:35Z</time>
      </trkpt>
      <trkpt lat="48.53627" lon="1.98173">
        <ele>136.7</ele>
        <time>2021-06-03T13:05:37Z</time>
      </trkpt>
      <trkpt lat="48.53634" lon="1.98167">
        <ele>137.5</ele>
        <time>2021-06-03T13:05:41Z</time>
      </trkpt>
      <trkpt lat="48.5364" lon="1.98162">
        <ele>138.2</ele>
        <time>2021-06-03T13:05:45Z</time>
      </trkpt>
      <trkpt lat="48.53646" lon="1.98153">
        <ele>138.8</ele>
        <time>2021-06-03T13:05:49Z</time>
      </trkpt>
      <trkpt lat="48.53653" lon="1.98148">
        <ele>139.4</ele>
        <time>2021-06-03T13:05:53Z</time>
      </trkpt>
      <trkpt lat="48.5366" lon="1.98144">
        <ele>140.1</ele>
        <time>2021-06-03T13:05:57Z</time>
      </trkpt>
      <trkpt lat="48.53667" lon="1.9814">
        <ele>140.7</ele>
        <time>2021-06-03T13:06:01Z</time>
      </trkpt>
      <trkpt lat="48.53674" lon="1.98134">
        <ele>141.3</ele>
        <time>2021-06-03T13:06:05Z</time>
      </trkpt>
      <trkpt lat="48.5368" lon="1.98127">
        <ele>141.9</ele>
        <time>2021-06-03T13:06:09Z</time>
      </trkpt>
      <trkpt lat="48.53686" lon="1.98121">
        <ele>142.5</ele>
        <time>2021-06-03T13:06:13Z</time>
      </trkpt>
      <trkpt lat="48.53693" lon="1.98113">
        <ele>143</ele>
        <time>2021-06-03T13:06:17Z</time>
      </trkpt>
      <trkpt lat="48.53699" lon="1.98106">
        <ele>143.5</ele>
        <time>2021-06-03T13:06:21Z</time>
      </trkpt>
      <trkpt lat="48.53706" lon="1.98103">
        <ele>144.1</ele>
        <time>2021-06-03T13:06:25Z</time>
      </trkpt>
      <trkpt lat="48.5371" lon="1.98098">
        <ele>144.4</ele>
        <time>2021-06-03T13:06:27Z</time>
      </trkpt>
      <trkpt lat="48.53715" lon="1.98094">
        <ele>144.8</ele>
        <time>2021-06-03T13:06:31Z</time>
      </trkpt>
      <trkpt lat="48.53721" lon="1.98089">
        <ele>145.3</ele>
        <time>2021-06-03T13:06:35Z</time>
      </trkpt>
      <trkpt lat="48.53726" lon="1.98083">
        <ele>145.7</ele>
        <time>2021-06-03T13:06:39Z</time>
      </trkpt>
      <trkpt lat="48.53732" lon="1.98079">
        <ele>146.2</ele>
        <time>2021-06-03T13:06:43Z</time>
      </trkpt>
      <trkpt lat="48.53738" lon="1.98073">
        <ele>146.6</ele>
        <time>2021-06-03T13:06:47Z</time>
      </trkpt>
      <trkpt lat="48.53745" lon="1.98065">
        <ele>146.9</ele>
        <time>2021-06-03T13:06:51Z</time>
      </trkpt>
      <trkpt lat="48.53751" lon="1.98057">
        <ele>147.1</ele>
        <time>2021-06-03T13:06:55Z</time>
      </trkpt>
      <trkpt lat="48.53752" lon="1.98047">
        <ele>146.8</ele>
        <time>2021-06-03T13:06:59Z</time>
      </trkpt>
      <trkpt lat="48.53748" lon="1.98036">
        <ele>146.2</ele>
        <time>2021-06-03T13:07:03Z</time>
      </trkpt>
      <trkpt lat="48.53748" lon="1.98028">
        <ele>145.9</ele>
        <time>2021-06-03T13:07:07Z</time>
      </trkpt>
      <trkpt lat="48.53749" lon="1.98019">
        <ele>145.6</ele>
        <time>2021-06-03T13:07:11Z</time>
      </trkpt>
      <trkpt lat="48.53747" lon="1.98009">
        <ele>145.2</ele>
        <time>2021-06-03T13:07:15Z</time>
      </trkpt>
      <trkpt lat="48.53744" lon="1.98">
        <ele>144.8</ele>
        <time>2021-06-03T13:07:19Z</time>
      </trkpt>
      <trkpt lat="48.5374" lon="1.97996">
        <ele>144.4</ele>
        <time>2021-06-03T13:07:21Z</time>
      </trkpt>
      <trkpt lat="48.53736" lon="1.97994">
        <ele>144.1</ele>
        <time>2021-06-03T13:07:23Z</time>
      </trkpt>
      <trkpt lat="48.53731" lon="1.97994">
        <ele>143.9</ele>
        <time>2021-06-03T13:07:25Z</time>
      </trkpt>
      <trkpt lat="48.53726" lon="1.97994">
        <ele>143.7</ele>
        <time>2021-06-03T13:07:27Z</time>
      </trkpt>
      <trkpt lat="48.5372" lon="1.97996">
        <ele>143.6</ele>
        <time>2021-06-03T13:07:29Z</time>
      </trkpt>
      <trkpt lat="48.53713" lon="1.97998">
        <ele>143.5</ele>
        <time>2021-06-03T13:07:31Z</time>
      </trkpt>
      <trkpt lat="48.53705" lon="1.97999">
        <ele>143.3</ele>
        <time>2021-06-03T13:07:33Z</time>
      </trkpt>
      <trkpt lat="48.53693" lon="1.98001">
        <ele>143</ele>
        <time>2021-06-03T13:07:35Z</time>
      </trkpt>
      <trkpt lat="48.53682" lon="1.98006">
        <ele>142.5</ele>
        <time>2021-06-03T13:07:37Z</time>
      </trkpt>
      <trkpt lat="48.53674" lon="1.98011">
        <ele>142.1</ele>
        <time>2021-06-03T13:07:39Z</time>
      </trkpt>
      <trkpt lat="48.53665" lon="1.98013">
        <ele>141.5</ele>
        <time>2021-06-03T13:07:41Z</time>
      </trkpt>
      <trkpt lat="48.53657" lon="1.98007">
        <ele>141</ele>
        <time>2021-06-03T13:07:43Z</time>
      </trkpt>
      <trkpt lat="48.53648" lon="1.97997">
        <ele>140.2</ele>
        <time>2021-06-03T13:07:45Z</time>
      </trkpt>
      <trkpt lat="48.53637" lon="1.97985">
        <ele>137.9</ele>
        <time>2021-06-03T13:07:47Z</time>
      </trkpt>
      <trkpt lat="48.53631" lon="1.9797">
        <ele>135.8</ele>
        <time>2021-06-03T13:07:49Z</time>
      </trkpt>
      <trkpt lat="48.53631" lon="1.97954">
        <ele>134</ele>
        <time>2021-06-03T13:07:51Z</time>
      </trkpt>
      <trkpt lat="48.53634" lon="1.97945">
        <ele>133.2</ele>
        <time>2021-06-03T13:07:53Z</time>
      </trkpt>
      <trkpt lat="48.5364" lon="1.97935">
        <ele>132.4</ele>
        <time>2021-06-03T13:07:57Z</time>
      </trkpt>
      <trkpt lat="48.53643" lon="1.97926">
        <ele>131.7</ele>
        <time>2021-06-03T13:07:59Z</time>
      </trkpt>
      <trkpt lat="48.53649" lon="1.97914">
        <ele>130.7</ele>
        <time>2021-06-03T13:08:01Z</time>
      </trkpt>
      <trkpt lat="48.53655" lon="1.97896">
        <ele>129.3</ele>
        <time>2021-06-03T13:08:03Z</time>
      </trkpt>
      <trkpt lat="48.53663" lon="1.97882">
        <ele>128.4</ele>
        <time>2021-06-03T13:08:05Z</time>
      </trkpt>
      <trkpt lat="48.53663" lon="1.97873">
        <ele>127.6</ele>
        <time>2021-06-03T13:08:07Z</time>
      </trkpt>
      <trkpt lat="48.53657" lon="1.97866">
        <ele>126.4</ele>
        <time>2021-06-03T13:08:09Z</time>
      </trkpt>
      <trkpt lat="48.5365" lon="1.97856">
        <ele>125</ele>
        <time>2021-06-03T13:08:11Z</time>
      </trkpt>
      <trkpt lat="48.53642" lon="1.97845">
        <ele>123.4</ele>
        <time>2021-06-03T13:08:13Z</time>
      </trkpt>
      <trkpt lat="48.53631" lon="1.97833">
        <ele>121.5</ele>
        <time>2021-06-03T13:08:15Z</time>
      </trkpt>
      <trkpt lat="48.53619" lon="1.97825">
        <ele>120.5</ele>
        <time>2021-06-03T13:08:17Z</time>
      </trkpt>
      <trkpt lat="48.53608" lon="1.97817">
        <ele>119.7</ele>
        <time>2021-06-03T13:08:19Z</time>
      </trkpt>
      <trkpt lat="48.53594" lon="1.97809">
        <ele>118.4</ele>
        <time>2021-06-03T13:08:21Z</time>
      </trkpt>
      <trkpt lat="48.53581" lon="1.97803">
        <ele>117.2</ele>
        <time>2021-06-03T13:08:23Z</time>
      </trkpt>
      <trkpt lat="48.53566" lon="1.97812">
        <ele>116.9</ele>
        <time>2021-06-03T13:08:25Z</time>
      </trkpt>
      <trkpt lat="48.53559" lon="1.97826">
        <ele>116.8</ele>
        <time>2021-06-03T13:08:27Z</time>
      </trkpt>
      <trkpt lat="48.53549" lon="1.97838">
        <ele>116.8</ele>
        <time>2021-06-03T13:08:29Z</time>
      </trkpt>
      <trkpt lat="48.5354" lon="1.97847">
        <ele>117.1</ele>
        <time>2021-06-03T13:08:31Z</time>
      </trkpt>
      <trkpt lat="48.53531" lon="1.97856">
        <ele>117.4</ele>
        <time>2021-06-03T13:08:33Z</time>
      </trkpt>
      <trkpt lat="48.53523" lon="1.97865">
        <ele>117.7</ele>
        <time>2021-06-03T13:08:35Z</time>
      </trkpt>
      <trkpt lat="48.53516" lon="1.97871">
        <ele>117.8</ele>
        <time>2021-06-03T13:08:37Z</time>
      </trkpt>
      <trkpt lat="48.53509" lon="1.97876">
        <ele>117.7</ele>
        <time>2021-06-03T13:08:39Z</time>
      </trkpt>
      <trkpt lat="48.53498" lon="1.97879">
        <ele>117.2</ele>
        <time>2021-06-03T13:08:41Z</time>
      </trkpt>
      <trkpt lat="48.53488" lon="1.97883">
        <ele>117</ele>
        <time>2021-06-03T13:08:43Z</time>
      </trkpt>
      <trkpt lat="48.53479" lon="1.97889">
        <ele>117</ele>
        <time>2021-06-03T13:08:45Z</time>
      </trkpt>
      <trkpt lat="48.53468" lon="1.97897">
        <ele>116.8</ele>
        <time>2021-06-03T13:08:47Z</time>
      </trkpt>
      <trkpt lat="48.53455" lon="1.97904">
        <ele>116.3</ele>
        <time>2021-06-03T13:08:49Z</time>
      </trkpt>
      <trkpt lat="48.53442" lon="1.97913">
        <ele>115.7</ele>
        <time>2021-06-03T13:08:51Z</time>
      </trkpt>
      <trkpt lat="48.5343" lon="1.9792">
        <ele>115.3</ele>
        <time>2021-06-03T13:08:53Z</time>
      </trkpt>
      <trkpt lat="48.5342" lon="1.9793">
        <ele>115.4</ele>
        <time>2021-06-03T13:08:55Z</time>
      </trkpt>
      <trkpt lat="48.53411" lon="1.97942">
        <ele>116.2</ele>
        <time>2021-06-03T13:08:57Z</time>
      </trkpt>
      <trkpt lat="48.53402" lon="1.97953">
        <ele>117.1</ele>
        <time>2021-06-03T13:08:59Z</time>
      </trkpt>
      <trkpt lat="48.53393" lon="1.97965">
        <ele>118</ele>
        <time>2021-06-03T13:09:01Z</time>
      </trkpt>
      <trkpt lat="48.53385" lon="1.97977">
        <ele>118.9</ele>
        <time>2021-06-03T13:09:03Z</time>
      </trkpt>
      <trkpt lat="48.53377" lon="1.9799">
        <ele>119.8</ele>
        <time>2021-06-03T13:09:05Z</time>
      </trkpt>
      <trkpt lat="48.5337" lon="1.98">
        <ele>120.4</ele>
        <time>2021-06-03T13:09:07Z</time>
      </trkpt>
      <trkpt lat="48.53364" lon="1.98007">
        <ele>121.1</ele>
        <time>2021-06-03T13:09:09Z</time>
      </trkpt>
      <trkpt lat="48.53358" lon="1.98009">
        <ele>121.3</ele>
        <time>2021-06-03T13:09:11Z</time>
      </trkpt>
      <trkpt lat="48.53353" lon="1.98008">
        <ele>121.1</ele>
        <time>2021-06-03T13:09:13Z</time>
      </trkpt>
      <trkpt lat="48.53349" lon="1.97998">
        <ele>120.1</ele>
        <time>2021-06-03T13:09:17Z</time>
      </trkpt>
      <trkpt lat="48.53349" lon="1.9799">
        <ele>119.5</ele>
        <time>2021-06-03T13:09:19Z</time>
      </trkpt>
      <trkpt lat="48.53348" lon="1.97982">
        <ele>119</ele>
        <time>2021-06-03T13:09:21Z</time>
      </trkpt>
      <trkpt lat="48.53348" lon="1.97975">
        <ele>118.6</ele>
        <time>2021-06-03T13:09:23Z</time>
      </trkpt>
      <trkpt lat="48.53349" lon="1.97967">
        <ele>118</ele>
        <time>2021-06-03T13:09:27Z</time>
      </trkpt>
      <trkpt lat="48.53349" lon="1.97958">
        <ele>117.5</ele>
        <time>2021-06-03T13:09:31Z</time>
      </trkpt>
      <trkpt lat="48.53345" lon="1.97948">
        <ele>116.8</ele>
        <time>2021-06-03T13:09:35Z</time>
      </trkpt>
      <trkpt lat="48.53347" lon="1.97959">
        <ele>117.6</ele>
        <time>2021-06-03T13:09:49Z</time>
      </trkpt>
      <trkpt lat="48.5335" lon="1.97965">
        <ele>118</ele>
        <time>2021-06-03T13:09:51Z</time>
      </trkpt>
      <trkpt lat="48.5335" lon="1.97973">
        <ele>118.5</ele>
        <time>2021-06-03T13:09:53Z</time>
      </trkpt>
      <trkpt lat="48.53348" lon="1.97981">
        <ele>119</ele>
        <time>2021-06-03T13:09:55Z</time>
      </trkpt>
      <trkpt lat="48.53343" lon="1.97986">
        <ele>119.2</ele>
        <time>2021-06-03T13:09:57Z</time>
      </trkpt>
      <trkpt lat="48.53335" lon="1.97986">
        <ele>119.2</ele>
        <time>2021-06-03T13:09:59Z</time>
      </trkpt>
      <trkpt lat="48.53327" lon="1.97984">
        <ele>119.4</ele>
        <time>2021-06-03T13:10:01Z</time>
      </trkpt>
      <trkpt lat="48.5332" lon="1.97979">
        <ele>119.5</ele>
        <time>2021-06-03T13:10:03Z</time>
      </trkpt>
      <trkpt lat="48.53311" lon="1.97979">
        <ele>120</ele>
        <time>2021-06-03T13:10:05Z</time>
      </trkpt>
      <trkpt lat="48.53305" lon="1.9798">
        <ele>120.3</ele>
        <time>2021-06-03T13:10:07Z</time>
      </trkpt>
      <trkpt lat="48.53299" lon="1.97976">
        <ele>120.4</ele>
        <time>2021-06-03T13:10:09Z</time>
      </trkpt>
      <trkpt lat="48.53289" lon="1.9797">
        <ele>120.4</ele>
        <time>2021-06-03T13:10:11Z</time>
      </trkpt>
      <trkpt lat="48.53277" lon="1.97964">
        <ele>120.6</ele>
        <time>2021-06-03T13:10:13Z</time>
      </trkpt>
      <trkpt lat="48.53265" lon="1.97958">
        <ele>120.7</ele>
        <time>2021-06-03T13:10:15Z</time>
      </trkpt>
      <trkpt lat="48.53254" lon="1.9795">
        <ele>120.6</ele>
        <time>2021-06-03T13:10:17Z</time>
      </trkpt>
      <trkpt lat="48.53245" lon="1.9794">
        <ele>120.2</ele>
        <time>2021-06-03T13:10:19Z</time>
      </trkpt>
      <trkpt lat="48.53234" lon="1.97927">
        <ele>119.8</ele>
        <time>2021-06-03T13:10:21Z</time>
      </trkpt>
      <trkpt lat="48.53223" lon="1.97918">
        <ele>119.8</ele>
        <time>2021-06-03T13:10:23Z</time>
      </trkpt>
      <trkpt lat="48.5321" lon="1.97909">
        <ele>119.8</ele>
        <time>2021-06-03T13:10:25Z</time>
      </trkpt>
      <trkpt lat="48.53201" lon="1.97903">
        <ele>119.9</ele>
        <time>2021-06-03T13:10:27Z</time>
      </trkpt>
      <trkpt lat="48.53193" lon="1.97898">
        <ele>119.9</ele>
        <time>2021-06-03T13:10:29Z</time>
      </trkpt>
      <trkpt lat="48.53186" lon="1.97892">
        <ele>119.7</ele>
        <time>2021-06-03T13:10:31Z</time>
      </trkpt>
      <trkpt lat="48.53177" lon="1.97886">
        <ele>119.6</ele>
        <time>2021-06-03T13:10:33Z</time>
      </trkpt>
      <trkpt lat="48.53167" lon="1.9788">
        <ele>119.5</ele>
        <time>2021-06-03T13:10:35Z</time>
      </trkpt>
      <trkpt lat="48.53156" lon="1.9787">
        <ele>118.6</ele>
        <time>2021-06-03T13:10:37Z</time>
      </trkpt>
      <trkpt lat="48.53143" lon="1.97859">
        <ele>117.7</ele>
        <time>2021-06-03T13:10:39Z</time>
      </trkpt>
      <trkpt lat="48.53132" lon="1.97854">
        <ele>117.5</ele>
        <time>2021-06-03T13:10:41Z</time>
      </trkpt>
      <trkpt lat="48.5312" lon="1.97846">
        <ele>117.1</ele>
        <time>2021-06-03T13:10:43Z</time>
      </trkpt>
      <trkpt lat="48.53108" lon="1.97841">
        <ele>116.9</ele>
        <time>2021-06-03T13:10:45Z</time>
      </trkpt>
      <trkpt lat="48.53099" lon="1.97839">
        <ele>117</ele>
        <time>2021-06-03T13:10:47Z</time>
      </trkpt>
      <trkpt lat="48.53092" lon="1.97841">
        <ele>117.3</ele>
        <time>2021-06-03T13:10:49Z</time>
      </trkpt>
      <trkpt lat="48.53087" lon="1.9784">
        <ele>117.3</ele>
        <time>2021-06-03T13:10:51Z</time>
      </trkpt>
      <trkpt lat="48.53083" lon="1.97839">
        <ele>117.3</ele>
        <time>2021-06-03T13:10:53Z</time>
      </trkpt>
      <trkpt lat="48.53073" lon="1.9784">
        <ele>116.6</ele>
        <time>2021-06-03T13:10:57Z</time>
      </trkpt>
      <trkpt lat="48.53066" lon="1.97841">
        <ele>116.1</ele>
        <time>2021-06-03T13:10:59Z</time>
      </trkpt>
      <trkpt lat="48.53057" lon="1.97841">
        <ele>115.4</ele>
        <time>2021-06-03T13:11:01Z</time>
      </trkpt>
      <trkpt lat="48.53049" lon="1.97845">
        <ele>115</ele>
        <time>2021-06-03T13:11:03Z</time>
      </trkpt>
      <trkpt lat="48.5304" lon="1.97856">
        <ele>114.7</ele>
        <time>2021-06-03T13:11:05Z</time>
      </trkpt>
      <trkpt lat="48.53033" lon="1.97864">
        <ele>114.3</ele>
        <time>2021-06-03T13:11:07Z</time>
      </trkpt>
      <trkpt lat="48.5303" lon="1.9787">
        <ele>114.2</ele>
        <time>2021-06-03T13:11:09Z</time>
      </trkpt>
      <trkpt lat="48.53027" lon="1.97879">
        <ele>114.2</ele>
        <time>2021-06-03T13:11:11Z</time>
      </trkpt>
      <trkpt lat="48.53026" lon="1.97888">
        <ele>114.4</ele>
        <time>2021-06-03T13:11:13Z</time>
      </trkpt>
      <trkpt lat="48.53026" lon="1.97896">
        <ele>114.5</ele>
        <time>2021-06-03T13:11:15Z</time>
      </trkpt>
      <trkpt lat="48.53027" lon="1.97904">
        <ele>114.9</ele>
        <time>2021-06-03T13:11:17Z</time>
      </trkpt>
      <trkpt lat="48.5303" lon="1.97912">
        <ele>115.4</ele>
        <time>2021-06-03T13:11:19Z</time>
      </trkpt>
      <trkpt lat="48.53032" lon="1.9792">
        <ele>115.8</ele>
        <time>2021-06-03T13:11:21Z</time>
      </trkpt>
      <trkpt lat="48.53035" lon="1.97931">
        <ele>116.1</ele>
        <time>2021-06-03T13:11:23Z</time>
      </trkpt>
      <trkpt lat="48.53036" lon="1.97944">
        <ele>116.2</ele>
        <time>2021-06-03T13:11:25Z</time>
      </trkpt>
      <trkpt lat="48.53036" lon="1.97961">
        <ele>116</ele>
        <time>2021-06-03T13:11:27Z</time>
      </trkpt>
      <trkpt lat="48.5304" lon="1.97974">
        <ele>116.4</ele>
        <time>2021-06-03T13:11:29Z</time>
      </trkpt>
      <trkpt lat="48.53044" lon="1.97987">
        <ele>116.8</ele>
        <time>2021-06-03T13:11:31Z</time>
      </trkpt>
      <trkpt lat="48.53042" lon="1.98">
        <ele>116.5</ele>
        <time>2021-06-03T13:11:33Z</time>
      </trkpt>
      <trkpt lat="48.53033" lon="1.98007">
        <ele>115.2</ele>
        <time>2021-06-03T13:11:35Z</time>
      </trkpt>
      <trkpt lat="48.53027" lon="1.98011">
        <ele>114.3</ele>
        <time>2021-06-03T13:11:37Z</time>
      </trkpt>
      <trkpt lat="48.53024" lon="1.98017">
        <ele>113.8</ele>
        <time>2021-06-03T13:11:41Z</time>
      </trkpt>
      <trkpt lat="48.53018" lon="1.98012">
        <ele>113.1</ele>
        <time>2021-06-03T13:13:03Z</time>
      </trkpt>
      <trkpt lat="48.53013" lon="1.98008">
        <ele>112.5</ele>
        <time>2021-06-03T13:13:05Z</time>
      </trkpt>
      <trkpt lat="48.53008" lon="1.98011">
        <ele>111.9</ele>
        <time>2021-06-03T13:13:07Z</time>
      </trkpt>
      <trkpt lat="48.53004" lon="1.98019">
        <ele>111</ele>
        <time>2021-06-03T13:13:09Z</time>
      </trkpt>
      <trkpt lat="48.53" lon="1.98034">
        <ele>110.2</ele>
        <time>2021-06-03T13:13:11Z</time>
      </trkpt>
      <trkpt lat="48.52999" lon="1.98046">
        <ele>109.9</ele>
        <time>2021-06-03T13:13:13Z</time>
      </trkpt>
      <trkpt lat="48.53" lon="1.9806">
        <ele>109.5</ele>
        <time>2021-06-03T13:13:15Z</time>
      </trkpt>
      <trkpt lat="48.52995" lon="1.98073">
        <ele>109.1</ele>
        <time>2021-06-03T13:13:17Z</time>
      </trkpt>
      <trkpt lat="48.52987" lon="1.98087">
        <ele>108.5</ele>
        <time>2021-06-03T13:13:19Z</time>
      </trkpt>
      <trkpt lat="48.5298" lon="1.98096">
        <ele>108.1</ele>
        <time>2021-06-03T13:13:21Z</time>
      </trkpt>
      <trkpt lat="48.52974" lon="1.98107">
        <ele>107.6</ele>
        <time>2021-06-03T13:13:23Z</time>
      </trkpt>
      <trkpt lat="48.5297" lon="1.98119">
        <ele>107.2</ele>
        <time>2021-06-03T13:13:25Z</time>
      </trkpt>
      <trkpt lat="48.5297" lon="1.98126">
        <ele>107</ele>
        <time>2021-06-03T13:13:29Z</time>
      </trkpt>
      <trkpt lat="48.52962" lon="1.98134">
        <ele>106.5</ele>
        <time>2021-06-03T13:13:35Z</time>
      </trkpt>
      <trkpt lat="48.52955" lon="1.98138">
        <ele>106</ele>
        <time>2021-06-03T13:13:39Z</time>
      </trkpt>
      <trkpt lat="48.52963" lon="1.98132">
        <ele>106.6</ele>
        <time>2021-06-03T13:13:59Z</time>
      </trkpt>
      <trkpt lat="48.52966" lon="1.98127">
        <ele>106.8</ele>
        <time>2021-06-03T13:14:01Z</time>
      </trkpt>
      <trkpt lat="48.52976" lon="1.9813">
        <ele>107.2</ele>
        <time>2021-06-03T13:14:05Z</time>
      </trkpt>
      <trkpt lat="48.5298" lon="1.98137">
        <ele>107.3</ele>
        <time>2021-06-03T13:14:07Z</time>
      </trkpt>
      <trkpt lat="48.52984" lon="1.98144">
        <ele>107.4</ele>
        <time>2021-06-03T13:14:09Z</time>
      </trkpt>
      <trkpt lat="48.52986" lon="1.98152">
        <ele>107.4</ele>
        <time>2021-06-03T13:14:11Z</time>
      </trkpt>
      <trkpt lat="48.5299" lon="1.9816">
        <ele>107.5</ele>
        <time>2021-06-03T13:14:13Z</time>
      </trkpt>
      <trkpt lat="48.52993" lon="1.98168">
        <ele>107.5</ele>
        <time>2021-06-03T13:14:15Z</time>
      </trkpt>
      <trkpt lat="48.52995" lon="1.98177">
        <ele>107.6</ele>
        <time>2021-06-03T13:14:17Z</time>
      </trkpt>
      <trkpt lat="48.53001" lon="1.98186">
        <ele>107.9</ele>
        <time>2021-06-03T13:14:19Z</time>
      </trkpt>
      <trkpt lat="48.53006" lon="1.98195">
        <ele>108.3</ele>
        <time>2021-06-03T13:14:21Z</time>
      </trkpt>
      <trkpt lat="48.53008" lon="1.98204">
        <ele>108.4</ele>
        <time>2021-06-03T13:14:23Z</time>
      </trkpt>
      <trkpt lat="48.5301" lon="1.98211">
        <ele>108.5</ele>
        <time>2021-06-03T13:14:25Z</time>
      </trkpt>
      <trkpt lat="48.53011" lon="1.98218">
        <ele>108.5</ele>
        <time>2021-06-03T13:14:27Z</time>
      </trkpt>
      <trkpt lat="48.53013" lon="1.98227">
        <ele>108.5</ele>
        <time>2021-06-03T13:14:29Z</time>
      </trkpt>
      <trkpt lat="48.53015" lon="1.98236">
        <ele>108.5</ele>
        <time>2021-06-03T13:14:31Z</time>
      </trkpt>
      <trkpt lat="48.53018" lon="1.98243">
        <ele>108.7</ele>
        <time>2021-06-03T13:14:33Z</time>
      </trkpt>
      <trkpt lat="48.5302" lon="1.98251">
        <ele>108.7</ele>
        <time>2021-06-03T13:14:35Z</time>
      </trkpt>
      <trkpt lat="48.53023" lon="1.98267">
        <ele>108.8</ele>
        <time>2021-06-03T13:14:37Z</time>
      </trkpt>
      <trkpt lat="48.53028" lon="1.98283">
        <ele>108.9</ele>
        <time>2021-06-03T13:14:39Z</time>
      </trkpt>
      <trkpt lat="48.53034" lon="1.983">
        <ele>109.1</ele>
        <time>2021-06-03T13:14:41Z</time>
      </trkpt>
      <trkpt lat="48.53038" lon="1.98317">
        <ele>109.1</ele>
        <time>2021-06-03T13:14:43Z</time>
      </trkpt>
      <trkpt lat="48.53044" lon="1.98331">
        <ele>109.1</ele>
        <time>2021-06-03T13:14:45Z</time>
      </trkpt>
      <trkpt lat="48.5305" lon="1.98343">
        <ele>109.2</ele>
        <time>2021-06-03T13:14:47Z</time>
      </trkpt>
      <trkpt lat="48.53054" lon="1.98357">
        <ele>109.2</ele>
        <time>2021-06-03T13:14:49Z</time>
      </trkpt>
      <trkpt lat="48.53058" lon="1.98371">
        <ele>109.2</ele>
        <time>2021-06-03T13:14:51Z</time>
      </trkpt>
      <trkpt lat="48.5306" lon="1.98386">
        <ele>109</ele>
        <time>2021-06-03T13:14:53Z</time>
      </trkpt>
      <trkpt lat="48.53065" lon="1.98401">
        <ele>109.1</ele>
        <time>2021-06-03T13:14:55Z</time>
      </trkpt>
      <trkpt lat="48.53067" lon="1.98416">
        <ele>109</ele>
        <time>2021-06-03T13:14:57Z</time>
      </trkpt>
      <trkpt lat="48.53071" lon="1.98429">
        <ele>109</ele>
        <time>2021-06-03T13:14:59Z</time>
      </trkpt>
      <trkpt lat="48.53073" lon="1.98443">
        <ele>108.7</ele>
        <time>2021-06-03T13:15:01Z</time>
      </trkpt>
      <trkpt lat="48.53075" lon="1.98455">
        <ele>108.6</ele>
        <time>2021-06-03T13:15:03Z</time>
      </trkpt>
      <trkpt lat="48.53077" lon="1.98465">
        <ele>108.4</ele>
        <time>2021-06-03T13:15:05Z</time>
      </trkpt>
      <trkpt lat="48.53078" lon="1.98475">
        <ele>108.3</ele>
        <time>2021-06-03T13:15:07Z</time>
      </trkpt>
      <trkpt lat="48.53073" lon="1.98479">
        <ele>107.9</ele>
        <time>2021-06-03T13:15:09Z</time>
      </trkpt>
      <trkpt lat="48.53063" lon="1.98476">
        <ele>107.4</ele>
        <time>2021-06-03T13:15:11Z</time>
      </trkpt>
      <trkpt lat="48.53053" lon="1.98476">
        <ele>106.7</ele>
        <time>2021-06-03T13:15:13Z</time>
      </trkpt>
      <trkpt lat="48.53042" lon="1.98481">
        <ele>106</ele>
        <time>2021-06-03T13:15:15Z</time>
      </trkpt>
      <trkpt lat="48.53031" lon="1.98487">
        <ele>105.2</ele>
        <time>2021-06-03T13:15:17Z</time>
      </trkpt>
      <trkpt lat="48.53021" lon="1.98491">
        <ele>104.5</ele>
        <time>2021-06-03T13:15:19Z</time>
      </trkpt>
      <trkpt lat="48.53012" lon="1.98491">
        <ele>103.9</ele>
        <time>2021-06-03T13:15:21Z</time>
      </trkpt>
      <trkpt lat="48.53003" lon="1.98489">
        <ele>103.4</ele>
        <time>2021-06-03T13:15:23Z</time>
      </trkpt>
      <trkpt lat="48.52995" lon="1.98487">
        <ele>103.3</ele>
        <time>2021-06-03T13:15:25Z</time>
      </trkpt>
      <trkpt lat="48.5299" lon="1.98482">
        <ele>103.4</ele>
        <time>2021-06-03T13:15:27Z</time>
      </trkpt>
      <trkpt lat="48.52984" lon="1.98478">
        <ele>103.4</ele>
        <time>2021-06-03T13:15:29Z</time>
      </trkpt>
      <trkpt lat="48.52978" lon="1.98474">
        <ele>103.5</ele>
        <time>2021-06-03T13:15:33Z</time>
      </trkpt>
      <trkpt lat="48.52973" lon="1.98475">
        <ele>103.4</ele>
        <time>2021-06-03T13:15:37Z</time>
      </trkpt>
      <trkpt lat="48.52978" lon="1.98472">
        <ele>103.5</ele>
        <time>2021-06-03T13:16:09Z</time>
      </trkpt>
      <trkpt lat="48.52982" lon="1.98476">
        <ele>103.5</ele>
        <time>2021-06-03T13:16:11Z</time>
      </trkpt>
      <trkpt lat="48.52992" lon="1.98481">
        <ele>103.4</ele>
        <time>2021-06-03T13:16:15Z</time>
      </trkpt>
      <trkpt lat="48.53" lon="1.98484">
        <ele>103.4</ele>
        <time>2021-06-03T13:16:17Z</time>
      </trkpt>
      <trkpt lat="48.53005" lon="1.98486">
        <ele>103.6</ele>
        <time>2021-06-03T13:16:19Z</time>
      </trkpt>
      <trkpt lat="48.5301" lon="1.9849">
        <ele>103.8</ele>
        <time>2021-06-03T13:16:23Z</time>
      </trkpt>
      <trkpt lat="48.53003" lon="1.9849">
        <ele>103.4</ele>
        <time>2021-06-03T13:16:49Z</time>
      </trkpt>
      <trkpt lat="48.52998" lon="1.9849">
        <ele>103.2</ele>
        <time>2021-06-03T13:16:51Z</time>
      </trkpt>
      <trkpt lat="48.52992" lon="1.98486">
        <ele>103.3</ele>
        <time>2021-06-03T13:16:53Z</time>
      </trkpt>
      <trkpt lat="48.52987" lon="1.98483">
        <ele>103.3</ele>
        <time>2021-06-03T13:16:55Z</time>
      </trkpt>
      <trkpt lat="48.52982" lon="1.9848">
        <ele>103.4</ele>
        <time>2021-06-03T13:16:57Z</time>
      </trkpt>
      <trkpt lat="48.52978" lon="1.98477">
        <ele>103.4</ele>
        <time>2021-06-03T13:17:07Z</time>
      </trkpt>
      <trkpt lat="48.52972" lon="1.98479">
        <ele>103.3</ele>
        <time>2021-06-03T13:17:15Z</time>
      </trkpt>
      <trkpt lat="48.52976" lon="1.98474">
        <ele>103.4</ele>
        <time>2021-06-03T13:19:17Z</time>
      </trkpt>
      <trkpt lat="48.52982" lon="1.98477">
        <ele>103.4</ele>
        <time>2021-06-03T13:19:31Z</time>
      </trkpt>
      <trkpt lat="48.52987" lon="1.98481">
        <ele>103.4</ele>
        <time>2021-06-03T13:19:33Z</time>
      </trkpt>
      <trkpt lat="48.52992" lon="1.98483">
        <ele>103.4</ele>
        <time>2021-06-03T13:19:35Z</time>
      </trkpt>
      <trkpt lat="48.52997" lon="1.98484">
        <ele>103.4</ele>
        <time>2021-06-03T13:19:37Z</time>
      </trkpt>
      <trkpt lat="48.53004" lon="1.98486">
        <ele>103.6</ele>
        <time>2021-06-03T13:19:39Z</time>
      </trkpt>
      <trkpt lat="48.53015" lon="1.98489">
        <ele>104.2</ele>
        <time>2021-06-03T13:19:41Z</time>
      </trkpt>
      <trkpt lat="48.53027" lon="1.98491">
        <ele>104.8</ele>
        <time>2021-06-03T13:19:43Z</time>
      </trkpt>
      <trkpt lat="48.53031" lon="1.98486">
        <ele>105.2</ele>
        <time>2021-06-03T13:19:45Z</time>
      </trkpt>
      <trkpt lat="48.53039" lon="1.98483">
        <ele>105.7</ele>
        <time>2021-06-03T13:19:47Z</time>
      </trkpt>
      <trkpt lat="48.53049" lon="1.9848">
        <ele>106.4</ele>
        <time>2021-06-03T13:19:49Z</time>
      </trkpt>
      <trkpt lat="48.53055" lon="1.98478">
        <ele>106.8</ele>
        <time>2021-06-03T13:19:51Z</time>
      </trkpt>
      <trkpt lat="48.53061" lon="1.98477">
        <ele>107.2</ele>
        <time>2021-06-03T13:19:53Z</time>
      </trkpt>
      <trkpt lat="48.53066" lon="1.98477">
        <ele>107.5</ele>
        <time>2021-06-03T13:19:55Z</time>
      </trkpt>
      <trkpt lat="48.53071" lon="1.98481">
        <ele>107.7</ele>
        <time>2021-06-03T13:19:57Z</time>
      </trkpt>
      <trkpt lat="48.53076" lon="1.98489">
        <ele>107.8</ele>
        <time>2021-06-03T13:19:59Z</time>
      </trkpt>
      <trkpt lat="48.53079" lon="1.98497">
        <ele>107.8</ele>
        <time>2021-06-03T13:20:01Z</time>
      </trkpt>
      <trkpt lat="48.53082" lon="1.98506">
        <ele>107.9</ele>
        <time>2021-06-03T13:20:03Z</time>
      </trkpt>
      <trkpt lat="48.53084" lon="1.98517">
        <ele>107.8</ele>
        <time>2021-06-03T13:20:05Z</time>
      </trkpt>
      <trkpt lat="48.53086" lon="1.98527">
        <ele>107.8</ele>
        <time>2021-06-03T13:20:07Z</time>
      </trkpt>
      <trkpt lat="48.53089" lon="1.98539">
        <ele>107.7</ele>
        <time>2021-06-03T13:20:09Z</time>
      </trkpt>
      <trkpt lat="48.53093" lon="1.9855">
        <ele>107.8</ele>
        <time>2021-06-03T13:20:11Z</time>
      </trkpt>
      <trkpt lat="48.53095" lon="1.98561">
        <ele>107.7</ele>
        <time>2021-06-03T13:20:13Z</time>
      </trkpt>
      <trkpt lat="48.53096" lon="1.98571">
        <ele>107.6</ele>
        <time>2021-06-03T13:20:15Z</time>
      </trkpt>
      <trkpt lat="48.53098" lon="1.98582">
        <ele>107.5</ele>
        <time>2021-06-03T13:20:17Z</time>
      </trkpt>
      <trkpt lat="48.53101" lon="1.98592">
        <ele>107.3</ele>
        <time>2021-06-03T13:20:19Z</time>
      </trkpt>
      <trkpt lat="48.53103" lon="1.98602">
        <ele>107.1</ele>
        <time>2021-06-03T13:20:21Z</time>
      </trkpt>
      <trkpt lat="48.53106" lon="1.98611">
        <ele>106.9</ele>
        <time>2021-06-03T13:20:23Z</time>
      </trkpt>
      <trkpt lat="48.53108" lon="1.98622">
        <ele>106.6</ele>
        <time>2021-06-03T13:20:25Z</time>
      </trkpt>
      <trkpt lat="48.53111" lon="1.98634">
        <ele>106.4</ele>
        <time>2021-06-03T13:20:27Z</time>
      </trkpt>
      <trkpt lat="48.53116" lon="1.98646">
        <ele>106.2</ele>
        <time>2021-06-03T13:20:29Z</time>
      </trkpt>
      <trkpt lat="48.53119" lon="1.98658">
        <ele>106</ele>
        <time>2021-06-03T13:20:31Z</time>
      </trkpt>
      <trkpt lat="48.5312" lon="1.98672">
        <ele>105.9</ele>
        <time>2021-06-03T13:20:33Z</time>
      </trkpt>
      <trkpt lat="48.53122" lon="1.98687">
        <ele>106.5</ele>
        <time>2021-06-03T13:20:35Z</time>
      </trkpt>
      <trkpt lat="48.53124" lon="1.98701">
        <ele>107</ele>
        <time>2021-06-03T13:20:37Z</time>
      </trkpt>
      <trkpt lat="48.53127" lon="1.98714">
        <ele>107.5</ele>
        <time>2021-06-03T13:20:39Z</time>
      </trkpt>
      <trkpt lat="48.53127" lon="1.98722">
        <ele>107.7</ele>
        <time>2021-06-03T13:20:41Z</time>
      </trkpt>
      <trkpt lat="48.53126" lon="1.98714">
        <ele>107.5</ele>
        <time>2021-06-03T13:20:47Z</time>
      </trkpt>
      <trkpt lat="48.53124" lon="1.98704">
        <ele>107.1</ele>
        <time>2021-06-03T13:20:51Z</time>
      </trkpt>
      <trkpt lat="48.53126" lon="1.98717">
        <ele>107.5</ele>
        <time>2021-06-03T13:21:27Z</time>
      </trkpt>
      <trkpt lat="48.53128" lon="1.98727">
        <ele>107.9</ele>
        <time>2021-06-03T13:21:29Z</time>
      </trkpt>
      <trkpt lat="48.53129" lon="1.98736">
        <ele>108.2</ele>
        <time>2021-06-03T13:21:31Z</time>
      </trkpt>
      <trkpt lat="48.5313" lon="1.98748">
        <ele>108.5</ele>
        <time>2021-06-03T13:21:33Z</time>
      </trkpt>
      <trkpt lat="48.53131" lon="1.98763">
        <ele>108.7</ele>
        <time>2021-06-03T13:21:35Z</time>
      </trkpt>
      <trkpt lat="48.53133" lon="1.98778">
        <ele>108.9</ele>
        <time>2021-06-03T13:21:37Z</time>
      </trkpt>
      <trkpt lat="48.53132" lon="1.98794">
        <ele>109</ele>
        <time>2021-06-03T13:21:39Z</time>
      </trkpt>
      <trkpt lat="48.53132" lon="1.9881">
        <ele>109.2</ele>
        <time>2021-06-03T13:21:41Z</time>
      </trkpt>
      <trkpt lat="48.53133" lon="1.98828">
        <ele>109.4</ele>
        <time>2021-06-03T13:21:43Z</time>
      </trkpt>
      <trkpt lat="48.53134" lon="1.98844">
        <ele>109.1</ele>
        <time>2021-06-03T13:21:45Z</time>
      </trkpt>
      <trkpt lat="48.53136" lon="1.9886">
        <ele>108.6</ele>
        <time>2021-06-03T13:21:47Z</time>
      </trkpt>
      <trkpt lat="48.53138" lon="1.98877">
        <ele>108.1</ele>
        <time>2021-06-03T13:21:49Z</time>
      </trkpt>
      <trkpt lat="48.5314" lon="1.98893">
        <ele>107.6</ele>
        <time>2021-06-03T13:21:51Z</time>
      </trkpt>
      <trkpt lat="48.5314" lon="1.98905">
        <ele>107.3</ele>
        <time>2021-06-03T13:21:53Z</time>
      </trkpt>
      <trkpt lat="48.53141" lon="1.98917">
        <ele>106.9</ele>
        <time>2021-06-03T13:21:55Z</time>
      </trkpt>
      <trkpt lat="48.5314" lon="1.98931">
        <ele>106.5</ele>
        <time>2021-06-03T13:21:57Z</time>
      </trkpt>
      <trkpt lat="48.53142" lon="1.98945">
        <ele>106</ele>
        <time>2021-06-03T13:21:59Z</time>
      </trkpt>
      <trkpt lat="48.53143" lon="1.98962">
        <ele>105.4</ele>
        <time>2021-06-03T13:22:01Z</time>
      </trkpt>
      <trkpt lat="48.53143" lon="1.98977">
        <ele>104.9</ele>
        <time>2021-06-03T13:22:03Z</time>
      </trkpt>
      <trkpt lat="48.53144" lon="1.98992">
        <ele>104.3</ele>
        <time>2021-06-03T13:22:05Z</time>
      </trkpt>
      <trkpt lat="48.53144" lon="1.99011">
        <ele>103.8</ele>
        <time>2021-06-03T13:22:07Z</time>
      </trkpt>
      <trkpt lat="48.53145" lon="1.99027">
        <ele>103.4</ele>
        <time>2021-06-03T13:22:09Z</time>
      </trkpt>
      <trkpt lat="48.53144" lon="1.99042">
        <ele>103.1</ele>
        <time>2021-06-03T13:22:11Z</time>
      </trkpt>
      <trkpt lat="48.53145" lon="1.99055">
        <ele>102.7</ele>
        <time>2021-06-03T13:22:13Z</time>
      </trkpt>
      <trkpt lat="48.53145" lon="1.9907">
        <ele>102.4</ele>
        <time>2021-06-03T13:22:15Z</time>
      </trkpt>
      <trkpt lat="48.53147" lon="1.99087">
        <ele>101.9</ele>
        <time>2021-06-03T13:22:17Z</time>
      </trkpt>
      <trkpt lat="48.53148" lon="1.99102">
        <ele>101.3</ele>
        <time>2021-06-03T13:22:19Z</time>
      </trkpt>
      <trkpt lat="48.53151" lon="1.99118">
        <ele>100.8</ele>
        <time>2021-06-03T13:22:21Z</time>
      </trkpt>
      <trkpt lat="48.53153" lon="1.99133">
        <ele>100.3</ele>
        <time>2021-06-03T13:22:23Z</time>
      </trkpt>
      <trkpt lat="48.53155" lon="1.99149">
        <ele>99.8</ele>
        <time>2021-06-03T13:22:25Z</time>
      </trkpt>
      <trkpt lat="48.53156" lon="1.99166">
        <ele>99.3</ele>
        <time>2021-06-03T13:22:27Z</time>
      </trkpt>
      <trkpt lat="48.53159" lon="1.99182">
        <ele>99</ele>
        <time>2021-06-03T13:22:29Z</time>
      </trkpt>
      <trkpt lat="48.53161" lon="1.99199">
        <ele>98.7</ele>
        <time>2021-06-03T13:22:31Z</time>
      </trkpt>
      <trkpt lat="48.53165" lon="1.99216">
        <ele>98.4</ele>
        <time>2021-06-03T13:22:33Z</time>
      </trkpt>
      <trkpt lat="48.53169" lon="1.99232">
        <ele>98.3</ele>
        <time>2021-06-03T13:22:35Z</time>
      </trkpt>
      <trkpt lat="48.53172" lon="1.99247">
        <ele>98.3</ele>
        <time>2021-06-03T13:22:37Z</time>
      </trkpt>
      <trkpt lat="48.53174" lon="1.9926">
        <ele>98.4</ele>
        <time>2021-06-03T13:22:39Z</time>
      </trkpt>
      <trkpt lat="48.53175" lon="1.99267">
        <ele>98.4</ele>
        <time>2021-06-03T13:22:41Z</time>
      </trkpt>
      <trkpt lat="48.53176" lon="1.99278">
        <ele>98.5</ele>
        <time>2021-06-03T13:22:45Z</time>
      </trkpt>
      <trkpt lat="48.53179" lon="1.99292">
        <ele>98.7</ele>
        <time>2021-06-03T13:22:49Z</time>
      </trkpt>
      <trkpt lat="48.5318" lon="1.99302">
        <ele>98.8</ele>
        <time>2021-06-03T13:22:51Z</time>
      </trkpt>
      <trkpt lat="48.53182" lon="1.99315">
        <ele>99</ele>
        <time>2021-06-03T13:22:53Z</time>
      </trkpt>
      <trkpt lat="48.53184" lon="1.99328">
        <ele>99.2</ele>
        <time>2021-06-03T13:22:55Z</time>
      </trkpt>
      <trkpt lat="48.53187" lon="1.99341">
        <ele>99.6</ele>
        <time>2021-06-03T13:22:57Z</time>
      </trkpt>
      <trkpt lat="48.5319" lon="1.99353">
        <ele>100.1</ele>
        <time>2021-06-03T13:22:59Z</time>
      </trkpt>
      <trkpt lat="48.53195" lon="1.99366">
        <ele>100.7</ele>
        <time>2021-06-03T13:23:01Z</time>
      </trkpt>
      <trkpt lat="48.53198" lon="1.99379">
        <ele>101.2</ele>
        <time>2021-06-03T13:23:03Z</time>
      </trkpt>
      <trkpt lat="48.53201" lon="1.99393">
        <ele>101.6</ele>
        <time>2021-06-03T13:23:05Z</time>
      </trkpt>
      <trkpt lat="48.53202" lon="1.99406">
        <ele>101.9</ele>
        <time>2021-06-03T13:23:07Z</time>
      </trkpt>
      <trkpt lat="48.53205" lon="1.9942">
        <ele>102.3</ele>
        <time>2021-06-03T13:23:09Z</time>
      </trkpt>
      <trkpt lat="48.53206" lon="1.99434">
        <ele>102.3</ele>
        <time>2021-06-03T13:23:11Z</time>
      </trkpt>
      <trkpt lat="48.53209" lon="1.99448">
        <ele>102.3</ele>
        <time>2021-06-03T13:23:13Z</time>
      </trkpt>
      <trkpt lat="48.53213" lon="1.99461">
        <ele>102.5</ele>
        <time>2021-06-03T13:23:15Z</time>
      </trkpt>
      <trkpt lat="48.53217" lon="1.99472">
        <ele>102.6</ele>
        <time>2021-06-03T13:23:17Z</time>
      </trkpt>
      <trkpt lat="48.5322" lon="1.99483">
        <ele>102.7</ele>
        <time>2021-06-03T13:23:19Z</time>
      </trkpt>
      <trkpt lat="48.53224" lon="1.99492">
        <ele>102.8</ele>
        <time>2021-06-03T13:23:21Z</time>
      </trkpt>
      <trkpt lat="48.53227" lon="1.99504">
        <ele>102.9</ele>
        <time>2021-06-03T13:23:23Z</time>
      </trkpt>
      <trkpt lat="48.53232" lon="1.99517">
        <ele>103.2</ele>
        <time>2021-06-03T13:23:25Z</time>
      </trkpt>
      <trkpt lat="48.53237" lon="1.99529">
        <ele>103.6</ele>
        <time>2021-06-03T13:23:27Z</time>
      </trkpt>
      <trkpt lat="48.53242" lon="1.99541">
        <ele>104</ele>
        <time>2021-06-03T13:23:29Z</time>
      </trkpt>
      <trkpt lat="48.53248" lon="1.99551">
        <ele>104.5</ele>
        <time>2021-06-03T13:23:31Z</time>
      </trkpt>
      <trkpt lat="48.53253" lon="1.99559">
        <ele>104.8</ele>
        <time>2021-06-03T13:23:33Z</time>
      </trkpt>
      <trkpt lat="48.53259" lon="1.99569">
        <ele>105.2</ele>
        <time>2021-06-03T13:23:35Z</time>
      </trkpt>
      <trkpt lat="48.53265" lon="1.99578">
        <ele>105.5</ele>
        <time>2021-06-03T13:23:37Z</time>
      </trkpt>
      <trkpt lat="48.5327" lon="1.99587">
        <ele>105.7</ele>
        <time>2021-06-03T13:23:39Z</time>
      </trkpt>
      <trkpt lat="48.53274" lon="1.99597">
        <ele>105.8</ele>
        <time>2021-06-03T13:23:41Z</time>
      </trkpt>
      <trkpt lat="48.53277" lon="1.99608">
        <ele>105.9</ele>
        <time>2021-06-03T13:23:43Z</time>
      </trkpt>
      <trkpt lat="48.53281" lon="1.99619">
        <ele>105.9</ele>
        <time>2021-06-03T13:23:45Z</time>
      </trkpt>
      <trkpt lat="48.53283" lon="1.99631">
        <ele>106</ele>
        <time>2021-06-03T13:23:47Z</time>
      </trkpt>
      <trkpt lat="48.53285" lon="1.99643">
        <ele>106</ele>
        <time>2021-06-03T13:23:49Z</time>
      </trkpt>
      <trkpt lat="48.53287" lon="1.99655">
        <ele>106</ele>
        <time>2021-06-03T13:23:51Z</time>
      </trkpt>
      <trkpt lat="48.53289" lon="1.99667">
        <ele>105.9</ele>
        <time>2021-06-03T13:23:53Z</time>
      </trkpt>
      <trkpt lat="48.5329" lon="1.9968">
        <ele>105.6</ele>
        <time>2021-06-03T13:23:55Z</time>
      </trkpt>
      <trkpt lat="48.53292" lon="1.99694">
        <ele>105.4</ele>
        <time>2021-06-03T13:23:57Z</time>
      </trkpt>
      <trkpt lat="48.53295" lon="1.99707">
        <ele>105.1</ele>
        <time>2021-06-03T13:23:59Z</time>
      </trkpt>
      <trkpt lat="48.53297" lon="1.99721">
        <ele>104.7</ele>
        <time>2021-06-03T13:24:01Z</time>
      </trkpt>
      <trkpt lat="48.53298" lon="1.99736">
        <ele>104.3</ele>
        <time>2021-06-03T13:24:03Z</time>
      </trkpt>
      <trkpt lat="48.53299" lon="1.99752">
        <ele>104</ele>
        <time>2021-06-03T13:24:05Z</time>
      </trkpt>
      <trkpt lat="48.533" lon="1.99769">
        <ele>104</ele>
        <time>2021-06-03T13:24:07Z</time>
      </trkpt>
      <trkpt lat="48.53302" lon="1.99784">
        <ele>104</ele>
        <time>2021-06-03T13:24:09Z</time>
      </trkpt>
      <trkpt lat="48.53303" lon="1.99799">
        <ele>104</ele>
        <time>2021-06-03T13:24:11Z</time>
      </trkpt>
      <trkpt lat="48.53304" lon="1.99814">
        <ele>104</ele>
        <time>2021-06-03T13:24:13Z</time>
      </trkpt>
      <trkpt lat="48.53305" lon="1.99829">
        <ele>104</ele>
        <time>2021-06-03T13:24:15Z</time>
      </trkpt>
      <trkpt lat="48.53305" lon="1.99844">
        <ele>104</ele>
        <time>2021-06-03T13:24:17Z</time>
      </trkpt>
      <trkpt lat="48.53306" lon="1.99859">
        <ele>104.1</ele>
        <time>2021-06-03T13:24:19Z</time>
      </trkpt>
      <trkpt lat="48.53306" lon="1.99873">
        <ele>104.2</ele>
        <time>2021-06-03T13:24:21Z</time>
      </trkpt>
      <trkpt lat="48.53306" lon="1.99886">
        <ele>104.2</ele>
        <time>2021-06-03T13:24:23Z</time>
      </trkpt>
      <trkpt lat="48.53302" lon="1.99893">
        <ele>104.3</ele>
        <time>2021-06-03T13:24:25Z</time>
      </trkpt>
      <trkpt lat="48.53304" lon="1.999">
        <ele>104.3</ele>
        <time>2021-06-03T13:24:41Z</time>
      </trkpt>
      <trkpt lat="48.53306" lon="1.99908">
        <ele>104.3</ele>
        <time>2021-06-03T13:26:19Z</time>
      </trkpt>
      <trkpt lat="48.53308" lon="1.9992">
        <ele>104.2</ele>
        <time>2021-06-03T13:26:25Z</time>
      </trkpt>
      <trkpt lat="48.5331" lon="1.99927">
        <ele>104.1</ele>
        <time>2021-06-03T13:26:27Z</time>
      </trkpt>
      <trkpt lat="48.53311" lon="1.99935">
        <ele>104</ele>
        <time>2021-06-03T13:26:29Z</time>
      </trkpt>
      <trkpt lat="48.53311" lon="1.99945">
        <ele>103.8</ele>
        <time>2021-06-03T13:26:31Z</time>
      </trkpt>
      <trkpt lat="48.53312" lon="1.99956">
        <ele>103.7</ele>
        <time>2021-06-03T13:26:33Z</time>
      </trkpt>
      <trkpt lat="48.53312" lon="1.99967">
        <ele>103.5</ele>
        <time>2021-06-03T13:26:35Z</time>
      </trkpt>
      <trkpt lat="48.53313" lon="1.99981">
        <ele>103.3</ele>
        <time>2021-06-03T13:26:37Z</time>
      </trkpt>
      <trkpt lat="48.53312" lon="1.99995">
        <ele>103.1</ele>
        <time>2021-06-03T13:26:39Z</time>
      </trkpt>
      <trkpt lat="48.53312" lon="2.00011">
        <ele>102.8</ele>
        <time>2021-06-03T13:26:41Z</time>
      </trkpt>
      <trkpt lat="48.53312" lon="2.00026">
        <ele>102.5</ele>
        <time>2021-06-03T13:26:43Z</time>
      </trkpt>
      <trkpt lat="48.53311" lon="2.00043">
        <ele>102.1</ele>
        <time>2021-06-03T13:26:45Z</time>
      </trkpt>
      <trkpt lat="48.53312" lon="2.0006">
        <ele>101.7</ele>
        <time>2021-06-03T13:26:47Z</time>
      </trkpt>
      <trkpt lat="48.53313" lon="2.00075">
        <ele>101.4</ele>
        <time>2021-06-03T13:26:49Z</time>
      </trkpt>
      <trkpt lat="48.53312" lon="2.00091">
        <ele>101.1</ele>
        <time>2021-06-03T13:26:51Z</time>
      </trkpt>
      <trkpt lat="48.53313" lon="2.00105">
        <ele>100.7</ele>
        <time>2021-06-03T13:26:53Z</time>
      </trkpt>
      <trkpt lat="48.53315" lon="2.00119">
        <ele>100.4</ele>
        <time>2021-06-03T13:26:55Z</time>
      </trkpt>
      <trkpt lat="48.53314" lon="2.00131">
        <ele>100.1</ele>
        <time>2021-06-03T13:26:57Z</time>
      </trkpt>
      <trkpt lat="48.53309" lon="2.00139">
        <ele>99.9</ele>
        <time>2021-06-03T13:27:01Z</time>
      </trkpt>
      <trkpt lat="48.53303" lon="2.00139">
        <ele>99.7</ele>
        <time>2021-06-03T13:27:03Z</time>
      </trkpt>
      <trkpt lat="48.53294" lon="2.00138">
        <ele>99.6</ele>
        <time>2021-06-03T13:27:05Z</time>
      </trkpt>
      <trkpt lat="48.53285" lon="2.00137">
        <ele>99.4</ele>
        <time>2021-06-03T13:27:07Z</time>
      </trkpt>
      <trkpt lat="48.53277" lon="2.00135">
        <ele>99.4</ele>
        <time>2021-06-03T13:27:09Z</time>
      </trkpt>
      <trkpt lat="48.53267" lon="2.00135">
        <ele>99.2</ele>
        <time>2021-06-03T13:27:11Z</time>
      </trkpt>
      <trkpt lat="48.53257" lon="2.00134">
        <ele>99.1</ele>
        <time>2021-06-03T13:27:13Z</time>
      </trkpt>
      <trkpt lat="48.53245" lon="2.00133">
        <ele>98.9</ele>
        <time>2021-06-03T13:27:15Z</time>
      </trkpt>
      <trkpt lat="48.53235" lon="2.00132">
        <ele>98.8</ele>
        <time>2021-06-03T13:27:17Z</time>
      </trkpt>
      <trkpt lat="48.53228" lon="2.00131">
        <ele>98.7</ele>
        <time>2021-06-03T13:27:19Z</time>
      </trkpt>
      <trkpt lat="48.53224" lon="2.00129">
        <ele>98.7</ele>
        <time>2021-06-03T13:27:21Z</time>
      </trkpt>
      <trkpt lat="48.53221" lon="2.0014">
        <ele>98.2</ele>
        <time>2021-06-03T13:27:25Z</time>
      </trkpt>
      <trkpt lat="48.53223" lon="2.00147">
        <ele>97.9</ele>
        <time>2021-06-03T13:27:29Z</time>
      </trkpt>
      <trkpt lat="48.53227" lon="2.00149">
        <ele>97.8</ele>
        <time>2021-06-03T13:27:31Z</time>
      </trkpt>
      <trkpt lat="48.53232" lon="2.00148">
        <ele>97.9</ele>
        <time>2021-06-03T13:27:33Z</time>
      </trkpt>
      <trkpt lat="48.53239" lon="2.00148">
        <ele>98</ele>
        <time>2021-06-03T13:27:35Z</time>
      </trkpt>
      <trkpt lat="48.53245" lon="2.00151">
        <ele>97.9</ele>
        <time>2021-06-03T13:27:37Z</time>
      </trkpt>
      <trkpt lat="48.53252" lon="2.00154">
        <ele>97.8</ele>
        <time>2021-06-03T13:27:39Z</time>
      </trkpt>
      <trkpt lat="48.53258" lon="2.00159">
        <ele>97.7</ele>
        <time>2021-06-03T13:27:41Z</time>
      </trkpt>
      <trkpt lat="48.53261" lon="2.00168">
        <ele>97.4</ele>
        <time>2021-06-03T13:27:43Z</time>
      </trkpt>
      <trkpt lat="48.53263" lon="2.00179">
        <ele>97.3</ele>
        <time>2021-06-03T13:27:45Z</time>
      </trkpt>
      <trkpt lat="48.53263" lon="2.00192">
        <ele>97.2</ele>
        <time>2021-06-03T13:27:47Z</time>
      </trkpt>
      <trkpt lat="48.53263" lon="2.00207">
        <ele>97.1</ele>
        <time>2021-06-03T13:27:49Z</time>
      </trkpt>
      <trkpt lat="48.53263" lon="2.00222">
        <ele>96.9</ele>
        <time>2021-06-03T13:27:51Z</time>
      </trkpt>
      <trkpt lat="48.53264" lon="2.00235">
        <ele>96.8</ele>
        <time>2021-06-03T13:27:53Z</time>
      </trkpt>
      <trkpt lat="48.53264" lon="2.00248">
        <ele>96.7</ele>
        <time>2021-06-03T13:27:55Z</time>
      </trkpt>
      <trkpt lat="48.53263" lon="2.00259">
        <ele>96.6</ele>
        <time>2021-06-03T13:27:57Z</time>
      </trkpt>
      <trkpt lat="48.5326" lon="2.00271">
        <ele>96.6</ele>
        <time>2021-06-03T13:27:59Z</time>
      </trkpt>
      <trkpt lat="48.53256" lon="2.00282">
        <ele>96.4</ele>
        <time>2021-06-03T13:28:01Z</time>
      </trkpt>
      <trkpt lat="48.53255" lon="2.00295">
        <ele>96.3</ele>
        <time>2021-06-03T13:28:03Z</time>
      </trkpt>
      <trkpt lat="48.53255" lon="2.00308">
        <ele>96.3</ele>
        <time>2021-06-03T13:28:05Z</time>
      </trkpt>
      <trkpt lat="48.53255" lon="2.00321">
        <ele>96.3</ele>
        <time>2021-06-03T13:28:07Z</time>
      </trkpt>
      <trkpt lat="48.53254" lon="2.00334">
        <ele>96.3</ele>
        <time>2021-06-03T13:28:09Z</time>
      </trkpt>
      <trkpt lat="48.53252" lon="2.00347">
        <ele>96.3</ele>
        <time>2021-06-03T13:28:11Z</time>
      </trkpt>
      <trkpt lat="48.53248" lon="2.0036">
        <ele>96.2</ele>
        <time>2021-06-03T13:28:13Z</time>
      </trkpt>
      <trkpt lat="48.53245" lon="2.00372">
        <ele>96.3</ele>
        <time>2021-06-03T13:28:15Z</time>
      </trkpt>
      <trkpt lat="48.53242" lon="2.00386">
        <ele>96.3</ele>
        <time>2021-06-03T13:28:17Z</time>
      </trkpt>
      <trkpt lat="48.5324" lon="2.004">
        <ele>96.3</ele>
        <time>2021-06-03T13:28:19Z</time>
      </trkpt>
      <trkpt lat="48.53237" lon="2.00412">
        <ele>96.3</ele>
        <time>2021-06-03T13:28:21Z</time>
      </trkpt>
      <trkpt lat="48.53235" lon="2.00424">
        <ele>96.3</ele>
        <time>2021-06-03T13:28:23Z</time>
      </trkpt>
      <trkpt lat="48.53232" lon="2.00436">
        <ele>96.3</ele>
        <time>2021-06-03T13:28:25Z</time>
      </trkpt>
      <trkpt lat="48.53231" lon="2.00447">
        <ele>96.4</ele>
        <time>2021-06-03T13:28:27Z</time>
      </trkpt>
      <trkpt lat="48.5323" lon="2.0046">
        <ele>96.4</ele>
        <time>2021-06-03T13:28:29Z</time>
      </trkpt>
      <trkpt lat="48.53229" lon="2.00468">
        <ele>96.4</ele>
        <time>2021-06-03T13:28:31Z</time>
      </trkpt>
      <trkpt lat="48.53227" lon="2.00478">
        <ele>96.4</ele>
        <time>2021-06-03T13:28:33Z</time>
      </trkpt>
      <trkpt lat="48.53225" lon="2.0049">
        <ele>96.4</ele>
        <time>2021-06-03T13:28:35Z</time>
      </trkpt>
      <trkpt lat="48.53221" lon="2.00503">
        <ele>96.3</ele>
        <time>2021-06-03T13:28:37Z</time>
      </trkpt>
      <trkpt lat="48.53218" lon="2.00517">
        <ele>96.4</ele>
        <time>2021-06-03T13:28:39Z</time>
      </trkpt>
      <trkpt lat="48.53215" lon="2.00531">
        <ele>96.5</ele>
        <time>2021-06-03T13:28:41Z</time>
      </trkpt>
      <trkpt lat="48.53211" lon="2.00544">
        <ele>96.5</ele>
        <time>2021-06-03T13:28:43Z</time>
      </trkpt>
      <trkpt lat="48.5321" lon="2.00558">
        <ele>96.6</ele>
        <time>2021-06-03T13:28:45Z</time>
      </trkpt>
      <trkpt lat="48.53207" lon="2.00572">
        <ele>96.7</ele>
        <time>2021-06-03T13:28:47Z</time>
      </trkpt>
      <trkpt lat="48.53201" lon="2.00585">
        <ele>96.5</ele>
        <time>2021-06-03T13:28:49Z</time>
      </trkpt>
      <trkpt lat="48.53195" lon="2.00597">
        <ele>96.4</ele>
        <time>2021-06-03T13:28:51Z</time>
      </trkpt>
      <trkpt lat="48.53188" lon="2.00609">
        <ele>96.2</ele>
        <time>2021-06-03T13:28:53Z</time>
      </trkpt>
      <trkpt lat="48.53181" lon="2.00621">
        <ele>96</ele>
        <time>2021-06-03T13:28:55Z</time>
      </trkpt>
      <trkpt lat="48.53175" lon="2.00633">
        <ele>95.8</ele>
        <time>2021-06-03T13:28:57Z</time>
      </trkpt>
      <trkpt lat="48.53169" lon="2.00644">
        <ele>95.7</ele>
        <time>2021-06-03T13:28:59Z</time>
      </trkpt>
      <trkpt lat="48.53163" lon="2.00655">
        <ele>95.8</ele>
        <time>2021-06-03T13:29:01Z</time>
      </trkpt>
      <trkpt lat="48.53157" lon="2.00667">
        <ele>96.2</ele>
        <time>2021-06-03T13:29:03Z</time>
      </trkpt>
      <trkpt lat="48.5315" lon="2.00678">
        <ele>97.2</ele>
        <time>2021-06-03T13:29:05Z</time>
      </trkpt>
      <trkpt lat="48.53143" lon="2.00687">
        <ele>97.9</ele>
        <time>2021-06-03T13:29:07Z</time>
      </trkpt>
      <trkpt lat="48.53136" lon="2.00695">
        <ele>98.5</ele>
        <time>2021-06-03T13:29:09Z</time>
      </trkpt>
      <trkpt lat="48.53131" lon="2.00701">
        <ele>99</ele>
        <time>2021-06-03T13:29:11Z</time>
      </trkpt>
      <trkpt lat="48.53129" lon="2.00711">
        <ele>99.6</ele>
        <time>2021-06-03T13:29:13Z</time>
      </trkpt>
      <trkpt lat="48.53125" lon="2.00718">
        <ele>100.1</ele>
        <time>2021-06-03T13:29:15Z</time>
      </trkpt>
      <trkpt lat="48.5312" lon="2.00722">
        <ele>100.4</ele>
        <time>2021-06-03T13:29:17Z</time>
      </trkpt>
      <trkpt lat="48.53113" lon="2.00729">
        <ele>100.8</ele>
        <time>2021-06-03T13:29:19Z</time>
      </trkpt>
      <trkpt lat="48.53106" lon="2.00735">
        <ele>101.2</ele>
        <time>2021-06-03T13:29:21Z</time>
      </trkpt>
      <trkpt lat="48.53098" lon="2.00742">
        <ele>101.6</ele>
        <time>2021-06-03T13:29:23Z</time>
      </trkpt>
      <trkpt lat="48.53091" lon="2.00747">
        <ele>101.9</ele>
        <time>2021-06-03T13:29:25Z</time>
      </trkpt>
      <trkpt lat="48.53085" lon="2.00754">
        <ele>102.3</ele>
        <time>2021-06-03T13:29:27Z</time>
      </trkpt>
      <trkpt lat="48.53076" lon="2.00763">
        <ele>102.4</ele>
        <time>2021-06-03T13:29:29Z</time>
      </trkpt>
      <trkpt lat="48.53067" lon="2.0077">
        <ele>102.2</ele>
        <time>2021-06-03T13:29:31Z</time>
      </trkpt>
      <trkpt lat="48.53058" lon="2.00777">
        <ele>101.9</ele>
        <time>2021-06-03T13:29:33Z</time>
      </trkpt>
      <trkpt lat="48.53051" lon="2.00785">
        <ele>101.7</ele>
        <time>2021-06-03T13:29:35Z</time>
      </trkpt>
      <trkpt lat="48.53044" lon="2.00791">
        <ele>101.4</ele>
        <time>2021-06-03T13:29:37Z</time>
      </trkpt>
      <trkpt lat="48.53038" lon="2.00798">
        <ele>101.1</ele>
        <time>2021-06-03T13:29:39Z</time>
      </trkpt>
      <trkpt lat="48.53034" lon="2.00802">
        <ele>100.9</ele>
        <time>2021-06-03T13:29:41Z</time>
      </trkpt>
      <trkpt lat="48.53027" lon="2.00801">
        <ele>100.3</ele>
        <time>2021-06-03T13:29:43Z</time>
      </trkpt>
      <trkpt lat="48.53023" lon="2.00794">
        <ele>99.8</ele>
        <time>2021-06-03T13:29:45Z</time>
      </trkpt>
      <trkpt lat="48.53018" lon="2.00788">
        <ele>99.4</ele>
        <time>2021-06-03T13:29:47Z</time>
      </trkpt>
      <trkpt lat="48.53013" lon="2.00789">
        <ele>99</ele>
        <time>2021-06-03T13:29:49Z</time>
      </trkpt>
      <trkpt lat="48.53008" lon="2.00794">
        <ele>98.6</ele>
        <time>2021-06-03T13:29:53Z</time>
      </trkpt>
      <trkpt lat="48.53004" lon="2.00798">
        <ele>98.4</ele>
        <time>2021-06-03T13:29:55Z</time>
      </trkpt>
      <trkpt lat="48.53" lon="2.00807">
        <ele>98</ele>
        <time>2021-06-03T13:29:57Z</time>
      </trkpt>
      <trkpt lat="48.52995" lon="2.00818">
        <ele>97.8</ele>
        <time>2021-06-03T13:29:59Z</time>
      </trkpt>
      <trkpt lat="48.52988" lon="2.00829">
        <ele>97.6</ele>
        <time>2021-06-03T13:30:01Z</time>
      </trkpt>
      <trkpt lat="48.52981" lon="2.0084">
        <ele>97.5</ele>
        <time>2021-06-03T13:30:03Z</time>
      </trkpt>
      <trkpt lat="48.52974" lon="2.00851">
        <ele>97.6</ele>
        <time>2021-06-03T13:30:05Z</time>
      </trkpt>
      <trkpt lat="48.52968" lon="2.00863">
        <ele>97.6</ele>
        <time>2021-06-03T13:30:07Z</time>
      </trkpt>
      <trkpt lat="48.52962" lon="2.00877">
        <ele>97.7</ele>
        <time>2021-06-03T13:30:09Z</time>
      </trkpt>
      <trkpt lat="48.52956" lon="2.0089">
        <ele>97.7</ele>
        <time>2021-06-03T13:30:11Z</time>
      </trkpt>
      <trkpt lat="48.5295" lon="2.00903">
        <ele>97.7</ele>
        <time>2021-06-03T13:30:13Z</time>
      </trkpt>
      <trkpt lat="48.52944" lon="2.00915">
        <ele>97.6</ele>
        <time>2021-06-03T13:30:15Z</time>
      </trkpt>
      <trkpt lat="48.52941" lon="2.00921">
        <ele>97.6</ele>
        <time>2021-06-03T13:30:17Z</time>
      </trkpt>
      <trkpt lat="48.52932" lon="2.00915">
        <ele>96.9</ele>
        <time>2021-06-03T13:31:01Z</time>
      </trkpt>
      <trkpt lat="48.52927" lon="2.00908">
        <ele>96.5</ele>
        <time>2021-06-03T13:31:03Z</time>
      </trkpt>
      <trkpt lat="48.52921" lon="2.00898">
        <ele>96</ele>
        <time>2021-06-03T13:31:05Z</time>
      </trkpt>
      <trkpt lat="48.52915" lon="2.00888">
        <ele>95.6</ele>
        <time>2021-06-03T13:31:07Z</time>
      </trkpt>
      <trkpt lat="48.52909" lon="2.00877">
        <ele>95.4</ele>
        <time>2021-06-03T13:31:09Z</time>
      </trkpt>
      <trkpt lat="48.52903" lon="2.00867">
        <ele>95.2</ele>
        <time>2021-06-03T13:31:11Z</time>
      </trkpt>
      <trkpt lat="48.52898" lon="2.00857">
        <ele>95.1</ele>
        <time>2021-06-03T13:31:13Z</time>
      </trkpt>
      <trkpt lat="48.52893" lon="2.00849">
        <ele>95</ele>
        <time>2021-06-03T13:31:15Z</time>
      </trkpt>
      <trkpt lat="48.52888" lon="2.00839">
        <ele>95</ele>
        <time>2021-06-03T13:31:17Z</time>
      </trkpt>
      <trkpt lat="48.52881" lon="2.00829">
        <ele>95.1</ele>
        <time>2021-06-03T13:31:19Z</time>
      </trkpt>
      <trkpt lat="48.52873" lon="2.00819">
        <ele>95.3</ele>
        <time>2021-06-03T13:31:21Z</time>
      </trkpt>
      <trkpt lat="48.52866" lon="2.00811">
        <ele>95.4</ele>
        <time>2021-06-03T13:31:23Z</time>
      </trkpt>
      <trkpt lat="48.52859" lon="2.00806">
        <ele>95.4</ele>
        <time>2021-06-03T13:31:25Z</time>
      </trkpt>
      <trkpt lat="48.52852" lon="2.00801">
        <ele>95.5</ele>
        <time>2021-06-03T13:31:27Z</time>
      </trkpt>
      <trkpt lat="48.52845" lon="2.00796">
        <ele>95.5</ele>
        <time>2021-06-03T13:31:29Z</time>
      </trkpt>
      <trkpt lat="48.52838" lon="2.00791">
        <ele>95.5</ele>
        <time>2021-06-03T13:31:31Z</time>
      </trkpt>
      <trkpt lat="48.52831" lon="2.00785">
        <ele>95.6</ele>
        <time>2021-06-03T13:31:33Z</time>
      </trkpt>
      <trkpt lat="48.52825" lon="2.0078">
        <ele>95.7</ele>
        <time>2021-06-03T13:31:35Z</time>
      </trkpt>
      <trkpt lat="48.52818" lon="2.00775">
        <ele>95.8</ele>
        <time>2021-06-03T13:31:37Z</time>
      </trkpt>
      <trkpt lat="48.52811" lon="2.00769">
        <ele>95.8</ele>
        <time>2021-06-03T13:31:39Z</time>
      </trkpt>
      <trkpt lat="48.52804" lon="2.00764">
        <ele>95.9</ele>
        <time>2021-06-03T13:31:41Z</time>
      </trkpt>
      <trkpt lat="48.52798" lon="2.00758">
        <ele>95.9</ele>
        <time>2021-06-03T13:31:43Z</time>
      </trkpt>
      <trkpt lat="48.52792" lon="2.00751">
        <ele>96</ele>
        <time>2021-06-03T13:31:45Z</time>
      </trkpt>
      <trkpt lat="48.52785" lon="2.00746">
        <ele>96.1</ele>
        <time>2021-06-03T13:31:47Z</time>
      </trkpt>
      <trkpt lat="48.5278" lon="2.00741">
        <ele>96.2</ele>
        <time>2021-06-03T13:31:49Z</time>
      </trkpt>
      <trkpt lat="48.52775" lon="2.00736">
        <ele>96.3</ele>
        <time>2021-06-03T13:31:51Z</time>
      </trkpt>
      <trkpt lat="48.52771" lon="2.0073">
        <ele>96.5</ele>
        <time>2021-06-03T13:31:53Z</time>
      </trkpt>
      <trkpt lat="48.52769" lon="2.00722">
        <ele>96.8</ele>
        <time>2021-06-03T13:31:57Z</time>
      </trkpt>
      <trkpt lat="48.52774" lon="2.00711">
        <ele>97</ele>
        <time>2021-06-03T13:32:01Z</time>
      </trkpt>
      <trkpt lat="48.52778" lon="2.00702">
        <ele>97.1</ele>
        <time>2021-06-03T13:32:03Z</time>
      </trkpt>
      <trkpt lat="48.52782" lon="2.00693">
        <ele>97.3</ele>
        <time>2021-06-03T13:32:05Z</time>
      </trkpt>
      <trkpt lat="48.52786" lon="2.00684">
        <ele>97.4</ele>
        <time>2021-06-03T13:32:07Z</time>
      </trkpt>
      <trkpt lat="48.52791" lon="2.00675">
        <ele>97.4</ele>
        <time>2021-06-03T13:32:09Z</time>
      </trkpt>
      <trkpt lat="48.52796" lon="2.00665">
        <ele>97.4</ele>
        <time>2021-06-03T13:32:11Z</time>
      </trkpt>
      <trkpt lat="48.52801" lon="2.00655">
        <ele>97.3</ele>
        <time>2021-06-03T13:32:13Z</time>
      </trkpt>
      <trkpt lat="48.52806" lon="2.00644">
        <ele>97.3</ele>
        <time>2021-06-03T13:32:15Z</time>
      </trkpt>
      <trkpt lat="48.52811" lon="2.00633">
        <ele>97.4</ele>
        <time>2021-06-03T13:32:17Z</time>
      </trkpt>
      <trkpt lat="48.52817" lon="2.00623">
        <ele>97.4</ele>
        <time>2021-06-03T13:32:19Z</time>
      </trkpt>
      <trkpt lat="48.52821" lon="2.00612">
        <ele>97.6</ele>
        <time>2021-06-03T13:32:21Z</time>
      </trkpt>
      <trkpt lat="48.52826" lon="2.00602">
        <ele>97.7</ele>
        <time>2021-06-03T13:32:23Z</time>
      </trkpt>
      <trkpt lat="48.52832" lon="2.00592">
        <ele>97.8</ele>
        <time>2021-06-03T13:32:25Z</time>
      </trkpt>
      <trkpt lat="48.52837" lon="2.00583">
        <ele>97.9</ele>
        <time>2021-06-03T13:32:27Z</time>
      </trkpt>
      <trkpt lat="48.52841" lon="2.00575">
        <ele>97.7</ele>
        <time>2021-06-03T13:32:29Z</time>
      </trkpt>
      <trkpt lat="48.52845" lon="2.00567">
        <ele>97.6</ele>
        <time>2021-06-03T13:32:31Z</time>
      </trkpt>
      <trkpt lat="48.52848" lon="2.00559">
        <ele>97.5</ele>
        <time>2021-06-03T13:32:33Z</time>
      </trkpt>
      <trkpt lat="48.52851" lon="2.00554">
        <ele>97.4</ele>
        <time>2021-06-03T13:32:37Z</time>
      </trkpt>
      <trkpt lat="48.52852" lon="2.00546">
        <ele>97.4</ele>
        <time>2021-06-03T13:33:13Z</time>
      </trkpt>
      <trkpt lat="48.52856" lon="2.00536">
        <ele>97.3</ele>
        <time>2021-06-03T13:33:17Z</time>
      </trkpt>
      <trkpt lat="48.5286" lon="2.00527">
        <ele>97.3</ele>
        <time>2021-06-03T13:33:19Z</time>
      </trkpt>
      <trkpt lat="48.52863" lon="2.00518">
        <ele>97.2</ele>
        <time>2021-06-03T13:33:21Z</time>
      </trkpt>
      <trkpt lat="48.52865" lon="2.00507">
        <ele>97.2</ele>
        <time>2021-06-03T13:33:23Z</time>
      </trkpt>
      <trkpt lat="48.52859" lon="2.00515">
        <ele>97.3</ele>
        <time>2021-06-03T13:33:39Z</time>
      </trkpt>
      <trkpt lat="48.52857" lon="2.00525">
        <ele>97.4</ele>
        <time>2021-06-03T13:33:41Z</time>
      </trkpt>
      <trkpt lat="48.52854" lon="2.00536">
        <ele>97.4</ele>
        <time>2021-06-03T13:33:43Z</time>
      </trkpt>
      <trkpt lat="48.52851" lon="2.00546">
        <ele>97.5</ele>
        <time>2021-06-03T13:33:45Z</time>
      </trkpt>
      <trkpt lat="48.52848" lon="2.00552">
        <ele>97.5</ele>
        <time>2021-06-03T13:33:47Z</time>
      </trkpt>
      <trkpt lat="48.52846" lon="2.00559">
        <ele>97.6</ele>
        <time>2021-06-03T13:33:49Z</time>
      </trkpt>
      <trkpt lat="48.52843" lon="2.00564">
        <ele>97.7</ele>
        <time>2021-06-03T13:33:51Z</time>
      </trkpt>
      <trkpt lat="48.52836" lon="2.0056">
        <ele>97.9</ele>
        <time>2021-06-03T13:33:55Z</time>
      </trkpt>
      <trkpt lat="48.52828" lon="2.00554">
        <ele>98</ele>
        <time>2021-06-03T13:33:59Z</time>
      </trkpt>
      <trkpt lat="48.52822" lon="2.0055">
        <ele>98.1</ele>
        <time>2021-06-03T13:34:01Z</time>
      </trkpt>
      <trkpt lat="48.52815" lon="2.00544">
        <ele>98.1</ele>
        <time>2021-06-03T13:34:03Z</time>
      </trkpt>
      <trkpt lat="48.52808" lon="2.00538">
        <ele>98.1</ele>
        <time>2021-06-03T13:34:05Z</time>
      </trkpt>
      <trkpt lat="48.52801" lon="2.00532">
        <ele>98.1</ele>
        <time>2021-06-03T13:34:07Z</time>
      </trkpt>
      <trkpt lat="48.52794" lon="2.00526">
        <ele>98.1</ele>
        <time>2021-06-03T13:34:09Z</time>
      </trkpt>
      <trkpt lat="48.52787" lon="2.0052">
        <ele>98.1</ele>
        <time>2021-06-03T13:34:11Z</time>
      </trkpt>
      <trkpt lat="48.5278" lon="2.00514">
        <ele>98.1</ele>
        <time>2021-06-03T13:34:13Z</time>
      </trkpt>
      <trkpt lat="48.52773" lon="2.00508">
        <ele>98.1</ele>
        <time>2021-06-03T13:34:15Z</time>
      </trkpt>
      <trkpt lat="48.52766" lon="2.00501">
        <ele>98</ele>
        <time>2021-06-03T13:34:17Z</time>
      </trkpt>
      <trkpt lat="48.52759" lon="2.00494">
        <ele>98.1</ele>
        <time>2021-06-03T13:34:19Z</time>
      </trkpt>
      <trkpt lat="48.52752" lon="2.00488">
        <ele>98.1</ele>
        <time>2021-06-03T13:34:21Z</time>
      </trkpt>
      <trkpt lat="48.52745" lon="2.00483">
        <ele>98.3</ele>
        <time>2021-06-03T13:34:23Z</time>
      </trkpt>
      <trkpt lat="48.52738" lon="2.00478">
        <ele>98.6</ele>
        <time>2021-06-03T13:34:25Z</time>
      </trkpt>
      <trkpt lat="48.52731" lon="2.00473">
        <ele>98.9</ele>
        <time>2021-06-03T13:34:27Z</time>
      </trkpt>
      <trkpt lat="48.52724" lon="2.00468">
        <ele>99.1</ele>
        <time>2021-06-03T13:34:29Z</time>
      </trkpt>
      <trkpt lat="48.52717" lon="2.00463">
        <ele>99.4</ele>
        <time>2021-06-03T13:34:31Z</time>
      </trkpt>
      <trkpt lat="48.5271" lon="2.00459">
        <ele>99.7</ele>
        <time>2021-06-03T13:34:33Z</time>
      </trkpt>
      <trkpt lat="48.52703" lon="2.00455">
        <ele>100</ele>
        <time>2021-06-03T13:34:35Z</time>
      </trkpt>
      <trkpt lat="48.52697" lon="2.0045">
        <ele>100.2</ele>
        <time>2021-06-03T13:34:37Z</time>
      </trkpt>
      <trkpt lat="48.52692" lon="2.00445">
        <ele>100.5</ele>
        <time>2021-06-03T13:34:39Z</time>
      </trkpt>
      <trkpt lat="48.52686" lon="2.0044">
        <ele>100.8</ele>
        <time>2021-06-03T13:34:41Z</time>
      </trkpt>
      <trkpt lat="48.5268" lon="2.00436">
        <ele>101.1</ele>
        <time>2021-06-03T13:34:43Z</time>
      </trkpt>
      <trkpt lat="48.52673" lon="2.00432">
        <ele>101.4</ele>
        <time>2021-06-03T13:34:45Z</time>
      </trkpt>
      <trkpt lat="48.52667" lon="2.00428">
        <ele>101.7</ele>
        <time>2021-06-03T13:34:47Z</time>
      </trkpt>
      <trkpt lat="48.52662" lon="2.00424">
        <ele>102.1</ele>
        <time>2021-06-03T13:34:49Z</time>
      </trkpt>
      <trkpt lat="48.52656" lon="2.00419">
        <ele>102.6</ele>
        <time>2021-06-03T13:34:51Z</time>
      </trkpt>
      <trkpt lat="48.52651" lon="2.00415">
        <ele>103</ele>
        <time>2021-06-03T13:34:53Z</time>
      </trkpt>
      <trkpt lat="48.52645" lon="2.00413">
        <ele>103.3</ele>
        <time>2021-06-03T13:34:55Z</time>
      </trkpt>
      <trkpt lat="48.5264" lon="2.0041">
        <ele>103.7</ele>
        <time>2021-06-03T13:34:57Z</time>
      </trkpt>
      <trkpt lat="48.52634" lon="2.00406">
        <ele>104</ele>
        <time>2021-06-03T13:34:59Z</time>
      </trkpt>
      <trkpt lat="48.52628" lon="2.00402">
        <ele>104.4</ele>
        <time>2021-06-03T13:35:01Z</time>
      </trkpt>
      <trkpt lat="48.52622" lon="2.00396">
        <ele>104.8</ele>
        <time>2021-06-03T13:35:03Z</time>
      </trkpt>
      <trkpt lat="48.52616" lon="2.00392">
        <ele>105.2</ele>
        <time>2021-06-03T13:35:05Z</time>
      </trkpt>
      <trkpt lat="48.5261" lon="2.00387">
        <ele>105.5</ele>
        <time>2021-06-03T13:35:07Z</time>
      </trkpt>
      <trkpt lat="48.52604" lon="2.00381">
        <ele>105.9</ele>
        <time>2021-06-03T13:35:09Z</time>
      </trkpt>
      <trkpt lat="48.52599" lon="2.00377">
        <ele>106.2</ele>
        <time>2021-06-03T13:35:11Z</time>
      </trkpt>
      <trkpt lat="48.52593" lon="2.00372">
        <ele>106.5</ele>
        <time>2021-06-03T13:35:13Z</time>
      </trkpt>
      <trkpt lat="48.52588" lon="2.00368">
        <ele>106.8</ele>
        <time>2021-06-03T13:35:15Z</time>
      </trkpt>
      <trkpt lat="48.52582" lon="2.00363">
        <ele>107</ele>
        <time>2021-06-03T13:35:17Z</time>
      </trkpt>
      <trkpt lat="48.52577" lon="2.00359">
        <ele>107.1</ele>
        <time>2021-06-03T13:35:19Z</time>
      </trkpt>
      <trkpt lat="48.52571" lon="2.00354">
        <ele>107.2</ele>
        <time>2021-06-03T13:35:21Z</time>
      </trkpt>
      <trkpt lat="48.52565" lon="2.00349">
        <ele>107.3</ele>
        <time>2021-06-03T13:35:23Z</time>
      </trkpt>
      <trkpt lat="48.52559" lon="2.00344">
        <ele>107.4</ele>
        <time>2021-06-03T13:35:25Z</time>
      </trkpt>
      <trkpt lat="48.52553" lon="2.00339">
        <ele>107.4</ele>
        <time>2021-06-03T13:35:27Z</time>
      </trkpt>
      <trkpt lat="48.52548" lon="2.00335">
        <ele>107.4</ele>
        <time>2021-06-03T13:35:29Z</time>
      </trkpt>
      <trkpt lat="48.52541" lon="2.00333">
        <ele>107.5</ele>
        <time>2021-06-03T13:35:31Z</time>
      </trkpt>
      <trkpt lat="48.52536" lon="2.0034">
        <ele>107.7</ele>
        <time>2021-06-03T13:35:33Z</time>
      </trkpt>
      <trkpt lat="48.52531" lon="2.00346">
        <ele>107.8</ele>
        <time>2021-06-03T13:35:35Z</time>
      </trkpt>
      <trkpt lat="48.52527" lon="2.00354">
        <ele>108</ele>
        <time>2021-06-03T13:35:37Z</time>
      </trkpt>
      <trkpt lat="48.52524" lon="2.00362">
        <ele>108.2</ele>
        <time>2021-06-03T13:35:39Z</time>
      </trkpt>
      <trkpt lat="48.5252" lon="2.00369">
        <ele>108.4</ele>
        <time>2021-06-03T13:35:41Z</time>
      </trkpt>
      <trkpt lat="48.52516" lon="2.00377">
        <ele>108.7</ele>
        <time>2021-06-03T13:35:43Z</time>
      </trkpt>
      <trkpt lat="48.52511" lon="2.00384">
        <ele>108.9</ele>
        <time>2021-06-03T13:35:45Z</time>
      </trkpt>
      <trkpt lat="48.52507" lon="2.00391">
        <ele>109.2</ele>
        <time>2021-06-03T13:35:47Z</time>
      </trkpt>
      <trkpt lat="48.52504" lon="2.00398">
        <ele>109.4</ele>
        <time>2021-06-03T13:35:49Z</time>
      </trkpt>
      <trkpt lat="48.525" lon="2.00403">
        <ele>109.7</ele>
        <time>2021-06-03T13:35:51Z</time>
      </trkpt>
      <trkpt lat="48.52497" lon="2.00409">
        <ele>109.9</ele>
        <time>2021-06-03T13:35:53Z</time>
      </trkpt>
      <trkpt lat="48.52492" lon="2.00417">
        <ele>110.2</ele>
        <time>2021-06-03T13:35:57Z</time>
      </trkpt>
      <trkpt lat="48.52486" lon="2.00414">
        <ele>110.3</ele>
        <time>2021-06-03T13:37:07Z</time>
      </trkpt>
      <trkpt lat="48.52481" lon="2.00407">
        <ele>110.3</ele>
        <time>2021-06-03T13:37:11Z</time>
      </trkpt>
      <trkpt lat="48.52476" lon="2.00402">
        <ele>110.3</ele>
        <time>2021-06-03T13:37:13Z</time>
      </trkpt>
      <trkpt lat="48.52471" lon="2.00394">
        <ele>110.2</ele>
        <time>2021-06-03T13:37:15Z</time>
      </trkpt>
      <trkpt lat="48.52468" lon="2.00386">
        <ele>110.2</ele>
        <time>2021-06-03T13:37:17Z</time>
      </trkpt>
      <trkpt lat="48.52464" lon="2.00377">
        <ele>110.1</ele>
        <time>2021-06-03T13:37:19Z</time>
      </trkpt>
      <trkpt lat="48.52461" lon="2.00368">
        <ele>110</ele>
        <time>2021-06-03T13:37:21Z</time>
      </trkpt>
      <trkpt lat="48.52459" lon="2.00358">
        <ele>109.9</ele>
        <time>2021-06-03T13:37:23Z</time>
      </trkpt>
      <trkpt lat="48.52458" lon="2.00347">
        <ele>109.8</ele>
        <time>2021-06-03T13:37:25Z</time>
      </trkpt>
      <trkpt lat="48.52458" lon="2.00336">
        <ele>109.6</ele>
        <time>2021-06-03T13:37:27Z</time>
      </trkpt>
      <trkpt lat="48.52459" lon="2.00325">
        <ele>109.6</ele>
        <time>2021-06-03T13:37:29Z</time>
      </trkpt>
      <trkpt lat="48.5246" lon="2.00313">
        <ele>109.8</ele>
        <time>2021-06-03T13:37:31Z</time>
      </trkpt>
      <trkpt lat="48.52459" lon="2.00302">
        <ele>110</ele>
        <time>2021-06-03T13:37:33Z</time>
      </trkpt>
      <trkpt lat="48.52458" lon="2.0029">
        <ele>110.3</ele>
        <time>2021-06-03T13:37:35Z</time>
      </trkpt>
      <trkpt lat="48.52457" lon="2.00279">
        <ele>110.5</ele>
        <time>2021-06-03T13:37:37Z</time>
      </trkpt>
      <trkpt lat="48.52457" lon="2.0027">
        <ele>110.7</ele>
        <time>2021-06-03T13:37:39Z</time>
      </trkpt>
      <trkpt lat="48.52456" lon="2.00262">
        <ele>110.9</ele>
        <time>2021-06-03T13:37:41Z</time>
      </trkpt>
      <trkpt lat="48.52448" lon="2.00257">
        <ele>111.4</ele>
        <time>2021-06-03T13:37:45Z</time>
      </trkpt>
      <trkpt lat="48.52442" lon="2.00249">
        <ele>111.8</ele>
        <time>2021-06-03T13:37:49Z</time>
      </trkpt>
      <trkpt lat="48.52438" lon="2.00242">
        <ele>112.2</ele>
        <time>2021-06-03T13:37:51Z</time>
      </trkpt>
      <trkpt lat="48.52436" lon="2.00232">
        <ele>112.6</ele>
        <time>2021-06-03T13:37:53Z</time>
      </trkpt>
      <trkpt lat="48.52431" lon="2.00224">
        <ele>113</ele>
        <time>2021-06-03T13:37:55Z</time>
      </trkpt>
      <trkpt lat="48.52425" lon="2.0022">
        <ele>113.3</ele>
        <time>2021-06-03T13:37:57Z</time>
      </trkpt>
      <trkpt lat="48.52419" lon="2.00217">
        <ele>113.7</ele>
        <time>2021-06-03T13:37:59Z</time>
      </trkpt>
      <trkpt lat="48.52413" lon="2.00213">
        <ele>114</ele>
        <time>2021-06-03T13:38:01Z</time>
      </trkpt>
      <trkpt lat="48.52407" lon="2.0021">
        <ele>114.4</ele>
        <time>2021-06-03T13:38:03Z</time>
      </trkpt>
      <trkpt lat="48.52401" lon="2.00205">
        <ele>114.7</ele>
        <time>2021-06-03T13:38:05Z</time>
      </trkpt>
      <trkpt lat="48.52397" lon="2.00198">
        <ele>115.1</ele>
        <time>2021-06-03T13:38:07Z</time>
      </trkpt>
      <trkpt lat="48.52394" lon="2.0019">
        <ele>115.3</ele>
        <time>2021-06-03T13:38:09Z</time>
      </trkpt>
      <trkpt lat="48.52392" lon="2.00182">
        <ele>115.6</ele>
        <time>2021-06-03T13:38:11Z</time>
      </trkpt>
      <trkpt lat="48.5239" lon="2.00173">
        <ele>115.8</ele>
        <time>2021-06-03T13:38:13Z</time>
      </trkpt>
      <trkpt lat="48.52389" lon="2.00164">
        <ele>116</ele>
        <time>2021-06-03T13:38:15Z</time>
      </trkpt>
      <trkpt lat="48.52388" lon="2.00155">
        <ele>116.1</ele>
        <time>2021-06-03T13:38:17Z</time>
      </trkpt>
      <trkpt lat="48.52387" lon="2.00148">
        <ele>116.2</ele>
        <time>2021-06-03T13:38:19Z</time>
      </trkpt>
      <trkpt lat="48.52386" lon="2.0014">
        <ele>116.3</ele>
        <time>2021-06-03T13:38:21Z</time>
      </trkpt>
      <trkpt lat="48.52384" lon="2.00126">
        <ele>116.5</ele>
        <time>2021-06-03T13:38:25Z</time>
      </trkpt>
      <trkpt lat="48.52382" lon="2.00117">
        <ele>116.6</ele>
        <time>2021-06-03T13:38:27Z</time>
      </trkpt>
      <trkpt lat="48.52381" lon="2.00108">
        <ele>116.7</ele>
        <time>2021-06-03T13:38:29Z</time>
      </trkpt>
      <trkpt lat="48.5238" lon="2.00099">
        <ele>116.8</ele>
        <time>2021-06-03T13:38:31Z</time>
      </trkpt>
      <trkpt lat="48.52378" lon="2.00089">
        <ele>116.9</ele>
        <time>2021-06-03T13:38:35Z</time>
      </trkpt>
      <trkpt lat="48.52376" lon="2.00099">
        <ele>116.9</ele>
        <time>2021-06-03T13:44:05Z</time>
      </trkpt>
      <trkpt lat="48.52377" lon="2.00107">
        <ele>116.8</ele>
        <time>2021-06-03T13:44:07Z</time>
      </trkpt>
      <trkpt lat="48.52379" lon="2.00116">
        <ele>116.7</ele>
        <time>2021-06-03T13:44:09Z</time>
      </trkpt>
      <trkpt lat="48.52381" lon="2.00126">
        <ele>116.6</ele>
        <time>2021-06-03T13:44:11Z</time>
      </trkpt>
      <trkpt lat="48.52383" lon="2.00136">
        <ele>116.4</ele>
        <time>2021-06-03T13:44:13Z</time>
      </trkpt>
      <trkpt lat="48.52385" lon="2.00148">
        <ele>116.3</ele>
        <time>2021-06-03T13:44:15Z</time>
      </trkpt>
      <trkpt lat="48.52387" lon="2.00161">
        <ele>116.1</ele>
        <time>2021-06-03T13:44:17Z</time>
      </trkpt>
      <trkpt lat="48.52389" lon="2.00174">
        <ele>115.9</ele>
        <time>2021-06-03T13:44:19Z</time>
      </trkpt>
      <trkpt lat="48.52391" lon="2.00188">
        <ele>115.5</ele>
        <time>2021-06-03T13:44:21Z</time>
      </trkpt>
      <trkpt lat="48.52391" lon="2.00203">
        <ele>115.2</ele>
        <time>2021-06-03T13:44:23Z</time>
      </trkpt>
      <trkpt lat="48.52385" lon="2.00217">
        <ele>115.1</ele>
        <time>2021-06-03T13:44:25Z</time>
      </trkpt>
      <trkpt lat="48.52377" lon="2.00227">
        <ele>115.3</ele>
        <time>2021-06-03T13:44:27Z</time>
      </trkpt>
      <trkpt lat="48.5237" lon="2.00235">
        <ele>115.5</ele>
        <time>2021-06-03T13:44:29Z</time>
      </trkpt>
      <trkpt lat="48.52368" lon="2.00243">
        <ele>115.5</ele>
        <time>2021-06-03T13:44:31Z</time>
      </trkpt>
      <trkpt lat="48.52367" lon="2.00252">
        <ele>115.3</ele>
        <time>2021-06-03T13:44:35Z</time>
      </trkpt>
      <trkpt lat="48.5237" lon="2.00267">
        <ele>115</ele>
        <time>2021-06-03T13:44:41Z</time>
      </trkpt>
      <trkpt lat="48.52374" lon="2.00276">
        <ele>114.6</ele>
        <time>2021-06-03T13:44:43Z</time>
      </trkpt>
      <trkpt lat="48.52381" lon="2.00284">
        <ele>114.1</ele>
        <time>2021-06-03T13:44:45Z</time>
      </trkpt>
      <trkpt lat="48.52388" lon="2.00294">
        <ele>113.5</ele>
        <time>2021-06-03T13:44:47Z</time>
      </trkpt>
      <trkpt lat="48.52394" lon="2.00308">
        <ele>112.9</ele>
        <time>2021-06-03T13:44:49Z</time>
      </trkpt>
      <trkpt lat="48.52398" lon="2.00324">
        <ele>112.3</ele>
        <time>2021-06-03T13:44:51Z</time>
      </trkpt>
      <trkpt lat="48.52402" lon="2.00338">
        <ele>111.9</ele>
        <time>2021-06-03T13:44:53Z</time>
      </trkpt>
      <trkpt lat="48.52404" lon="2.00352">
        <ele>111.9</ele>
        <time>2021-06-03T13:44:55Z</time>
      </trkpt>
      <trkpt lat="48.52404" lon="2.00366">
        <ele>112</ele>
        <time>2021-06-03T13:44:57Z</time>
      </trkpt>
      <trkpt lat="48.52402" lon="2.00372">
        <ele>112.2</ele>
        <time>2021-06-03T13:45:03Z</time>
      </trkpt>
      <trkpt lat="48.52401" lon="2.0038">
        <ele>112.3</ele>
        <time>2021-06-03T13:45:07Z</time>
      </trkpt>
      <trkpt lat="48.52398" lon="2.00391">
        <ele>112.5</ele>
        <time>2021-06-03T13:45:11Z</time>
      </trkpt>
      <trkpt lat="48.52398" lon="2.00382">
        <ele>112.5</ele>
        <time>2021-06-03T13:45:35Z</time>
      </trkpt>
      <trkpt lat="48.524" lon="2.00375">
        <ele>112.3</ele>
        <time>2021-06-03T13:45:37Z</time>
      </trkpt>
      <trkpt lat="48.52401" lon="2.00369">
        <ele>112.2</ele>
        <time>2021-06-03T13:45:39Z</time>
      </trkpt>
      <trkpt lat="48.52402" lon="2.00361">
        <ele>112.1</ele>
        <time>2021-06-03T13:45:41Z</time>
      </trkpt>
      <trkpt lat="48.52402" lon="2.00352">
        <ele>112</ele>
        <time>2021-06-03T13:45:43Z</time>
      </trkpt>
      <trkpt lat="48.524" lon="2.00345">
        <ele>112.1</ele>
        <time>2021-06-03T13:45:45Z</time>
      </trkpt>
      <trkpt lat="48.52393" lon="2.00344">
        <ele>112.5</ele>
        <time>2021-06-03T13:45:47Z</time>
      </trkpt>
      <trkpt lat="48.52386" lon="2.00342">
        <ele>112.8</ele>
        <time>2021-06-03T13:45:49Z</time>
      </trkpt>
      <trkpt lat="48.5238" lon="2.00343">
        <ele>113.2</ele>
        <time>2021-06-03T13:45:51Z</time>
      </trkpt>
      <trkpt lat="48.52374" lon="2.00342">
        <ele>113.6</ele>
        <time>2021-06-03T13:45:53Z</time>
      </trkpt>
      <trkpt lat="48.52367" lon="2.00342">
        <ele>114</ele>
        <time>2021-06-03T13:45:55Z</time>
      </trkpt>
      <trkpt lat="48.5236" lon="2.0034">
        <ele>114.4</ele>
        <time>2021-06-03T13:45:57Z</time>
      </trkpt>
      <trkpt lat="48.52353" lon="2.00337">
        <ele>114.8</ele>
        <time>2021-06-03T13:45:59Z</time>
      </trkpt>
      <trkpt lat="48.52346" lon="2.00334">
        <ele>115.2</ele>
        <time>2021-06-03T13:46:01Z</time>
      </trkpt>
      <trkpt lat="48.52339" lon="2.0033">
        <ele>115.7</ele>
        <time>2021-06-03T13:46:03Z</time>
      </trkpt>
      <trkpt lat="48.52332" lon="2.00327">
        <ele>116.1</ele>
        <time>2021-06-03T13:46:05Z</time>
      </trkpt>
      <trkpt lat="48.52325" lon="2.00323">
        <ele>116.4</ele>
        <time>2021-06-03T13:46:07Z</time>
      </trkpt>
      <trkpt lat="48.52319" lon="2.00322">
        <ele>116.7</ele>
        <time>2021-06-03T13:46:09Z</time>
      </trkpt>
      <trkpt lat="48.52313" lon="2.00319">
        <ele>116.9</ele>
        <time>2021-06-03T13:46:11Z</time>
      </trkpt>
      <trkpt lat="48.52306" lon="2.00315">
        <ele>117.2</ele>
        <time>2021-06-03T13:46:13Z</time>
      </trkpt>
      <trkpt lat="48.52299" lon="2.00312">
        <ele>117.5</ele>
        <time>2021-06-03T13:46:15Z</time>
      </trkpt>
      <trkpt lat="48.52293" lon="2.00312">
        <ele>117.7</ele>
        <time>2021-06-03T13:46:17Z</time>
      </trkpt>
      <trkpt lat="48.52287" lon="2.0031">
        <ele>117.9</ele>
        <time>2021-06-03T13:46:19Z</time>
      </trkpt>
      <trkpt lat="48.52282" lon="2.00309">
        <ele>118.1</ele>
        <time>2021-06-03T13:46:21Z</time>
      </trkpt>
      <trkpt lat="48.52276" lon="2.00307">
        <ele>118.4</ele>
        <time>2021-06-03T13:46:23Z</time>
      </trkpt>
      <trkpt lat="48.52268" lon="2.00303">
        <ele>118.7</ele>
        <time>2021-06-03T13:46:27Z</time>
      </trkpt>
      <trkpt lat="48.52263" lon="2.00298">
        <ele>119</ele>
        <time>2021-06-03T13:46:31Z</time>
      </trkpt>
      <trkpt lat="48.52254" lon="2.00292">
        <ele>119.3</ele>
        <time>2021-06-03T13:46:35Z</time>
      </trkpt>
      <trkpt lat="48.52249" lon="2.00289">
        <ele>119.5</ele>
        <time>2021-06-03T13:46:37Z</time>
      </trkpt>
      <trkpt lat="48.52243" lon="2.00285">
        <ele>119.3</ele>
        <time>2021-06-03T13:46:39Z</time>
      </trkpt>
      <trkpt lat="48.52237" lon="2.00282">
        <ele>118.9</ele>
        <time>2021-06-03T13:46:41Z</time>
      </trkpt>
      <trkpt lat="48.52228" lon="2.0028">
        <ele>118.5</ele>
        <time>2021-06-03T13:46:43Z</time>
      </trkpt>
      <trkpt lat="48.52219" lon="2.00277">
        <ele>118.1</ele>
        <time>2021-06-03T13:46:45Z</time>
      </trkpt>
      <trkpt lat="48.5221" lon="2.00276">
        <ele>117.6</ele>
        <time>2021-06-03T13:46:47Z</time>
      </trkpt>
      <trkpt lat="48.522" lon="2.00275">
        <ele>117</ele>
        <time>2021-06-03T13:46:49Z</time>
      </trkpt>
      <trkpt lat="48.52189" lon="2.00273">
        <ele>116.4</ele>
        <time>2021-06-03T13:46:51Z</time>
      </trkpt>
      <trkpt lat="48.52177" lon="2.00269">
        <ele>115.8</ele>
        <time>2021-06-03T13:46:53Z</time>
      </trkpt>
      <trkpt lat="48.52166" lon="2.00265">
        <ele>115.1</ele>
        <time>2021-06-03T13:46:55Z</time>
      </trkpt>
      <trkpt lat="48.52154" lon="2.00261">
        <ele>114.5</ele>
        <time>2021-06-03T13:46:57Z</time>
      </trkpt>
      <trkpt lat="48.52144" lon="2.00257">
        <ele>114</ele>
        <time>2021-06-03T13:46:59Z</time>
      </trkpt>
      <trkpt lat="48.52134" lon="2.00252">
        <ele>113.4</ele>
        <time>2021-06-03T13:47:01Z</time>
      </trkpt>
      <trkpt lat="48.52125" lon="2.00247">
        <ele>113</ele>
        <time>2021-06-03T13:47:03Z</time>
      </trkpt>
      <trkpt lat="48.52119" lon="2.00244">
        <ele>112.6</ele>
        <time>2021-06-03T13:47:05Z</time>
      </trkpt>
      <trkpt lat="48.52112" lon="2.00241">
        <ele>112.3</ele>
        <time>2021-06-03T13:47:07Z</time>
      </trkpt>
      <trkpt lat="48.52108" lon="2.00238">
        <ele>112.1</ele>
        <time>2021-06-03T13:47:09Z</time>
      </trkpt>
      <trkpt lat="48.52103" lon="2.00235">
        <ele>111.8</ele>
        <time>2021-06-03T13:47:11Z</time>
      </trkpt>
      <trkpt lat="48.52097" lon="2.00232">
        <ele>111.5</ele>
        <time>2021-06-03T13:47:15Z</time>
      </trkpt>
      <trkpt lat="48.52092" lon="2.0023">
        <ele>111.2</ele>
        <time>2021-06-03T13:47:21Z</time>
      </trkpt>
      <trkpt lat="48.52086" lon="2.00225">
        <ele>110.9</ele>
        <time>2021-06-03T13:47:25Z</time>
      </trkpt>
      <trkpt lat="48.52081" lon="2.00221">
        <ele>110.6</ele>
        <time>2021-06-03T13:47:27Z</time>
      </trkpt>
      <trkpt lat="48.52074" lon="2.00218">
        <ele>110.2</ele>
        <time>2021-06-03T13:47:29Z</time>
      </trkpt>
      <trkpt lat="48.52067" lon="2.00214">
        <ele>109.9</ele>
        <time>2021-06-03T13:47:31Z</time>
      </trkpt>
      <trkpt lat="48.52059" lon="2.0021">
        <ele>109.5</ele>
        <time>2021-06-03T13:47:33Z</time>
      </trkpt>
      <trkpt lat="48.52052" lon="2.00207">
        <ele>109.1</ele>
        <time>2021-06-03T13:47:35Z</time>
      </trkpt>
      <trkpt lat="48.52045" lon="2.00205">
        <ele>108.8</ele>
        <time>2021-06-03T13:47:37Z</time>
      </trkpt>
      <trkpt lat="48.52039" lon="2.00205">
        <ele>108.6</ele>
        <time>2021-06-03T13:47:39Z</time>
      </trkpt>
      <trkpt lat="48.52035" lon="2.00209">
        <ele>108.5</ele>
        <time>2021-06-03T13:47:41Z</time>
      </trkpt>
      <trkpt lat="48.52031" lon="2.00215">
        <ele>108.4</ele>
        <time>2021-06-03T13:47:43Z</time>
      </trkpt>
      <trkpt lat="48.52028" lon="2.00224">
        <ele>108.5</ele>
        <time>2021-06-03T13:47:45Z</time>
      </trkpt>
      <trkpt lat="48.52024" lon="2.00233">
        <ele>108.5</ele>
        <time>2021-06-03T13:47:47Z</time>
      </trkpt>
      <trkpt lat="48.5202" lon="2.00243">
        <ele>108.6</ele>
        <time>2021-06-03T13:47:49Z</time>
      </trkpt>
      <trkpt lat="48.52015" lon="2.00253">
        <ele>108.6</ele>
        <time>2021-06-03T13:47:51Z</time>
      </trkpt>
      <trkpt lat="48.52011" lon="2.00263">
        <ele>108.7</ele>
        <time>2021-06-03T13:47:53Z</time>
      </trkpt>
      <trkpt lat="48.52006" lon="2.00273">
        <ele>108.7</ele>
        <time>2021-06-03T13:47:55Z</time>
      </trkpt>
      <trkpt lat="48.52001" lon="2.00281">
        <ele>108.8</ele>
        <time>2021-06-03T13:47:57Z</time>
      </trkpt>
      <trkpt lat="48.51996" lon="2.0029">
        <ele>108.9</ele>
        <time>2021-06-03T13:47:59Z</time>
      </trkpt>
      <trkpt lat="48.51993" lon="2.00296">
        <ele>108.9</ele>
        <time>2021-06-03T13:48:01Z</time>
      </trkpt>
      <trkpt lat="48.51989" lon="2.00303">
        <ele>109.1</ele>
        <time>2021-06-03T13:48:03Z</time>
      </trkpt>
      <trkpt lat="48.51987" lon="2.00313">
        <ele>109.3</ele>
        <time>2021-06-03T13:48:07Z</time>
      </trkpt>
      <trkpt lat="48.51991" lon="2.00325">
        <ele>109.7</ele>
        <time>2021-06-03T13:48:11Z</time>
      </trkpt>
      <trkpt lat="48.51995" lon="2.0033">
        <ele>109.9</ele>
        <time>2021-06-03T13:48:13Z</time>
      </trkpt>
      <trkpt lat="48.51998" lon="2.00337">
        <ele>110.3</ele>
        <time>2021-06-03T13:48:15Z</time>
      </trkpt>
      <trkpt lat="48.52002" lon="2.00343">
        <ele>111</ele>
        <time>2021-06-03T13:48:17Z</time>
      </trkpt>
      <trkpt lat="48.52006" lon="2.0035">
        <ele>111.7</ele>
        <time>2021-06-03T13:48:19Z</time>
      </trkpt>
      <trkpt lat="48.52008" lon="2.00361">
        <ele>112.7</ele>
        <time>2021-06-03T13:48:23Z</time>
      </trkpt>
      <trkpt lat="48.52008" lon="2.00371">
        <ele>113.7</ele>
        <time>2021-06-03T13:48:27Z</time>
      </trkpt>
      <trkpt lat="48.5201" lon="2.00383">
        <ele>114.8</ele>
        <time>2021-06-03T13:48:31Z</time>
      </trkpt>
      <trkpt lat="48.5201" lon="2.0039">
        <ele>115.5</ele>
        <time>2021-06-03T13:48:33Z</time>
      </trkpt>
      <trkpt lat="48.52012" lon="2.00398">
        <ele>116.2</ele>
        <time>2021-06-03T13:48:35Z</time>
      </trkpt>
      <trkpt lat="48.52016" lon="2.00404">
        <ele>116.7</ele>
        <time>2021-06-03T13:48:37Z</time>
      </trkpt>
      <trkpt lat="48.52021" lon="2.00406">
        <ele>116.8</ele>
        <time>2021-06-03T13:48:39Z</time>
      </trkpt>
      <trkpt lat="48.52025" lon="2.00411">
        <ele>117.2</ele>
        <time>2021-06-03T13:48:41Z</time>
      </trkpt>
      <trkpt lat="48.52031" lon="2.00416">
        <ele>117.6</ele>
        <time>2021-06-03T13:48:45Z</time>
      </trkpt>
      <trkpt lat="48.52037" lon="2.00422">
        <ele>118</ele>
        <time>2021-06-03T13:48:49Z</time>
      </trkpt>
      <trkpt lat="48.52043" lon="2.00429">
        <ele>118.5</ele>
        <time>2021-06-03T13:48:53Z</time>
      </trkpt>
      <trkpt lat="48.5205" lon="2.00435">
        <ele>119</ele>
        <time>2021-06-03T13:48:57Z</time>
      </trkpt>
      <trkpt lat="48.52055" lon="2.00443">
        <ele>119.6</ele>
        <time>2021-06-03T13:49:01Z</time>
      </trkpt>
      <trkpt lat="48.52061" lon="2.00453">
        <ele>120.5</ele>
        <time>2021-06-03T13:49:05Z</time>
      </trkpt>
      <trkpt lat="48.52066" lon="2.00461">
        <ele>121.3</ele>
        <time>2021-06-03T13:49:09Z</time>
      </trkpt>
      <trkpt lat="48.52069" lon="2.00471">
        <ele>122.1</ele>
        <time>2021-06-03T13:49:13Z</time>
      </trkpt>
      <trkpt lat="48.52074" lon="2.00478">
        <ele>122.8</ele>
        <time>2021-06-03T13:49:17Z</time>
      </trkpt>
      <trkpt lat="48.52078" lon="2.00486">
        <ele>123.6</ele>
        <time>2021-06-03T13:49:19Z</time>
      </trkpt>
      <trkpt lat="48.52081" lon="2.00491">
        <ele>124.1</ele>
        <time>2021-06-03T13:49:21Z</time>
      </trkpt>
      <trkpt lat="48.52088" lon="2.00496">
        <ele>124.3</ele>
        <time>2021-06-03T13:49:25Z</time>
      </trkpt>
      <trkpt lat="48.52095" lon="2.00498">
        <ele>124</ele>
        <time>2021-06-03T13:49:29Z</time>
      </trkpt>
      <trkpt lat="48.521" lon="2.00502">
        <ele>123.9</ele>
        <time>2021-06-03T13:49:31Z</time>
      </trkpt>
      <trkpt lat="48.52107" lon="2.00504">
        <ele>123.5</ele>
        <time>2021-06-03T13:49:33Z</time>
      </trkpt>
      <trkpt lat="48.5211" lon="2.00513">
        <ele>123.8</ele>
        <time>2021-06-03T13:49:35Z</time>
      </trkpt>
      <trkpt lat="48.52107" lon="2.00523">
        <ele>124.6</ele>
        <time>2021-06-03T13:49:39Z</time>
      </trkpt>
      <trkpt lat="48.52104" lon="2.00534">
        <ele>125.4</ele>
        <time>2021-06-03T13:49:43Z</time>
      </trkpt>
      <trkpt lat="48.52101" lon="2.00547">
        <ele>126.2</ele>
        <time>2021-06-03T13:49:47Z</time>
      </trkpt>
      <trkpt lat="48.52099" lon="2.00559">
        <ele>127</ele>
        <time>2021-06-03T13:49:51Z</time>
      </trkpt>
      <trkpt lat="48.52096" lon="2.00566">
        <ele>127.5</ele>
        <time>2021-06-03T13:49:53Z</time>
      </trkpt>
      <trkpt lat="48.52095" lon="2.00575">
        <ele>128</ele>
        <time>2021-06-03T13:49:55Z</time>
      </trkpt>
      <trkpt lat="48.52093" lon="2.00583">
        <ele>128.5</ele>
        <time>2021-06-03T13:49:57Z</time>
      </trkpt>
      <trkpt lat="48.5209" lon="2.0059">
        <ele>129</ele>
        <time>2021-06-03T13:49:59Z</time>
      </trkpt>
      <trkpt lat="48.52084" lon="2.00597">
        <ele>129.7</ele>
        <time>2021-06-03T13:50:03Z</time>
      </trkpt>
      <trkpt lat="48.52078" lon="2.00589">
        <ele>129.2</ele>
        <time>2021-06-03T13:50:07Z</time>
      </trkpt>
      <trkpt lat="48.52072" lon="2.00582">
        <ele>128.8</ele>
        <time>2021-06-03T13:50:09Z</time>
      </trkpt>
      <trkpt lat="48.52066" lon="2.00576">
        <ele>128.4</ele>
        <time>2021-06-03T13:50:11Z</time>
      </trkpt>
      <trkpt lat="48.52057" lon="2.00569">
        <ele>128</ele>
        <time>2021-06-03T13:50:13Z</time>
      </trkpt>
      <trkpt lat="48.52049" lon="2.00562">
        <ele>127.6</ele>
        <time>2021-06-03T13:50:15Z</time>
      </trkpt>
      <trkpt lat="48.52039" lon="2.00556">
        <ele>127.1</ele>
        <time>2021-06-03T13:50:17Z</time>
      </trkpt>
      <trkpt lat="48.52029" lon="2.00547">
        <ele>126.6</ele>
        <time>2021-06-03T13:50:19Z</time>
      </trkpt>
      <trkpt lat="48.52017" lon="2.00542">
        <ele>126.2</ele>
        <time>2021-06-03T13:50:21Z</time>
      </trkpt>
      <trkpt lat="48.52006" lon="2.00535">
        <ele>125.8</ele>
        <time>2021-06-03T13:50:23Z</time>
      </trkpt>
      <trkpt lat="48.51995" lon="2.0053">
        <ele>125.1</ele>
        <time>2021-06-03T13:50:25Z</time>
      </trkpt>
      <trkpt lat="48.51983" lon="2.00524">
        <ele>124.2</ele>
        <time>2021-06-03T13:50:27Z</time>
      </trkpt>
      <trkpt lat="48.51971" lon="2.00522">
        <ele>123.4</ele>
        <time>2021-06-03T13:50:29Z</time>
      </trkpt>
      <trkpt lat="48.51959" lon="2.00518">
        <ele>122.6</ele>
        <time>2021-06-03T13:50:31Z</time>
      </trkpt>
      <trkpt lat="48.51948" lon="2.00515">
        <ele>121.7</ele>
        <time>2021-06-03T13:50:33Z</time>
      </trkpt>
      <trkpt lat="48.51937" lon="2.00514">
        <ele>121</ele>
        <time>2021-06-03T13:50:35Z</time>
      </trkpt>
      <trkpt lat="48.51925" lon="2.00513">
        <ele>120.2</ele>
        <time>2021-06-03T13:50:37Z</time>
      </trkpt>
      <trkpt lat="48.51913" lon="2.00515">
        <ele>119.7</ele>
        <time>2021-06-03T13:50:39Z</time>
      </trkpt>
      <trkpt lat="48.51903" lon="2.00519">
        <ele>119.3</ele>
        <time>2021-06-03T13:50:41Z</time>
      </trkpt>
      <trkpt lat="48.51895" lon="2.00524">
        <ele>119.1</ele>
        <time>2021-06-03T13:50:43Z</time>
      </trkpt>
      <trkpt lat="48.51889" lon="2.00527">
        <ele>118.9</ele>
        <time>2021-06-03T13:50:45Z</time>
      </trkpt>
      <trkpt lat="48.51884" lon="2.00528">
        <ele>118.6</ele>
        <time>2021-06-03T13:50:47Z</time>
      </trkpt>
      <trkpt lat="48.51879" lon="2.0053">
        <ele>118.4</ele>
        <time>2021-06-03T13:50:49Z</time>
      </trkpt>
      <trkpt lat="48.51873" lon="2.00533">
        <ele>118.1</ele>
        <time>2021-06-03T13:50:51Z</time>
      </trkpt>
      <trkpt lat="48.51865" lon="2.00535">
        <ele>117.8</ele>
        <time>2021-06-03T13:50:53Z</time>
      </trkpt>
      <trkpt lat="48.51855" lon="2.0054">
        <ele>117.4</ele>
        <time>2021-06-03T13:50:55Z</time>
      </trkpt>
      <trkpt lat="48.51846" lon="2.00545">
        <ele>117</ele>
        <time>2021-06-03T13:50:57Z</time>
      </trkpt>
      <trkpt lat="48.51836" lon="2.00553">
        <ele>116.7</ele>
        <time>2021-06-03T13:50:59Z</time>
      </trkpt>
      <trkpt lat="48.51826" lon="2.00561">
        <ele>116.5</ele>
        <time>2021-06-03T13:51:01Z</time>
      </trkpt>
      <trkpt lat="48.51816" lon="2.00568">
        <ele>116.4</ele>
        <time>2021-06-03T13:51:03Z</time>
      </trkpt>
      <trkpt lat="48.51809" lon="2.00575">
        <ele>116.4</ele>
        <time>2021-06-03T13:51:05Z</time>
      </trkpt>
      <trkpt lat="48.51802" lon="2.0058">
        <ele>116.3</ele>
        <time>2021-06-03T13:51:07Z</time>
      </trkpt>
      <trkpt lat="48.51794" lon="2.00584">
        <ele>116.2</ele>
        <time>2021-06-03T13:51:09Z</time>
      </trkpt>
      <trkpt lat="48.51785" lon="2.00584">
        <ele>115.7</ele>
        <time>2021-06-03T13:51:11Z</time>
      </trkpt>
      <trkpt lat="48.51774" lon="2.00581">
        <ele>115</ele>
        <time>2021-06-03T13:51:13Z</time>
      </trkpt>
      <trkpt lat="48.5176" lon="2.00579">
        <ele>114.2</ele>
        <time>2021-06-03T13:51:15Z</time>
      </trkpt>
      <trkpt lat="48.51747" lon="2.00573">
        <ele>113.2</ele>
        <time>2021-06-03T13:51:17Z</time>
      </trkpt>
      <trkpt lat="48.51734" lon="2.00572">
        <ele>112.6</ele>
        <time>2021-06-03T13:51:19Z</time>
      </trkpt>
      <trkpt lat="48.51722" lon="2.00568">
        <ele>111.7</ele>
        <time>2021-06-03T13:51:21Z</time>
      </trkpt>
      <trkpt lat="48.51711" lon="2.00562">
        <ele>110.8</ele>
        <time>2021-06-03T13:51:23Z</time>
      </trkpt>
      <trkpt lat="48.51702" lon="2.00557">
        <ele>109.9</ele>
        <time>2021-06-03T13:51:25Z</time>
      </trkpt>
      <trkpt lat="48.51693" lon="2.00552">
        <ele>109.2</ele>
        <time>2021-06-03T13:51:27Z</time>
      </trkpt>
      <trkpt lat="48.51683" lon="2.00547">
        <ele>108.2</ele>
        <time>2021-06-03T13:51:29Z</time>
      </trkpt>
      <trkpt lat="48.51673" lon="2.00546">
        <ele>107.6</ele>
        <time>2021-06-03T13:51:31Z</time>
      </trkpt>
      <trkpt lat="48.51661" lon="2.00543">
        <ele>106.9</ele>
        <time>2021-06-03T13:51:33Z</time>
      </trkpt>
      <trkpt lat="48.51651" lon="2.00543">
        <ele>106.6</ele>
        <time>2021-06-03T13:51:35Z</time>
      </trkpt>
      <trkpt lat="48.51644" lon="2.00552">
        <ele>107</ele>
        <time>2021-06-03T13:51:37Z</time>
      </trkpt>
      <trkpt lat="48.51639" lon="2.00564">
        <ele>107.6</ele>
        <time>2021-06-03T13:51:39Z</time>
      </trkpt>
      <trkpt lat="48.51634" lon="2.00575">
        <ele>108.2</ele>
        <time>2021-06-03T13:51:41Z</time>
      </trkpt>
      <trkpt lat="48.5163" lon="2.00584">
        <ele>108.7</ele>
        <time>2021-06-03T13:51:43Z</time>
      </trkpt>
      <trkpt lat="48.51625" lon="2.00593">
        <ele>108.9</ele>
        <time>2021-06-03T13:51:45Z</time>
      </trkpt>
      <trkpt lat="48.51619" lon="2.00603">
        <ele>109</ele>
        <time>2021-06-03T13:51:47Z</time>
      </trkpt>
      <trkpt lat="48.51614" lon="2.00611">
        <ele>109.1</ele>
        <time>2021-06-03T13:51:49Z</time>
      </trkpt>
      <trkpt lat="48.5161" lon="2.0062">
        <ele>109.3</ele>
        <time>2021-06-03T13:51:51Z</time>
      </trkpt>
      <trkpt lat="48.51605" lon="2.00628">
        <ele>109.4</ele>
        <time>2021-06-03T13:51:53Z</time>
      </trkpt>
      <trkpt lat="48.51601" lon="2.00636">
        <ele>109.5</ele>
        <time>2021-06-03T13:51:55Z</time>
      </trkpt>
      <trkpt lat="48.51596" lon="2.00641">
        <ele>109.5</ele>
        <time>2021-06-03T13:51:57Z</time>
      </trkpt>
      <trkpt lat="48.51592" lon="2.00649">
        <ele>109.7</ele>
        <time>2021-06-03T13:51:59Z</time>
      </trkpt>
      <trkpt lat="48.51586" lon="2.00657">
        <ele>109.8</ele>
        <time>2021-06-03T13:52:01Z</time>
      </trkpt>
      <trkpt lat="48.51579" lon="2.00666">
        <ele>109.7</ele>
        <time>2021-06-03T13:52:03Z</time>
      </trkpt>
      <trkpt lat="48.51572" lon="2.00678">
        <ele>109.2</ele>
        <time>2021-06-03T13:52:05Z</time>
      </trkpt>
      <trkpt lat="48.51566" lon="2.0069">
        <ele>108.8</ele>
        <time>2021-06-03T13:52:07Z</time>
      </trkpt>
      <trkpt lat="48.51557" lon="2.00706">
        <ele>108.4</ele>
        <time>2021-06-03T13:52:09Z</time>
      </trkpt>
      <trkpt lat="48.51549" lon="2.00723">
        <ele>108.1</ele>
        <time>2021-06-03T13:52:11Z</time>
      </trkpt>
      <trkpt lat="48.51542" lon="2.0074">
        <ele>108</ele>
        <time>2021-06-03T13:52:13Z</time>
      </trkpt>
      <trkpt lat="48.51535" lon="2.00755">
        <ele>107.9</ele>
        <time>2021-06-03T13:52:15Z</time>
      </trkpt>
      <trkpt lat="48.51531" lon="2.00771">
        <ele>108</ele>
        <time>2021-06-03T13:52:17Z</time>
      </trkpt>
      <trkpt lat="48.51526" lon="2.00786">
        <ele>108.1</ele>
        <time>2021-06-03T13:52:19Z</time>
      </trkpt>
      <trkpt lat="48.51523" lon="2.008">
        <ele>108.3</ele>
        <time>2021-06-03T13:52:21Z</time>
      </trkpt>
      <trkpt lat="48.51512" lon="2.00813">
        <ele>108.5</ele>
        <time>2021-06-03T13:52:23Z</time>
      </trkpt>
      <trkpt lat="48.51506" lon="2.00824">
        <ele>108.7</ele>
        <time>2021-06-03T13:52:25Z</time>
      </trkpt>
      <trkpt lat="48.51502" lon="2.00834">
        <ele>109</ele>
        <time>2021-06-03T13:52:27Z</time>
      </trkpt>
      <trkpt lat="48.51495" lon="2.00846">
        <ele>109</ele>
        <time>2021-06-03T13:52:29Z</time>
      </trkpt>
      <trkpt lat="48.5149" lon="2.00855">
        <ele>109</ele>
        <time>2021-06-03T13:52:31Z</time>
      </trkpt>
      <trkpt lat="48.51483" lon="2.00864">
        <ele>109.2</ele>
        <time>2021-06-03T13:52:33Z</time>
      </trkpt>
      <trkpt lat="48.51479" lon="2.00876">
        <ele>109.1</ele>
        <time>2021-06-03T13:52:35Z</time>
      </trkpt>
      <trkpt lat="48.51476" lon="2.00883">
        <ele>109.1</ele>
        <time>2021-06-03T13:52:37Z</time>
      </trkpt>
      <trkpt lat="48.51473" lon="2.0089">
        <ele>109.2</ele>
        <time>2021-06-03T13:52:39Z</time>
      </trkpt>
      <trkpt lat="48.51471" lon="2.00899">
        <ele>109.1</ele>
        <time>2021-06-03T13:52:41Z</time>
      </trkpt>
      <trkpt lat="48.51468" lon="2.00905">
        <ele>109.1</ele>
        <time>2021-06-03T13:52:43Z</time>
      </trkpt>
      <trkpt lat="48.51467" lon="2.00913">
        <ele>109.1</ele>
        <time>2021-06-03T13:52:45Z</time>
      </trkpt>
      <trkpt lat="48.51463" lon="2.00924">
        <ele>109.2</ele>
        <time>2021-06-03T13:52:47Z</time>
      </trkpt>
      <trkpt lat="48.51462" lon="2.00935">
        <ele>109.3</ele>
        <time>2021-06-03T13:52:49Z</time>
      </trkpt>
      <trkpt lat="48.5146" lon="2.00945">
        <ele>109.4</ele>
        <time>2021-06-03T13:52:51Z</time>
      </trkpt>
      <trkpt lat="48.51456" lon="2.0095">
        <ele>109.7</ele>
        <time>2021-06-03T13:52:53Z</time>
      </trkpt>
      <trkpt lat="48.51449" lon="2.00956">
        <ele>110.2</ele>
        <time>2021-06-03T13:52:57Z</time>
      </trkpt>
      <trkpt lat="48.51442" lon="2.00961">
        <ele>110.7</ele>
        <time>2021-06-03T13:52:59Z</time>
      </trkpt>
      <trkpt lat="48.51436" lon="2.00962">
        <ele>111.1</ele>
        <time>2021-06-03T13:53:01Z</time>
      </trkpt>
      <trkpt lat="48.51431" lon="2.00963">
        <ele>111.5</ele>
        <time>2021-06-03T13:53:03Z</time>
      </trkpt>
      <trkpt lat="48.51425" lon="2.00964">
        <ele>111.9</ele>
        <time>2021-06-03T13:53:05Z</time>
      </trkpt>
      <trkpt lat="48.5142" lon="2.00965">
        <ele>112.3</ele>
        <time>2021-06-03T13:53:07Z</time>
      </trkpt>
      <trkpt lat="48.51415" lon="2.00968">
        <ele>112.8</ele>
        <time>2021-06-03T13:53:09Z</time>
      </trkpt>
      <trkpt lat="48.51409" lon="2.00973">
        <ele>113.2</ele>
        <time>2021-06-03T13:53:11Z</time>
      </trkpt>
      <trkpt lat="48.51403" lon="2.00977">
        <ele>113.6</ele>
        <time>2021-06-03T13:53:13Z</time>
      </trkpt>
      <trkpt lat="48.51398" lon="2.00983">
        <ele>113.9</ele>
        <time>2021-06-03T13:53:15Z</time>
      </trkpt>
      <trkpt lat="48.51388" lon="2.00989">
        <ele>114.4</ele>
        <time>2021-06-03T13:53:19Z</time>
      </trkpt>
      <trkpt lat="48.51384" lon="2.00996">
        <ele>114.6</ele>
        <time>2021-06-03T13:53:21Z</time>
      </trkpt>
      <trkpt lat="48.51378" lon="2.01">
        <ele>114.9</ele>
        <time>2021-06-03T13:53:23Z</time>
      </trkpt>
      <trkpt lat="48.51371" lon="2.01005">
        <ele>115.3</ele>
        <time>2021-06-03T13:53:27Z</time>
      </trkpt>
      <trkpt lat="48.51366" lon="2.01007">
        <ele>115.5</ele>
        <time>2021-06-03T13:53:29Z</time>
      </trkpt>
      <trkpt lat="48.51357" lon="2.01014">
        <ele>116</ele>
        <time>2021-06-03T13:53:33Z</time>
      </trkpt>
      <trkpt lat="48.51353" lon="2.01018">
        <ele>116.2</ele>
        <time>2021-06-03T13:53:35Z</time>
      </trkpt>
      <trkpt lat="48.51346" lon="2.01022">
        <ele>116.5</ele>
        <time>2021-06-03T13:53:39Z</time>
      </trkpt>
      <trkpt lat="48.51342" lon="2.01027">
        <ele>116.7</ele>
        <time>2021-06-03T13:53:43Z</time>
      </trkpt>
      <trkpt lat="48.5134" lon="2.01035">
        <ele>116.8</ele>
        <time>2021-06-03T13:53:57Z</time>
      </trkpt>
      <trkpt lat="48.51335" lon="2.01048">
        <ele>117</ele>
        <time>2021-06-03T13:54:01Z</time>
      </trkpt>
      <trkpt lat="48.51332" lon="2.01054">
        <ele>117.1</ele>
        <time>2021-06-03T13:54:03Z</time>
      </trkpt>
      <trkpt lat="48.51329" lon="2.01061">
        <ele>117.3</ele>
        <time>2021-06-03T13:54:07Z</time>
      </trkpt>
      <trkpt lat="48.51327" lon="2.01068">
        <ele>117.4</ele>
        <time>2021-06-03T13:56:15Z</time>
      </trkpt>
      <trkpt lat="48.51327" lon="2.01075">
        <ele>117.4</ele>
        <time>2021-06-03T13:56:19Z</time>
      </trkpt>
      <trkpt lat="48.51326" lon="2.01083">
        <ele>117.5</ele>
        <time>2021-06-03T13:56:21Z</time>
      </trkpt>
      <trkpt lat="48.51326" lon="2.0109">
        <ele>117.7</ele>
        <time>2021-06-03T13:56:23Z</time>
      </trkpt>
      <trkpt lat="48.51326" lon="2.01105">
        <ele>118.2</ele>
        <time>2021-06-03T13:56:27Z</time>
      </trkpt>
      <trkpt lat="48.51325" lon="2.01112">
        <ele>118.5</ele>
        <time>2021-06-03T13:56:29Z</time>
      </trkpt>
      <trkpt lat="48.51324" lon="2.01122">
        <ele>118.8</ele>
        <time>2021-06-03T13:56:31Z</time>
      </trkpt>
      <trkpt lat="48.51322" lon="2.01128">
        <ele>119.1</ele>
        <time>2021-06-03T13:56:33Z</time>
      </trkpt>
      <trkpt lat="48.51318" lon="2.01135">
        <ele>119.6</ele>
        <time>2021-06-03T13:56:35Z</time>
      </trkpt>
      <trkpt lat="48.51313" lon="2.01141">
        <ele>120</ele>
        <time>2021-06-03T13:56:37Z</time>
      </trkpt>
      <trkpt lat="48.51311" lon="2.01148">
        <ele>120.3</ele>
        <time>2021-06-03T13:56:39Z</time>
      </trkpt>
      <trkpt lat="48.51308" lon="2.01156">
        <ele>120.6</ele>
        <time>2021-06-03T13:56:41Z</time>
      </trkpt>
      <trkpt lat="48.51305" lon="2.01164">
        <ele>120.9</ele>
        <time>2021-06-03T13:56:43Z</time>
      </trkpt>
      <trkpt lat="48.51302" lon="2.01173">
        <ele>121.5</ele>
        <time>2021-06-03T13:56:45Z</time>
      </trkpt>
      <trkpt lat="48.51299" lon="2.01184">
        <ele>122.2</ele>
        <time>2021-06-03T13:56:49Z</time>
      </trkpt>
      <trkpt lat="48.51293" lon="2.01195">
        <ele>123</ele>
        <time>2021-06-03T13:56:53Z</time>
      </trkpt>
      <trkpt lat="48.51288" lon="2.01205">
        <ele>123.7</ele>
        <time>2021-06-03T13:56:57Z</time>
      </trkpt>
      <trkpt lat="48.51284" lon="2.01215">
        <ele>124.3</ele>
        <time>2021-06-03T13:57:01Z</time>
      </trkpt>
      <trkpt lat="48.5128" lon="2.01223">
        <ele>124.9</ele>
        <time>2021-06-03T13:57:05Z</time>
      </trkpt>
      <trkpt lat="48.51276" lon="2.01233">
        <ele>125.5</ele>
        <time>2021-06-03T13:57:09Z</time>
      </trkpt>
      <trkpt lat="48.51273" lon="2.01242">
        <ele>126.1</ele>
        <time>2021-06-03T13:57:13Z</time>
      </trkpt>
      <trkpt lat="48.51269" lon="2.01252">
        <ele>126.6</ele>
        <time>2021-06-03T13:57:17Z</time>
      </trkpt>
      <trkpt lat="48.51265" lon="2.01264">
        <ele>127.2</ele>
        <time>2021-06-03T13:57:21Z</time>
      </trkpt>
      <trkpt lat="48.51262" lon="2.01269">
        <ele>127.5</ele>
        <time>2021-06-03T13:57:23Z</time>
      </trkpt>
      <trkpt lat="48.51258" lon="2.01279">
        <ele>127.9</ele>
        <time>2021-06-03T13:57:27Z</time>
      </trkpt>
      <trkpt lat="48.51256" lon="2.01287">
        <ele>128.2</ele>
        <time>2021-06-03T13:57:31Z</time>
      </trkpt>
      <trkpt lat="48.51252" lon="2.01297">
        <ele>128.7</ele>
        <time>2021-06-03T13:57:35Z</time>
      </trkpt>
      <trkpt lat="48.51248" lon="2.01306">
        <ele>129.2</ele>
        <time>2021-06-03T13:57:39Z</time>
      </trkpt>
      <trkpt lat="48.51243" lon="2.0132">
        <ele>130.2</ele>
        <time>2021-06-03T13:57:43Z</time>
      </trkpt>
      <trkpt lat="48.51239" lon="2.0133">
        <ele>131.1</ele>
        <time>2021-06-03T13:57:45Z</time>
      </trkpt>
      <trkpt lat="48.51234" lon="2.01338">
        <ele>131.6</ele>
        <time>2021-06-03T13:57:47Z</time>
      </trkpt>
      <trkpt lat="48.51228" lon="2.01349">
        <ele>132.1</ele>
        <time>2021-06-03T13:57:49Z</time>
      </trkpt>
      <trkpt lat="48.51224" lon="2.01363">
        <ele>132.2</ele>
        <time>2021-06-03T13:57:51Z</time>
      </trkpt>
      <trkpt lat="48.51221" lon="2.01374">
        <ele>132.3</ele>
        <time>2021-06-03T13:57:53Z</time>
      </trkpt>
      <trkpt lat="48.51217" lon="2.01385">
        <ele>132.6</ele>
        <time>2021-06-03T13:57:55Z</time>
      </trkpt>
      <trkpt lat="48.51211" lon="2.01397">
        <ele>133.1</ele>
        <time>2021-06-03T13:57:57Z</time>
      </trkpt>
      <trkpt lat="48.51206" lon="2.01406">
        <ele>133.5</ele>
        <time>2021-06-03T13:57:59Z</time>
      </trkpt>
      <trkpt lat="48.51199" lon="2.01416">
        <ele>134.1</ele>
        <time>2021-06-03T13:58:01Z</time>
      </trkpt>
      <trkpt lat="48.51194" lon="2.01428">
        <ele>134.6</ele>
        <time>2021-06-03T13:58:03Z</time>
      </trkpt>
      <trkpt lat="48.51193" lon="2.01438">
        <ele>134.7</ele>
        <time>2021-06-03T13:58:05Z</time>
      </trkpt>
      <trkpt lat="48.5119" lon="2.01445">
        <ele>135</ele>
        <time>2021-06-03T13:58:07Z</time>
      </trkpt>
      <trkpt lat="48.51188" lon="2.01457">
        <ele>135.2</ele>
        <time>2021-06-03T13:58:09Z</time>
      </trkpt>
      <trkpt lat="48.51182" lon="2.01466">
        <ele>135.9</ele>
        <time>2021-06-03T13:58:11Z</time>
      </trkpt>
      <trkpt lat="48.51174" lon="2.01474">
        <ele>137</ele>
        <time>2021-06-03T13:58:13Z</time>
      </trkpt>
      <trkpt lat="48.51171" lon="2.01484">
        <ele>137.3</ele>
        <time>2021-06-03T13:58:17Z</time>
      </trkpt>
      <trkpt lat="48.51167" lon="2.01494">
        <ele>138</ele>
        <time>2021-06-03T13:58:21Z</time>
      </trkpt>
      <trkpt lat="48.51163" lon="2.01504">
        <ele>138</ele>
        <time>2021-06-03T13:58:25Z</time>
      </trkpt>
      <trkpt lat="48.51162" lon="2.01516">
        <ele>137.8</ele>
        <time>2021-06-03T13:58:29Z</time>
      </trkpt>
      <trkpt lat="48.5116" lon="2.01523">
        <ele>137.7</ele>
        <time>2021-06-03T13:58:31Z</time>
      </trkpt>
      <trkpt lat="48.51154" lon="2.01534">
        <ele>137.5</ele>
        <time>2021-06-03T13:58:35Z</time>
      </trkpt>
      <trkpt lat="48.51151" lon="2.0154">
        <ele>137.4</ele>
        <time>2021-06-03T13:58:37Z</time>
      </trkpt>
      <trkpt lat="48.51147" lon="2.01546">
        <ele>137.3</ele>
        <time>2021-06-03T13:58:39Z</time>
      </trkpt>
      <trkpt lat="48.51144" lon="2.01551">
        <ele>137.2</ele>
        <time>2021-06-03T13:58:41Z</time>
      </trkpt>
      <trkpt lat="48.51141" lon="2.01556">
        <ele>137.1</ele>
        <time>2021-06-03T13:58:43Z</time>
      </trkpt>
      <trkpt lat="48.51137" lon="2.01562">
        <ele>136.9</ele>
        <time>2021-06-03T13:58:45Z</time>
      </trkpt>
      <trkpt lat="48.51132" lon="2.0157">
        <ele>136.6</ele>
        <time>2021-06-03T13:58:47Z</time>
      </trkpt>
      <trkpt lat="48.51128" lon="2.0158">
        <ele>136.2</ele>
        <time>2021-06-03T13:58:49Z</time>
      </trkpt>
      <trkpt lat="48.51123" lon="2.0159">
        <ele>135.6</ele>
        <time>2021-06-03T13:58:51Z</time>
      </trkpt>
      <trkpt lat="48.51114" lon="2.01606">
        <ele>134.5</ele>
        <time>2021-06-03T13:58:53Z</time>
      </trkpt>
      <trkpt lat="48.51104" lon="2.01614">
        <ele>133.9</ele>
        <time>2021-06-03T13:58:55Z</time>
      </trkpt>
      <trkpt lat="48.51097" lon="2.01626">
        <ele>133</ele>
        <time>2021-06-03T13:58:57Z</time>
      </trkpt>
      <trkpt lat="48.51093" lon="2.01634">
        <ele>132.4</ele>
        <time>2021-06-03T13:58:59Z</time>
      </trkpt>
      <trkpt lat="48.51088" lon="2.01638">
        <ele>132.1</ele>
        <time>2021-06-03T13:59:01Z</time>
      </trkpt>
      <trkpt lat="48.5108" lon="2.01644">
        <ele>131.6</ele>
        <time>2021-06-03T13:59:03Z</time>
      </trkpt>
      <trkpt lat="48.51073" lon="2.01647">
        <ele>131.3</ele>
        <time>2021-06-03T13:59:05Z</time>
      </trkpt>
      <trkpt lat="48.51067" lon="2.01651">
        <ele>130.9</ele>
        <time>2021-06-03T13:59:07Z</time>
      </trkpt>
      <trkpt lat="48.51058" lon="2.01659">
        <ele>130.3</ele>
        <time>2021-06-03T13:59:09Z</time>
      </trkpt>
      <trkpt lat="48.51049" lon="2.01664">
        <ele>129.8</ele>
        <time>2021-06-03T13:59:11Z</time>
      </trkpt>
      <trkpt lat="48.51043" lon="2.01663">
        <ele>129.8</ele>
        <time>2021-06-03T13:59:13Z</time>
      </trkpt>
      <trkpt lat="48.5104" lon="2.01658">
        <ele>130.1</ele>
        <time>2021-06-03T13:59:15Z</time>
      </trkpt>
      <trkpt lat="48.51037" lon="2.0165">
        <ele>130.6</ele>
        <time>2021-06-03T13:59:19Z</time>
      </trkpt>
      <trkpt lat="48.51034" lon="2.01641">
        <ele>131.3</ele>
        <time>2021-06-03T13:59:23Z</time>
      </trkpt>
      <trkpt lat="48.5103" lon="2.01632">
        <ele>131.8</ele>
        <time>2021-06-03T13:59:27Z</time>
      </trkpt>
      <trkpt lat="48.51028" lon="2.01627">
        <ele>132.2</ele>
        <time>2021-06-03T13:59:29Z</time>
      </trkpt>
      <trkpt lat="48.51025" lon="2.01618">
        <ele>132.8</ele>
        <time>2021-06-03T13:59:33Z</time>
      </trkpt>
      <trkpt lat="48.51021" lon="2.01611">
        <ele>133.3</ele>
        <time>2021-06-03T13:59:37Z</time>
      </trkpt>
      <trkpt lat="48.51016" lon="2.01604">
        <ele>133.7</ele>
        <time>2021-06-03T13:59:41Z</time>
      </trkpt>
      <trkpt lat="48.51013" lon="2.01599">
        <ele>134.1</ele>
        <time>2021-06-03T13:59:43Z</time>
      </trkpt>
      <trkpt lat="48.51009" lon="2.01588">
        <ele>134.8</ele>
        <time>2021-06-03T13:59:47Z</time>
      </trkpt>
      <trkpt lat="48.51005" lon="2.01583">
        <ele>135.1</ele>
        <time>2021-06-03T13:59:49Z</time>
      </trkpt>
      <trkpt lat="48.51002" lon="2.01578">
        <ele>135.3</ele>
        <time>2021-06-03T13:59:51Z</time>
      </trkpt>
      <trkpt lat="48.50997" lon="2.01575">
        <ele>135.5</ele>
        <time>2021-06-03T13:59:53Z</time>
      </trkpt>
      <trkpt lat="48.50994" lon="2.01563">
        <ele>136.3</ele>
        <time>2021-06-03T13:59:57Z</time>
      </trkpt>
      <trkpt lat="48.5099" lon="2.01552">
        <ele>136.9</ele>
        <time>2021-06-03T14:00:01Z</time>
      </trkpt>
      <trkpt lat="48.50989" lon="2.01545">
        <ele>137.4</ele>
        <time>2021-06-03T14:00:03Z</time>
      </trkpt>
      <trkpt lat="48.50986" lon="2.01536">
        <ele>137.9</ele>
        <time>2021-06-03T14:00:07Z</time>
      </trkpt>
      <trkpt lat="48.50984" lon="2.01527">
        <ele>138.5</ele>
        <time>2021-06-03T14:00:11Z</time>
      </trkpt>
      <trkpt lat="48.50981" lon="2.01517">
        <ele>139</ele>
        <time>2021-06-03T14:00:17Z</time>
      </trkpt>
      <trkpt lat="48.50979" lon="2.01507">
        <ele>139.6</ele>
        <time>2021-06-03T14:00:21Z</time>
      </trkpt>
      <trkpt lat="48.50977" lon="2.01497">
        <ele>140.2</ele>
        <time>2021-06-03T14:00:25Z</time>
      </trkpt>
      <trkpt lat="48.50975" lon="2.01485">
        <ele>140.9</ele>
        <time>2021-06-03T14:00:29Z</time>
      </trkpt>
      <trkpt lat="48.50973" lon="2.01476">
        <ele>141.5</ele>
        <time>2021-06-03T14:00:33Z</time>
      </trkpt>
      <trkpt lat="48.50969" lon="2.01466">
        <ele>142</ele>
        <time>2021-06-03T14:00:37Z</time>
      </trkpt>
      <trkpt lat="48.50966" lon="2.01455">
        <ele>142.7</ele>
        <time>2021-06-03T14:00:41Z</time>
      </trkpt>
      <trkpt lat="48.50964" lon="2.01449">
        <ele>143.1</ele>
        <time>2021-06-03T14:00:43Z</time>
      </trkpt>
      <trkpt lat="48.50962" lon="2.01439">
        <ele>143.7</ele>
        <time>2021-06-03T14:00:47Z</time>
      </trkpt>
      <trkpt lat="48.50959" lon="2.01429">
        <ele>144.3</ele>
        <time>2021-06-03T14:00:51Z</time>
      </trkpt>
      <trkpt lat="48.50955" lon="2.01421">
        <ele>144.7</ele>
        <time>2021-06-03T14:00:55Z</time>
      </trkpt>
      <trkpt lat="48.50951" lon="2.01416">
        <ele>145.1</ele>
        <time>2021-06-03T14:00:59Z</time>
      </trkpt>
      <trkpt lat="48.50947" lon="2.01408">
        <ele>145.7</ele>
        <time>2021-06-03T14:01:03Z</time>
      </trkpt>
      <trkpt lat="48.50943" lon="2.01399">
        <ele>146.5</ele>
        <time>2021-06-03T14:01:07Z</time>
      </trkpt>
      <trkpt lat="48.50938" lon="2.01388">
        <ele>147.3</ele>
        <time>2021-06-03T14:01:11Z</time>
      </trkpt>
      <trkpt lat="48.50935" lon="2.01377">
        <ele>148.2</ele>
        <time>2021-06-03T14:01:15Z</time>
      </trkpt>
      <trkpt lat="48.50929" lon="2.0137">
        <ele>148.8</ele>
        <time>2021-06-03T14:01:19Z</time>
      </trkpt>
      <trkpt lat="48.50925" lon="2.01363">
        <ele>149.4</ele>
        <time>2021-06-03T14:01:23Z</time>
      </trkpt>
      <trkpt lat="48.50922" lon="2.01354">
        <ele>150.2</ele>
        <time>2021-06-03T14:01:27Z</time>
      </trkpt>
      <trkpt lat="48.50918" lon="2.01343">
        <ele>151.1</ele>
        <time>2021-06-03T14:01:31Z</time>
      </trkpt>
      <trkpt lat="48.50915" lon="2.01334">
        <ele>151.9</ele>
        <time>2021-06-03T14:01:35Z</time>
      </trkpt>
      <trkpt lat="48.50911" lon="2.01326">
        <ele>152.5</ele>
        <time>2021-06-03T14:01:39Z</time>
      </trkpt>
      <trkpt lat="48.50906" lon="2.01316">
        <ele>153</ele>
        <time>2021-06-03T14:01:43Z</time>
      </trkpt>
      <trkpt lat="48.50902" lon="2.01308">
        <ele>153.5</ele>
        <time>2021-06-03T14:01:47Z</time>
      </trkpt>
      <trkpt lat="48.50899" lon="2.01304">
        <ele>153.8</ele>
        <time>2021-06-03T14:01:49Z</time>
      </trkpt>
      <trkpt lat="48.50891" lon="2.01294">
        <ele>154.4</ele>
        <time>2021-06-03T14:01:53Z</time>
      </trkpt>
      <trkpt lat="48.50886" lon="2.01289">
        <ele>154.7</ele>
        <time>2021-06-03T14:01:55Z</time>
      </trkpt>
      <trkpt lat="48.50882" lon="2.01284">
        <ele>155</ele>
        <time>2021-06-03T14:01:57Z</time>
      </trkpt>
      <trkpt lat="48.50879" lon="2.01278">
        <ele>155.2</ele>
        <time>2021-06-03T14:01:59Z</time>
      </trkpt>
      <trkpt lat="48.50874" lon="2.01269">
        <ele>155.7</ele>
        <time>2021-06-03T14:02:03Z</time>
      </trkpt>
      <trkpt lat="48.50871" lon="2.01264">
        <ele>156</ele>
        <time>2021-06-03T14:02:05Z</time>
      </trkpt>
      <trkpt lat="48.50868" lon="2.01259">
        <ele>156.2</ele>
        <time>2021-06-03T14:02:07Z</time>
      </trkpt>
      <trkpt lat="48.50864" lon="2.01253">
        <ele>156.5</ele>
        <time>2021-06-03T14:02:09Z</time>
      </trkpt>
      <trkpt lat="48.50857" lon="2.01242">
        <ele>157</ele>
        <time>2021-06-03T14:02:13Z</time>
      </trkpt>
      <trkpt lat="48.50853" lon="2.01236">
        <ele>157.3</ele>
        <time>2021-06-03T14:02:15Z</time>
      </trkpt>
      <trkpt lat="48.50849" lon="2.01231">
        <ele>157.5</ele>
        <time>2021-06-03T14:02:17Z</time>
      </trkpt>
      <trkpt lat="48.50844" lon="2.01227">
        <ele>157.7</ele>
        <time>2021-06-03T14:02:19Z</time>
      </trkpt>
      <trkpt lat="48.5084" lon="2.01222">
        <ele>157.9</ele>
        <time>2021-06-03T14:02:21Z</time>
      </trkpt>
      <trkpt lat="48.50836" lon="2.01216">
        <ele>158.2</ele>
        <time>2021-06-03T14:02:23Z</time>
      </trkpt>
      <trkpt lat="48.50832" lon="2.0121">
        <ele>158.4</ele>
        <time>2021-06-03T14:02:25Z</time>
      </trkpt>
      <trkpt lat="48.50828" lon="2.01204">
        <ele>158.7</ele>
        <time>2021-06-03T14:02:27Z</time>
      </trkpt>
      <trkpt lat="48.50825" lon="2.01197">
        <ele>158.9</ele>
        <time>2021-06-03T14:02:29Z</time>
      </trkpt>
      <trkpt lat="48.50821" lon="2.01191">
        <ele>159.2</ele>
        <time>2021-06-03T14:02:31Z</time>
      </trkpt>
      <trkpt lat="48.50817" lon="2.01185">
        <ele>159.4</ele>
        <time>2021-06-03T14:02:33Z</time>
      </trkpt>
      <trkpt lat="48.50813" lon="2.01176">
        <ele>159.7</ele>
        <time>2021-06-03T14:02:35Z</time>
      </trkpt>
      <trkpt lat="48.5081" lon="2.01168">
        <ele>160</ele>
        <time>2021-06-03T14:02:37Z</time>
      </trkpt>
      <trkpt lat="48.50807" lon="2.0116">
        <ele>160.1</ele>
        <time>2021-06-03T14:02:39Z</time>
      </trkpt>
      <trkpt lat="48.50806" lon="2.01149">
        <ele>160.2</ele>
        <time>2021-06-03T14:02:41Z</time>
      </trkpt>
      <trkpt lat="48.50804" lon="2.01142">
        <ele>160.3</ele>
        <time>2021-06-03T14:02:43Z</time>
      </trkpt>
      <trkpt lat="48.50803" lon="2.01131">
        <ele>160.4</ele>
        <time>2021-06-03T14:02:45Z</time>
      </trkpt>
      <trkpt lat="48.50803" lon="2.01121">
        <ele>160.5</ele>
        <time>2021-06-03T14:02:47Z</time>
      </trkpt>
      <trkpt lat="48.50801" lon="2.0111">
        <ele>160.7</ele>
        <time>2021-06-03T14:02:49Z</time>
      </trkpt>
      <trkpt lat="48.508" lon="2.01098">
        <ele>160.8</ele>
        <time>2021-06-03T14:02:51Z</time>
      </trkpt>
      <trkpt lat="48.50798" lon="2.01086">
        <ele>161</ele>
        <time>2021-06-03T14:02:53Z</time>
      </trkpt>
      <trkpt lat="48.50797" lon="2.01075">
        <ele>161</ele>
        <time>2021-06-03T14:02:55Z</time>
      </trkpt>
      <trkpt lat="48.50796" lon="2.01064">
        <ele>161.1</ele>
        <time>2021-06-03T14:02:57Z</time>
      </trkpt>
      <trkpt lat="48.50796" lon="2.01055">
        <ele>161.2</ele>
        <time>2021-06-03T14:02:59Z</time>
      </trkpt>
      <trkpt lat="48.50796" lon="2.01046">
        <ele>161.2</ele>
        <time>2021-06-03T14:03:01Z</time>
      </trkpt>
      <trkpt lat="48.50797" lon="2.01036">
        <ele>161.2</ele>
        <time>2021-06-03T14:03:03Z</time>
      </trkpt>
      <trkpt lat="48.50795" lon="2.01027">
        <ele>161.3</ele>
        <time>2021-06-03T14:03:05Z</time>
      </trkpt>
      <trkpt lat="48.50794" lon="2.01018">
        <ele>161.4</ele>
        <time>2021-06-03T14:03:07Z</time>
      </trkpt>
      <trkpt lat="48.50796" lon="2.01007">
        <ele>161.4</ele>
        <time>2021-06-03T14:03:09Z</time>
      </trkpt>
      <trkpt lat="48.50796" lon="2.00999">
        <ele>161.4</ele>
        <time>2021-06-03T14:03:11Z</time>
      </trkpt>
      <trkpt lat="48.50795" lon="2.0099">
        <ele>161.4</ele>
        <time>2021-06-03T14:03:13Z</time>
      </trkpt>
      <trkpt lat="48.50791" lon="2.00982">
        <ele>161.4</ele>
        <time>2021-06-03T14:03:15Z</time>
      </trkpt>
      <trkpt lat="48.50785" lon="2.00978">
        <ele>161.4</ele>
        <time>2021-06-03T14:03:17Z</time>
      </trkpt>
      <trkpt lat="48.5078" lon="2.00983">
        <ele>161.5</ele>
        <time>2021-06-03T14:03:19Z</time>
      </trkpt>
      <trkpt lat="48.50775" lon="2.00987">
        <ele>161.5</ele>
        <time>2021-06-03T14:03:21Z</time>
      </trkpt>
      <trkpt lat="48.50772" lon="2.00993">
        <ele>161.6</ele>
        <time>2021-06-03T14:03:23Z</time>
      </trkpt>
      <trkpt lat="48.50767" lon="2.01">
        <ele>161.8</ele>
        <time>2021-06-03T14:03:25Z</time>
      </trkpt>
      <trkpt lat="48.50763" lon="2.01007">
        <ele>161.8</ele>
        <time>2021-06-03T14:03:27Z</time>
      </trkpt>
      <trkpt lat="48.50759" lon="2.01013">
        <ele>161.8</ele>
        <time>2021-06-03T14:03:29Z</time>
      </trkpt>
      <trkpt lat="48.50755" lon="2.01019">
        <ele>161.7</ele>
        <time>2021-06-03T14:03:31Z</time>
      </trkpt>
      <trkpt lat="48.50751" lon="2.01026">
        <ele>161.7</ele>
        <time>2021-06-03T14:03:33Z</time>
      </trkpt>
      <trkpt lat="48.50747" lon="2.01033">
        <ele>161.3</ele>
        <time>2021-06-03T14:03:35Z</time>
      </trkpt>
      <trkpt lat="48.50742" lon="2.0104">
        <ele>160.9</ele>
        <time>2021-06-03T14:03:37Z</time>
      </trkpt>
      <trkpt lat="48.50739" lon="2.01046">
        <ele>160.6</ele>
        <time>2021-06-03T14:03:39Z</time>
      </trkpt>
      <trkpt lat="48.50735" lon="2.01052">
        <ele>160.2</ele>
        <time>2021-06-03T14:03:41Z</time>
      </trkpt>
      <trkpt lat="48.50731" lon="2.01057">
        <ele>159.9</ele>
        <time>2021-06-03T14:03:43Z</time>
      </trkpt>
      <trkpt lat="48.50728" lon="2.01064">
        <ele>159.6</ele>
        <time>2021-06-03T14:03:45Z</time>
      </trkpt>
      <trkpt lat="48.50724" lon="2.01071">
        <ele>159.2</ele>
        <time>2021-06-03T14:03:47Z</time>
      </trkpt>
      <trkpt lat="48.5072" lon="2.01078">
        <ele>158.9</ele>
        <time>2021-06-03T14:03:49Z</time>
      </trkpt>
      <trkpt lat="48.50716" lon="2.01087">
        <ele>158.5</ele>
        <time>2021-06-03T14:03:51Z</time>
      </trkpt>
      <trkpt lat="48.5071" lon="2.01097">
        <ele>158.2</ele>
        <time>2021-06-03T14:03:53Z</time>
      </trkpt>
      <trkpt lat="48.50704" lon="2.01108">
        <ele>157.9</ele>
        <time>2021-06-03T14:03:55Z</time>
      </trkpt>
      <trkpt lat="48.50698" lon="2.0112">
        <ele>157.7</ele>
        <time>2021-06-03T14:03:57Z</time>
      </trkpt>
      <trkpt lat="48.50691" lon="2.01131">
        <ele>157.4</ele>
        <time>2021-06-03T14:03:59Z</time>
      </trkpt>
      <trkpt lat="48.50684" lon="2.01144">
        <ele>157.3</ele>
        <time>2021-06-03T14:04:01Z</time>
      </trkpt>
      <trkpt lat="48.50676" lon="2.01159">
        <ele>157.2</ele>
        <time>2021-06-03T14:04:03Z</time>
      </trkpt>
      <trkpt lat="48.50668" lon="2.01173">
        <ele>157</ele>
        <time>2021-06-03T14:04:05Z</time>
      </trkpt>
      <trkpt lat="48.5066" lon="2.01189">
        <ele>156.6</ele>
        <time>2021-06-03T14:04:07Z</time>
      </trkpt>
      <trkpt lat="48.50651" lon="2.01204">
        <ele>156.1</ele>
        <time>2021-06-03T14:04:09Z</time>
      </trkpt>
      <trkpt lat="48.50643" lon="2.0122">
        <ele>155.8</ele>
        <time>2021-06-03T14:04:11Z</time>
      </trkpt>
      <trkpt lat="48.50634" lon="2.01236">
        <ele>155.6</ele>
        <time>2021-06-03T14:04:13Z</time>
      </trkpt>
      <trkpt lat="48.50624" lon="2.01252">
        <ele>155.5</ele>
        <time>2021-06-03T14:04:15Z</time>
      </trkpt>
      <trkpt lat="48.50616" lon="2.01267">
        <ele>155.2</ele>
        <time>2021-06-03T14:04:17Z</time>
      </trkpt>
      <trkpt lat="48.50608" lon="2.01282">
        <ele>155</ele>
        <time>2021-06-03T14:04:19Z</time>
      </trkpt>
      <trkpt lat="48.50599" lon="2.01297">
        <ele>154.9</ele>
        <time>2021-06-03T14:04:21Z</time>
      </trkpt>
      <trkpt lat="48.50591" lon="2.01312">
        <ele>154.9</ele>
        <time>2021-06-03T14:04:23Z</time>
      </trkpt>
      <trkpt lat="48.50584" lon="2.01324">
        <ele>154.9</ele>
        <time>2021-06-03T14:04:25Z</time>
      </trkpt>
      <trkpt lat="48.5058" lon="2.01331">
        <ele>154.8</ele>
        <time>2021-06-03T14:04:27Z</time>
      </trkpt>
      <trkpt lat="48.50588" lon="2.01335">
        <ele>154.9</ele>
        <time>2021-06-03T14:04:31Z</time>
      </trkpt>
      <trkpt lat="48.50594" lon="2.01336">
        <ele>154.9</ele>
        <time>2021-06-03T14:04:33Z</time>
      </trkpt>
      <trkpt lat="48.50604" lon="2.01336">
        <ele>155.1</ele>
        <time>2021-06-03T14:04:35Z</time>
      </trkpt>
      <trkpt lat="48.50612" lon="2.01338">
        <ele>155.1</ele>
        <time>2021-06-03T14:04:37Z</time>
      </trkpt>
      <trkpt lat="48.50621" lon="2.01339">
        <ele>155.1</ele>
        <time>2021-06-03T14:04:39Z</time>
      </trkpt>
      <trkpt lat="48.50631" lon="2.01338">
        <ele>155.3</ele>
        <time>2021-06-03T14:04:41Z</time>
      </trkpt>
      <trkpt lat="48.50642" lon="2.01337">
        <ele>155.5</ele>
        <time>2021-06-03T14:04:43Z</time>
      </trkpt>
      <trkpt lat="48.50653" lon="2.01338">
        <ele>155.6</ele>
        <time>2021-06-03T14:04:45Z</time>
      </trkpt>
      <trkpt lat="48.50664" lon="2.01339">
        <ele>155.7</ele>
        <time>2021-06-03T14:04:47Z</time>
      </trkpt>
      <trkpt lat="48.50678" lon="2.01342">
        <ele>155.2</ele>
        <time>2021-06-03T14:04:49Z</time>
      </trkpt>
      <trkpt lat="48.5069" lon="2.01344">
        <ele>154.8</ele>
        <time>2021-06-03T14:04:51Z</time>
      </trkpt>
      <trkpt lat="48.50703" lon="2.01345">
        <ele>154.3</ele>
        <time>2021-06-03T14:04:53Z</time>
      </trkpt>
      <trkpt lat="48.50715" lon="2.01343">
        <ele>154.1</ele>
        <time>2021-06-03T14:04:55Z</time>
      </trkpt>
      <trkpt lat="48.50728" lon="2.01342">
        <ele>153.8</ele>
        <time>2021-06-03T14:04:57Z</time>
      </trkpt>
      <trkpt lat="48.50741" lon="2.01343">
        <ele>153.3</ele>
        <time>2021-06-03T14:04:59Z</time>
      </trkpt>
      <trkpt lat="48.50752" lon="2.01341">
        <ele>153.3</ele>
        <time>2021-06-03T14:05:01Z</time>
      </trkpt>
      <trkpt lat="48.50765" lon="2.01342">
        <ele>153.1</ele>
        <time>2021-06-03T14:05:03Z</time>
      </trkpt>
      <trkpt lat="48.50777" lon="2.01341">
        <ele>153.2</ele>
        <time>2021-06-03T14:05:05Z</time>
      </trkpt>
      <trkpt lat="48.50788" lon="2.01342">
        <ele>153.1</ele>
        <time>2021-06-03T14:05:07Z</time>
      </trkpt>
      <trkpt lat="48.50798" lon="2.01349">
        <ele>152.3</ele>
        <time>2021-06-03T14:05:09Z</time>
      </trkpt>
      <trkpt lat="48.50808" lon="2.01355">
        <ele>151.6</ele>
        <time>2021-06-03T14:05:11Z</time>
      </trkpt>
      <trkpt lat="48.50815" lon="2.01364">
        <ele>150.5</ele>
        <time>2021-06-03T14:05:13Z</time>
      </trkpt>
      <trkpt lat="48.50822" lon="2.01373">
        <ele>149.4</ele>
        <time>2021-06-03T14:05:15Z</time>
      </trkpt>
      <trkpt lat="48.50832" lon="2.01385">
        <ele>147.8</ele>
        <time>2021-06-03T14:05:17Z</time>
      </trkpt>
      <trkpt lat="48.50837" lon="2.01399">
        <ele>146.1</ele>
        <time>2021-06-03T14:05:19Z</time>
      </trkpt>
      <trkpt lat="48.50834" lon="2.01406">
        <ele>145.2</ele>
        <time>2021-06-03T14:05:33Z</time>
      </trkpt>
      <trkpt lat="48.5083" lon="2.0141">
        <ele>144.8</ele>
        <time>2021-06-03T14:05:39Z</time>
      </trkpt>
      <trkpt lat="48.5083" lon="2.01417">
        <ele>144</ele>
        <time>2021-06-03T14:05:45Z</time>
      </trkpt>
      <trkpt lat="48.50832" lon="2.01428">
        <ele>143.2</ele>
        <time>2021-06-03T14:05:51Z</time>
      </trkpt>
      <trkpt lat="48.50835" lon="2.01436">
        <ele>142.6</ele>
        <time>2021-06-03T14:05:55Z</time>
      </trkpt>
      <trkpt lat="48.50834" lon="2.01449">
        <ele>141.7</ele>
        <time>2021-06-03T14:05:57Z</time>
      </trkpt>
      <trkpt lat="48.50831" lon="2.01464">
        <ele>140.6</ele>
        <time>2021-06-03T14:05:59Z</time>
      </trkpt>
      <trkpt lat="48.5083" lon="2.01483">
        <ele>139.3</ele>
        <time>2021-06-03T14:06:01Z</time>
      </trkpt>
      <trkpt lat="48.50829" lon="2.01503">
        <ele>137.9</ele>
        <time>2021-06-03T14:06:03Z</time>
      </trkpt>
      <trkpt lat="48.50826" lon="2.01526">
        <ele>136.8</ele>
        <time>2021-06-03T14:06:05Z</time>
      </trkpt>
      <trkpt lat="48.50828" lon="2.01549">
        <ele>135.7</ele>
        <time>2021-06-03T14:06:07Z</time>
      </trkpt>
      <trkpt lat="48.50829" lon="2.01568">
        <ele>134.7</ele>
        <time>2021-06-03T14:06:09Z</time>
      </trkpt>
      <trkpt lat="48.50829" lon="2.01587">
        <ele>133.5</ele>
        <time>2021-06-03T14:06:11Z</time>
      </trkpt>
      <trkpt lat="48.50825" lon="2.01602">
        <ele>131.4</ele>
        <time>2021-06-03T14:06:13Z</time>
      </trkpt>
      <trkpt lat="48.50821" lon="2.01617">
        <ele>129.4</ele>
        <time>2021-06-03T14:06:15Z</time>
      </trkpt>
      <trkpt lat="48.50824" lon="2.01637">
        <ele>126.7</ele>
        <time>2021-06-03T14:06:17Z</time>
      </trkpt>
      <trkpt lat="48.50825" lon="2.0166">
        <ele>123.7</ele>
        <time>2021-06-03T14:06:19Z</time>
      </trkpt>
      <trkpt lat="48.50826" lon="2.01679">
        <ele>123.2</ele>
        <time>2021-06-03T14:06:21Z</time>
      </trkpt>
      <trkpt lat="48.50823" lon="2.01698">
        <ele>123.7</ele>
        <time>2021-06-03T14:06:23Z</time>
      </trkpt>
      <trkpt lat="48.50821" lon="2.01708">
        <ele>124.1</ele>
        <time>2021-06-03T14:06:25Z</time>
      </trkpt>
      <trkpt lat="48.50815" lon="2.01711">
        <ele>124.2</ele>
        <time>2021-06-03T14:06:27Z</time>
      </trkpt>
      <trkpt lat="48.50809" lon="2.01711">
        <ele>124.3</ele>
        <time>2021-06-03T14:06:29Z</time>
      </trkpt>
      <trkpt lat="48.50802" lon="2.01711">
        <ele>124.3</ele>
        <time>2021-06-03T14:06:31Z</time>
      </trkpt>
      <trkpt lat="48.50797" lon="2.01712">
        <ele>124.4</ele>
        <time>2021-06-03T14:06:33Z</time>
      </trkpt>
      <trkpt lat="48.50791" lon="2.01713">
        <ele>124.5</ele>
        <time>2021-06-03T14:06:35Z</time>
      </trkpt>
      <trkpt lat="48.50785" lon="2.01715">
        <ele>124.7</ele>
        <time>2021-06-03T14:06:37Z</time>
      </trkpt>
      <trkpt lat="48.50779" lon="2.01717">
        <ele>124.9</ele>
        <time>2021-06-03T14:06:39Z</time>
      </trkpt>
      <trkpt lat="48.50773" lon="2.01718">
        <ele>125</ele>
        <time>2021-06-03T14:06:41Z</time>
      </trkpt>
      <trkpt lat="48.50768" lon="2.0172">
        <ele>125.2</ele>
        <time>2021-06-03T14:06:43Z</time>
      </trkpt>
      <trkpt lat="48.5076" lon="2.01722">
        <ele>125.5</ele>
        <time>2021-06-03T14:06:47Z</time>
      </trkpt>
      <trkpt lat="48.50751" lon="2.01725">
        <ele>125.9</ele>
        <time>2021-06-03T14:06:51Z</time>
      </trkpt>
      <trkpt lat="48.50746" lon="2.01727">
        <ele>126.2</ele>
        <time>2021-06-03T14:06:53Z</time>
      </trkpt>
      <trkpt lat="48.5074" lon="2.01728">
        <ele>126.4</ele>
        <time>2021-06-03T14:06:55Z</time>
      </trkpt>
      <trkpt lat="48.50735" lon="2.0173">
        <ele>126.7</ele>
        <time>2021-06-03T14:06:57Z</time>
      </trkpt>
      <trkpt lat="48.5073" lon="2.01732">
        <ele>126.9</ele>
        <time>2021-06-03T14:06:59Z</time>
      </trkpt>
      <trkpt lat="48.50725" lon="2.01733">
        <ele>127.1</ele>
        <time>2021-06-03T14:07:01Z</time>
      </trkpt>
      <trkpt lat="48.50719" lon="2.01731">
        <ele>127.1</ele>
        <time>2021-06-03T14:07:03Z</time>
      </trkpt>
      <trkpt lat="48.50713" lon="2.01729">
        <ele>127</ele>
        <time>2021-06-03T14:07:05Z</time>
      </trkpt>
      <trkpt lat="48.50709" lon="2.01725">
        <ele>126.7</ele>
        <time>2021-06-03T14:07:07Z</time>
      </trkpt>
      <trkpt lat="48.50704" lon="2.01723">
        <ele>126.6</ele>
        <time>2021-06-03T14:07:09Z</time>
      </trkpt>
      <trkpt lat="48.50699" lon="2.01719">
        <ele>126.4</ele>
        <time>2021-06-03T14:07:11Z</time>
      </trkpt>
      <trkpt lat="48.50693" lon="2.01716">
        <ele>126.2</ele>
        <time>2021-06-03T14:07:13Z</time>
      </trkpt>
      <trkpt lat="48.50689" lon="2.01714">
        <ele>126.1</ele>
        <time>2021-06-03T14:07:15Z</time>
      </trkpt>
      <trkpt lat="48.50684" lon="2.01712">
        <ele>126</ele>
        <time>2021-06-03T14:07:17Z</time>
      </trkpt>
      <trkpt lat="48.50679" lon="2.0171">
        <ele>125.9</ele>
        <time>2021-06-03T14:07:19Z</time>
      </trkpt>
      <trkpt lat="48.50674" lon="2.01708">
        <ele>125.8</ele>
        <time>2021-06-03T14:07:21Z</time>
      </trkpt>
      <trkpt lat="48.50669" lon="2.01707">
        <ele>125.9</ele>
        <time>2021-06-03T14:07:23Z</time>
      </trkpt>
      <trkpt lat="48.50663" lon="2.01707">
        <ele>125.9</ele>
        <time>2021-06-03T14:07:25Z</time>
      </trkpt>
      <trkpt lat="48.50658" lon="2.01707">
        <ele>125.9</ele>
        <time>2021-06-03T14:07:27Z</time>
      </trkpt>
      <trkpt lat="48.50652" lon="2.01709">
        <ele>126.2</ele>
        <time>2021-06-03T14:07:29Z</time>
      </trkpt>
      <trkpt lat="48.50646" lon="2.0171">
        <ele>126.4</ele>
        <time>2021-06-03T14:07:31Z</time>
      </trkpt>
      <trkpt lat="48.50641" lon="2.01712">
        <ele>126.7</ele>
        <time>2021-06-03T14:07:33Z</time>
      </trkpt>
      <trkpt lat="48.50635" lon="2.01714">
        <ele>127</ele>
        <time>2021-06-03T14:07:35Z</time>
      </trkpt>
      <trkpt lat="48.5063" lon="2.01716">
        <ele>127.2</ele>
        <time>2021-06-03T14:07:37Z</time>
      </trkpt>
      <trkpt lat="48.50625" lon="2.01723">
        <ele>128.1</ele>
        <time>2021-06-03T14:07:41Z</time>
      </trkpt>
      <trkpt lat="48.5062" lon="2.01728">
        <ele>128.7</ele>
        <time>2021-06-03T14:07:45Z</time>
      </trkpt>
      <trkpt lat="48.50612" lon="2.01731">
        <ele>129.2</ele>
        <time>2021-06-03T14:07:49Z</time>
      </trkpt>
      <trkpt lat="48.50606" lon="2.01731">
        <ele>129.3</ele>
        <time>2021-06-03T14:07:51Z</time>
      </trkpt>
      <trkpt lat="48.50599" lon="2.01732">
        <ele>129.5</ele>
        <time>2021-06-03T14:07:53Z</time>
      </trkpt>
      <trkpt lat="48.50594" lon="2.01733">
        <ele>129.8</ele>
        <time>2021-06-03T14:07:55Z</time>
      </trkpt>
      <trkpt lat="48.50589" lon="2.01731">
        <ele>129.6</ele>
        <time>2021-06-03T14:07:57Z</time>
      </trkpt>
      <trkpt lat="48.50584" lon="2.01728">
        <ele>129.4</ele>
        <time>2021-06-03T14:07:59Z</time>
      </trkpt>
      <trkpt lat="48.50579" lon="2.01723">
        <ele>129.3</ele>
        <time>2021-06-03T14:08:01Z</time>
      </trkpt>
      <trkpt lat="48.50574" lon="2.01719">
        <ele>129.5</ele>
        <time>2021-06-03T14:08:03Z</time>
      </trkpt>
      <trkpt lat="48.50568" lon="2.01714">
        <ele>129.8</ele>
        <time>2021-06-03T14:08:05Z</time>
      </trkpt>
      <trkpt lat="48.50561" lon="2.01711">
        <ele>130.4</ele>
        <time>2021-06-03T14:08:07Z</time>
      </trkpt>
      <trkpt lat="48.50556" lon="2.01708">
        <ele>130.8</ele>
        <time>2021-06-03T14:08:09Z</time>
      </trkpt>
      <trkpt lat="48.5055" lon="2.01702">
        <ele>130.8</ele>
        <time>2021-06-03T14:08:11Z</time>
      </trkpt>
      <trkpt lat="48.50546" lon="2.01696">
        <ele>130.7</ele>
        <time>2021-06-03T14:08:13Z</time>
      </trkpt>
      <trkpt lat="48.50541" lon="2.0169">
        <ele>130.6</ele>
        <time>2021-06-03T14:08:15Z</time>
      </trkpt>
      <trkpt lat="48.50535" lon="2.01683">
        <ele>130.9</ele>
        <time>2021-06-03T14:08:17Z</time>
      </trkpt>
      <trkpt lat="48.5053" lon="2.0168">
        <ele>131.1</ele>
        <time>2021-06-03T14:08:19Z</time>
      </trkpt>
      <trkpt lat="48.50523" lon="2.01681">
        <ele>132.3</ele>
        <time>2021-06-03T14:08:23Z</time>
      </trkpt>
      <trkpt lat="48.50517" lon="2.01678">
        <ele>132.8</ele>
        <time>2021-06-03T14:08:27Z</time>
      </trkpt>
      <trkpt lat="48.50511" lon="2.01673">
        <ele>133.1</ele>
        <time>2021-06-03T14:08:31Z</time>
      </trkpt>
      <trkpt lat="48.50505" lon="2.01666">
        <ele>133.2</ele>
        <time>2021-06-03T14:08:35Z</time>
      </trkpt>
      <trkpt lat="48.505" lon="2.01657">
        <ele>133.3</ele>
        <time>2021-06-03T14:08:39Z</time>
      </trkpt>
      <trkpt lat="48.50495" lon="2.0165">
        <ele>133.6</ele>
        <time>2021-06-03T14:08:43Z</time>
      </trkpt>
      <trkpt lat="48.50492" lon="2.01643">
        <ele>133.5</ele>
        <time>2021-06-03T14:08:47Z</time>
      </trkpt>
      <trkpt lat="48.50485" lon="2.01638">
        <ele>134</ele>
        <time>2021-06-03T14:08:51Z</time>
      </trkpt>
      <trkpt lat="48.5048" lon="2.01637">
        <ele>134.5</ele>
        <time>2021-06-03T14:08:53Z</time>
      </trkpt>
      <trkpt lat="48.50473" lon="2.01636">
        <ele>135.1</ele>
        <time>2021-06-03T14:08:55Z</time>
      </trkpt>
      <trkpt lat="48.50465" lon="2.01628">
        <ele>135.3</ele>
        <time>2021-06-03T14:08:57Z</time>
      </trkpt>
      <trkpt lat="48.50458" lon="2.0162">
        <ele>135.3</ele>
        <time>2021-06-03T14:08:59Z</time>
      </trkpt>
      <trkpt lat="48.50447" lon="2.01615">
        <ele>135.9</ele>
        <time>2021-06-03T14:09:01Z</time>
      </trkpt>
      <trkpt lat="48.5044" lon="2.01607">
        <ele>135.7</ele>
        <time>2021-06-03T14:09:03Z</time>
      </trkpt>
      <trkpt lat="48.50435" lon="2.01598">
        <ele>135.2</ele>
        <time>2021-06-03T14:09:05Z</time>
      </trkpt>
      <trkpt lat="48.50429" lon="2.01593">
        <ele>135.2</ele>
        <time>2021-06-03T14:09:07Z</time>
      </trkpt>
      <trkpt lat="48.50424" lon="2.01587">
        <ele>134.9</ele>
        <time>2021-06-03T14:09:09Z</time>
      </trkpt>
      <trkpt lat="48.50419" lon="2.01581">
        <ele>134.8</ele>
        <time>2021-06-03T14:09:11Z</time>
      </trkpt>
      <trkpt lat="48.50413" lon="2.01576">
        <ele>135.3</ele>
        <time>2021-06-03T14:09:13Z</time>
      </trkpt>
      <trkpt lat="48.50407" lon="2.01568">
        <ele>135.7</ele>
        <time>2021-06-03T14:09:15Z</time>
      </trkpt>
      <trkpt lat="48.50403" lon="2.01561">
        <ele>135.9</ele>
        <time>2021-06-03T14:09:17Z</time>
      </trkpt>
      <trkpt lat="48.50399" lon="2.01553">
        <ele>136.1</ele>
        <time>2021-06-03T14:09:19Z</time>
      </trkpt>
      <trkpt lat="48.50396" lon="2.01547">
        <ele>136.2</ele>
        <time>2021-06-03T14:09:21Z</time>
      </trkpt>
      <trkpt lat="48.50391" lon="2.01541">
        <ele>136.4</ele>
        <time>2021-06-03T14:09:23Z</time>
      </trkpt>
      <trkpt lat="48.50387" lon="2.01536">
        <ele>136.5</ele>
        <time>2021-06-03T14:09:25Z</time>
      </trkpt>
      <trkpt lat="48.50381" lon="2.01533">
        <ele>136.7</ele>
        <time>2021-06-03T14:09:27Z</time>
      </trkpt>
      <trkpt lat="48.50373" lon="2.01531">
        <ele>137.1</ele>
        <time>2021-06-03T14:09:29Z</time>
      </trkpt>
      <trkpt lat="48.50365" lon="2.01531">
        <ele>137.6</ele>
        <time>2021-06-03T14:09:31Z</time>
      </trkpt>
      <trkpt lat="48.50354" lon="2.0153">
        <ele>138.3</ele>
        <time>2021-06-03T14:09:35Z</time>
      </trkpt>
      <trkpt lat="48.50347" lon="2.01528">
        <ele>138.5</ele>
        <time>2021-06-03T14:09:37Z</time>
      </trkpt>
      <trkpt lat="48.50342" lon="2.01527">
        <ele>138.8</ele>
        <time>2021-06-03T14:09:39Z</time>
      </trkpt>
      <trkpt lat="48.50335" lon="2.01528">
        <ele>139.2</ele>
        <time>2021-06-03T14:09:43Z</time>
      </trkpt>
      <trkpt lat="48.5033" lon="2.01523">
        <ele>139.2</ele>
        <time>2021-06-03T14:09:47Z</time>
      </trkpt>
      <trkpt lat="48.50334" lon="2.01514">
        <ele>138.2</ele>
        <time>2021-06-03T14:09:51Z</time>
      </trkpt>
      <trkpt lat="48.50338" lon="2.01508">
        <ele>137.5</ele>
        <time>2021-06-03T14:09:53Z</time>
      </trkpt>
      <trkpt lat="48.50343" lon="2.01499">
        <ele>136.6</ele>
        <time>2021-06-03T14:09:55Z</time>
      </trkpt>
      <trkpt lat="48.5035" lon="2.01489">
        <ele>136.4</ele>
        <time>2021-06-03T14:09:57Z</time>
      </trkpt>
      <trkpt lat="48.50359" lon="2.0148">
        <ele>136.3</ele>
        <time>2021-06-03T14:09:59Z</time>
      </trkpt>
      <trkpt lat="48.50364" lon="2.01471">
        <ele>136.4</ele>
        <time>2021-06-03T14:10:01Z</time>
      </trkpt>
      <trkpt lat="48.50371" lon="2.01464">
        <ele>136.5</ele>
        <time>2021-06-03T14:10:03Z</time>
      </trkpt>
      <trkpt lat="48.50375" lon="2.01456">
        <ele>136.8</ele>
        <time>2021-06-03T14:10:05Z</time>
      </trkpt>
      <trkpt lat="48.50379" lon="2.01452">
        <ele>137</ele>
        <time>2021-06-03T14:10:07Z</time>
      </trkpt>
      <trkpt lat="48.5038" lon="2.01441">
        <ele>137.5</ele>
        <time>2021-06-03T14:11:47Z</time>
      </trkpt>
      <trkpt lat="48.50386" lon="2.01432">
        <ele>138.1</ele>
        <time>2021-06-03T14:11:51Z</time>
      </trkpt>
      <trkpt lat="48.5039" lon="2.01421">
        <ele>138.9</ele>
        <time>2021-06-03T14:11:55Z</time>
      </trkpt>
      <trkpt lat="48.50398" lon="2.01411">
        <ele>140</ele>
        <time>2021-06-03T14:11:59Z</time>
      </trkpt>
      <trkpt lat="48.50402" lon="2.01399">
        <ele>141.1</ele>
        <time>2021-06-03T14:12:03Z</time>
      </trkpt>
      <trkpt lat="48.50404" lon="2.01389">
        <ele>141.9</ele>
        <time>2021-06-03T14:12:07Z</time>
      </trkpt>
      <trkpt lat="48.50406" lon="2.0138">
        <ele>142.7</ele>
        <time>2021-06-03T14:12:11Z</time>
      </trkpt>
      <trkpt lat="48.5041" lon="2.0137">
        <ele>143.7</ele>
        <time>2021-06-03T14:12:15Z</time>
      </trkpt>
      <trkpt lat="48.50416" lon="2.01359">
        <ele>145</ele>
        <time>2021-06-03T14:12:19Z</time>
      </trkpt>
      <trkpt lat="48.50418" lon="2.01353">
        <ele>145.7</ele>
        <time>2021-06-03T14:12:23Z</time>
      </trkpt>
      <trkpt lat="48.50421" lon="2.01345">
        <ele>146.3</ele>
        <time>2021-06-03T14:12:25Z</time>
      </trkpt>
      <trkpt lat="48.50424" lon="2.01334">
        <ele>147.3</ele>
        <time>2021-06-03T14:12:29Z</time>
      </trkpt>
      <trkpt lat="48.50427" lon="2.01328">
        <ele>147.7</ele>
        <time>2021-06-03T14:12:31Z</time>
      </trkpt>
      <trkpt lat="48.50431" lon="2.01318">
        <ele>148.2</ele>
        <time>2021-06-03T14:12:35Z</time>
      </trkpt>
      <trkpt lat="48.50433" lon="2.01308">
        <ele>148.7</ele>
        <time>2021-06-03T14:12:39Z</time>
      </trkpt>
      <trkpt lat="48.50435" lon="2.01298">
        <ele>149.1</ele>
        <time>2021-06-03T14:12:43Z</time>
      </trkpt>
      <trkpt lat="48.50436" lon="2.01288">
        <ele>149.4</ele>
        <time>2021-06-03T14:12:47Z</time>
      </trkpt>
      <trkpt lat="48.50434" lon="2.01281">
        <ele>149.6</ele>
        <time>2021-06-03T14:12:51Z</time>
      </trkpt>
      <trkpt lat="48.50429" lon="2.0127">
        <ele>149.7</ele>
        <time>2021-06-03T14:12:55Z</time>
      </trkpt>
      <trkpt lat="48.50425" lon="2.01264">
        <ele>149.8</ele>
        <time>2021-06-03T14:12:57Z</time>
      </trkpt>
      <trkpt lat="48.50421" lon="2.01258">
        <ele>149.9</ele>
        <time>2021-06-03T14:12:59Z</time>
      </trkpt>
      <trkpt lat="48.5042" lon="2.01251">
        <ele>150.1</ele>
        <time>2021-06-03T14:13:01Z</time>
      </trkpt>
      <trkpt lat="48.50423" lon="2.01241">
        <ele>150.3</ele>
        <time>2021-06-03T14:13:05Z</time>
      </trkpt>
      <trkpt lat="48.50425" lon="2.01234">
        <ele>150.4</ele>
        <time>2021-06-03T14:13:07Z</time>
      </trkpt>
      <trkpt lat="48.50427" lon="2.01228">
        <ele>150.6</ele>
        <time>2021-06-03T14:13:09Z</time>
      </trkpt>
      <trkpt lat="48.5043" lon="2.01222">
        <ele>150.7</ele>
        <time>2021-06-03T14:13:11Z</time>
      </trkpt>
      <trkpt lat="48.50433" lon="2.01216">
        <ele>150.8</ele>
        <time>2021-06-03T14:13:13Z</time>
      </trkpt>
      <trkpt lat="48.50435" lon="2.01207">
        <ele>151</ele>
        <time>2021-06-03T14:13:17Z</time>
      </trkpt>
      <trkpt lat="48.5044" lon="2.01196">
        <ele>151.1</ele>
        <time>2021-06-03T14:13:21Z</time>
      </trkpt>
      <trkpt lat="48.50443" lon="2.01181">
        <ele>151.2</ele>
        <time>2021-06-03T14:13:25Z</time>
      </trkpt>
      <trkpt lat="48.50443" lon="2.01173">
        <ele>151.3</ele>
        <time>2021-06-03T14:13:27Z</time>
      </trkpt>
      <trkpt lat="48.50444" lon="2.01165">
        <ele>151.3</ele>
        <time>2021-06-03T14:13:29Z</time>
      </trkpt>
      <trkpt lat="48.50447" lon="2.01158">
        <ele>151.2</ele>
        <time>2021-06-03T14:13:31Z</time>
      </trkpt>
      <trkpt lat="48.50451" lon="2.01143">
        <ele>150.9</ele>
        <time>2021-06-03T14:13:35Z</time>
      </trkpt>
      <trkpt lat="48.50453" lon="2.01128">
        <ele>150.6</ele>
        <time>2021-06-03T14:13:39Z</time>
      </trkpt>
      <trkpt lat="48.50455" lon="2.0112">
        <ele>150.4</ele>
        <time>2021-06-03T14:13:41Z</time>
      </trkpt>
      <trkpt lat="48.50456" lon="2.01111">
        <ele>150.2</ele>
        <time>2021-06-03T14:13:43Z</time>
      </trkpt>
      <trkpt lat="48.50458" lon="2.01103">
        <ele>150</ele>
        <time>2021-06-03T14:13:45Z</time>
      </trkpt>
      <trkpt lat="48.50459" lon="2.01095">
        <ele>149.8</ele>
        <time>2021-06-03T14:13:47Z</time>
      </trkpt>
      <trkpt lat="48.5046" lon="2.01088">
        <ele>149.6</ele>
        <time>2021-06-03T14:13:49Z</time>
      </trkpt>
      <trkpt lat="48.50461" lon="2.0108">
        <ele>149.5</ele>
        <time>2021-06-03T14:13:51Z</time>
      </trkpt>
      <trkpt lat="48.50462" lon="2.01073">
        <ele>149.5</ele>
        <time>2021-06-03T14:13:53Z</time>
      </trkpt>
      <trkpt lat="48.50464" lon="2.01065">
        <ele>149.5</ele>
        <time>2021-06-03T14:13:55Z</time>
      </trkpt>
      <trkpt lat="48.50466" lon="2.01058">
        <ele>149.5</ele>
        <time>2021-06-03T14:13:57Z</time>
      </trkpt>
      <trkpt lat="48.50467" lon="2.0105">
        <ele>149.5</ele>
        <time>2021-06-03T14:13:59Z</time>
      </trkpt>
      <trkpt lat="48.50468" lon="2.01042">
        <ele>149.5</ele>
        <time>2021-06-03T14:14:01Z</time>
      </trkpt>
      <trkpt lat="48.5047" lon="2.01032">
        <ele>149.5</ele>
        <time>2021-06-03T14:14:03Z</time>
      </trkpt>
      <trkpt lat="48.50471" lon="2.01022">
        <ele>149.6</ele>
        <time>2021-06-03T14:14:05Z</time>
      </trkpt>
      <trkpt lat="48.50472" lon="2.01013">
        <ele>149.6</ele>
        <time>2021-06-03T14:14:07Z</time>
      </trkpt>
      <trkpt lat="48.50473" lon="2.01004">
        <ele>149.7</ele>
        <time>2021-06-03T14:14:09Z</time>
      </trkpt>
      <trkpt lat="48.50475" lon="2.00995">
        <ele>149.7</ele>
        <time>2021-06-03T14:14:11Z</time>
      </trkpt>
      <trkpt lat="48.50476" lon="2.00986">
        <ele>149.8</ele>
        <time>2021-06-03T14:14:13Z</time>
      </trkpt>
      <trkpt lat="48.50477" lon="2.00977">
        <ele>149.9</ele>
        <time>2021-06-03T14:14:15Z</time>
      </trkpt>
      <trkpt lat="48.50479" lon="2.00969">
        <ele>150</ele>
        <time>2021-06-03T14:14:17Z</time>
      </trkpt>
      <trkpt lat="48.5048" lon="2.00961">
        <ele>150.1</ele>
        <time>2021-06-03T14:14:19Z</time>
      </trkpt>
      <trkpt lat="48.50481" lon="2.00953">
        <ele>150.2</ele>
        <time>2021-06-03T14:14:21Z</time>
      </trkpt>
      <trkpt lat="48.50483" lon="2.00944">
        <ele>150.3</ele>
        <time>2021-06-03T14:14:23Z</time>
      </trkpt>
      <trkpt lat="48.50484" lon="2.00935">
        <ele>150.4</ele>
        <time>2021-06-03T14:14:25Z</time>
      </trkpt>
      <trkpt lat="48.50485" lon="2.00926">
        <ele>150.6</ele>
        <time>2021-06-03T14:14:27Z</time>
      </trkpt>
      <trkpt lat="48.50487" lon="2.00916">
        <ele>150.7</ele>
        <time>2021-06-03T14:14:29Z</time>
      </trkpt>
      <trkpt lat="48.50488" lon="2.00907">
        <ele>150.7</ele>
        <time>2021-06-03T14:14:31Z</time>
      </trkpt>
      <trkpt lat="48.5049" lon="2.00897">
        <ele>150.8</ele>
        <time>2021-06-03T14:14:33Z</time>
      </trkpt>
      <trkpt lat="48.50491" lon="2.00888">
        <ele>150.9</ele>
        <time>2021-06-03T14:14:35Z</time>
      </trkpt>
      <trkpt lat="48.50493" lon="2.00878">
        <ele>150.9</ele>
        <time>2021-06-03T14:14:37Z</time>
      </trkpt>
      <trkpt lat="48.50494" lon="2.00868">
        <ele>150.9</ele>
        <time>2021-06-03T14:14:39Z</time>
      </trkpt>
      <trkpt lat="48.50496" lon="2.00858">
        <ele>151</ele>
        <time>2021-06-03T14:14:41Z</time>
      </trkpt>
      <trkpt lat="48.50498" lon="2.00848">
        <ele>151</ele>
        <time>2021-06-03T14:14:43Z</time>
      </trkpt>
      <trkpt lat="48.50499" lon="2.00838">
        <ele>151</ele>
        <time>2021-06-03T14:14:45Z</time>
      </trkpt>
      <trkpt lat="48.50501" lon="2.00827">
        <ele>151.1</ele>
        <time>2021-06-03T14:14:47Z</time>
      </trkpt>
      <trkpt lat="48.50502" lon="2.00818">
        <ele>151.2</ele>
        <time>2021-06-03T14:14:49Z</time>
      </trkpt>
      <trkpt lat="48.50504" lon="2.0081">
        <ele>151.4</ele>
        <time>2021-06-03T14:14:51Z</time>
      </trkpt>
      <trkpt lat="48.50506" lon="2.00802">
        <ele>151.5</ele>
        <time>2021-06-03T14:14:53Z</time>
      </trkpt>
      <trkpt lat="48.50507" lon="2.00793">
        <ele>151.6</ele>
        <time>2021-06-03T14:14:55Z</time>
      </trkpt>
      <trkpt lat="48.50508" lon="2.00783">
        <ele>151.7</ele>
        <time>2021-06-03T14:14:57Z</time>
      </trkpt>
      <trkpt lat="48.5051" lon="2.00773">
        <ele>151.9</ele>
        <time>2021-06-03T14:14:59Z</time>
      </trkpt>
      <trkpt lat="48.50511" lon="2.00763">
        <ele>152</ele>
        <time>2021-06-03T14:15:01Z</time>
      </trkpt>
      <trkpt lat="48.50513" lon="2.00754">
        <ele>152.1</ele>
        <time>2021-06-03T14:15:03Z</time>
      </trkpt>
      <trkpt lat="48.50514" lon="2.00744">
        <ele>152.2</ele>
        <time>2021-06-03T14:15:05Z</time>
      </trkpt>
      <trkpt lat="48.50516" lon="2.00733">
        <ele>152.4</ele>
        <time>2021-06-03T14:15:07Z</time>
      </trkpt>
      <trkpt lat="48.50518" lon="2.00723">
        <ele>152.5</ele>
        <time>2021-06-03T14:15:09Z</time>
      </trkpt>
      <trkpt lat="48.50519" lon="2.00713">
        <ele>152.7</ele>
        <time>2021-06-03T14:15:11Z</time>
      </trkpt>
      <trkpt lat="48.50521" lon="2.00703">
        <ele>152.8</ele>
        <time>2021-06-03T14:15:13Z</time>
      </trkpt>
      <trkpt lat="48.50522" lon="2.00692">
        <ele>153</ele>
        <time>2021-06-03T14:15:15Z</time>
      </trkpt>
      <trkpt lat="48.50524" lon="2.00681">
        <ele>153.1</ele>
        <time>2021-06-03T14:15:17Z</time>
      </trkpt>
      <trkpt lat="48.50526" lon="2.00671">
        <ele>153.3</ele>
        <time>2021-06-03T14:15:19Z</time>
      </trkpt>
      <trkpt lat="48.50527" lon="2.0066">
        <ele>153.3</ele>
        <time>2021-06-03T14:15:21Z</time>
      </trkpt>
      <trkpt lat="48.50529" lon="2.00648">
        <ele>153.3</ele>
        <time>2021-06-03T14:15:23Z</time>
      </trkpt>
      <trkpt lat="48.50531" lon="2.00635">
        <ele>153.4</ele>
        <time>2021-06-03T14:15:25Z</time>
      </trkpt>
      <trkpt lat="48.50532" lon="2.00621">
        <ele>153.4</ele>
        <time>2021-06-03T14:15:27Z</time>
      </trkpt>
      <trkpt lat="48.50534" lon="2.00608">
        <ele>153.4</ele>
        <time>2021-06-03T14:15:29Z</time>
      </trkpt>
      <trkpt lat="48.50536" lon="2.00597">
        <ele>153.4</ele>
        <time>2021-06-03T14:15:31Z</time>
      </trkpt>
      <trkpt lat="48.50538" lon="2.00585">
        <ele>153.5</ele>
        <time>2021-06-03T14:15:33Z</time>
      </trkpt>
      <trkpt lat="48.50539" lon="2.00574">
        <ele>153.5</ele>
        <time>2021-06-03T14:15:35Z</time>
      </trkpt>
      <trkpt lat="48.50541" lon="2.00564">
        <ele>153.5</ele>
        <time>2021-06-03T14:15:37Z</time>
      </trkpt>
      <trkpt lat="48.50543" lon="2.00554">
        <ele>153.5</ele>
        <time>2021-06-03T14:15:39Z</time>
      </trkpt>
      <trkpt lat="48.50544" lon="2.00544">
        <ele>153.5</ele>
        <time>2021-06-03T14:15:41Z</time>
      </trkpt>
      <trkpt lat="48.50546" lon="2.00533">
        <ele>153.6</ele>
        <time>2021-06-03T14:15:43Z</time>
      </trkpt>
      <trkpt lat="48.50548" lon="2.00522">
        <ele>153.6</ele>
        <time>2021-06-03T14:15:45Z</time>
      </trkpt>
      <trkpt lat="48.5055" lon="2.0051">
        <ele>153.6</ele>
        <time>2021-06-03T14:15:47Z</time>
      </trkpt>
      <trkpt lat="48.50551" lon="2.00499">
        <ele>153.6</ele>
        <time>2021-06-03T14:15:49Z</time>
      </trkpt>
      <trkpt lat="48.50553" lon="2.00488">
        <ele>153.6</ele>
        <time>2021-06-03T14:15:51Z</time>
      </trkpt>
      <trkpt lat="48.50554" lon="2.00477">
        <ele>153.7</ele>
        <time>2021-06-03T14:15:53Z</time>
      </trkpt>
      <trkpt lat="48.50556" lon="2.00466">
        <ele>153.7</ele>
        <time>2021-06-03T14:15:55Z</time>
      </trkpt>
      <trkpt lat="48.50558" lon="2.00454">
        <ele>153.7</ele>
        <time>2021-06-03T14:15:57Z</time>
      </trkpt>
      <trkpt lat="48.50559" lon="2.00443">
        <ele>153.7</ele>
        <time>2021-06-03T14:15:59Z</time>
      </trkpt>
      <trkpt lat="48.50562" lon="2.00431">
        <ele>153.7</ele>
        <time>2021-06-03T14:16:01Z</time>
      </trkpt>
      <trkpt lat="48.50564" lon="2.00421">
        <ele>153.8</ele>
        <time>2021-06-03T14:16:03Z</time>
      </trkpt>
      <trkpt lat="48.50566" lon="2.0041">
        <ele>154.1</ele>
        <time>2021-06-03T14:16:05Z</time>
      </trkpt>
      <trkpt lat="48.50569" lon="2.00398">
        <ele>154.7</ele>
        <time>2021-06-03T14:16:07Z</time>
      </trkpt>
      <trkpt lat="48.50572" lon="2.00387">
        <ele>155.3</ele>
        <time>2021-06-03T14:16:09Z</time>
      </trkpt>
      <trkpt lat="48.50574" lon="2.00376">
        <ele>155.9</ele>
        <time>2021-06-03T14:16:11Z</time>
      </trkpt>
      <trkpt lat="48.50576" lon="2.00367">
        <ele>156.4</ele>
        <time>2021-06-03T14:16:13Z</time>
      </trkpt>
      <trkpt lat="48.50578" lon="2.00357">
        <ele>156.9</ele>
        <time>2021-06-03T14:16:15Z</time>
      </trkpt>
      <trkpt lat="48.5058" lon="2.00346">
        <ele>157.4</ele>
        <time>2021-06-03T14:16:17Z</time>
      </trkpt>
      <trkpt lat="48.50582" lon="2.00337">
        <ele>157.8</ele>
        <time>2021-06-03T14:16:19Z</time>
      </trkpt>
      <trkpt lat="48.50584" lon="2.0033">
        <ele>158.1</ele>
        <time>2021-06-03T14:16:21Z</time>
      </trkpt>
      <trkpt lat="48.50587" lon="2.0032">
        <ele>158.4</ele>
        <time>2021-06-03T14:16:23Z</time>
      </trkpt>
      <trkpt lat="48.50592" lon="2.00311">
        <ele>158.8</ele>
        <time>2021-06-03T14:16:25Z</time>
      </trkpt>
      <trkpt lat="48.50595" lon="2.00299">
        <ele>159.2</ele>
        <time>2021-06-03T14:16:27Z</time>
      </trkpt>
      <trkpt lat="48.50598" lon="2.00288">
        <ele>159.5</ele>
        <time>2021-06-03T14:16:29Z</time>
      </trkpt>
      <trkpt lat="48.50602" lon="2.00279">
        <ele>159.8</ele>
        <time>2021-06-03T14:16:31Z</time>
      </trkpt>
      <trkpt lat="48.50603" lon="2.0027">
        <ele>160.1</ele>
        <time>2021-06-03T14:16:33Z</time>
      </trkpt>
      <trkpt lat="48.50605" lon="2.00262">
        <ele>160.3</ele>
        <time>2021-06-03T14:16:35Z</time>
      </trkpt>
      <trkpt lat="48.50607" lon="2.00254">
        <ele>160.5</ele>
        <time>2021-06-03T14:16:37Z</time>
      </trkpt>
      <trkpt lat="48.50611" lon="2.00241">
        <ele>159.5</ele>
        <time>2021-06-03T14:16:39Z</time>
      </trkpt>
      <trkpt lat="48.50611" lon="2.00228">
        <ele>158</ele>
        <time>2021-06-03T14:16:41Z</time>
      </trkpt>
      <trkpt lat="48.50605" lon="2.00221">
        <ele>156.9</ele>
        <time>2021-06-03T14:16:43Z</time>
      </trkpt>
      <trkpt lat="48.50598" lon="2.0022">
        <ele>156.6</ele>
        <time>2021-06-03T14:16:45Z</time>
      </trkpt>
      <trkpt lat="48.50592" lon="2.00223">
        <ele>156.8</ele>
        <time>2021-06-03T14:16:47Z</time>
      </trkpt>
      <trkpt lat="48.50586" lon="2.00226">
        <ele>156.9</ele>
        <time>2021-06-03T14:16:51Z</time>
      </trkpt>
      <trkpt lat="48.50581" lon="2.00227">
        <ele>156.7</ele>
        <time>2021-06-03T14:16:53Z</time>
      </trkpt>
      <trkpt lat="48.5057" lon="2.00224">
        <ele>155.5</ele>
        <time>2021-06-03T14:16:57Z</time>
      </trkpt>
      <trkpt lat="48.50561" lon="2.00222">
        <ele>154.5</ele>
        <time>2021-06-03T14:16:59Z</time>
      </trkpt>
      <trkpt lat="48.50554" lon="2.00223">
        <ele>154.1</ele>
        <time>2021-06-03T14:17:01Z</time>
      </trkpt>
      <trkpt lat="48.50546" lon="2.00227">
        <ele>154</ele>
        <time>2021-06-03T14:17:03Z</time>
      </trkpt>
      <trkpt lat="48.5054" lon="2.00228">
        <ele>153.9</ele>
        <time>2021-06-03T14:17:05Z</time>
      </trkpt>
      <trkpt lat="48.50533" lon="2.00232">
        <ele>153.9</ele>
        <time>2021-06-03T14:17:07Z</time>
      </trkpt>
      <trkpt lat="48.50528" lon="2.00236">
        <ele>154.2</ele>
        <time>2021-06-03T14:17:09Z</time>
      </trkpt>
      <trkpt lat="48.5052" lon="2.00239">
        <ele>154.3</ele>
        <time>2021-06-03T14:17:11Z</time>
      </trkpt>
      <trkpt lat="48.5051" lon="2.00245">
        <ele>154.6</ele>
        <time>2021-06-03T14:17:13Z</time>
      </trkpt>
      <trkpt lat="48.50501" lon="2.00251">
        <ele>155.1</ele>
        <time>2021-06-03T14:17:15Z</time>
      </trkpt>
      <trkpt lat="48.50488" lon="2.00259">
        <ele>154.8</ele>
        <time>2021-06-03T14:17:17Z</time>
      </trkpt>
      <trkpt lat="48.50476" lon="2.00266">
        <ele>154.4</ele>
        <time>2021-06-03T14:17:19Z</time>
      </trkpt>
      <trkpt lat="48.50464" lon="2.0027">
        <ele>154</ele>
        <time>2021-06-03T14:17:21Z</time>
      </trkpt>
      <trkpt lat="48.50453" lon="2.00278">
        <ele>153.8</ele>
        <time>2021-06-03T14:17:23Z</time>
      </trkpt>
      <trkpt lat="48.50444" lon="2.00284">
        <ele>153.5</ele>
        <time>2021-06-03T14:17:25Z</time>
      </trkpt>
      <trkpt lat="48.50434" lon="2.00286">
        <ele>153.1</ele>
        <time>2021-06-03T14:17:27Z</time>
      </trkpt>
      <trkpt lat="48.50423" lon="2.00285">
        <ele>152.6</ele>
        <time>2021-06-03T14:17:29Z</time>
      </trkpt>
      <trkpt lat="48.5041" lon="2.00286">
        <ele>152.2</ele>
        <time>2021-06-03T14:17:31Z</time>
      </trkpt>
      <trkpt lat="48.50397" lon="2.00286">
        <ele>151.9</ele>
        <time>2021-06-03T14:17:33Z</time>
      </trkpt>
      <trkpt lat="48.50386" lon="2.00286">
        <ele>151.7</ele>
        <time>2021-06-03T14:17:35Z</time>
      </trkpt>
      <trkpt lat="48.50378" lon="2.00281">
        <ele>151.4</ele>
        <time>2021-06-03T14:17:37Z</time>
      </trkpt>
      <trkpt lat="48.50369" lon="2.00279">
        <ele>151.1</ele>
        <time>2021-06-03T14:17:39Z</time>
      </trkpt>
      <trkpt lat="48.50358" lon="2.00275">
        <ele>150.7</ele>
        <time>2021-06-03T14:17:41Z</time>
      </trkpt>
      <trkpt lat="48.50347" lon="2.00272">
        <ele>150.3</ele>
        <time>2021-06-03T14:17:43Z</time>
      </trkpt>
      <trkpt lat="48.50337" lon="2.00269">
        <ele>150</ele>
        <time>2021-06-03T14:17:45Z</time>
      </trkpt>
      <trkpt lat="48.50331" lon="2.00264">
        <ele>149.8</ele>
        <time>2021-06-03T14:17:47Z</time>
      </trkpt>
      <trkpt lat="48.5032" lon="2.0026">
        <ele>150.2</ele>
        <time>2021-06-03T14:17:49Z</time>
      </trkpt>
      <trkpt lat="48.5031" lon="2.00257">
        <ele>150.6</ele>
        <time>2021-06-03T14:17:51Z</time>
      </trkpt>
      <trkpt lat="48.50302" lon="2.00257">
        <ele>151</ele>
        <time>2021-06-03T14:17:53Z</time>
      </trkpt>
      <trkpt lat="48.50294" lon="2.00255">
        <ele>151.5</ele>
        <time>2021-06-03T14:17:55Z</time>
      </trkpt>
      <trkpt lat="48.50287" lon="2.00254">
        <ele>151.9</ele>
        <time>2021-06-03T14:17:57Z</time>
      </trkpt>
      <trkpt lat="48.50279" lon="2.0025">
        <ele>152.2</ele>
        <time>2021-06-03T14:17:59Z</time>
      </trkpt>
      <trkpt lat="48.50272" lon="2.00245">
        <ele>152</ele>
        <time>2021-06-03T14:18:01Z</time>
      </trkpt>
      <trkpt lat="48.50266" lon="2.00242">
        <ele>152</ele>
        <time>2021-06-03T14:18:03Z</time>
      </trkpt>
      <trkpt lat="48.50255" lon="2.00241">
        <ele>152.6</ele>
        <time>2021-06-03T14:18:05Z</time>
      </trkpt>
      <trkpt lat="48.50248" lon="2.00241">
        <ele>152.9</ele>
        <time>2021-06-03T14:18:07Z</time>
      </trkpt>
      <trkpt lat="48.50241" lon="2.00241">
        <ele>152.9</ele>
        <time>2021-06-03T14:18:09Z</time>
      </trkpt>
      <trkpt lat="48.50237" lon="2.00235">
        <ele>152.4</ele>
        <time>2021-06-03T14:18:11Z</time>
      </trkpt>
      <trkpt lat="48.5023" lon="2.00231">
        <ele>152</ele>
        <time>2021-06-03T14:18:13Z</time>
      </trkpt>
      <trkpt lat="48.50222" lon="2.00226">
        <ele>151.8</ele>
        <time>2021-06-03T14:18:15Z</time>
      </trkpt>
      <trkpt lat="48.50213" lon="2.00222">
        <ele>151.8</ele>
        <time>2021-06-03T14:18:17Z</time>
      </trkpt>
      <trkpt lat="48.50205" lon="2.00219">
        <ele>151.9</ele>
        <time>2021-06-03T14:18:19Z</time>
      </trkpt>
      <trkpt lat="48.50201" lon="2.00214">
        <ele>151.9</ele>
        <time>2021-06-03T14:18:21Z</time>
      </trkpt>
      <trkpt lat="48.50196" lon="2.00208">
        <ele>151.9</ele>
        <time>2021-06-03T14:18:23Z</time>
      </trkpt>
      <trkpt lat="48.50188" lon="2.00199">
        <ele>152.2</ele>
        <time>2021-06-03T14:18:25Z</time>
      </trkpt>
      <trkpt lat="48.50179" lon="2.00193">
        <ele>152.8</ele>
        <time>2021-06-03T14:18:27Z</time>
      </trkpt>
      <trkpt lat="48.50169" lon="2.00185">
        <ele>153.6</ele>
        <time>2021-06-03T14:18:29Z</time>
      </trkpt>
      <trkpt lat="48.50162" lon="2.00178">
        <ele>153.9</ele>
        <time>2021-06-03T14:18:31Z</time>
      </trkpt>
      <trkpt lat="48.50152" lon="2.00167">
        <ele>154</ele>
        <time>2021-06-03T14:18:33Z</time>
      </trkpt>
      <trkpt lat="48.50143" lon="2.00158">
        <ele>153.2</ele>
        <time>2021-06-03T14:18:35Z</time>
      </trkpt>
      <trkpt lat="48.50134" lon="2.00147">
        <ele>152.4</ele>
        <time>2021-06-03T14:18:37Z</time>
      </trkpt>
      <trkpt lat="48.50124" lon="2.00135">
        <ele>152</ele>
        <time>2021-06-03T14:18:39Z</time>
      </trkpt>
      <trkpt lat="48.50115" lon="2.00127">
        <ele>152</ele>
        <time>2021-06-03T14:18:41Z</time>
      </trkpt>
      <trkpt lat="48.50102" lon="2.00121">
        <ele>152.6</ele>
        <time>2021-06-03T14:18:43Z</time>
      </trkpt>
      <trkpt lat="48.50094" lon="2.00115">
        <ele>153.1</ele>
        <time>2021-06-03T14:18:45Z</time>
      </trkpt>
      <trkpt lat="48.50084" lon="2.00111">
        <ele>153.9</ele>
        <time>2021-06-03T14:18:47Z</time>
      </trkpt>
      <trkpt lat="48.50075" lon="2.00107">
        <ele>153.9</ele>
        <time>2021-06-03T14:18:49Z</time>
      </trkpt>
      <trkpt lat="48.50069" lon="2.00099">
        <ele>153.8</ele>
        <time>2021-06-03T14:18:51Z</time>
      </trkpt>
      <trkpt lat="48.50061" lon="2.00089">
        <ele>153.7</ele>
        <time>2021-06-03T14:18:53Z</time>
      </trkpt>
      <trkpt lat="48.50052" lon="2.00088">
        <ele>153.6</ele>
        <time>2021-06-03T14:18:55Z</time>
      </trkpt>
      <trkpt lat="48.50042" lon="2.00092">
        <ele>153.4</ele>
        <time>2021-06-03T14:18:57Z</time>
      </trkpt>
      <trkpt lat="48.50037" lon="2.00093">
        <ele>153.4</ele>
        <time>2021-06-03T14:18:59Z</time>
      </trkpt>
      <trkpt lat="48.50031" lon="2.00091">
        <ele>153.3</ele>
        <time>2021-06-03T14:19:03Z</time>
      </trkpt>
      <trkpt lat="48.50026" lon="2.00093">
        <ele>153.2</ele>
        <time>2021-06-03T14:19:15Z</time>
      </trkpt>
      <trkpt lat="48.50022" lon="2.00097">
        <ele>153.1</ele>
        <time>2021-06-03T14:19:31Z</time>
      </trkpt>
      <trkpt lat="48.50017" lon="2.00093">
        <ele>153.1</ele>
        <time>2021-06-03T14:19:37Z</time>
      </trkpt>
      <trkpt lat="48.50012" lon="2.00088">
        <ele>153.1</ele>
        <time>2021-06-03T14:19:41Z</time>
      </trkpt>
      <trkpt lat="48.50008" lon="2.00084">
        <ele>153.1</ele>
        <time>2021-06-03T14:19:43Z</time>
      </trkpt>
      <trkpt lat="48.50003" lon="2.00076">
        <ele>152.2</ele>
        <time>2021-06-03T14:19:45Z</time>
      </trkpt>
      <trkpt lat="48.49997" lon="2.00077">
        <ele>152.4</ele>
        <time>2021-06-03T14:19:47Z</time>
      </trkpt>
      <trkpt lat="48.49992" lon="2.00076">
        <ele>152.3</ele>
        <time>2021-06-03T14:19:49Z</time>
      </trkpt>
      <trkpt lat="48.49986" lon="2.00078">
        <ele>152.5</ele>
        <time>2021-06-03T14:19:53Z</time>
      </trkpt>
      <trkpt lat="48.4998" lon="2.00085">
        <ele>153</ele>
        <time>2021-06-03T14:19:57Z</time>
      </trkpt>
      <trkpt lat="48.49977" lon="2.00092">
        <ele>152.9</ele>
        <time>2021-06-03T14:20:01Z</time>
      </trkpt>
      <trkpt lat="48.49972" lon="2.00095">
        <ele>152.8</ele>
        <time>2021-06-03T14:20:03Z</time>
      </trkpt>
      <trkpt lat="48.49963" lon="2.00102">
        <ele>152.7</ele>
        <time>2021-06-03T14:20:07Z</time>
      </trkpt>
      <trkpt lat="48.49957" lon="2.00094">
        <ele>152.8</ele>
        <time>2021-06-03T14:20:11Z</time>
      </trkpt>
      <trkpt lat="48.49953" lon="2.00079">
        <ele>152.7</ele>
        <time>2021-06-03T14:20:13Z</time>
      </trkpt>
      <trkpt lat="48.49947" lon="2.00063">
        <ele>151.5</ele>
        <time>2021-06-03T14:20:15Z</time>
      </trkpt>
      <trkpt lat="48.49944" lon="2.00053">
        <ele>150.7</ele>
        <time>2021-06-03T14:20:17Z</time>
      </trkpt>
      <trkpt lat="48.49939" lon="2.00038">
        <ele>149.7</ele>
        <time>2021-06-03T14:20:19Z</time>
      </trkpt>
      <trkpt lat="48.49935" lon="2.00029">
        <ele>149.1</ele>
        <time>2021-06-03T14:20:21Z</time>
      </trkpt>
      <trkpt lat="48.49934" lon="2.0002">
        <ele>148.6</ele>
        <time>2021-06-03T14:20:23Z</time>
      </trkpt>
      <trkpt lat="48.49933" lon="2.00011">
        <ele>148</ele>
        <time>2021-06-03T14:20:25Z</time>
      </trkpt>
      <trkpt lat="48.49927" lon="2.00004">
        <ele>147.7</ele>
        <time>2021-06-03T14:20:27Z</time>
      </trkpt>
      <trkpt lat="48.49919" lon="1.99999">
        <ele>147.8</ele>
        <time>2021-06-03T14:20:29Z</time>
      </trkpt>
      <trkpt lat="48.49914" lon="1.99993">
        <ele>147.8</ele>
        <time>2021-06-03T14:20:33Z</time>
      </trkpt>
      <trkpt lat="48.49917" lon="1.99984">
        <ele>147.2</ele>
        <time>2021-06-03T14:20:37Z</time>
      </trkpt>
      <trkpt lat="48.49919" lon="1.99974">
        <ele>146.6</ele>
        <time>2021-06-03T14:20:39Z</time>
      </trkpt>
      <trkpt lat="48.49914" lon="1.99961">
        <ele>146.3</ele>
        <time>2021-06-03T14:20:41Z</time>
      </trkpt>
      <trkpt lat="48.49911" lon="1.99949">
        <ele>146</ele>
        <time>2021-06-03T14:20:43Z</time>
      </trkpt>
      <trkpt lat="48.49914" lon="1.99943">
        <ele>145.5</ele>
        <time>2021-06-03T14:20:47Z</time>
      </trkpt>
      <trkpt lat="48.49916" lon="1.99933">
        <ele>144.8</ele>
        <time>2021-06-03T14:20:55Z</time>
      </trkpt>
      <trkpt lat="48.4992" lon="1.99918">
        <ele>143.7</ele>
        <time>2021-06-03T14:20:59Z</time>
      </trkpt>
      <trkpt lat="48.49921" lon="1.99909">
        <ele>143.6</ele>
        <time>2021-06-03T14:21:01Z</time>
      </trkpt>
      <trkpt lat="48.49924" lon="1.99899">
        <ele>143.4</ele>
        <time>2021-06-03T14:21:03Z</time>
      </trkpt>
      <trkpt lat="48.49928" lon="1.99895">
        <ele>143</ele>
        <time>2021-06-03T14:21:05Z</time>
      </trkpt>
      <trkpt lat="48.4993" lon="1.99886">
        <ele>142.9</ele>
        <time>2021-06-03T14:21:09Z</time>
      </trkpt>
      <trkpt lat="48.49927" lon="1.99876">
        <ele>143.4</ele>
        <time>2021-06-03T14:21:13Z</time>
      </trkpt>
      <trkpt lat="48.49928" lon="1.99868">
        <ele>143.3</ele>
        <time>2021-06-03T14:21:19Z</time>
      </trkpt>
      <trkpt lat="48.49924" lon="1.99865">
        <ele>143.8</ele>
        <time>2021-06-03T14:21:29Z</time>
      </trkpt>
      <trkpt lat="48.49918" lon="1.99865">
        <ele>144.4</ele>
        <time>2021-06-03T14:21:33Z</time>
      </trkpt>
      <trkpt lat="48.49912" lon="1.99866">
        <ele>144.9</ele>
        <time>2021-06-03T14:21:37Z</time>
      </trkpt>
      <trkpt lat="48.49907" lon="1.99867">
        <ele>145.2</ele>
        <time>2021-06-03T14:21:41Z</time>
      </trkpt>
      <trkpt lat="48.49906" lon="1.99874">
        <ele>145.1</ele>
        <time>2021-06-03T14:22:01Z</time>
      </trkpt>
      <trkpt lat="48.49913" lon="1.99869">
        <ele>144.8</ele>
        <time>2021-06-03T14:22:13Z</time>
      </trkpt>
      <trkpt lat="48.49919" lon="1.99867">
        <ele>144.3</ele>
        <time>2021-06-03T14:22:15Z</time>
      </trkpt>
      <trkpt lat="48.49926" lon="1.99867">
        <ele>143.5</ele>
        <time>2021-06-03T14:22:17Z</time>
      </trkpt>
      <trkpt lat="48.49934" lon="1.99864">
        <ele>142.7</ele>
        <time>2021-06-03T14:22:19Z</time>
      </trkpt>
      <trkpt lat="48.4994" lon="1.99857">
        <ele>142</ele>
        <time>2021-06-03T14:22:21Z</time>
      </trkpt>
      <trkpt lat="48.49941" lon="1.99849">
        <ele>142</ele>
        <time>2021-06-03T14:22:23Z</time>
      </trkpt>
      <trkpt lat="48.4994" lon="1.99839">
        <ele>142.1</ele>
        <time>2021-06-03T14:22:27Z</time>
      </trkpt>
      <trkpt lat="48.49939" lon="1.99832">
        <ele>142.4</ele>
        <time>2021-06-03T14:22:31Z</time>
      </trkpt>
      <trkpt lat="48.49938" lon="1.99824">
        <ele>142.9</ele>
        <time>2021-06-03T14:22:35Z</time>
      </trkpt>
      <trkpt lat="48.49937" lon="1.99817">
        <ele>143.3</ele>
        <time>2021-06-03T14:22:39Z</time>
      </trkpt>
      <trkpt lat="48.49936" lon="1.9981">
        <ele>143.7</ele>
        <time>2021-06-03T14:22:43Z</time>
      </trkpt>
      <trkpt lat="48.49937" lon="1.99802">
        <ele>144</ele>
        <time>2021-06-03T14:22:47Z</time>
      </trkpt>
      <trkpt lat="48.49935" lon="1.99793">
        <ele>144.6</ele>
        <time>2021-06-03T14:22:53Z</time>
      </trkpt>
      <trkpt lat="48.49933" lon="1.99787">
        <ele>145.2</ele>
        <time>2021-06-03T14:22:57Z</time>
      </trkpt>
      <trkpt lat="48.49932" lon="1.99779">
        <ele>145.7</ele>
        <time>2021-06-03T14:23:01Z</time>
      </trkpt>
      <trkpt lat="48.49933" lon="1.9977">
        <ele>146</ele>
        <time>2021-06-03T14:23:05Z</time>
      </trkpt>
      <trkpt lat="48.49931" lon="1.99762">
        <ele>146.6</ele>
        <time>2021-06-03T14:23:11Z</time>
      </trkpt>
      <trkpt lat="48.49928" lon="1.99755">
        <ele>147.2</ele>
        <time>2021-06-03T14:23:15Z</time>
      </trkpt>
      <trkpt lat="48.49928" lon="1.99746">
        <ele>147.3</ele>
        <time>2021-06-03T14:23:21Z</time>
      </trkpt>
      <trkpt lat="48.49936" lon="1.99734">
        <ele>145.7</ele>
        <time>2021-06-03T14:23:25Z</time>
      </trkpt>
      <trkpt lat="48.49943" lon="1.99725">
        <ele>144.4</ele>
        <time>2021-06-03T14:23:27Z</time>
      </trkpt>
      <trkpt lat="48.49956" lon="1.99714">
        <ele>142.1</ele>
        <time>2021-06-03T14:23:29Z</time>
      </trkpt>
      <trkpt lat="48.49967" lon="1.99705">
        <ele>140.1</ele>
        <time>2021-06-03T14:23:31Z</time>
      </trkpt>
      <trkpt lat="48.49975" lon="1.99695">
        <ele>138.3</ele>
        <time>2021-06-03T14:23:33Z</time>
      </trkpt>
      <trkpt lat="48.49985" lon="1.99686">
        <ele>136.5</ele>
        <time>2021-06-03T14:23:35Z</time>
      </trkpt>
      <trkpt lat="48.49998" lon="1.99672">
        <ele>133.7</ele>
        <time>2021-06-03T14:23:37Z</time>
      </trkpt>
      <trkpt lat="48.50016" lon="1.99656">
        <ele>131.5</ele>
        <time>2021-06-03T14:23:39Z</time>
      </trkpt>
      <trkpt lat="48.50033" lon="1.99642">
        <ele>130</ele>
        <time>2021-06-03T14:23:41Z</time>
      </trkpt>
      <trkpt lat="48.50048" lon="1.99627">
        <ele>128.7</ele>
        <time>2021-06-03T14:23:43Z</time>
      </trkpt>
      <trkpt lat="48.5006" lon="1.99619">
        <ele>128</ele>
        <time>2021-06-03T14:23:45Z</time>
      </trkpt>
      <trkpt lat="48.50069" lon="1.99612">
        <ele>127.4</ele>
        <time>2021-06-03T14:23:47Z</time>
      </trkpt>
      <trkpt lat="48.50076" lon="1.99608">
        <ele>127</ele>
        <time>2021-06-03T14:23:49Z</time>
      </trkpt>
      <trkpt lat="48.50085" lon="1.99601">
        <ele>126.6</ele>
        <time>2021-06-03T14:23:51Z</time>
      </trkpt>
      <trkpt lat="48.50092" lon="1.99597">
        <ele>126.1</ele>
        <time>2021-06-03T14:23:53Z</time>
      </trkpt>
      <trkpt lat="48.50096" lon="1.99593">
        <ele>125.8</ele>
        <time>2021-06-03T14:23:55Z</time>
      </trkpt>
      <trkpt lat="48.50107" lon="1.99584">
        <ele>125.2</ele>
        <time>2021-06-03T14:23:57Z</time>
      </trkpt>
      <trkpt lat="48.50119" lon="1.99573">
        <ele>124.7</ele>
        <time>2021-06-03T14:23:59Z</time>
      </trkpt>
      <trkpt lat="48.50128" lon="1.99569">
        <ele>124.4</ele>
        <time>2021-06-03T14:24:01Z</time>
      </trkpt>
      <trkpt lat="48.50135" lon="1.99566">
        <ele>124.2</ele>
        <time>2021-06-03T14:24:03Z</time>
      </trkpt>
      <trkpt lat="48.5014" lon="1.99562">
        <ele>124.2</ele>
        <time>2021-06-03T14:24:05Z</time>
      </trkpt>
      <trkpt lat="48.50148" lon="1.99554">
        <ele>124.1</ele>
        <time>2021-06-03T14:24:07Z</time>
      </trkpt>
      <trkpt lat="48.50156" lon="1.99547">
        <ele>124</ele>
        <time>2021-06-03T14:24:09Z</time>
      </trkpt>
      <trkpt lat="48.50166" lon="1.99538">
        <ele>124.1</ele>
        <time>2021-06-03T14:24:11Z</time>
      </trkpt>
      <trkpt lat="48.50171" lon="1.99534">
        <ele>124.1</ele>
        <time>2021-06-03T14:24:15Z</time>
      </trkpt>
      <trkpt lat="48.50177" lon="1.99539">
        <ele>123.9</ele>
        <time>2021-06-03T14:24:21Z</time>
      </trkpt>
      <trkpt lat="48.50181" lon="1.99536">
        <ele>123.9</ele>
        <time>2021-06-03T14:24:25Z</time>
      </trkpt>
      <trkpt lat="48.50185" lon="1.9953">
        <ele>123.9</ele>
        <time>2021-06-03T14:24:53Z</time>
      </trkpt>
      <trkpt lat="48.50188" lon="1.99521">
        <ele>124</ele>
        <time>2021-06-03T14:25:07Z</time>
      </trkpt>
      <trkpt lat="48.50194" lon="1.99517">
        <ele>124</ele>
        <time>2021-06-03T14:25:11Z</time>
      </trkpt>
      <trkpt lat="48.50201" lon="1.99513">
        <ele>123.9</ele>
        <time>2021-06-03T14:25:15Z</time>
      </trkpt>
      <trkpt lat="48.50206" lon="1.99508">
        <ele>123.9</ele>
        <time>2021-06-03T14:25:19Z</time>
      </trkpt>
      <trkpt lat="48.50211" lon="1.99504">
        <ele>123.9</ele>
        <time>2021-06-03T14:25:23Z</time>
      </trkpt>
      <trkpt lat="48.50216" lon="1.995">
        <ele>123.8</ele>
        <time>2021-06-03T14:25:27Z</time>
      </trkpt>
      <trkpt lat="48.5022" lon="1.99496">
        <ele>123.9</ele>
        <time>2021-06-03T14:25:31Z</time>
      </trkpt>
      <trkpt lat="48.50224" lon="1.99492">
        <ele>123.9</ele>
        <time>2021-06-03T14:25:35Z</time>
      </trkpt>
      <trkpt lat="48.50231" lon="1.99488">
        <ele>123.9</ele>
        <time>2021-06-03T14:25:41Z</time>
      </trkpt>
      <trkpt lat="48.50237" lon="1.99481">
        <ele>124</ele>
        <time>2021-06-03T14:25:47Z</time>
      </trkpt>
      <trkpt lat="48.50242" lon="1.99479">
        <ele>124</ele>
        <time>2021-06-03T14:25:51Z</time>
      </trkpt>
      <trkpt lat="48.50245" lon="1.9947">
        <ele>124.2</ele>
        <time>2021-06-03T14:25:57Z</time>
      </trkpt>
      <trkpt lat="48.50247" lon="1.99462">
        <ele>124.4</ele>
        <time>2021-06-03T14:26:01Z</time>
      </trkpt>
      <trkpt lat="48.50249" lon="1.99455">
        <ele>124.7</ele>
        <time>2021-06-03T14:26:05Z</time>
      </trkpt>
      <trkpt lat="48.50251" lon="1.99448">
        <ele>124.8</ele>
        <time>2021-06-03T14:26:09Z</time>
      </trkpt>
      <trkpt lat="48.50252" lon="1.99439">
        <ele>125.1</ele>
        <time>2021-06-03T14:26:13Z</time>
      </trkpt>
      <trkpt lat="48.50253" lon="1.99431">
        <ele>125.3</ele>
        <time>2021-06-03T14:26:17Z</time>
      </trkpt>
      <trkpt lat="48.50252" lon="1.9942">
        <ele>125.7</ele>
        <time>2021-06-03T14:26:21Z</time>
      </trkpt>
      <trkpt lat="48.50252" lon="1.99409">
        <ele>126.1</ele>
        <time>2021-06-03T14:26:25Z</time>
      </trkpt>
      <trkpt lat="48.50251" lon="1.994">
        <ele>126.3</ele>
        <time>2021-06-03T14:26:29Z</time>
      </trkpt>
      <trkpt lat="48.50249" lon="1.99389">
        <ele>126.7</ele>
        <time>2021-06-03T14:26:33Z</time>
      </trkpt>
      <trkpt lat="48.50246" lon="1.9938">
        <ele>127.1</ele>
        <time>2021-06-03T14:26:37Z</time>
      </trkpt>
      <trkpt lat="48.50244" lon="1.99371">
        <ele>127.5</ele>
        <time>2021-06-03T14:26:41Z</time>
      </trkpt>
      <trkpt lat="48.50239" lon="1.99361">
        <ele>128.1</ele>
        <time>2021-06-03T14:26:45Z</time>
      </trkpt>
      <trkpt lat="48.50235" lon="1.99354">
        <ele>128.7</ele>
        <time>2021-06-03T14:26:49Z</time>
      </trkpt>
      <trkpt lat="48.50232" lon="1.99343">
        <ele>129.4</ele>
        <time>2021-06-03T14:26:53Z</time>
      </trkpt>
      <trkpt lat="48.50228" lon="1.99333">
        <ele>130.1</ele>
        <time>2021-06-03T14:26:57Z</time>
      </trkpt>
      <trkpt lat="48.50225" lon="1.99325">
        <ele>130.8</ele>
        <time>2021-06-03T14:27:01Z</time>
      </trkpt>
      <trkpt lat="48.50222" lon="1.99316">
        <ele>131.7</ele>
        <time>2021-06-03T14:27:05Z</time>
      </trkpt>
      <trkpt lat="48.50218" lon="1.99305">
        <ele>132.6</ele>
        <time>2021-06-03T14:27:09Z</time>
      </trkpt>
      <trkpt lat="48.50216" lon="1.99299">
        <ele>133.2</ele>
        <time>2021-06-03T14:27:11Z</time>
      </trkpt>
      <trkpt lat="48.50213" lon="1.99289">
        <ele>134.1</ele>
        <time>2021-06-03T14:27:15Z</time>
      </trkpt>
      <trkpt lat="48.50209" lon="1.99281">
        <ele>135</ele>
        <time>2021-06-03T14:27:19Z</time>
      </trkpt>
      <trkpt lat="48.50206" lon="1.99269">
        <ele>136.1</ele>
        <time>2021-06-03T14:27:23Z</time>
      </trkpt>
      <trkpt lat="48.50205" lon="1.99262">
        <ele>136.8</ele>
        <time>2021-06-03T14:27:27Z</time>
      </trkpt>
      <trkpt lat="48.50201" lon="1.99257">
        <ele>137.7</ele>
        <time>2021-06-03T14:28:51Z</time>
      </trkpt>
      <trkpt lat="48.50197" lon="1.99261">
        <ele>137.9</ele>
        <time>2021-06-03T14:33:09Z</time>
      </trkpt>
      <trkpt lat="48.50192" lon="1.99267">
        <ele>138.2</ele>
        <time>2021-06-03T14:33:39Z</time>
      </trkpt>
      <trkpt lat="48.50182" lon="1.99272">
        <ele>139.1</ele>
        <time>2021-06-03T14:33:43Z</time>
      </trkpt>
      <trkpt lat="48.50176" lon="1.99276">
        <ele>139.6</ele>
        <time>2021-06-03T14:33:45Z</time>
      </trkpt>
      <trkpt lat="48.50167" lon="1.99281">
        <ele>140.3</ele>
        <time>2021-06-03T14:33:47Z</time>
      </trkpt>
      <trkpt lat="48.50156" lon="1.99288">
        <ele>139.2</ele>
        <time>2021-06-03T14:33:49Z</time>
      </trkpt>
      <trkpt lat="48.50145" lon="1.99296">
        <ele>137.9</ele>
        <time>2021-06-03T14:33:51Z</time>
      </trkpt>
      <trkpt lat="48.50133" lon="1.99311">
        <ele>135.9</ele>
        <time>2021-06-03T14:33:53Z</time>
      </trkpt>
      <trkpt lat="48.50123" lon="1.99327">
        <ele>134</ele>
        <time>2021-06-03T14:33:55Z</time>
      </trkpt>
      <trkpt lat="48.50113" lon="1.99339">
        <ele>132.3</ele>
        <time>2021-06-03T14:33:57Z</time>
      </trkpt>
      <trkpt lat="48.50109" lon="1.99346">
        <ele>131.5</ele>
        <time>2021-06-03T14:33:59Z</time>
      </trkpt>
      <trkpt lat="48.50102" lon="1.99351">
        <ele>130.8</ele>
        <time>2021-06-03T14:34:01Z</time>
      </trkpt>
      <trkpt lat="48.50098" lon="1.99356">
        <ele>130.1</ele>
        <time>2021-06-03T14:34:03Z</time>
      </trkpt>
      <trkpt lat="48.50087" lon="1.99359">
        <ele>129.3</ele>
        <time>2021-06-03T14:34:07Z</time>
      </trkpt>
      <trkpt lat="48.50077" lon="1.99362">
        <ele>128.7</ele>
        <time>2021-06-03T14:34:09Z</time>
      </trkpt>
      <trkpt lat="48.50068" lon="1.99364">
        <ele>128.3</ele>
        <time>2021-06-03T14:34:11Z</time>
      </trkpt>
      <trkpt lat="48.50059" lon="1.99366">
        <ele>127.9</ele>
        <time>2021-06-03T14:34:13Z</time>
      </trkpt>
      <trkpt lat="48.5005" lon="1.99366">
        <ele>127.7</ele>
        <time>2021-06-03T14:34:15Z</time>
      </trkpt>
      <trkpt lat="48.5004" lon="1.99367">
        <ele>127.3</ele>
        <time>2021-06-03T14:34:17Z</time>
      </trkpt>
      <trkpt lat="48.50029" lon="1.9937">
        <ele>126.9</ele>
        <time>2021-06-03T14:34:19Z</time>
      </trkpt>
      <trkpt lat="48.5002" lon="1.9937">
        <ele>126.7</ele>
        <time>2021-06-03T14:34:21Z</time>
      </trkpt>
      <trkpt lat="48.50006" lon="1.99361">
        <ele>126.5</ele>
        <time>2021-06-03T14:34:23Z</time>
      </trkpt>
      <trkpt lat="48.5" lon="1.99349">
        <ele>126.6</ele>
        <time>2021-06-03T14:34:25Z</time>
      </trkpt>
      <trkpt lat="48.49987" lon="1.99341">
        <ele>127.2</ele>
        <time>2021-06-03T14:34:27Z</time>
      </trkpt>
      <trkpt lat="48.49977" lon="1.99335">
        <ele>127.5</ele>
        <time>2021-06-03T14:34:29Z</time>
      </trkpt>
      <trkpt lat="48.49967" lon="1.99332">
        <ele>127.8</ele>
        <time>2021-06-03T14:34:31Z</time>
      </trkpt>
      <trkpt lat="48.49959" lon="1.9933">
        <ele>128.1</ele>
        <time>2021-06-03T14:34:33Z</time>
      </trkpt>
      <trkpt lat="48.4995" lon="1.99326">
        <ele>128.3</ele>
        <time>2021-06-03T14:34:35Z</time>
      </trkpt>
      <trkpt lat="48.49945" lon="1.99323">
        <ele>128.5</ele>
        <time>2021-06-03T14:34:37Z</time>
      </trkpt>
      <trkpt lat="48.4994" lon="1.99316">
        <ele>128.6</ele>
        <time>2021-06-03T14:34:39Z</time>
      </trkpt>
      <trkpt lat="48.49934" lon="1.99313">
        <ele>128.7</ele>
        <time>2021-06-03T14:34:41Z</time>
      </trkpt>
      <trkpt lat="48.49928" lon="1.99308">
        <ele>128.9</ele>
        <time>2021-06-03T14:34:43Z</time>
      </trkpt>
      <trkpt lat="48.4992" lon="1.99304">
        <ele>129</ele>
        <time>2021-06-03T14:34:45Z</time>
      </trkpt>
      <trkpt lat="48.49914" lon="1.99298">
        <ele>129.3</ele>
        <time>2021-06-03T14:34:47Z</time>
      </trkpt>
      <trkpt lat="48.49908" lon="1.99291">
        <ele>130.1</ele>
        <time>2021-06-03T14:34:49Z</time>
      </trkpt>
      <trkpt lat="48.49901" lon="1.99286">
        <ele>130.8</ele>
        <time>2021-06-03T14:34:51Z</time>
      </trkpt>
      <trkpt lat="48.49895" lon="1.99278">
        <ele>131.5</ele>
        <time>2021-06-03T14:34:53Z</time>
      </trkpt>
      <trkpt lat="48.49889" lon="1.99271">
        <ele>132</ele>
        <time>2021-06-03T14:34:55Z</time>
      </trkpt>
      <trkpt lat="48.49885" lon="1.99264">
        <ele>132.3</ele>
        <time>2021-06-03T14:34:57Z</time>
      </trkpt>
      <trkpt lat="48.49881" lon="1.9926">
        <ele>132.6</ele>
        <time>2021-06-03T14:34:59Z</time>
      </trkpt>
      <trkpt lat="48.49877" lon="1.99255">
        <ele>132.9</ele>
        <time>2021-06-03T14:35:03Z</time>
      </trkpt>
      <trkpt lat="48.49873" lon="1.9925">
        <ele>133.2</ele>
        <time>2021-06-03T14:35:05Z</time>
      </trkpt>
      <trkpt lat="48.49868" lon="1.99243">
        <ele>133.3</ele>
        <time>2021-06-03T14:35:07Z</time>
      </trkpt>
      <trkpt lat="48.49864" lon="1.99241">
        <ele>133.6</ele>
        <time>2021-06-03T14:35:09Z</time>
      </trkpt>
      <trkpt lat="48.49859" lon="1.99239">
        <ele>133.9</ele>
        <time>2021-06-03T14:35:11Z</time>
      </trkpt>
      <trkpt lat="48.49854" lon="1.99234">
        <ele>134.2</ele>
        <time>2021-06-03T14:35:13Z</time>
      </trkpt>
      <trkpt lat="48.49849" lon="1.99224">
        <ele>133.9</ele>
        <time>2021-06-03T14:35:17Z</time>
      </trkpt>
      <trkpt lat="48.49844" lon="1.99221">
        <ele>134.1</ele>
        <time>2021-06-03T14:35:19Z</time>
      </trkpt>
      <trkpt lat="48.49835" lon="1.99216">
        <ele>134.5</ele>
        <time>2021-06-03T14:35:23Z</time>
      </trkpt>
      <trkpt lat="48.49826" lon="1.99209">
        <ele>135.1</ele>
        <time>2021-06-03T14:35:27Z</time>
      </trkpt>
      <trkpt lat="48.49819" lon="1.99209">
        <ele>136.1</ele>
        <time>2021-06-03T14:35:31Z</time>
      </trkpt>
      <trkpt lat="48.49811" lon="1.99209">
        <ele>137.3</ele>
        <time>2021-06-03T14:35:35Z</time>
      </trkpt>
      <trkpt lat="48.49806" lon="1.99209">
        <ele>138</ele>
        <time>2021-06-03T14:35:37Z</time>
      </trkpt>
      <trkpt lat="48.49799" lon="1.99208">
        <ele>138.9</ele>
        <time>2021-06-03T14:35:41Z</time>
      </trkpt>
      <trkpt lat="48.49795" lon="1.99207">
        <ele>139.5</ele>
        <time>2021-06-03T14:35:43Z</time>
      </trkpt>
      <trkpt lat="48.49788" lon="1.9921">
        <ele>140.7</ele>
        <time>2021-06-03T14:35:47Z</time>
      </trkpt>
      <trkpt lat="48.49783" lon="1.9921">
        <ele>141.4</ele>
        <time>2021-06-03T14:35:51Z</time>
      </trkpt>
      <trkpt lat="48.49777" lon="1.99208">
        <ele>142.1</ele>
        <time>2021-06-03T14:35:55Z</time>
      </trkpt>
      <trkpt lat="48.49772" lon="1.99209">
        <ele>142.9</ele>
        <time>2021-06-03T14:35:57Z</time>
      </trkpt>
      <trkpt lat="48.49766" lon="1.99211">
        <ele>143.7</ele>
        <time>2021-06-03T14:36:01Z</time>
      </trkpt>
      <trkpt lat="48.4976" lon="1.99212">
        <ele>144.7</ele>
        <time>2021-06-03T14:36:05Z</time>
      </trkpt>
      <trkpt lat="48.49754" lon="1.99211">
        <ele>145.6</ele>
        <time>2021-06-03T14:36:09Z</time>
      </trkpt>
      <trkpt lat="48.49745" lon="1.99212">
        <ele>146.7</ele>
        <time>2021-06-03T14:36:13Z</time>
      </trkpt>
      <trkpt lat="48.49738" lon="1.99212">
        <ele>147.5</ele>
        <time>2021-06-03T14:36:17Z</time>
      </trkpt>
      <trkpt lat="48.49732" lon="1.99214">
        <ele>148.2</ele>
        <time>2021-06-03T14:36:21Z</time>
      </trkpt>
      <trkpt lat="48.49725" lon="1.99214">
        <ele>149</ele>
        <time>2021-06-03T14:36:25Z</time>
      </trkpt>
      <trkpt lat="48.4972" lon="1.99214">
        <ele>149.6</ele>
        <time>2021-06-03T14:36:29Z</time>
      </trkpt>
      <trkpt lat="48.49713" lon="1.99215">
        <ele>150.3</ele>
        <time>2021-06-03T14:36:35Z</time>
      </trkpt>
      <trkpt lat="48.49707" lon="1.99216">
        <ele>151</ele>
        <time>2021-06-03T14:36:39Z</time>
      </trkpt>
      <trkpt lat="48.49702" lon="1.99215">
        <ele>151.5</ele>
        <time>2021-06-03T14:36:43Z</time>
      </trkpt>
      <trkpt lat="48.49698" lon="1.99212">
        <ele>152</ele>
        <time>2021-06-03T14:36:57Z</time>
      </trkpt>
      <trkpt lat="48.49693" lon="1.99211">
        <ele>152.5</ele>
        <time>2021-06-03T14:37:05Z</time>
      </trkpt>
      <trkpt lat="48.49687" lon="1.99208">
        <ele>153.1</ele>
        <time>2021-06-03T14:37:11Z</time>
      </trkpt>
      <trkpt lat="48.49683" lon="1.99205">
        <ele>153.6</ele>
        <time>2021-06-03T14:37:19Z</time>
      </trkpt>
      <trkpt lat="48.49678" lon="1.992">
        <ele>154.2</ele>
        <time>2021-06-03T14:37:27Z</time>
      </trkpt>
      <trkpt lat="48.49673" lon="1.99197">
        <ele>154.9</ele>
        <time>2021-06-03T14:37:31Z</time>
      </trkpt>
      <trkpt lat="48.49667" lon="1.99195">
        <ele>155.6</ele>
        <time>2021-06-03T14:37:35Z</time>
      </trkpt>
      <trkpt lat="48.49659" lon="1.99198">
        <ele>155.7</ele>
        <time>2021-06-03T14:37:39Z</time>
      </trkpt>
      <trkpt lat="48.49653" lon="1.99201">
        <ele>155.6</ele>
        <time>2021-06-03T14:37:43Z</time>
      </trkpt>
      <trkpt lat="48.49649" lon="1.99207">
        <ele>155.5</ele>
        <time>2021-06-03T14:37:47Z</time>
      </trkpt>
      <trkpt lat="48.49644" lon="1.99213">
        <ele>155.4</ele>
        <time>2021-06-03T14:37:51Z</time>
      </trkpt>
      <trkpt lat="48.49637" lon="1.99216">
        <ele>155.3</ele>
        <time>2021-06-03T14:37:55Z</time>
      </trkpt>
      <trkpt lat="48.49629" lon="1.99219">
        <ele>155.1</ele>
        <time>2021-06-03T14:37:59Z</time>
      </trkpt>
      <trkpt lat="48.49622" lon="1.99221">
        <ele>155</ele>
        <time>2021-06-03T14:38:03Z</time>
      </trkpt>
      <trkpt lat="48.49617" lon="1.99217">
        <ele>155.1</ele>
        <time>2021-06-03T14:38:07Z</time>
      </trkpt>
      <trkpt lat="48.49615" lon="1.99208">
        <ele>155.5</ele>
        <time>2021-06-03T14:38:11Z</time>
      </trkpt>
      <trkpt lat="48.49611" lon="1.99199">
        <ele>155.9</ele>
        <time>2021-06-03T14:38:15Z</time>
      </trkpt>
      <trkpt lat="48.49608" lon="1.99192">
        <ele>156.3</ele>
        <time>2021-06-03T14:38:19Z</time>
      </trkpt>
      <trkpt lat="48.49604" lon="1.99189">
        <ele>156.5</ele>
        <time>2021-06-03T14:38:25Z</time>
      </trkpt>
      <trkpt lat="48.49606" lon="1.99176">
        <ele>157</ele>
        <time>2021-06-03T14:38:43Z</time>
      </trkpt>
      <trkpt lat="48.49608" lon="1.99167">
        <ele>157.4</ele>
        <time>2021-06-03T14:38:45Z</time>
      </trkpt>
      <trkpt lat="48.49609" lon="1.99158">
        <ele>157.5</ele>
        <time>2021-06-03T14:38:47Z</time>
      </trkpt>
      <trkpt lat="48.49611" lon="1.99145">
        <ele>157.7</ele>
        <time>2021-06-03T14:38:49Z</time>
      </trkpt>
      <trkpt lat="48.4961" lon="1.99135">
        <ele>157.9</ele>
        <time>2021-06-03T14:38:51Z</time>
      </trkpt>
      <trkpt lat="48.49607" lon="1.99127">
        <ele>158.1</ele>
        <time>2021-06-03T14:38:53Z</time>
      </trkpt>
      <trkpt lat="48.49607" lon="1.99117">
        <ele>158.3</ele>
        <time>2021-06-03T14:38:55Z</time>
      </trkpt>
      <trkpt lat="48.49608" lon="1.99105">
        <ele>158.5</ele>
        <time>2021-06-03T14:38:57Z</time>
      </trkpt>
      <trkpt lat="48.49609" lon="1.99094">
        <ele>158.6</ele>
        <time>2021-06-03T14:38:59Z</time>
      </trkpt>
      <trkpt lat="48.4961" lon="1.99078">
        <ele>158.6</ele>
        <time>2021-06-03T14:39:01Z</time>
      </trkpt>
      <trkpt lat="48.49611" lon="1.99066">
        <ele>158.2</ele>
        <time>2021-06-03T14:39:03Z</time>
      </trkpt>
      <trkpt lat="48.49614" lon="1.99052">
        <ele>157.6</ele>
        <time>2021-06-03T14:39:05Z</time>
      </trkpt>
      <trkpt lat="48.49616" lon="1.99038">
        <ele>157.1</ele>
        <time>2021-06-03T14:39:07Z</time>
      </trkpt>
      <trkpt lat="48.49619" lon="1.99021">
        <ele>156.5</ele>
        <time>2021-06-03T14:39:09Z</time>
      </trkpt>
      <trkpt lat="48.49622" lon="1.99006">
        <ele>155.9</ele>
        <time>2021-06-03T14:39:11Z</time>
      </trkpt>
      <trkpt lat="48.49622" lon="1.9899">
        <ele>155.2</ele>
        <time>2021-06-03T14:39:13Z</time>
      </trkpt>
      <trkpt lat="48.49621" lon="1.98973">
        <ele>154.4</ele>
        <time>2021-06-03T14:39:15Z</time>
      </trkpt>
      <trkpt lat="48.4963" lon="1.98959">
        <ele>152.9</ele>
        <time>2021-06-03T14:39:17Z</time>
      </trkpt>
      <trkpt lat="48.49641" lon="1.98946">
        <ele>151.3</ele>
        <time>2021-06-03T14:39:19Z</time>
      </trkpt>
      <trkpt lat="48.49647" lon="1.98938">
        <ele>150.3</ele>
        <time>2021-06-03T14:39:21Z</time>
      </trkpt>
      <trkpt lat="48.4965" lon="1.98933">
        <ele>149.6</ele>
        <time>2021-06-03T14:39:23Z</time>
      </trkpt>
      <trkpt lat="48.49657" lon="1.98929">
        <ele>148.8</ele>
        <time>2021-06-03T14:39:25Z</time>
      </trkpt>
      <trkpt lat="48.49666" lon="1.9892">
        <ele>147.3</ele>
        <time>2021-06-03T14:39:27Z</time>
      </trkpt>
      <trkpt lat="48.49674" lon="1.98914">
        <ele>146</ele>
        <time>2021-06-03T14:39:29Z</time>
      </trkpt>
      <trkpt lat="48.49679" lon="1.98904">
        <ele>144.7</ele>
        <time>2021-06-03T14:39:31Z</time>
      </trkpt>
      <trkpt lat="48.49685" lon="1.98887">
        <ele>143</ele>
        <time>2021-06-03T14:39:33Z</time>
      </trkpt>
      <trkpt lat="48.49681" lon="1.98866">
        <ele>142.2</ele>
        <time>2021-06-03T14:39:35Z</time>
      </trkpt>
      <trkpt lat="48.49674" lon="1.98847">
        <ele>141.4</ele>
        <time>2021-06-03T14:39:37Z</time>
      </trkpt>
      <trkpt lat="48.49664" lon="1.98831">
        <ele>141.1</ele>
        <time>2021-06-03T14:39:39Z</time>
      </trkpt>
      <trkpt lat="48.49662" lon="1.98812">
        <ele>139.9</ele>
        <time>2021-06-03T14:39:41Z</time>
      </trkpt>
      <trkpt lat="48.49661" lon="1.98789">
        <ele>138.3</ele>
        <time>2021-06-03T14:39:43Z</time>
      </trkpt>
      <trkpt lat="48.49666" lon="1.98771">
        <ele>136.5</ele>
        <time>2021-06-03T14:39:45Z</time>
      </trkpt>
      <trkpt lat="48.49671" lon="1.98753">
        <ele>135</ele>
        <time>2021-06-03T14:39:47Z</time>
      </trkpt>
      <trkpt lat="48.49668" lon="1.98748">
        <ele>134.8</ele>
        <time>2021-06-03T14:39:49Z</time>
      </trkpt>
      <trkpt lat="48.49667" lon="1.98737">
        <ele>134.4</ele>
        <time>2021-06-03T14:40:09Z</time>
      </trkpt>
      <trkpt lat="48.49664" lon="1.98731">
        <ele>134.3</ele>
        <time>2021-06-03T14:40:13Z</time>
      </trkpt>
      <trkpt lat="48.49658" lon="1.98726">
        <ele>134.4</ele>
        <time>2021-06-03T14:40:15Z</time>
      </trkpt>
      <trkpt lat="48.49652" lon="1.9872">
        <ele>134.4</ele>
        <time>2021-06-03T14:40:17Z</time>
      </trkpt>
      <trkpt lat="48.49646" lon="1.98716">
        <ele>134.6</ele>
        <time>2021-06-03T14:40:19Z</time>
      </trkpt>
      <trkpt lat="48.49639" lon="1.98711">
        <ele>134.6</ele>
        <time>2021-06-03T14:40:21Z</time>
      </trkpt>
      <trkpt lat="48.49635" lon="1.98707">
        <ele>134.6</ele>
        <time>2021-06-03T14:40:23Z</time>
      </trkpt>
      <trkpt lat="48.49629" lon="1.98703">
        <ele>134.7</ele>
        <time>2021-06-03T14:40:25Z</time>
      </trkpt>
      <trkpt lat="48.49624" lon="1.98702">
        <ele>134.9</ele>
        <time>2021-06-03T14:40:27Z</time>
      </trkpt>
      <trkpt lat="48.49617" lon="1.98698">
        <ele>135</ele>
        <time>2021-06-03T14:40:31Z</time>
      </trkpt>
      <trkpt lat="48.49612" lon="1.98696">
        <ele>135</ele>
        <time>2021-06-03T14:40:33Z</time>
      </trkpt>
      <trkpt lat="48.49605" lon="1.98692">
        <ele>135.2</ele>
        <time>2021-06-03T14:40:37Z</time>
      </trkpt>
      <trkpt lat="48.49597" lon="1.98689">
        <ele>135.3</ele>
        <time>2021-06-03T14:40:41Z</time>
      </trkpt>
      <trkpt lat="48.49591" lon="1.98689">
        <ele>135.5</ele>
        <time>2021-06-03T14:40:43Z</time>
      </trkpt>
      <trkpt lat="48.49587" lon="1.98686">
        <ele>135.5</ele>
        <time>2021-06-03T14:40:45Z</time>
      </trkpt>
      <trkpt lat="48.49579" lon="1.98684">
        <ele>135.7</ele>
        <time>2021-06-03T14:40:49Z</time>
      </trkpt>
      <trkpt lat="48.49574" lon="1.98682">
        <ele>135.8</ele>
        <time>2021-06-03T14:40:51Z</time>
      </trkpt>
      <trkpt lat="48.49569" lon="1.9868">
        <ele>135.9</ele>
        <time>2021-06-03T14:40:53Z</time>
      </trkpt>
      <trkpt lat="48.49564" lon="1.98675">
        <ele>135.7</ele>
        <time>2021-06-03T14:40:55Z</time>
      </trkpt>
      <trkpt lat="48.4956" lon="1.98667">
        <ele>135.2</ele>
        <time>2021-06-03T14:40:59Z</time>
      </trkpt>
      <trkpt lat="48.49555" lon="1.98659">
        <ele>135</ele>
        <time>2021-06-03T14:41:03Z</time>
      </trkpt>
      <trkpt lat="48.49555" lon="1.9865">
        <ele>134.6</ele>
        <time>2021-06-03T14:41:07Z</time>
      </trkpt>
      <trkpt lat="48.49559" lon="1.98645">
        <ele>134.2</ele>
        <time>2021-06-03T14:41:09Z</time>
      </trkpt>
      <trkpt lat="48.49561" lon="1.98639">
        <ele>133.9</ele>
        <time>2021-06-03T14:41:11Z</time>
      </trkpt>
      <trkpt lat="48.49563" lon="1.98631">
        <ele>133.5</ele>
        <time>2021-06-03T14:41:13Z</time>
      </trkpt>
      <trkpt lat="48.49574" lon="1.98614">
        <ele>132.4</ele>
        <time>2021-06-03T14:41:15Z</time>
      </trkpt>
      <trkpt lat="48.49582" lon="1.986">
        <ele>131.6</ele>
        <time>2021-06-03T14:41:17Z</time>
      </trkpt>
      <trkpt lat="48.49594" lon="1.98586">
        <ele>131.2</ele>
        <time>2021-06-03T14:41:19Z</time>
      </trkpt>
      <trkpt lat="48.49608" lon="1.9857">
        <ele>131</ele>
        <time>2021-06-03T14:41:21Z</time>
      </trkpt>
      <trkpt lat="48.49622" lon="1.98557">
        <ele>130.9</ele>
        <time>2021-06-03T14:41:23Z</time>
      </trkpt>
      <trkpt lat="48.49631" lon="1.98541">
        <ele>130.9</ele>
        <time>2021-06-03T14:41:25Z</time>
      </trkpt>
      <trkpt lat="48.49642" lon="1.98531">
        <ele>131.2</ele>
        <time>2021-06-03T14:41:27Z</time>
      </trkpt>
      <trkpt lat="48.4965" lon="1.98524">
        <ele>131.4</ele>
        <time>2021-06-03T14:41:29Z</time>
      </trkpt>
      <trkpt lat="48.49654" lon="1.98518">
        <ele>131.5</ele>
        <time>2021-06-03T14:41:31Z</time>
      </trkpt>
      <trkpt lat="48.4966" lon="1.98515">
        <ele>131.7</ele>
        <time>2021-06-03T14:41:33Z</time>
      </trkpt>
      <trkpt lat="48.49666" lon="1.98509">
        <ele>132</ele>
        <time>2021-06-03T14:41:37Z</time>
      </trkpt>
      <trkpt lat="48.49671" lon="1.98504">
        <ele>132.5</ele>
        <time>2021-06-03T14:41:41Z</time>
      </trkpt>
      <trkpt lat="48.49676" lon="1.98499">
        <ele>133.1</ele>
        <time>2021-06-03T14:41:45Z</time>
      </trkpt>
      <trkpt lat="48.49681" lon="1.98497">
        <ele>133.7</ele>
        <time>2021-06-03T14:41:49Z</time>
      </trkpt>
      <trkpt lat="48.49685" lon="1.98491">
        <ele>134.2</ele>
        <time>2021-06-03T14:41:53Z</time>
      </trkpt>
      <trkpt lat="48.49689" lon="1.98488">
        <ele>134.8</ele>
        <time>2021-06-03T14:41:57Z</time>
      </trkpt>
      <trkpt lat="48.49694" lon="1.98481">
        <ele>135.5</ele>
        <time>2021-06-03T14:42:01Z</time>
      </trkpt>
      <trkpt lat="48.49699" lon="1.98477">
        <ele>136</ele>
        <time>2021-06-03T14:42:05Z</time>
      </trkpt>
      <trkpt lat="48.49703" lon="1.98471">
        <ele>136.7</ele>
        <time>2021-06-03T14:42:09Z</time>
      </trkpt>
      <trkpt lat="48.49709" lon="1.98464">
        <ele>137.5</ele>
        <time>2021-06-03T14:42:13Z</time>
      </trkpt>
      <trkpt lat="48.49713" lon="1.98461">
        <ele>138.1</ele>
        <time>2021-06-03T14:42:17Z</time>
      </trkpt>
      <trkpt lat="48.49717" lon="1.98457">
        <ele>138.7</ele>
        <time>2021-06-03T14:42:21Z</time>
      </trkpt>
      <trkpt lat="48.49721" lon="1.98452">
        <ele>139.2</ele>
        <time>2021-06-03T14:42:25Z</time>
      </trkpt>
      <trkpt lat="48.49724" lon="1.98447">
        <ele>139.8</ele>
        <time>2021-06-03T14:42:29Z</time>
      </trkpt>
      <trkpt lat="48.49728" lon="1.98443">
        <ele>140.4</ele>
        <time>2021-06-03T14:42:33Z</time>
      </trkpt>
      <trkpt lat="48.49733" lon="1.98437">
        <ele>141.2</ele>
        <time>2021-06-03T14:42:37Z</time>
      </trkpt>
      <trkpt lat="48.49738" lon="1.98434">
        <ele>142</ele>
        <time>2021-06-03T14:42:41Z</time>
      </trkpt>
      <trkpt lat="48.49743" lon="1.98429">
        <ele>142.8</ele>
        <time>2021-06-03T14:42:45Z</time>
      </trkpt>
      <trkpt lat="48.49748" lon="1.98425">
        <ele>143.6</ele>
        <time>2021-06-03T14:42:49Z</time>
      </trkpt>
      <trkpt lat="48.49753" lon="1.98421">
        <ele>144.3</ele>
        <time>2021-06-03T14:42:53Z</time>
      </trkpt>
      <trkpt lat="48.49758" lon="1.98418">
        <ele>144.8</ele>
        <time>2021-06-03T14:42:57Z</time>
      </trkpt>
      <trkpt lat="48.49762" lon="1.98416">
        <ele>145.3</ele>
        <time>2021-06-03T14:43:01Z</time>
      </trkpt>
      <trkpt lat="48.49769" lon="1.98414">
        <ele>145.9</ele>
        <time>2021-06-03T14:43:07Z</time>
      </trkpt>
      <trkpt lat="48.49773" lon="1.98411">
        <ele>146.3</ele>
        <time>2021-06-03T14:43:11Z</time>
      </trkpt>
      <trkpt lat="48.49777" lon="1.98405">
        <ele>146.5</ele>
        <time>2021-06-03T14:43:15Z</time>
      </trkpt>
      <trkpt lat="48.49783" lon="1.98401">
        <ele>147.1</ele>
        <time>2021-06-03T14:43:19Z</time>
      </trkpt>
      <trkpt lat="48.49787" lon="1.98398">
        <ele>147.4</ele>
        <time>2021-06-03T14:43:23Z</time>
      </trkpt>
      <trkpt lat="48.49793" lon="1.98395">
        <ele>147.9</ele>
        <time>2021-06-03T14:43:29Z</time>
      </trkpt>
      <trkpt lat="48.49798" lon="1.98391">
        <ele>148.4</ele>
        <time>2021-06-03T14:43:33Z</time>
      </trkpt>
      <trkpt lat="48.49803" lon="1.98386">
        <ele>149</ele>
        <time>2021-06-03T14:43:37Z</time>
      </trkpt>
      <trkpt lat="48.49809" lon="1.98382">
        <ele>149.5</ele>
        <time>2021-06-03T14:43:41Z</time>
      </trkpt>
      <trkpt lat="48.49813" lon="1.98379">
        <ele>150</ele>
        <time>2021-06-03T14:43:45Z</time>
      </trkpt>
      <trkpt lat="48.49819" lon="1.98373">
        <ele>150.6</ele>
        <time>2021-06-03T14:43:49Z</time>
      </trkpt>
      <trkpt lat="48.49826" lon="1.98368">
        <ele>151.5</ele>
        <time>2021-06-03T14:43:53Z</time>
      </trkpt>
      <trkpt lat="48.49833" lon="1.98364">
        <ele>152.3</ele>
        <time>2021-06-03T14:43:57Z</time>
      </trkpt>
      <trkpt lat="48.49838" lon="1.9836">
        <ele>152.6</ele>
        <time>2021-06-03T14:44:01Z</time>
      </trkpt>
      <trkpt lat="48.49843" lon="1.98356">
        <ele>152.8</ele>
        <time>2021-06-03T14:44:03Z</time>
      </trkpt>
      <trkpt lat="48.49852" lon="1.98348">
        <ele>153.2</ele>
        <time>2021-06-03T14:44:07Z</time>
      </trkpt>
      <trkpt lat="48.49858" lon="1.98343">
        <ele>153.6</ele>
        <time>2021-06-03T14:44:09Z</time>
      </trkpt>
      <trkpt lat="48.49863" lon="1.9834">
        <ele>153.9</ele>
        <time>2021-06-03T14:44:11Z</time>
      </trkpt>
      <trkpt lat="48.49871" lon="1.98335">
        <ele>154.3</ele>
        <time>2021-06-03T14:44:13Z</time>
      </trkpt>
      <trkpt lat="48.49878" lon="1.9833">
        <ele>154.4</ele>
        <time>2021-06-03T14:44:15Z</time>
      </trkpt>
      <trkpt lat="48.49886" lon="1.98323">
        <ele>154.6</ele>
        <time>2021-06-03T14:44:17Z</time>
      </trkpt>
      <trkpt lat="48.49896" lon="1.98318">
        <ele>155.1</ele>
        <time>2021-06-03T14:44:19Z</time>
      </trkpt>
      <trkpt lat="48.49905" lon="1.98313">
        <ele>155.4</ele>
        <time>2021-06-03T14:44:21Z</time>
      </trkpt>
      <trkpt lat="48.49914" lon="1.98309">
        <ele>156</ele>
        <time>2021-06-03T14:44:23Z</time>
      </trkpt>
      <trkpt lat="48.49921" lon="1.98307">
        <ele>156.1</ele>
        <time>2021-06-03T14:44:25Z</time>
      </trkpt>
      <trkpt lat="48.49926" lon="1.98302">
        <ele>156</ele>
        <time>2021-06-03T14:44:27Z</time>
      </trkpt>
      <trkpt lat="48.49933" lon="1.98299">
        <ele>155.9</ele>
        <time>2021-06-03T14:44:29Z</time>
      </trkpt>
      <trkpt lat="48.49943" lon="1.98294">
        <ele>155.9</ele>
        <time>2021-06-03T14:44:31Z</time>
      </trkpt>
      <trkpt lat="48.49948" lon="1.98292">
        <ele>155.9</ele>
        <time>2021-06-03T14:44:33Z</time>
      </trkpt>
      <trkpt lat="48.49957" lon="1.98289">
        <ele>155.9</ele>
        <time>2021-06-03T14:44:35Z</time>
      </trkpt>
      <trkpt lat="48.49965" lon="1.98287">
        <ele>156</ele>
        <time>2021-06-03T14:44:37Z</time>
      </trkpt>
      <trkpt lat="48.49972" lon="1.98285">
        <ele>156</ele>
        <time>2021-06-03T14:44:39Z</time>
      </trkpt>
      <trkpt lat="48.4998" lon="1.98282">
        <ele>156.1</ele>
        <time>2021-06-03T14:44:41Z</time>
      </trkpt>
      <trkpt lat="48.49988" lon="1.9828">
        <ele>156.2</ele>
        <time>2021-06-03T14:44:43Z</time>
      </trkpt>
      <trkpt lat="48.49996" lon="1.98276">
        <ele>156.2</ele>
        <time>2021-06-03T14:44:45Z</time>
      </trkpt>
      <trkpt lat="48.50006" lon="1.98273">
        <ele>156.5</ele>
        <time>2021-06-03T14:44:47Z</time>
      </trkpt>
      <trkpt lat="48.50014" lon="1.9827">
        <ele>156.7</ele>
        <time>2021-06-03T14:44:49Z</time>
      </trkpt>
      <trkpt lat="48.50019" lon="1.98267">
        <ele>156.9</ele>
        <time>2021-06-03T14:44:51Z</time>
      </trkpt>
      <trkpt lat="48.50026" lon="1.98264">
        <ele>157.1</ele>
        <time>2021-06-03T14:44:53Z</time>
      </trkpt>
      <trkpt lat="48.50033" lon="1.98261">
        <ele>157.3</ele>
        <time>2021-06-03T14:44:55Z</time>
      </trkpt>
      <trkpt lat="48.50039" lon="1.98259">
        <ele>157.5</ele>
        <time>2021-06-03T14:44:57Z</time>
      </trkpt>
      <trkpt lat="48.5005" lon="1.98258">
        <ele>157.9</ele>
        <time>2021-06-03T14:44:59Z</time>
      </trkpt>
      <trkpt lat="48.50059" lon="1.9826">
        <ele>158.2</ele>
        <time>2021-06-03T14:45:01Z</time>
      </trkpt>
      <trkpt lat="48.50066" lon="1.98265">
        <ele>158.6</ele>
        <time>2021-06-03T14:45:03Z</time>
      </trkpt>
      <trkpt lat="48.50075" lon="1.98268">
        <ele>158.9</ele>
        <time>2021-06-03T14:45:05Z</time>
      </trkpt>
      <trkpt lat="48.50082" lon="1.98272">
        <ele>159.2</ele>
        <time>2021-06-03T14:45:07Z</time>
      </trkpt>
      <trkpt lat="48.5009" lon="1.98276">
        <ele>159.4</ele>
        <time>2021-06-03T14:45:09Z</time>
      </trkpt>
      <trkpt lat="48.501" lon="1.98276">
        <ele>159.7</ele>
        <time>2021-06-03T14:45:11Z</time>
      </trkpt>
      <trkpt lat="48.50106" lon="1.98278">
        <ele>159.8</ele>
        <time>2021-06-03T14:45:13Z</time>
      </trkpt>
      <trkpt lat="48.50112" lon="1.98279">
        <ele>159.9</ele>
        <time>2021-06-03T14:45:15Z</time>
      </trkpt>
      <trkpt lat="48.50119" lon="1.98278">
        <ele>160</ele>
        <time>2021-06-03T14:45:17Z</time>
      </trkpt>
      <trkpt lat="48.50125" lon="1.98274">
        <ele>160.2</ele>
        <time>2021-06-03T14:45:19Z</time>
      </trkpt>
      <trkpt lat="48.50133" lon="1.9827">
        <ele>160.3</ele>
        <time>2021-06-03T14:45:21Z</time>
      </trkpt>
      <trkpt lat="48.5014" lon="1.98267">
        <ele>160.4</ele>
        <time>2021-06-03T14:45:23Z</time>
      </trkpt>
      <trkpt lat="48.50147" lon="1.98262">
        <ele>160.6</ele>
        <time>2021-06-03T14:45:25Z</time>
      </trkpt>
      <trkpt lat="48.50156" lon="1.98258">
        <ele>160.7</ele>
        <time>2021-06-03T14:45:27Z</time>
      </trkpt>
      <trkpt lat="48.50161" lon="1.98252">
        <ele>160.9</ele>
        <time>2021-06-03T14:45:29Z</time>
      </trkpt>
      <trkpt lat="48.50167" lon="1.98247">
        <ele>160.9</ele>
        <time>2021-06-03T14:45:31Z</time>
      </trkpt>
      <trkpt lat="48.50174" lon="1.98242">
        <ele>160.7</ele>
        <time>2021-06-03T14:45:33Z</time>
      </trkpt>
      <trkpt lat="48.50181" lon="1.98238">
        <ele>160.5</ele>
        <time>2021-06-03T14:45:35Z</time>
      </trkpt>
      <trkpt lat="48.50189" lon="1.98232">
        <ele>160.2</ele>
        <time>2021-06-03T14:45:37Z</time>
      </trkpt>
      <trkpt lat="48.50195" lon="1.98227">
        <ele>160</ele>
        <time>2021-06-03T14:45:39Z</time>
      </trkpt>
      <trkpt lat="48.50202" lon="1.98224">
        <ele>159.8</ele>
        <time>2021-06-03T14:45:41Z</time>
      </trkpt>
      <trkpt lat="48.50209" lon="1.9822">
        <ele>159.6</ele>
        <time>2021-06-03T14:45:43Z</time>
      </trkpt>
      <trkpt lat="48.50215" lon="1.98218">
        <ele>159.4</ele>
        <time>2021-06-03T14:45:45Z</time>
      </trkpt>
      <trkpt lat="48.50224" lon="1.98227">
        <ele>159.6</ele>
        <time>2021-06-03T14:45:49Z</time>
      </trkpt>
      <trkpt lat="48.50227" lon="1.98234">
        <ele>159.7</ele>
        <time>2021-06-03T14:45:51Z</time>
      </trkpt>
      <trkpt lat="48.5023" lon="1.98241">
        <ele>159.9</ele>
        <time>2021-06-03T14:45:53Z</time>
      </trkpt>
      <trkpt lat="48.50235" lon="1.98245">
        <ele>160</ele>
        <time>2021-06-03T14:45:59Z</time>
      </trkpt>
      <trkpt lat="48.50238" lon="1.98254">
        <ele>160.3</ele>
        <time>2021-06-03T14:46:09Z</time>
      </trkpt>
      <trkpt lat="48.50242" lon="1.9826">
        <ele>160.4</ele>
        <time>2021-06-03T14:46:11Z</time>
      </trkpt>
      <trkpt lat="48.50245" lon="1.98269">
        <ele>160.7</ele>
        <time>2021-06-03T14:46:13Z</time>
      </trkpt>
      <trkpt lat="48.5025" lon="1.98278">
        <ele>161</ele>
        <time>2021-06-03T14:46:15Z</time>
      </trkpt>
      <trkpt lat="48.50254" lon="1.98288">
        <ele>161.4</ele>
        <time>2021-06-03T14:46:17Z</time>
      </trkpt>
      <trkpt lat="48.50256" lon="1.98297">
        <ele>161.8</ele>
        <time>2021-06-03T14:46:19Z</time>
      </trkpt>
      <trkpt lat="48.50259" lon="1.98308">
        <ele>162.3</ele>
        <time>2021-06-03T14:46:21Z</time>
      </trkpt>
      <trkpt lat="48.50264" lon="1.98316">
        <ele>162.6</ele>
        <time>2021-06-03T14:46:23Z</time>
      </trkpt>
      <trkpt lat="48.50267" lon="1.98328">
        <ele>163</ele>
        <time>2021-06-03T14:46:25Z</time>
      </trkpt>
      <trkpt lat="48.5027" lon="1.98339">
        <ele>163.3</ele>
        <time>2021-06-03T14:46:27Z</time>
      </trkpt>
      <trkpt lat="48.50272" lon="1.98351">
        <ele>163.3</ele>
        <time>2021-06-03T14:46:29Z</time>
      </trkpt>
      <trkpt lat="48.50269" lon="1.98361">
        <ele>163.3</ele>
        <time>2021-06-03T14:46:31Z</time>
      </trkpt>
      <trkpt lat="48.50269" lon="1.98371">
        <ele>163.3</ele>
        <time>2021-06-03T14:46:33Z</time>
      </trkpt>
      <trkpt lat="48.5027" lon="1.98383">
        <ele>163.4</ele>
        <time>2021-06-03T14:46:35Z</time>
      </trkpt>
      <trkpt lat="48.50273" lon="1.98394">
        <ele>163.5</ele>
        <time>2021-06-03T14:46:37Z</time>
      </trkpt>
      <trkpt lat="48.50277" lon="1.98398">
        <ele>163.6</ele>
        <time>2021-06-03T14:46:39Z</time>
      </trkpt>
      <trkpt lat="48.50283" lon="1.98402">
        <ele>163.7</ele>
        <time>2021-06-03T14:46:41Z</time>
      </trkpt>
      <trkpt lat="48.50289" lon="1.98406">
        <ele>163.9</ele>
        <time>2021-06-03T14:46:43Z</time>
      </trkpt>
      <trkpt lat="48.50293" lon="1.98413">
        <ele>164</ele>
        <time>2021-06-03T14:46:45Z</time>
      </trkpt>
      <trkpt lat="48.503" lon="1.98422">
        <ele>164.1</ele>
        <time>2021-06-03T14:46:47Z</time>
      </trkpt>
      <trkpt lat="48.50304" lon="1.98429">
        <ele>164.1</ele>
        <time>2021-06-03T14:46:51Z</time>
      </trkpt>
      <trkpt lat="48.50308" lon="1.98436">
        <ele>164.1</ele>
        <time>2021-06-03T14:46:55Z</time>
      </trkpt>
      <trkpt lat="48.50314" lon="1.98447">
        <ele>164</ele>
        <time>2021-06-03T14:46:59Z</time>
      </trkpt>
      <trkpt lat="48.50317" lon="1.98455">
        <ele>163.9</ele>
        <time>2021-06-03T14:47:01Z</time>
      </trkpt>
      <trkpt lat="48.5032" lon="1.98465">
        <ele>163.7</ele>
        <time>2021-06-03T14:47:03Z</time>
      </trkpt>
      <trkpt lat="48.50327" lon="1.98475">
        <ele>163.6</ele>
        <time>2021-06-03T14:47:05Z</time>
      </trkpt>
      <trkpt lat="48.50331" lon="1.98487">
        <ele>163.3</ele>
        <time>2021-06-03T14:47:07Z</time>
      </trkpt>
      <trkpt lat="48.50338" lon="1.98497">
        <ele>163</ele>
        <time>2021-06-03T14:47:09Z</time>
      </trkpt>
      <trkpt lat="48.5034" lon="1.98508">
        <ele>162.8</ele>
        <time>2021-06-03T14:47:11Z</time>
      </trkpt>
      <trkpt lat="48.50344" lon="1.98517">
        <ele>162.7</ele>
        <time>2021-06-03T14:47:15Z</time>
      </trkpt>
      <trkpt lat="48.50348" lon="1.98529">
        <ele>162.7</ele>
        <time>2021-06-03T14:47:19Z</time>
      </trkpt>
      <trkpt lat="48.50349" lon="1.98537">
        <ele>162.6</ele>
        <time>2021-06-03T14:47:23Z</time>
      </trkpt>
      <trkpt lat="48.50352" lon="1.98541">
        <ele>162.5</ele>
        <time>2021-06-03T14:47:25Z</time>
      </trkpt>
      <trkpt lat="48.50356" lon="1.98548">
        <ele>162.5</ele>
        <time>2021-06-03T14:47:27Z</time>
      </trkpt>
      <trkpt lat="48.50359" lon="1.98554">
        <ele>162.4</ele>
        <time>2021-06-03T14:47:29Z</time>
      </trkpt>
      <trkpt lat="48.50364" lon="1.98563">
        <ele>162.3</ele>
        <time>2021-06-03T14:47:31Z</time>
      </trkpt>
      <trkpt lat="48.50366" lon="1.98571">
        <ele>162.2</ele>
        <time>2021-06-03T14:47:33Z</time>
      </trkpt>
      <trkpt lat="48.5037" lon="1.98579">
        <ele>162.1</ele>
        <time>2021-06-03T14:47:35Z</time>
      </trkpt>
      <trkpt lat="48.50374" lon="1.98589">
        <ele>161.9</ele>
        <time>2021-06-03T14:47:37Z</time>
      </trkpt>
      <trkpt lat="48.50379" lon="1.98601">
        <ele>161.6</ele>
        <time>2021-06-03T14:47:39Z</time>
      </trkpt>
      <trkpt lat="48.50381" lon="1.98613">
        <ele>161.3</ele>
        <time>2021-06-03T14:47:41Z</time>
      </trkpt>
      <trkpt lat="48.50385" lon="1.98624">
        <ele>161</ele>
        <time>2021-06-03T14:47:43Z</time>
      </trkpt>
      <trkpt lat="48.50393" lon="1.98638">
        <ele>160.4</ele>
        <time>2021-06-03T14:47:45Z</time>
      </trkpt>
      <trkpt lat="48.50399" lon="1.98649">
        <ele>160</ele>
        <time>2021-06-03T14:47:47Z</time>
      </trkpt>
      <trkpt lat="48.50403" lon="1.98663">
        <ele>159.6</ele>
        <time>2021-06-03T14:47:49Z</time>
      </trkpt>
      <trkpt lat="48.50404" lon="1.98675">
        <ele>159.3</ele>
        <time>2021-06-03T14:47:51Z</time>
      </trkpt>
      <trkpt lat="48.50409" lon="1.98685">
        <ele>159.1</ele>
        <time>2021-06-03T14:47:53Z</time>
      </trkpt>
      <trkpt lat="48.50412" lon="1.98697">
        <ele>158.8</ele>
        <time>2021-06-03T14:47:55Z</time>
      </trkpt>
      <trkpt lat="48.50415" lon="1.98707">
        <ele>158.6</ele>
        <time>2021-06-03T14:47:57Z</time>
      </trkpt>
      <trkpt lat="48.50423" lon="1.9872">
        <ele>158.3</ele>
        <time>2021-06-03T14:47:59Z</time>
      </trkpt>
      <trkpt lat="48.50425" lon="1.98735">
        <ele>158.1</ele>
        <time>2021-06-03T14:48:01Z</time>
      </trkpt>
      <trkpt lat="48.50429" lon="1.98747">
        <ele>157.9</ele>
        <time>2021-06-03T14:48:03Z</time>
      </trkpt>
      <trkpt lat="48.50436" lon="1.9876">
        <ele>157.6</ele>
        <time>2021-06-03T14:48:05Z</time>
      </trkpt>
      <trkpt lat="48.50443" lon="1.9877">
        <ele>157.3</ele>
        <time>2021-06-03T14:48:07Z</time>
      </trkpt>
      <trkpt lat="48.50448" lon="1.98783">
        <ele>156.9</ele>
        <time>2021-06-03T14:48:09Z</time>
      </trkpt>
      <trkpt lat="48.50452" lon="1.9879">
        <ele>156.7</ele>
        <time>2021-06-03T14:48:11Z</time>
      </trkpt>
      <trkpt lat="48.50452" lon="1.988">
        <ele>156.5</ele>
        <time>2021-06-03T14:48:13Z</time>
      </trkpt>
      <trkpt lat="48.50455" lon="1.98807">
        <ele>156.2</ele>
        <time>2021-06-03T14:48:15Z</time>
      </trkpt>
      <trkpt lat="48.50455" lon="1.98814">
        <ele>156.1</ele>
        <time>2021-06-03T14:48:17Z</time>
      </trkpt>
      <trkpt lat="48.50457" lon="1.98822">
        <ele>155.8</ele>
        <time>2021-06-03T14:48:19Z</time>
      </trkpt>
      <trkpt lat="48.50462" lon="1.98836">
        <ele>155.3</ele>
        <time>2021-06-03T14:48:21Z</time>
      </trkpt>
      <trkpt lat="48.50467" lon="1.98847">
        <ele>154.5</ele>
        <time>2021-06-03T14:48:23Z</time>
      </trkpt>
      <trkpt lat="48.50475" lon="1.98846">
        <ele>154.3</ele>
        <time>2021-06-03T14:48:25Z</time>
      </trkpt>
      <trkpt lat="48.50482" lon="1.98848">
        <ele>154</ele>
        <time>2021-06-03T14:48:27Z</time>
      </trkpt>
      <trkpt lat="48.50487" lon="1.98849">
        <ele>153.7</ele>
        <time>2021-06-03T14:48:29Z</time>
      </trkpt>
      <trkpt lat="48.50494" lon="1.98851">
        <ele>153.4</ele>
        <time>2021-06-03T14:48:31Z</time>
      </trkpt>
      <trkpt lat="48.50504" lon="1.98857">
        <ele>152.5</ele>
        <time>2021-06-03T14:48:33Z</time>
      </trkpt>
      <trkpt lat="48.50519" lon="1.98861">
        <ele>151.1</ele>
        <time>2021-06-03T14:48:35Z</time>
      </trkpt>
      <trkpt lat="48.50538" lon="1.98863">
        <ele>149.4</ele>
        <time>2021-06-03T14:48:37Z</time>
      </trkpt>
      <trkpt lat="48.50555" lon="1.98867">
        <ele>147.8</ele>
        <time>2021-06-03T14:48:39Z</time>
      </trkpt>
      <trkpt lat="48.50566" lon="1.9887">
        <ele>146.7</ele>
        <time>2021-06-03T14:48:41Z</time>
      </trkpt>
      <trkpt lat="48.50577" lon="1.98873">
        <ele>145.6</ele>
        <time>2021-06-03T14:48:43Z</time>
      </trkpt>
      <trkpt lat="48.50584" lon="1.9888">
        <ele>144.6</ele>
        <time>2021-06-03T14:48:45Z</time>
      </trkpt>
      <trkpt lat="48.50589" lon="1.98891">
        <ele>143.7</ele>
        <time>2021-06-03T14:48:47Z</time>
      </trkpt>
      <trkpt lat="48.50597" lon="1.98897">
        <ele>142.9</ele>
        <time>2021-06-03T14:48:49Z</time>
      </trkpt>
      <trkpt lat="48.50603" lon="1.98902">
        <ele>142.2</ele>
        <time>2021-06-03T14:48:51Z</time>
      </trkpt>
      <trkpt lat="48.5061" lon="1.98904">
        <ele>141.6</ele>
        <time>2021-06-03T14:48:53Z</time>
      </trkpt>
      <trkpt lat="48.50617" lon="1.98907">
        <ele>140.9</ele>
        <time>2021-06-03T14:48:55Z</time>
      </trkpt>
      <trkpt lat="48.50628" lon="1.98908">
        <ele>140.1</ele>
        <time>2021-06-03T14:48:57Z</time>
      </trkpt>
      <trkpt lat="48.50638" lon="1.98912">
        <ele>139.2</ele>
        <time>2021-06-03T14:48:59Z</time>
      </trkpt>
      <trkpt lat="48.5065" lon="1.98915">
        <ele>138.2</ele>
        <time>2021-06-03T14:49:01Z</time>
      </trkpt>
      <trkpt lat="48.50665" lon="1.98917">
        <ele>137.1</ele>
        <time>2021-06-03T14:49:03Z</time>
      </trkpt>
      <trkpt lat="48.50671" lon="1.98921">
        <ele>136.8</ele>
        <time>2021-06-03T14:49:05Z</time>
      </trkpt>
      <trkpt lat="48.50676" lon="1.98923">
        <ele>136.7</ele>
        <time>2021-06-03T14:49:09Z</time>
      </trkpt>
      <trkpt lat="48.50684" lon="1.98931">
        <ele>136.3</ele>
        <time>2021-06-03T14:49:11Z</time>
      </trkpt>
      <trkpt lat="48.5069" lon="1.98941">
        <ele>135.8</ele>
        <time>2021-06-03T14:49:13Z</time>
      </trkpt>
      <trkpt lat="48.50692" lon="1.98952">
        <ele>135.1</ele>
        <time>2021-06-03T14:49:15Z</time>
      </trkpt>
      <trkpt lat="48.50695" lon="1.98959">
        <ele>134.8</ele>
        <time>2021-06-03T14:49:17Z</time>
      </trkpt>
      <trkpt lat="48.50699" lon="1.98967">
        <ele>134.5</ele>
        <time>2021-06-03T14:49:19Z</time>
      </trkpt>
      <trkpt lat="48.50704" lon="1.98974">
        <ele>134.3</ele>
        <time>2021-06-03T14:49:21Z</time>
      </trkpt>
      <trkpt lat="48.50708" lon="1.98985">
        <ele>133.8</ele>
        <time>2021-06-03T14:49:23Z</time>
      </trkpt>
      <trkpt lat="48.50711" lon="1.98998">
        <ele>133.3</ele>
        <time>2021-06-03T14:49:25Z</time>
      </trkpt>
      <trkpt lat="48.50715" lon="1.9901">
        <ele>132.9</ele>
        <time>2021-06-03T14:49:27Z</time>
      </trkpt>
      <trkpt lat="48.50718" lon="1.99024">
        <ele>132.3</ele>
        <time>2021-06-03T14:49:29Z</time>
      </trkpt>
      <trkpt lat="48.50722" lon="1.99037">
        <ele>131.9</ele>
        <time>2021-06-03T14:49:31Z</time>
      </trkpt>
      <trkpt lat="48.50727" lon="1.99049">
        <ele>131.6</ele>
        <time>2021-06-03T14:49:33Z</time>
      </trkpt>
      <trkpt lat="48.50733" lon="1.9906">
        <ele>131.4</ele>
        <time>2021-06-03T14:49:35Z</time>
      </trkpt>
      <trkpt lat="48.50739" lon="1.99074">
        <ele>130.9</ele>
        <time>2021-06-03T14:49:37Z</time>
      </trkpt>
      <trkpt lat="48.50746" lon="1.99086">
        <ele>130.6</ele>
        <time>2021-06-03T14:49:39Z</time>
      </trkpt>
      <trkpt lat="48.50752" lon="1.99101">
        <ele>129.9</ele>
        <time>2021-06-03T14:49:41Z</time>
      </trkpt>
      <trkpt lat="48.50759" lon="1.99112">
        <ele>129.7</ele>
        <time>2021-06-03T14:49:43Z</time>
      </trkpt>
      <trkpt lat="48.50761" lon="1.99124">
        <ele>128.9</ele>
        <time>2021-06-03T14:49:45Z</time>
      </trkpt>
      <trkpt lat="48.50757" lon="1.99132">
        <ele>128</ele>
        <time>2021-06-03T14:49:47Z</time>
      </trkpt>
      <trkpt lat="48.50753" lon="1.99135">
        <ele>127.5</ele>
        <time>2021-06-03T14:49:49Z</time>
      </trkpt>
      <trkpt lat="48.50747" lon="1.99133">
        <ele>127.3</ele>
        <time>2021-06-03T14:49:51Z</time>
      </trkpt>
      <trkpt lat="48.50741" lon="1.99133">
        <ele>127.1</ele>
        <time>2021-06-03T14:49:53Z</time>
      </trkpt>
      <trkpt lat="48.50733" lon="1.99133">
        <ele>126.9</ele>
        <time>2021-06-03T14:49:55Z</time>
      </trkpt>
      <trkpt lat="48.50726" lon="1.99135">
        <ele>126.6</ele>
        <time>2021-06-03T14:49:57Z</time>
      </trkpt>
      <trkpt lat="48.50719" lon="1.99134">
        <ele>126.4</ele>
        <time>2021-06-03T14:49:59Z</time>
      </trkpt>
      <trkpt lat="48.50712" lon="1.99137">
        <ele>126.1</ele>
        <time>2021-06-03T14:50:01Z</time>
      </trkpt>
      <trkpt lat="48.50706" lon="1.99138">
        <ele>125.8</ele>
        <time>2021-06-03T14:50:03Z</time>
      </trkpt>
      <trkpt lat="48.50699" lon="1.99138">
        <ele>125.6</ele>
        <time>2021-06-03T14:50:05Z</time>
      </trkpt>
      <trkpt lat="48.50693" lon="1.99139">
        <ele>125.4</ele>
        <time>2021-06-03T14:50:07Z</time>
      </trkpt>
      <trkpt lat="48.50687" lon="1.9914">
        <ele>125.2</ele>
        <time>2021-06-03T14:50:09Z</time>
      </trkpt>
      <trkpt lat="48.50681" lon="1.99141">
        <ele>125</ele>
        <time>2021-06-03T14:50:11Z</time>
      </trkpt>
      <trkpt lat="48.50676" lon="1.99141">
        <ele>124.9</ele>
        <time>2021-06-03T14:50:13Z</time>
      </trkpt>
      <trkpt lat="48.5067" lon="1.99141">
        <ele>124.7</ele>
        <time>2021-06-03T14:50:15Z</time>
      </trkpt>
      <trkpt lat="48.50665" lon="1.99142">
        <ele>124.7</ele>
        <time>2021-06-03T14:50:17Z</time>
      </trkpt>
      <trkpt lat="48.5066" lon="1.99143">
        <ele>124.8</ele>
        <time>2021-06-03T14:50:19Z</time>
      </trkpt>
      <trkpt lat="48.50653" lon="1.9915">
        <ele>124.9</ele>
        <time>2021-06-03T14:50:23Z</time>
      </trkpt>
      <trkpt lat="48.50652" lon="1.99159">
        <ele>124.7</ele>
        <time>2021-06-03T14:50:31Z</time>
      </trkpt>
      <trkpt lat="48.50653" lon="1.99165">
        <ele>124.5</ele>
        <time>2021-06-03T15:04:01Z</time>
      </trkpt>
      <trkpt lat="48.5065" lon="1.9916">
        <ele>124.8</ele>
        <time>2021-06-03T15:07:31Z</time>
      </trkpt>
      <trkpt lat="48.50652" lon="1.99148">
        <ele>125</ele>
        <time>2021-06-03T15:07:37Z</time>
      </trkpt>
      <trkpt lat="48.50656" lon="1.99143">
        <ele>124.9</ele>
        <time>2021-06-03T15:07:39Z</time>
      </trkpt>
      <trkpt lat="48.50661" lon="1.99139">
        <ele>124.9</ele>
        <time>2021-06-03T15:07:41Z</time>
      </trkpt>
      <trkpt lat="48.50668" lon="1.99138">
        <ele>124.7</ele>
        <time>2021-06-03T15:07:43Z</time>
      </trkpt>
      <trkpt lat="48.50675" lon="1.99136">
        <ele>125</ele>
        <time>2021-06-03T15:07:45Z</time>
      </trkpt>
      <trkpt lat="48.50683" lon="1.99135">
        <ele>125.3</ele>
        <time>2021-06-03T15:07:47Z</time>
      </trkpt>
      <trkpt lat="48.50692" lon="1.99133">
        <ele>125.6</ele>
        <time>2021-06-03T15:07:49Z</time>
      </trkpt>
      <trkpt lat="48.50702" lon="1.99133">
        <ele>125.9</ele>
        <time>2021-06-03T15:07:51Z</time>
      </trkpt>
      <trkpt lat="48.50709" lon="1.99132">
        <ele>126.2</ele>
        <time>2021-06-03T15:07:53Z</time>
      </trkpt>
      <trkpt lat="48.50718" lon="1.9913">
        <ele>126.6</ele>
        <time>2021-06-03T15:07:55Z</time>
      </trkpt>
      <trkpt lat="48.50728" lon="1.99129">
        <ele>127</ele>
        <time>2021-06-03T15:07:57Z</time>
      </trkpt>
      <trkpt lat="48.50738" lon="1.99131">
        <ele>127.2</ele>
        <time>2021-06-03T15:07:59Z</time>
      </trkpt>
      <trkpt lat="48.50749" lon="1.99134">
        <ele>127.3</ele>
        <time>2021-06-03T15:08:01Z</time>
      </trkpt>
      <trkpt lat="48.50759" lon="1.99138">
        <ele>127.7</ele>
        <time>2021-06-03T15:08:03Z</time>
      </trkpt>
      <trkpt lat="48.50768" lon="1.99138">
        <ele>128.4</ele>
        <time>2021-06-03T15:08:05Z</time>
      </trkpt>
      <trkpt lat="48.50776" lon="1.99135">
        <ele>129.2</ele>
        <time>2021-06-03T15:08:07Z</time>
      </trkpt>
      <trkpt lat="48.50784" lon="1.99134">
        <ele>129.9</ele>
        <time>2021-06-03T15:08:09Z</time>
      </trkpt>
      <trkpt lat="48.5079" lon="1.99133">
        <ele>130.4</ele>
        <time>2021-06-03T15:08:11Z</time>
      </trkpt>
      <trkpt lat="48.50795" lon="1.99133">
        <ele>130.8</ele>
        <time>2021-06-03T15:08:13Z</time>
      </trkpt>
      <trkpt lat="48.50805" lon="1.99141">
        <ele>130.8</ele>
        <time>2021-06-03T15:08:17Z</time>
      </trkpt>
      <trkpt lat="48.50814" lon="1.99144">
        <ele>131.1</ele>
        <time>2021-06-03T15:08:19Z</time>
      </trkpt>
      <trkpt lat="48.50823" lon="1.99144">
        <ele>131.8</ele>
        <time>2021-06-03T15:08:21Z</time>
      </trkpt>
      <trkpt lat="48.50832" lon="1.99147">
        <ele>132.1</ele>
        <time>2021-06-03T15:08:23Z</time>
      </trkpt>
      <trkpt lat="48.50842" lon="1.99153">
        <ele>131.9</ele>
        <time>2021-06-03T15:08:25Z</time>
      </trkpt>
      <trkpt lat="48.50849" lon="1.99161">
        <ele>131.6</ele>
        <time>2021-06-03T15:08:27Z</time>
      </trkpt>
      <trkpt lat="48.50856" lon="1.99163">
        <ele>131.7</ele>
        <time>2021-06-03T15:08:29Z</time>
      </trkpt>
      <trkpt lat="48.50866" lon="1.99169">
        <ele>131.6</ele>
        <time>2021-06-03T15:08:31Z</time>
      </trkpt>
      <trkpt lat="48.50875" lon="1.99176">
        <ele>131.4</ele>
        <time>2021-06-03T15:08:33Z</time>
      </trkpt>
      <trkpt lat="48.50884" lon="1.99179">
        <ele>131.5</ele>
        <time>2021-06-03T15:08:35Z</time>
      </trkpt>
      <trkpt lat="48.50895" lon="1.99181">
        <ele>132</ele>
        <time>2021-06-03T15:08:37Z</time>
      </trkpt>
      <trkpt lat="48.50902" lon="1.9918">
        <ele>132.5</ele>
        <time>2021-06-03T15:08:39Z</time>
      </trkpt>
      <trkpt lat="48.50914" lon="1.99183">
        <ele>132.9</ele>
        <time>2021-06-03T15:08:41Z</time>
      </trkpt>
      <trkpt lat="48.50922" lon="1.99187">
        <ele>132.5</ele>
        <time>2021-06-03T15:08:43Z</time>
      </trkpt>
      <trkpt lat="48.50931" lon="1.99195">
        <ele>131.6</ele>
        <time>2021-06-03T15:08:45Z</time>
      </trkpt>
      <trkpt lat="48.50942" lon="1.99203">
        <ele>130.7</ele>
        <time>2021-06-03T15:08:47Z</time>
      </trkpt>
      <trkpt lat="48.50952" lon="1.99212">
        <ele>129.8</ele>
        <time>2021-06-03T15:08:49Z</time>
      </trkpt>
      <trkpt lat="48.50963" lon="1.9921">
        <ele>130.2</ele>
        <time>2021-06-03T15:08:51Z</time>
      </trkpt>
      <trkpt lat="48.50974" lon="1.99208">
        <ele>130.4</ele>
        <time>2021-06-03T15:08:53Z</time>
      </trkpt>
      <trkpt lat="48.50984" lon="1.99209">
        <ele>130.4</ele>
        <time>2021-06-03T15:08:55Z</time>
      </trkpt>
      <trkpt lat="48.50993" lon="1.99214">
        <ele>130</ele>
        <time>2021-06-03T15:08:57Z</time>
      </trkpt>
      <trkpt lat="48.51002" lon="1.99224">
        <ele>129.2</ele>
        <time>2021-06-03T15:08:59Z</time>
      </trkpt>
      <trkpt lat="48.51011" lon="1.99233">
        <ele>128.2</ele>
        <time>2021-06-03T15:09:01Z</time>
      </trkpt>
      <trkpt lat="48.5102" lon="1.99243">
        <ele>127.3</ele>
        <time>2021-06-03T15:09:03Z</time>
      </trkpt>
      <trkpt lat="48.51027" lon="1.99252">
        <ele>126.5</ele>
        <time>2021-06-03T15:09:05Z</time>
      </trkpt>
      <trkpt lat="48.51037" lon="1.99261">
        <ele>125.7</ele>
        <time>2021-06-03T15:09:07Z</time>
      </trkpt>
      <trkpt lat="48.51047" lon="1.99271">
        <ele>124.9</ele>
        <time>2021-06-03T15:09:09Z</time>
      </trkpt>
      <trkpt lat="48.51057" lon="1.99283">
        <ele>124.2</ele>
        <time>2021-06-03T15:09:11Z</time>
      </trkpt>
      <trkpt lat="48.51069" lon="1.99296">
        <ele>123.8</ele>
        <time>2021-06-03T15:09:13Z</time>
      </trkpt>
      <trkpt lat="48.51076" lon="1.9931">
        <ele>123.5</ele>
        <time>2021-06-03T15:09:15Z</time>
      </trkpt>
      <trkpt lat="48.51079" lon="1.99317">
        <ele>123.3</ele>
        <time>2021-06-03T15:09:17Z</time>
      </trkpt>
      <trkpt lat="48.51084" lon="1.99317">
        <ele>123.6</ele>
        <time>2021-06-03T15:09:21Z</time>
      </trkpt>
      <trkpt lat="48.5109" lon="1.99306">
        <ele>124.1</ele>
        <time>2021-06-03T15:09:25Z</time>
      </trkpt>
      <trkpt lat="48.51094" lon="1.99297">
        <ele>124.6</ele>
        <time>2021-06-03T15:09:27Z</time>
      </trkpt>
      <trkpt lat="48.51098" lon="1.99288">
        <ele>125</ele>
        <time>2021-06-03T15:09:29Z</time>
      </trkpt>
      <trkpt lat="48.51101" lon="1.99281">
        <ele>125.3</ele>
        <time>2021-06-03T15:09:31Z</time>
      </trkpt>
      <trkpt lat="48.51106" lon="1.99272">
        <ele>125.8</ele>
        <time>2021-06-03T15:09:33Z</time>
      </trkpt>
      <trkpt lat="48.51114" lon="1.9926">
        <ele>126.4</ele>
        <time>2021-06-03T15:09:35Z</time>
      </trkpt>
      <trkpt lat="48.51117" lon="1.99247">
        <ele>127</ele>
        <time>2021-06-03T15:09:37Z</time>
      </trkpt>
      <trkpt lat="48.51121" lon="1.99236">
        <ele>127.6</ele>
        <time>2021-06-03T15:09:39Z</time>
      </trkpt>
      <trkpt lat="48.51127" lon="1.99226">
        <ele>128.2</ele>
        <time>2021-06-03T15:09:41Z</time>
      </trkpt>
      <trkpt lat="48.51132" lon="1.99213">
        <ele>128.9</ele>
        <time>2021-06-03T15:09:43Z</time>
      </trkpt>
      <trkpt lat="48.51137" lon="1.992">
        <ele>129.5</ele>
        <time>2021-06-03T15:09:45Z</time>
      </trkpt>
      <trkpt lat="48.51141" lon="1.99185">
        <ele>130.2</ele>
        <time>2021-06-03T15:09:47Z</time>
      </trkpt>
      <trkpt lat="48.51146" lon="1.99176">
        <ele>130.6</ele>
        <time>2021-06-03T15:09:49Z</time>
      </trkpt>
      <trkpt lat="48.51152" lon="1.99165">
        <ele>131.1</ele>
        <time>2021-06-03T15:09:51Z</time>
      </trkpt>
      <trkpt lat="48.51158" lon="1.99155">
        <ele>131.3</ele>
        <time>2021-06-03T15:09:53Z</time>
      </trkpt>
      <trkpt lat="48.5116" lon="1.99146">
        <ele>131.5</ele>
        <time>2021-06-03T15:09:55Z</time>
      </trkpt>
      <trkpt lat="48.51163" lon="1.99139">
        <ele>131.7</ele>
        <time>2021-06-03T15:09:57Z</time>
      </trkpt>
      <trkpt lat="48.51166" lon="1.99132">
        <ele>131.8</ele>
        <time>2021-06-03T15:09:59Z</time>
      </trkpt>
      <trkpt lat="48.51168" lon="1.99127">
        <ele>132</ele>
        <time>2021-06-03T15:10:01Z</time>
      </trkpt>
      <trkpt lat="48.51172" lon="1.99121">
        <ele>132.3</ele>
        <time>2021-06-03T15:10:03Z</time>
      </trkpt>
      <trkpt lat="48.51176" lon="1.99115">
        <ele>132.6</ele>
        <time>2021-06-03T15:10:05Z</time>
      </trkpt>
      <trkpt lat="48.5118" lon="1.99106">
        <ele>133.1</ele>
        <time>2021-06-03T15:10:09Z</time>
      </trkpt>
      <trkpt lat="48.51184" lon="1.99097">
        <ele>133.5</ele>
        <time>2021-06-03T15:10:13Z</time>
      </trkpt>
      <trkpt lat="48.51188" lon="1.99087">
        <ele>133.9</ele>
        <time>2021-06-03T15:10:17Z</time>
      </trkpt>
      <trkpt lat="48.51194" lon="1.99078">
        <ele>134.7</ele>
        <time>2021-06-03T15:10:21Z</time>
      </trkpt>
      <trkpt lat="48.51195" lon="1.99071">
        <ele>135.2</ele>
        <time>2021-06-03T15:10:25Z</time>
      </trkpt>
      <trkpt lat="48.51199" lon="1.99066">
        <ele>135.7</ele>
        <time>2021-06-03T15:10:27Z</time>
      </trkpt>
      <trkpt lat="48.51202" lon="1.99059">
        <ele>136.4</ele>
        <time>2021-06-03T15:10:31Z</time>
      </trkpt>
      <trkpt lat="48.51205" lon="1.99053">
        <ele>136.9</ele>
        <time>2021-06-03T15:10:35Z</time>
      </trkpt>
      <trkpt lat="48.51207" lon="1.99047">
        <ele>137.4</ele>
        <time>2021-06-03T15:10:39Z</time>
      </trkpt>
      <trkpt lat="48.51211" lon="1.99038">
        <ele>138.1</ele>
        <time>2021-06-03T15:10:45Z</time>
      </trkpt>
      <trkpt lat="48.51214" lon="1.9903">
        <ele>138.6</ele>
        <time>2021-06-03T15:10:49Z</time>
      </trkpt>
      <trkpt lat="48.51218" lon="1.99023">
        <ele>139.2</ele>
        <time>2021-06-03T15:10:53Z</time>
      </trkpt>
      <trkpt lat="48.51222" lon="1.99015">
        <ele>139.7</ele>
        <time>2021-06-03T15:10:57Z</time>
      </trkpt>
      <trkpt lat="48.51225" lon="1.99009">
        <ele>140.2</ele>
        <time>2021-06-03T15:11:01Z</time>
      </trkpt>
      <trkpt lat="48.5123" lon="1.99001">
        <ele>140.7</ele>
        <time>2021-06-03T15:11:05Z</time>
      </trkpt>
      <trkpt lat="48.51232" lon="1.98994">
        <ele>141.3</ele>
        <time>2021-06-03T15:11:09Z</time>
      </trkpt>
      <trkpt lat="48.51236" lon="1.98987">
        <ele>141.9</ele>
        <time>2021-06-03T15:11:13Z</time>
      </trkpt>
      <trkpt lat="48.51241" lon="1.98978">
        <ele>142.6</ele>
        <time>2021-06-03T15:11:17Z</time>
      </trkpt>
      <trkpt lat="48.51246" lon="1.98968">
        <ele>143.3</ele>
        <time>2021-06-03T15:11:21Z</time>
      </trkpt>
      <trkpt lat="48.51252" lon="1.98957">
        <ele>144</ele>
        <time>2021-06-03T15:11:25Z</time>
      </trkpt>
      <trkpt lat="48.51255" lon="1.98948">
        <ele>144.4</ele>
        <time>2021-06-03T15:11:27Z</time>
      </trkpt>
      <trkpt lat="48.51258" lon="1.98938">
        <ele>144.8</ele>
        <time>2021-06-03T15:11:29Z</time>
      </trkpt>
      <trkpt lat="48.51262" lon="1.98928">
        <ele>145.1</ele>
        <time>2021-06-03T15:11:31Z</time>
      </trkpt>
      <trkpt lat="48.51268" lon="1.98917">
        <ele>145.2</ele>
        <time>2021-06-03T15:11:33Z</time>
      </trkpt>
      <trkpt lat="48.51274" lon="1.98908">
        <ele>144.7</ele>
        <time>2021-06-03T15:11:35Z</time>
      </trkpt>
      <trkpt lat="48.5128" lon="1.98897">
        <ele>144</ele>
        <time>2021-06-03T15:11:37Z</time>
      </trkpt>
      <trkpt lat="48.51286" lon="1.98884">
        <ele>143.2</ele>
        <time>2021-06-03T15:11:39Z</time>
      </trkpt>
      <trkpt lat="48.51293" lon="1.98869">
        <ele>142.3</ele>
        <time>2021-06-03T15:11:41Z</time>
      </trkpt>
      <trkpt lat="48.51303" lon="1.98854">
        <ele>141</ele>
        <time>2021-06-03T15:11:43Z</time>
      </trkpt>
      <trkpt lat="48.51311" lon="1.98833">
        <ele>139.6</ele>
        <time>2021-06-03T15:11:45Z</time>
      </trkpt>
      <trkpt lat="48.51323" lon="1.98809">
        <ele>138.1</ele>
        <time>2021-06-03T15:11:47Z</time>
      </trkpt>
      <trkpt lat="48.51331" lon="1.98789">
        <ele>137.3</ele>
        <time>2021-06-03T15:11:49Z</time>
      </trkpt>
      <trkpt lat="48.51338" lon="1.98772">
        <ele>136.7</ele>
        <time>2021-06-03T15:11:51Z</time>
      </trkpt>
      <trkpt lat="48.51343" lon="1.98759">
        <ele>136.4</ele>
        <time>2021-06-03T15:11:53Z</time>
      </trkpt>
      <trkpt lat="48.51348" lon="1.98747">
        <ele>136.1</ele>
        <time>2021-06-03T15:11:55Z</time>
      </trkpt>
      <trkpt lat="48.51353" lon="1.98738">
        <ele>136</ele>
        <time>2021-06-03T15:11:57Z</time>
      </trkpt>
      <trkpt lat="48.51356" lon="1.98728">
        <ele>135.9</ele>
        <time>2021-06-03T15:11:59Z</time>
      </trkpt>
      <trkpt lat="48.51359" lon="1.98722">
        <ele>135.8</ele>
        <time>2021-06-03T15:12:01Z</time>
      </trkpt>
      <trkpt lat="48.51364" lon="1.98715">
        <ele>135.6</ele>
        <time>2021-06-03T15:12:07Z</time>
      </trkpt>
      <trkpt lat="48.51367" lon="1.98709">
        <ele>135.5</ele>
        <time>2021-06-03T15:12:09Z</time>
      </trkpt>
      <trkpt lat="48.51371" lon="1.98701">
        <ele>135.3</ele>
        <time>2021-06-03T15:12:11Z</time>
      </trkpt>
      <trkpt lat="48.51376" lon="1.98691">
        <ele>135.1</ele>
        <time>2021-06-03T15:12:13Z</time>
      </trkpt>
      <trkpt lat="48.5138" lon="1.98682">
        <ele>135</ele>
        <time>2021-06-03T15:12:15Z</time>
      </trkpt>
      <trkpt lat="48.51385" lon="1.98672">
        <ele>134.8</ele>
        <time>2021-06-03T15:12:17Z</time>
      </trkpt>
      <trkpt lat="48.5139" lon="1.98661">
        <ele>134.5</ele>
        <time>2021-06-03T15:12:19Z</time>
      </trkpt>
      <trkpt lat="48.51395" lon="1.9865">
        <ele>134.1</ele>
        <time>2021-06-03T15:12:21Z</time>
      </trkpt>
      <trkpt lat="48.51401" lon="1.98637">
        <ele>133.5</ele>
        <time>2021-06-03T15:12:23Z</time>
      </trkpt>
      <trkpt lat="48.51407" lon="1.98623">
        <ele>133</ele>
        <time>2021-06-03T15:12:25Z</time>
      </trkpt>
      <trkpt lat="48.51414" lon="1.98608">
        <ele>132.4</ele>
        <time>2021-06-03T15:12:27Z</time>
      </trkpt>
      <trkpt lat="48.51421" lon="1.98592">
        <ele>131.9</ele>
        <time>2021-06-03T15:12:29Z</time>
      </trkpt>
      <trkpt lat="48.51428" lon="1.98575">
        <ele>131.2</ele>
        <time>2021-06-03T15:12:31Z</time>
      </trkpt>
      <trkpt lat="48.51437" lon="1.98558">
        <ele>130.1</ele>
        <time>2021-06-03T15:12:33Z</time>
      </trkpt>
      <trkpt lat="48.51442" lon="1.98546">
        <ele>129.4</ele>
        <time>2021-06-03T15:12:35Z</time>
      </trkpt>
      <trkpt lat="48.51446" lon="1.98541">
        <ele>128.8</ele>
        <time>2021-06-03T15:12:37Z</time>
      </trkpt>
      <trkpt lat="48.51453" lon="1.9854">
        <ele>128.3</ele>
        <time>2021-06-03T15:12:39Z</time>
      </trkpt>
      <trkpt lat="48.51458" lon="1.98548">
        <ele>128.4</ele>
        <time>2021-06-03T15:12:41Z</time>
      </trkpt>
      <trkpt lat="48.51463" lon="1.98561">
        <ele>128.7</ele>
        <time>2021-06-03T15:12:43Z</time>
      </trkpt>
      <trkpt lat="48.51469" lon="1.98576">
        <ele>129.1</ele>
        <time>2021-06-03T15:12:45Z</time>
      </trkpt>
      <trkpt lat="48.51476" lon="1.98592">
        <ele>129.2</ele>
        <time>2021-06-03T15:12:47Z</time>
      </trkpt>
      <trkpt lat="48.51483" lon="1.98608">
        <ele>128.9</ele>
        <time>2021-06-03T15:12:49Z</time>
      </trkpt>
      <trkpt lat="48.5149" lon="1.98625">
        <ele>128.5</ele>
        <time>2021-06-03T15:12:51Z</time>
      </trkpt>
      <trkpt lat="48.51498" lon="1.98643">
        <ele>128.1</ele>
        <time>2021-06-03T15:12:53Z</time>
      </trkpt>
      <trkpt lat="48.51507" lon="1.9866">
        <ele>127.7</ele>
        <time>2021-06-03T15:12:55Z</time>
      </trkpt>
      <trkpt lat="48.51515" lon="1.98679">
        <ele>127.4</ele>
        <time>2021-06-03T15:12:57Z</time>
      </trkpt>
      <trkpt lat="48.51524" lon="1.98695">
        <ele>127</ele>
        <time>2021-06-03T15:12:59Z</time>
      </trkpt>
      <trkpt lat="48.51531" lon="1.98713">
        <ele>126.6</ele>
        <time>2021-06-03T15:13:01Z</time>
      </trkpt>
      <trkpt lat="48.51539" lon="1.9873">
        <ele>126.2</ele>
        <time>2021-06-03T15:13:03Z</time>
      </trkpt>
      <trkpt lat="48.51547" lon="1.98748">
        <ele>125.6</ele>
        <time>2021-06-03T15:13:05Z</time>
      </trkpt>
      <trkpt lat="48.51555" lon="1.98766">
        <ele>125</ele>
        <time>2021-06-03T15:13:07Z</time>
      </trkpt>
      <trkpt lat="48.51563" lon="1.98783">
        <ele>124.4</ele>
        <time>2021-06-03T15:13:09Z</time>
      </trkpt>
      <trkpt lat="48.51572" lon="1.98801">
        <ele>123.8</ele>
        <time>2021-06-03T15:13:11Z</time>
      </trkpt>
      <trkpt lat="48.5158" lon="1.98817">
        <ele>123.3</ele>
        <time>2021-06-03T15:13:13Z</time>
      </trkpt>
      <trkpt lat="48.51587" lon="1.98835">
        <ele>123</ele>
        <time>2021-06-03T15:13:15Z</time>
      </trkpt>
      <trkpt lat="48.51594" lon="1.9885">
        <ele>122.8</ele>
        <time>2021-06-03T15:13:17Z</time>
      </trkpt>
      <trkpt lat="48.51601" lon="1.98866">
        <ele>122.5</ele>
        <time>2021-06-03T15:13:19Z</time>
      </trkpt>
      <trkpt lat="48.51609" lon="1.98881">
        <ele>122.3</ele>
        <time>2021-06-03T15:13:21Z</time>
      </trkpt>
      <trkpt lat="48.51616" lon="1.98895">
        <ele>122</ele>
        <time>2021-06-03T15:13:23Z</time>
      </trkpt>
      <trkpt lat="48.51623" lon="1.98911">
        <ele>121.6</ele>
        <time>2021-06-03T15:13:25Z</time>
      </trkpt>
      <trkpt lat="48.51629" lon="1.98926">
        <ele>121.5</ele>
        <time>2021-06-03T15:13:27Z</time>
      </trkpt>
      <trkpt lat="48.51635" lon="1.98941">
        <ele>121.4</ele>
        <time>2021-06-03T15:13:29Z</time>
      </trkpt>
      <trkpt lat="48.51642" lon="1.98956">
        <ele>121.3</ele>
        <time>2021-06-03T15:13:31Z</time>
      </trkpt>
      <trkpt lat="48.51649" lon="1.98972">
        <ele>121.2</ele>
        <time>2021-06-03T15:13:33Z</time>
      </trkpt>
      <trkpt lat="48.51655" lon="1.98986">
        <ele>121.1</ele>
        <time>2021-06-03T15:13:35Z</time>
      </trkpt>
      <trkpt lat="48.51662" lon="1.98999">
        <ele>121.1</ele>
        <time>2021-06-03T15:13:37Z</time>
      </trkpt>
      <trkpt lat="48.5167" lon="1.99014">
        <ele>120.8</ele>
        <time>2021-06-03T15:13:39Z</time>
      </trkpt>
      <trkpt lat="48.51677" lon="1.99027">
        <ele>121</ele>
        <time>2021-06-03T15:13:41Z</time>
      </trkpt>
      <trkpt lat="48.51683" lon="1.99038">
        <ele>121.1</ele>
        <time>2021-06-03T15:13:43Z</time>
      </trkpt>
      <trkpt lat="48.51688" lon="1.99048">
        <ele>121.1</ele>
        <time>2021-06-03T15:13:45Z</time>
      </trkpt>
      <trkpt lat="48.51691" lon="1.9906">
        <ele>121</ele>
        <time>2021-06-03T15:13:47Z</time>
      </trkpt>
      <trkpt lat="48.51696" lon="1.99068">
        <ele>121</ele>
        <time>2021-06-03T15:13:49Z</time>
      </trkpt>
      <trkpt lat="48.517" lon="1.99076">
        <ele>121.1</ele>
        <time>2021-06-03T15:13:51Z</time>
      </trkpt>
      <trkpt lat="48.51703" lon="1.99083">
        <ele>121</ele>
        <time>2021-06-03T15:13:53Z</time>
      </trkpt>
      <trkpt lat="48.51706" lon="1.99091">
        <ele>121</ele>
        <time>2021-06-03T15:13:55Z</time>
      </trkpt>
      <trkpt lat="48.51708" lon="1.99098">
        <ele>121</ele>
        <time>2021-06-03T15:13:57Z</time>
      </trkpt>
      <trkpt lat="48.51711" lon="1.99108">
        <ele>120.9</ele>
        <time>2021-06-03T15:13:59Z</time>
      </trkpt>
      <trkpt lat="48.51716" lon="1.99117">
        <ele>121.1</ele>
        <time>2021-06-03T15:14:01Z</time>
      </trkpt>
      <trkpt lat="48.5172" lon="1.99125">
        <ele>121.3</ele>
        <time>2021-06-03T15:14:03Z</time>
      </trkpt>
      <trkpt lat="48.51724" lon="1.99134">
        <ele>121.5</ele>
        <time>2021-06-03T15:14:05Z</time>
      </trkpt>
      <trkpt lat="48.5173" lon="1.99142">
        <ele>122</ele>
        <time>2021-06-03T15:14:07Z</time>
      </trkpt>
      <trkpt lat="48.51734" lon="1.9915">
        <ele>122.3</ele>
        <time>2021-06-03T15:14:09Z</time>
      </trkpt>
      <trkpt lat="48.51739" lon="1.99161">
        <ele>122.6</ele>
        <time>2021-06-03T15:14:11Z</time>
      </trkpt>
      <trkpt lat="48.51744" lon="1.9917">
        <ele>123</ele>
        <time>2021-06-03T15:14:13Z</time>
      </trkpt>
      <trkpt lat="48.51748" lon="1.99177">
        <ele>123</ele>
        <time>2021-06-03T15:14:15Z</time>
      </trkpt>
      <trkpt lat="48.51753" lon="1.99178">
        <ele>123.5</ele>
        <time>2021-06-03T15:14:17Z</time>
      </trkpt>
      <trkpt lat="48.51755" lon="1.99167">
        <ele>124.7</ele>
        <time>2021-06-03T15:14:21Z</time>
      </trkpt>
      <trkpt lat="48.51754" lon="1.99154">
        <ele>124.7</ele>
        <time>2021-06-03T15:14:25Z</time>
      </trkpt>
      <trkpt lat="48.51755" lon="1.99147">
        <ele>125</ele>
        <time>2021-06-03T15:14:27Z</time>
      </trkpt>
      <trkpt lat="48.51753" lon="1.99141">
        <ele>124.8</ele>
        <time>2021-06-03T15:14:29Z</time>
      </trkpt>
      <trkpt lat="48.51753" lon="1.99133">
        <ele>124.8</ele>
        <time>2021-06-03T15:14:31Z</time>
      </trkpt>
      <trkpt lat="48.51754" lon="1.99118">
        <ele>125.2</ele>
        <time>2021-06-03T15:14:35Z</time>
      </trkpt>
      <trkpt lat="48.51753" lon="1.9911">
        <ele>125.2</ele>
        <time>2021-06-03T15:14:37Z</time>
      </trkpt>
      <trkpt lat="48.51753" lon="1.99096">
        <ele>125.3</ele>
        <time>2021-06-03T15:14:41Z</time>
      </trkpt>
      <trkpt lat="48.51751" lon="1.99086">
        <ele>125.2</ele>
        <time>2021-06-03T15:14:43Z</time>
      </trkpt>
      <trkpt lat="48.51751" lon="1.99078">
        <ele>125.4</ele>
        <time>2021-06-03T15:14:45Z</time>
      </trkpt>
      <trkpt lat="48.51748" lon="1.9907">
        <ele>125.5</ele>
        <time>2021-06-03T15:14:47Z</time>
      </trkpt>
      <trkpt lat="48.51749" lon="1.99059">
        <ele>126</ele>
        <time>2021-06-03T15:14:49Z</time>
      </trkpt>
      <trkpt lat="48.51745" lon="1.99049">
        <ele>126.2</ele>
        <time>2021-06-03T15:14:51Z</time>
      </trkpt>
      <trkpt lat="48.51744" lon="1.99039">
        <ele>126.6</ele>
        <time>2021-06-03T15:14:53Z</time>
      </trkpt>
      <trkpt lat="48.51744" lon="1.99029">
        <ele>127</ele>
        <time>2021-06-03T15:14:55Z</time>
      </trkpt>
      <trkpt lat="48.51745" lon="1.9902">
        <ele>127.6</ele>
        <time>2021-06-03T15:14:57Z</time>
      </trkpt>
      <trkpt lat="48.51745" lon="1.99009">
        <ele>128.1</ele>
        <time>2021-06-03T15:14:59Z</time>
      </trkpt>
      <trkpt lat="48.51745" lon="1.98998">
        <ele>128.5</ele>
        <time>2021-06-03T15:15:01Z</time>
      </trkpt>
      <trkpt lat="48.51741" lon="1.98984">
        <ele>128</ele>
        <time>2021-06-03T15:15:03Z</time>
      </trkpt>
      <trkpt lat="48.5174" lon="1.98973">
        <ele>127.7</ele>
        <time>2021-06-03T15:15:05Z</time>
      </trkpt>
      <trkpt lat="48.51738" lon="1.98963">
        <ele>127.5</ele>
        <time>2021-06-03T15:15:07Z</time>
      </trkpt>
      <trkpt lat="48.51736" lon="1.98955">
        <ele>127.2</ele>
        <time>2021-06-03T15:15:09Z</time>
      </trkpt>
      <trkpt lat="48.51733" lon="1.98946">
        <ele>126.9</ele>
        <time>2021-06-03T15:15:11Z</time>
      </trkpt>
      <trkpt lat="48.5173" lon="1.98937">
        <ele>126.5</ele>
        <time>2021-06-03T15:15:13Z</time>
      </trkpt>
      <trkpt lat="48.51728" lon="1.98926">
        <ele>126.2</ele>
        <time>2021-06-03T15:15:15Z</time>
      </trkpt>
      <trkpt lat="48.51724" lon="1.98914">
        <ele>125.8</ele>
        <time>2021-06-03T15:15:17Z</time>
      </trkpt>
      <trkpt lat="48.51719" lon="1.98902">
        <ele>125.5</ele>
        <time>2021-06-03T15:15:19Z</time>
      </trkpt>
      <trkpt lat="48.51716" lon="1.98883">
        <ele>125.5</ele>
        <time>2021-06-03T15:15:21Z</time>
      </trkpt>
      <trkpt lat="48.51718" lon="1.98862">
        <ele>125.8</ele>
        <time>2021-06-03T15:15:23Z</time>
      </trkpt>
      <trkpt lat="48.51719" lon="1.98845">
        <ele>126</ele>
        <time>2021-06-03T15:15:25Z</time>
      </trkpt>
      <trkpt lat="48.51717" lon="1.98828">
        <ele>126.3</ele>
        <time>2021-06-03T15:15:27Z</time>
      </trkpt>
      <trkpt lat="48.51709" lon="1.98811">
        <ele>126.6</ele>
        <time>2021-06-03T15:15:29Z</time>
      </trkpt>
      <trkpt lat="48.51703" lon="1.98799">
        <ele>126.7</ele>
        <time>2021-06-03T15:15:31Z</time>
      </trkpt>
      <trkpt lat="48.51695" lon="1.98788">
        <ele>126.6</ele>
        <time>2021-06-03T15:15:33Z</time>
      </trkpt>
      <trkpt lat="48.51692" lon="1.98778">
        <ele>126.6</ele>
        <time>2021-06-03T15:15:35Z</time>
      </trkpt>
      <trkpt lat="48.51685" lon="1.98768">
        <ele>126.3</ele>
        <time>2021-06-03T15:15:37Z</time>
      </trkpt>
      <trkpt lat="48.5168" lon="1.98758">
        <ele>126.2</ele>
        <time>2021-06-03T15:15:39Z</time>
      </trkpt>
      <trkpt lat="48.51675" lon="1.98749">
        <ele>126</ele>
        <time>2021-06-03T15:15:41Z</time>
      </trkpt>
      <trkpt lat="48.51671" lon="1.98739">
        <ele>125.9</ele>
        <time>2021-06-03T15:15:43Z</time>
      </trkpt>
      <trkpt lat="48.51667" lon="1.9873">
        <ele>125.8</ele>
        <time>2021-06-03T15:15:45Z</time>
      </trkpt>
      <trkpt lat="48.51664" lon="1.98718">
        <ele>126.1</ele>
        <time>2021-06-03T15:15:47Z</time>
      </trkpt>
      <trkpt lat="48.51662" lon="1.98709">
        <ele>126.3</ele>
        <time>2021-06-03T15:15:49Z</time>
      </trkpt>
      <trkpt lat="48.51657" lon="1.98698">
        <ele>126.5</ele>
        <time>2021-06-03T15:15:51Z</time>
      </trkpt>
      <trkpt lat="48.51653" lon="1.98685">
        <ele>126.7</ele>
        <time>2021-06-03T15:15:53Z</time>
      </trkpt>
      <trkpt lat="48.5165" lon="1.98675">
        <ele>127</ele>
        <time>2021-06-03T15:15:55Z</time>
      </trkpt>
      <trkpt lat="48.51647" lon="1.98663">
        <ele>127.1</ele>
        <time>2021-06-03T15:15:57Z</time>
      </trkpt>
      <trkpt lat="48.51641" lon="1.98653">
        <ele>127</ele>
        <time>2021-06-03T15:15:59Z</time>
      </trkpt>
      <trkpt lat="48.51636" lon="1.98641">
        <ele>126.9</ele>
        <time>2021-06-03T15:16:01Z</time>
      </trkpt>
      <trkpt lat="48.51632" lon="1.9863">
        <ele>126.9</ele>
        <time>2021-06-03T15:16:03Z</time>
      </trkpt>
      <trkpt lat="48.51628" lon="1.98615">
        <ele>126.8</ele>
        <time>2021-06-03T15:16:05Z</time>
      </trkpt>
      <trkpt lat="48.51629" lon="1.98597">
        <ele>127.1</ele>
        <time>2021-06-03T15:16:07Z</time>
      </trkpt>
      <trkpt lat="48.51637" lon="1.98576">
        <ele>127.8</ele>
        <time>2021-06-03T15:16:09Z</time>
      </trkpt>
      <trkpt lat="48.51643" lon="1.98553">
        <ele>128.2</ele>
        <time>2021-06-03T15:16:11Z</time>
      </trkpt>
      <trkpt lat="48.51646" lon="1.98532">
        <ele>128.5</ele>
        <time>2021-06-03T15:16:13Z</time>
      </trkpt>
      <trkpt lat="48.5165" lon="1.98513">
        <ele>128.9</ele>
        <time>2021-06-03T15:16:15Z</time>
      </trkpt>
      <trkpt lat="48.51654" lon="1.98496">
        <ele>129.5</ele>
        <time>2021-06-03T15:16:17Z</time>
      </trkpt>
      <trkpt lat="48.51659" lon="1.9848">
        <ele>129.8</ele>
        <time>2021-06-03T15:16:19Z</time>
      </trkpt>
      <trkpt lat="48.51657" lon="1.98465">
        <ele>129.5</ele>
        <time>2021-06-03T15:16:21Z</time>
      </trkpt>
      <trkpt lat="48.51655" lon="1.98449">
        <ele>129.1</ele>
        <time>2021-06-03T15:16:23Z</time>
      </trkpt>
      <trkpt lat="48.51652" lon="1.98437">
        <ele>128.6</ele>
        <time>2021-06-03T15:16:25Z</time>
      </trkpt>
      <trkpt lat="48.51647" lon="1.98425">
        <ele>128</ele>
        <time>2021-06-03T15:16:27Z</time>
      </trkpt>
      <trkpt lat="48.51645" lon="1.98415">
        <ele>127.6</ele>
        <time>2021-06-03T15:16:29Z</time>
      </trkpt>
      <trkpt lat="48.51645" lon="1.98406">
        <ele>127.2</ele>
        <time>2021-06-03T15:16:31Z</time>
      </trkpt>
      <trkpt lat="48.51645" lon="1.98398">
        <ele>127</ele>
        <time>2021-06-03T15:16:33Z</time>
      </trkpt>
      <trkpt lat="48.51646" lon="1.98391">
        <ele>126.8</ele>
        <time>2021-06-03T15:16:35Z</time>
      </trkpt>
      <trkpt lat="48.51646" lon="1.98382">
        <ele>126.5</ele>
        <time>2021-06-03T15:16:37Z</time>
      </trkpt>
      <trkpt lat="48.51648" lon="1.98371">
        <ele>126.4</ele>
        <time>2021-06-03T15:16:41Z</time>
      </trkpt>
      <trkpt lat="48.51651" lon="1.98363">
        <ele>126.3</ele>
        <time>2021-06-03T15:16:45Z</time>
      </trkpt>
      <trkpt lat="48.51652" lon="1.98352">
        <ele>126.1</ele>
        <time>2021-06-03T15:16:49Z</time>
      </trkpt>
      <trkpt lat="48.51654" lon="1.98345">
        <ele>126</ele>
        <time>2021-06-03T15:16:51Z</time>
      </trkpt>
      <trkpt lat="48.51655" lon="1.98339">
        <ele>125.9</ele>
        <time>2021-06-03T15:16:53Z</time>
      </trkpt>
      <trkpt lat="48.51657" lon="1.9833">
        <ele>126</ele>
        <time>2021-06-03T15:16:55Z</time>
      </trkpt>
      <trkpt lat="48.51659" lon="1.98319">
        <ele>126.7</ele>
        <time>2021-06-03T15:16:57Z</time>
      </trkpt>
      <trkpt lat="48.51658" lon="1.98306">
        <ele>127</ele>
        <time>2021-06-03T15:16:59Z</time>
      </trkpt>
      <trkpt lat="48.51655" lon="1.98297">
        <ele>126.9</ele>
        <time>2021-06-03T15:17:01Z</time>
      </trkpt>
      <trkpt lat="48.51648" lon="1.98287">
        <ele>126.5</ele>
        <time>2021-06-03T15:17:03Z</time>
      </trkpt>
      <trkpt lat="48.5164" lon="1.98277">
        <ele>125.9</ele>
        <time>2021-06-03T15:17:05Z</time>
      </trkpt>
      <trkpt lat="48.51634" lon="1.98268">
        <ele>125.5</ele>
        <time>2021-06-03T15:17:07Z</time>
      </trkpt>
      <trkpt lat="48.51627" lon="1.98259">
        <ele>124.9</ele>
        <time>2021-06-03T15:17:09Z</time>
      </trkpt>
      <trkpt lat="48.51622" lon="1.98249">
        <ele>124.7</ele>
        <time>2021-06-03T15:17:11Z</time>
      </trkpt>
      <trkpt lat="48.51615" lon="1.98242">
        <ele>124.2</ele>
        <time>2021-06-03T15:17:13Z</time>
      </trkpt>
      <trkpt lat="48.51609" lon="1.98233">
        <ele>123.9</ele>
        <time>2021-06-03T15:17:15Z</time>
      </trkpt>
      <trkpt lat="48.51602" lon="1.98223">
        <ele>123.6</ele>
        <time>2021-06-03T15:17:17Z</time>
      </trkpt>
      <trkpt lat="48.51595" lon="1.98212">
        <ele>123.3</ele>
        <time>2021-06-03T15:17:19Z</time>
      </trkpt>
      <trkpt lat="48.51589" lon="1.98203">
        <ele>123</ele>
        <time>2021-06-03T15:17:21Z</time>
      </trkpt>
      <trkpt lat="48.51584" lon="1.98193">
        <ele>122.8</ele>
        <time>2021-06-03T15:17:23Z</time>
      </trkpt>
      <trkpt lat="48.51579" lon="1.98183">
        <ele>123.1</ele>
        <time>2021-06-03T15:17:25Z</time>
      </trkpt>
      <trkpt lat="48.51576" lon="1.98173">
        <ele>123.5</ele>
        <time>2021-06-03T15:17:27Z</time>
      </trkpt>
      <trkpt lat="48.51574" lon="1.98162">
        <ele>123.8</ele>
        <time>2021-06-03T15:17:29Z</time>
      </trkpt>
      <trkpt lat="48.51575" lon="1.9815">
        <ele>123.8</ele>
        <time>2021-06-03T15:17:31Z</time>
      </trkpt>
      <trkpt lat="48.51574" lon="1.98139">
        <ele>123.9</ele>
        <time>2021-06-03T15:17:33Z</time>
      </trkpt>
      <trkpt lat="48.51574" lon="1.98127">
        <ele>123.9</ele>
        <time>2021-06-03T15:17:35Z</time>
      </trkpt>
      <trkpt lat="48.51574" lon="1.98115">
        <ele>123.9</ele>
        <time>2021-06-03T15:17:37Z</time>
      </trkpt>
      <trkpt lat="48.51575" lon="1.98102">
        <ele>124</ele>
        <time>2021-06-03T15:17:39Z</time>
      </trkpt>
      <trkpt lat="48.51577" lon="1.98088">
        <ele>124</ele>
        <time>2021-06-03T15:17:41Z</time>
      </trkpt>
      <trkpt lat="48.51582" lon="1.98076">
        <ele>123.9</ele>
        <time>2021-06-03T15:17:43Z</time>
      </trkpt>
      <trkpt lat="48.51587" lon="1.98067">
        <ele>124.1</ele>
        <time>2021-06-03T15:17:45Z</time>
      </trkpt>
      <trkpt lat="48.51593" lon="1.9806">
        <ele>124.6</ele>
        <time>2021-06-03T15:17:47Z</time>
      </trkpt>
      <trkpt lat="48.516" lon="1.98054">
        <ele>125.1</ele>
        <time>2021-06-03T15:17:49Z</time>
      </trkpt>
      <trkpt lat="48.51606" lon="1.98047">
        <ele>125.7</ele>
        <time>2021-06-03T15:17:51Z</time>
      </trkpt>
      <trkpt lat="48.51613" lon="1.98039">
        <ele>126.4</ele>
        <time>2021-06-03T15:17:53Z</time>
      </trkpt>
      <trkpt lat="48.5162" lon="1.98031">
        <ele>127</ele>
        <time>2021-06-03T15:17:55Z</time>
      </trkpt>
      <trkpt lat="48.51626" lon="1.98023">
        <ele>127.6</ele>
        <time>2021-06-03T15:17:57Z</time>
      </trkpt>
      <trkpt lat="48.51632" lon="1.98014">
        <ele>128.2</ele>
        <time>2021-06-03T15:17:59Z</time>
      </trkpt>
      <trkpt lat="48.51633" lon="1.98002">
        <ele>128.3</ele>
        <time>2021-06-03T15:18:01Z</time>
      </trkpt>
      <trkpt lat="48.51635" lon="1.97987">
        <ele>128.9</ele>
        <time>2021-06-03T15:18:03Z</time>
      </trkpt>
      <trkpt lat="48.51633" lon="1.97973">
        <ele>129.2</ele>
        <time>2021-06-03T15:18:05Z</time>
      </trkpt>
      <trkpt lat="48.51631" lon="1.97962">
        <ele>129.4</ele>
        <time>2021-06-03T15:18:07Z</time>
      </trkpt>
      <trkpt lat="48.5163" lon="1.97949">
        <ele>129.7</ele>
        <time>2021-06-03T15:18:09Z</time>
      </trkpt>
      <trkpt lat="48.51632" lon="1.97941">
        <ele>130.1</ele>
        <time>2021-06-03T15:18:11Z</time>
      </trkpt>
      <trkpt lat="48.51637" lon="1.97931">
        <ele>130.9</ele>
        <time>2021-06-03T15:18:13Z</time>
      </trkpt>
      <trkpt lat="48.51637" lon="1.97918">
        <ele>131.4</ele>
        <time>2021-06-03T15:18:15Z</time>
      </trkpt>
      <trkpt lat="48.51637" lon="1.97905">
        <ele>131.6</ele>
        <time>2021-06-03T15:18:17Z</time>
      </trkpt>
      <trkpt lat="48.5164" lon="1.97894">
        <ele>132.2</ele>
        <time>2021-06-03T15:18:19Z</time>
      </trkpt>
      <trkpt lat="48.51639" lon="1.97882">
        <ele>132.2</ele>
        <time>2021-06-03T15:18:21Z</time>
      </trkpt>
      <trkpt lat="48.51636" lon="1.97869">
        <ele>132.1</ele>
        <time>2021-06-03T15:18:23Z</time>
      </trkpt>
      <trkpt lat="48.51633" lon="1.97855">
        <ele>131.9</ele>
        <time>2021-06-03T15:18:25Z</time>
      </trkpt>
      <trkpt lat="48.51631" lon="1.97841">
        <ele>132</ele>
        <time>2021-06-03T15:18:27Z</time>
      </trkpt>
      <trkpt lat="48.51626" lon="1.9783">
        <ele>131.6</ele>
        <time>2021-06-03T15:18:29Z</time>
      </trkpt>
      <trkpt lat="48.51622" lon="1.9782">
        <ele>131.2</ele>
        <time>2021-06-03T15:18:31Z</time>
      </trkpt>
      <trkpt lat="48.5162" lon="1.97808">
        <ele>131.1</ele>
        <time>2021-06-03T15:18:33Z</time>
      </trkpt>
      <trkpt lat="48.51618" lon="1.97801">
        <ele>130.9</ele>
        <time>2021-06-03T15:18:35Z</time>
      </trkpt>
      <trkpt lat="48.51619" lon="1.97793">
        <ele>131</ele>
        <time>2021-06-03T15:18:37Z</time>
      </trkpt>
      <trkpt lat="48.51617" lon="1.97785">
        <ele>130.9</ele>
        <time>2021-06-03T15:18:39Z</time>
      </trkpt>
      <trkpt lat="48.51616" lon="1.97776">
        <ele>130.8</ele>
        <time>2021-06-03T15:18:41Z</time>
      </trkpt>
      <trkpt lat="48.51615" lon="1.97767">
        <ele>130.8</ele>
        <time>2021-06-03T15:18:43Z</time>
      </trkpt>
      <trkpt lat="48.51612" lon="1.97757">
        <ele>130.7</ele>
        <time>2021-06-03T15:18:45Z</time>
      </trkpt>
      <trkpt lat="48.5161" lon="1.97748">
        <ele>130.7</ele>
        <time>2021-06-03T15:18:47Z</time>
      </trkpt>
      <trkpt lat="48.51607" lon="1.97738">
        <ele>130.7</ele>
        <time>2021-06-03T15:18:49Z</time>
      </trkpt>
      <trkpt lat="48.51606" lon="1.97727">
        <ele>130.9</ele>
        <time>2021-06-03T15:18:51Z</time>
      </trkpt>
      <trkpt lat="48.51603" lon="1.97717">
        <ele>130.9</ele>
        <time>2021-06-03T15:18:53Z</time>
      </trkpt>
      <trkpt lat="48.51601" lon="1.97707">
        <ele>131</ele>
        <time>2021-06-03T15:18:55Z</time>
      </trkpt>
      <trkpt lat="48.51601" lon="1.97692">
        <ele>131.4</ele>
        <time>2021-06-03T15:18:57Z</time>
      </trkpt>
      <trkpt lat="48.51601" lon="1.97679">
        <ele>131.7</ele>
        <time>2021-06-03T15:18:59Z</time>
      </trkpt>
      <trkpt lat="48.51602" lon="1.97666">
        <ele>132</ele>
        <time>2021-06-03T15:19:01Z</time>
      </trkpt>
      <trkpt lat="48.51602" lon="1.97653">
        <ele>132.2</ele>
        <time>2021-06-03T15:19:03Z</time>
      </trkpt>
      <trkpt lat="48.51603" lon="1.97641">
        <ele>132.5</ele>
        <time>2021-06-03T15:19:05Z</time>
      </trkpt>
      <trkpt lat="48.51602" lon="1.97629">
        <ele>132.5</ele>
        <time>2021-06-03T15:19:07Z</time>
      </trkpt>
      <trkpt lat="48.516" lon="1.97622">
        <ele>132.3</ele>
        <time>2021-06-03T15:19:09Z</time>
      </trkpt>
      <trkpt lat="48.51597" lon="1.97616">
        <ele>132.1</ele>
        <time>2021-06-03T15:19:11Z</time>
      </trkpt>
      <trkpt lat="48.51593" lon="1.97609">
        <ele>131.8</ele>
        <time>2021-06-03T15:19:13Z</time>
      </trkpt>
      <trkpt lat="48.51588" lon="1.97605">
        <ele>131.3</ele>
        <time>2021-06-03T15:19:19Z</time>
      </trkpt>
      <trkpt lat="48.5159" lon="1.97614">
        <ele>131.3</ele>
        <time>2021-06-03T15:20:59Z</time>
      </trkpt>
      <trkpt lat="48.51592" lon="1.97623">
        <ele>131.5</ele>
        <time>2021-06-03T15:21:03Z</time>
      </trkpt>
      <trkpt lat="48.51597" lon="1.97614">
        <ele>132.1</ele>
        <time>2021-06-03T15:21:07Z</time>
      </trkpt>
      <trkpt lat="48.51601" lon="1.97602">
        <ele>132.7</ele>
        <time>2021-06-03T15:21:11Z</time>
      </trkpt>
      <trkpt lat="48.51604" lon="1.97594">
        <ele>133.1</ele>
        <time>2021-06-03T15:21:13Z</time>
      </trkpt>
      <trkpt lat="48.51608" lon="1.97588">
        <ele>133.6</ele>
        <time>2021-06-03T15:21:15Z</time>
      </trkpt>
      <trkpt lat="48.51612" lon="1.97579">
        <ele>134</ele>
        <time>2021-06-03T15:21:17Z</time>
      </trkpt>
      <trkpt lat="48.51616" lon="1.97572">
        <ele>134.1</ele>
        <time>2021-06-03T15:21:19Z</time>
      </trkpt>
      <trkpt lat="48.5162" lon="1.97566">
        <ele>134.3</ele>
        <time>2021-06-03T15:21:21Z</time>
      </trkpt>
      <trkpt lat="48.51624" lon="1.97561">
        <ele>134.4</ele>
        <time>2021-06-03T15:21:23Z</time>
      </trkpt>
      <trkpt lat="48.51628" lon="1.97556">
        <ele>134.6</ele>
        <time>2021-06-03T15:21:25Z</time>
      </trkpt>
      <trkpt lat="48.51631" lon="1.97551">
        <ele>134.6</ele>
        <time>2021-06-03T15:21:27Z</time>
      </trkpt>
      <trkpt lat="48.51635" lon="1.97545">
        <ele>134.6</ele>
        <time>2021-06-03T15:21:29Z</time>
      </trkpt>
      <trkpt lat="48.51637" lon="1.97538">
        <ele>134.5</ele>
        <time>2021-06-03T15:21:31Z</time>
      </trkpt>
      <trkpt lat="48.5164" lon="1.9753">
        <ele>134.3</ele>
        <time>2021-06-03T15:21:33Z</time>
      </trkpt>
      <trkpt lat="48.51644" lon="1.97519">
        <ele>134</ele>
        <time>2021-06-03T15:21:37Z</time>
      </trkpt>
      <trkpt lat="48.51648" lon="1.9751">
        <ele>133.6</ele>
        <time>2021-06-03T15:21:41Z</time>
      </trkpt>
      <trkpt lat="48.51653" lon="1.97504">
        <ele>133.6</ele>
        <time>2021-06-03T15:21:45Z</time>
      </trkpt>
      <trkpt lat="48.51659" lon="1.97494">
        <ele>133.6</ele>
        <time>2021-06-03T15:21:49Z</time>
      </trkpt>
      <trkpt lat="48.51663" lon="1.97491">
        <ele>133.7</ele>
        <time>2021-06-03T15:21:51Z</time>
      </trkpt>
      <trkpt lat="48.5167" lon="1.97487">
        <ele>134.2</ele>
        <time>2021-06-03T15:21:53Z</time>
      </trkpt>
      <trkpt lat="48.51674" lon="1.97482">
        <ele>134.5</ele>
        <time>2021-06-03T15:21:55Z</time>
      </trkpt>
      <trkpt lat="48.5168" lon="1.97471">
        <ele>134.9</ele>
        <time>2021-06-03T15:21:59Z</time>
      </trkpt>
      <trkpt lat="48.51682" lon="1.97464">
        <ele>135.1</ele>
        <time>2021-06-03T15:22:01Z</time>
      </trkpt>
      <trkpt lat="48.51688" lon="1.97452">
        <ele>135.4</ele>
        <time>2021-06-03T15:22:05Z</time>
      </trkpt>
      <trkpt lat="48.51693" lon="1.97438">
        <ele>135.7</ele>
        <time>2021-06-03T15:22:09Z</time>
      </trkpt>
      <trkpt lat="48.51697" lon="1.9743">
        <ele>136.1</ele>
        <time>2021-06-03T15:22:11Z</time>
      </trkpt>
      <trkpt lat="48.517" lon="1.97424">
        <ele>136.3</ele>
        <time>2021-06-03T15:22:13Z</time>
      </trkpt>
      <trkpt lat="48.51703" lon="1.97412">
        <ele>136.7</ele>
        <time>2021-06-03T15:22:17Z</time>
      </trkpt>
      <trkpt lat="48.51705" lon="1.97405">
        <ele>137.1</ele>
        <time>2021-06-03T15:22:19Z</time>
      </trkpt>
      <trkpt lat="48.51707" lon="1.97398">
        <ele>137.6</ele>
        <time>2021-06-03T15:22:21Z</time>
      </trkpt>
      <trkpt lat="48.51711" lon="1.97392">
        <ele>138.1</ele>
        <time>2021-06-03T15:22:23Z</time>
      </trkpt>
      <trkpt lat="48.51714" lon="1.97384">
        <ele>138.6</ele>
        <time>2021-06-03T15:22:25Z</time>
      </trkpt>
      <trkpt lat="48.51717" lon="1.97377">
        <ele>139.1</ele>
        <time>2021-06-03T15:22:27Z</time>
      </trkpt>
      <trkpt lat="48.51722" lon="1.97366">
        <ele>139.7</ele>
        <time>2021-06-03T15:22:31Z</time>
      </trkpt>
      <trkpt lat="48.51724" lon="1.97359">
        <ele>140</ele>
        <time>2021-06-03T15:22:33Z</time>
      </trkpt>
      <trkpt lat="48.51726" lon="1.97353">
        <ele>140.3</ele>
        <time>2021-06-03T15:22:35Z</time>
      </trkpt>
      <trkpt lat="48.51729" lon="1.97346">
        <ele>140.7</ele>
        <time>2021-06-03T15:22:37Z</time>
      </trkpt>
      <trkpt lat="48.51732" lon="1.97339">
        <ele>141</ele>
        <time>2021-06-03T15:22:39Z</time>
      </trkpt>
      <trkpt lat="48.51737" lon="1.97328">
        <ele>141.7</ele>
        <time>2021-06-03T15:22:43Z</time>
      </trkpt>
      <trkpt lat="48.51739" lon="1.97321">
        <ele>142.3</ele>
        <time>2021-06-03T15:22:45Z</time>
      </trkpt>
      <trkpt lat="48.51745" lon="1.97313">
        <ele>143.1</ele>
        <time>2021-06-03T15:22:49Z</time>
      </trkpt>
      <trkpt lat="48.51749" lon="1.97305">
        <ele>143.7</ele>
        <time>2021-06-03T15:22:51Z</time>
      </trkpt>
      <trkpt lat="48.51752" lon="1.97298">
        <ele>144.3</ele>
        <time>2021-06-03T15:22:53Z</time>
      </trkpt>
      <trkpt lat="48.51755" lon="1.97292">
        <ele>145.1</ele>
        <time>2021-06-03T15:22:55Z</time>
      </trkpt>
      <trkpt lat="48.51758" lon="1.97284">
        <ele>145.8</ele>
        <time>2021-06-03T15:22:57Z</time>
      </trkpt>
      <trkpt lat="48.51761" lon="1.97278">
        <ele>146.4</ele>
        <time>2021-06-03T15:22:59Z</time>
      </trkpt>
      <trkpt lat="48.51763" lon="1.97271">
        <ele>146.9</ele>
        <time>2021-06-03T15:23:01Z</time>
      </trkpt>
      <trkpt lat="48.51765" lon="1.97259">
        <ele>147.6</ele>
        <time>2021-06-03T15:23:05Z</time>
      </trkpt>
      <trkpt lat="48.51767" lon="1.97252">
        <ele>148.1</ele>
        <time>2021-06-03T15:23:09Z</time>
      </trkpt>
      <trkpt lat="48.51771" lon="1.97247">
        <ele>148.7</ele>
        <time>2021-06-03T15:23:11Z</time>
      </trkpt>
      <trkpt lat="48.51774" lon="1.97238">
        <ele>149.7</ele>
        <time>2021-06-03T15:23:15Z</time>
      </trkpt>
      <trkpt lat="48.51776" lon="1.97229">
        <ele>150.6</ele>
        <time>2021-06-03T15:23:19Z</time>
      </trkpt>
      <trkpt lat="48.51779" lon="1.9722">
        <ele>151.4</ele>
        <time>2021-06-03T15:23:23Z</time>
      </trkpt>
      <trkpt lat="48.51783" lon="1.97211">
        <ele>152.3</ele>
        <time>2021-06-03T15:23:27Z</time>
      </trkpt>
      <trkpt lat="48.51784" lon="1.97205">
        <ele>152.9</ele>
        <time>2021-06-03T15:23:31Z</time>
      </trkpt>
      <trkpt lat="48.51788" lon="1.97199">
        <ele>153.5</ele>
        <time>2021-06-03T15:23:35Z</time>
      </trkpt>
      <trkpt lat="48.51791" lon="1.97192">
        <ele>154.2</ele>
        <time>2021-06-03T15:23:39Z</time>
      </trkpt>
      <trkpt lat="48.51793" lon="1.97184">
        <ele>154.8</ele>
        <time>2021-06-03T15:23:43Z</time>
      </trkpt>
      <trkpt lat="48.51794" lon="1.97177">
        <ele>155.4</ele>
        <time>2021-06-03T15:23:47Z</time>
      </trkpt>
      <trkpt lat="48.51797" lon="1.97168">
        <ele>156</ele>
        <time>2021-06-03T15:23:53Z</time>
      </trkpt>
      <trkpt lat="48.51801" lon="1.97164">
        <ele>156.4</ele>
        <time>2021-06-03T15:23:57Z</time>
      </trkpt>
      <trkpt lat="48.51805" lon="1.9716">
        <ele>156.7</ele>
        <time>2021-06-03T15:24:03Z</time>
      </trkpt>
      <trkpt lat="48.5181" lon="1.97155">
        <ele>157.2</ele>
        <time>2021-06-03T15:24:07Z</time>
      </trkpt>
      <trkpt lat="48.51815" lon="1.97149">
        <ele>157.7</ele>
        <time>2021-06-03T15:24:13Z</time>
      </trkpt>
      <trkpt lat="48.51819" lon="1.97146">
        <ele>157.9</ele>
        <time>2021-06-03T15:24:17Z</time>
      </trkpt>
      <trkpt lat="48.51823" lon="1.97143">
        <ele>158.2</ele>
        <time>2021-06-03T15:24:21Z</time>
      </trkpt>
      <trkpt lat="48.51828" lon="1.97139">
        <ele>158.6</ele>
        <time>2021-06-03T15:24:25Z</time>
      </trkpt>
      <trkpt lat="48.51833" lon="1.97135">
        <ele>158.9</ele>
        <time>2021-06-03T15:24:31Z</time>
      </trkpt>
      <trkpt lat="48.51838" lon="1.97131">
        <ele>159.2</ele>
        <time>2021-06-03T15:24:35Z</time>
      </trkpt>
      <trkpt lat="48.51845" lon="1.97127">
        <ele>159.6</ele>
        <time>2021-06-03T15:24:39Z</time>
      </trkpt>
      <trkpt lat="48.51853" lon="1.97124">
        <ele>159.9</ele>
        <time>2021-06-03T15:24:43Z</time>
      </trkpt>
      <trkpt lat="48.51859" lon="1.9712">
        <ele>160.2</ele>
        <time>2021-06-03T15:24:47Z</time>
      </trkpt>
      <trkpt lat="48.51866" lon="1.97116">
        <ele>160.5</ele>
        <time>2021-06-03T15:24:51Z</time>
      </trkpt>
      <trkpt lat="48.51873" lon="1.9711">
        <ele>160.9</ele>
        <time>2021-06-03T15:24:55Z</time>
      </trkpt>
      <trkpt lat="48.51877" lon="1.97107">
        <ele>161</ele>
        <time>2021-06-03T15:24:57Z</time>
      </trkpt>
      <trkpt lat="48.51884" lon="1.97101">
        <ele>161.3</ele>
        <time>2021-06-03T15:25:01Z</time>
      </trkpt>
      <trkpt lat="48.51889" lon="1.97099">
        <ele>161.4</ele>
        <time>2021-06-03T15:25:03Z</time>
      </trkpt>
      <trkpt lat="48.51897" lon="1.97093">
        <ele>161.7</ele>
        <time>2021-06-03T15:25:07Z</time>
      </trkpt>
      <trkpt lat="48.51905" lon="1.9709">
        <ele>161.8</ele>
        <time>2021-06-03T15:25:11Z</time>
      </trkpt>
      <trkpt lat="48.5191" lon="1.97088">
        <ele>161.9</ele>
        <time>2021-06-03T15:25:15Z</time>
      </trkpt>
      <trkpt lat="48.51916" lon="1.97091">
        <ele>161.8</ele>
        <time>2021-06-03T15:25:39Z</time>
      </trkpt>
      <trkpt lat="48.51921" lon="1.97085">
        <ele>162</ele>
        <time>2021-06-03T15:25:49Z</time>
      </trkpt>
      <trkpt lat="48.51921" lon="1.97076">
        <ele>162.3</ele>
        <time>2021-06-03T15:25:53Z</time>
      </trkpt>
      <trkpt lat="48.51925" lon="1.97066">
        <ele>162.6</ele>
        <time>2021-06-03T15:26:41Z</time>
      </trkpt>
      <trkpt lat="48.51928" lon="1.9706">
        <ele>162.7</ele>
        <time>2021-06-03T15:26:43Z</time>
      </trkpt>
      <trkpt lat="48.51932" lon="1.97055">
        <ele>162.8</ele>
        <time>2021-06-03T15:26:45Z</time>
      </trkpt>
      <trkpt lat="48.51936" lon="1.97045">
        <ele>163.1</ele>
        <time>2021-06-03T15:26:47Z</time>
      </trkpt>
      <trkpt lat="48.5194" lon="1.97035">
        <ele>163.2</ele>
        <time>2021-06-03T15:26:49Z</time>
      </trkpt>
      <trkpt lat="48.51943" lon="1.97025">
        <ele>163.4</ele>
        <time>2021-06-03T15:26:51Z</time>
      </trkpt>
      <trkpt lat="48.51946" lon="1.97014">
        <ele>163.6</ele>
        <time>2021-06-03T15:26:53Z</time>
      </trkpt>
      <trkpt lat="48.5195" lon="1.97005">
        <ele>163.7</ele>
        <time>2021-06-03T15:26:55Z</time>
      </trkpt>
      <trkpt lat="48.51955" lon="1.96995">
        <ele>163.6</ele>
        <time>2021-06-03T15:26:57Z</time>
      </trkpt>
      <trkpt lat="48.51959" lon="1.96982">
        <ele>163.4</ele>
        <time>2021-06-03T15:26:59Z</time>
      </trkpt>
      <trkpt lat="48.51963" lon="1.9697">
        <ele>163.2</ele>
        <time>2021-06-03T15:27:01Z</time>
      </trkpt>
      <trkpt lat="48.51968" lon="1.96956">
        <ele>162.9</ele>
        <time>2021-06-03T15:27:03Z</time>
      </trkpt>
      <trkpt lat="48.51972" lon="1.96943">
        <ele>162.8</ele>
        <time>2021-06-03T15:27:05Z</time>
      </trkpt>
      <trkpt lat="48.51975" lon="1.9693">
        <ele>162.6</ele>
        <time>2021-06-03T15:27:07Z</time>
      </trkpt>
      <trkpt lat="48.51979" lon="1.96917">
        <ele>162.5</ele>
        <time>2021-06-03T15:27:09Z</time>
      </trkpt>
      <trkpt lat="48.51983" lon="1.96906">
        <ele>162.7</ele>
        <time>2021-06-03T15:27:11Z</time>
      </trkpt>
      <trkpt lat="48.51987" lon="1.96893">
        <ele>162.9</ele>
        <time>2021-06-03T15:27:13Z</time>
      </trkpt>
      <trkpt lat="48.51992" lon="1.96881">
        <ele>163.1</ele>
        <time>2021-06-03T15:27:15Z</time>
      </trkpt>
      <trkpt lat="48.51995" lon="1.9687">
        <ele>163.2</ele>
        <time>2021-06-03T15:27:17Z</time>
      </trkpt>
      <trkpt lat="48.51998" lon="1.96859">
        <ele>163.4</ele>
        <time>2021-06-03T15:27:19Z</time>
      </trkpt>
      <trkpt lat="48.52002" lon="1.96848">
        <ele>163.6</ele>
        <time>2021-06-03T15:27:21Z</time>
      </trkpt>
      <trkpt lat="48.52007" lon="1.96838">
        <ele>163.8</ele>
        <time>2021-06-03T15:27:23Z</time>
      </trkpt>
      <trkpt lat="48.52012" lon="1.96827">
        <ele>163.9</ele>
        <time>2021-06-03T15:27:25Z</time>
      </trkpt>
      <trkpt lat="48.52016" lon="1.96814">
        <ele>163.8</ele>
        <time>2021-06-03T15:27:27Z</time>
      </trkpt>
      <trkpt lat="48.52021" lon="1.96803">
        <ele>163.8</ele>
        <time>2021-06-03T15:27:29Z</time>
      </trkpt>
      <trkpt lat="48.52025" lon="1.96794">
        <ele>163.7</ele>
        <time>2021-06-03T15:27:31Z</time>
      </trkpt>
      <trkpt lat="48.52028" lon="1.96782">
        <ele>163.7</ele>
        <time>2021-06-03T15:27:33Z</time>
      </trkpt>
      <trkpt lat="48.52031" lon="1.9677">
        <ele>163.6</ele>
        <time>2021-06-03T15:27:35Z</time>
      </trkpt>
      <trkpt lat="48.52035" lon="1.96758">
        <ele>163.6</ele>
        <time>2021-06-03T15:27:37Z</time>
      </trkpt>
      <trkpt lat="48.52039" lon="1.96748">
        <ele>163.5</ele>
        <time>2021-06-03T15:27:39Z</time>
      </trkpt>
      <trkpt lat="48.52043" lon="1.96735">
        <ele>163.5</ele>
        <time>2021-06-03T15:27:41Z</time>
      </trkpt>
      <trkpt lat="48.52047" lon="1.96726">
        <ele>163.4</ele>
        <time>2021-06-03T15:27:43Z</time>
      </trkpt>
      <trkpt lat="48.52051" lon="1.96715">
        <ele>163.4</ele>
        <time>2021-06-03T15:27:45Z</time>
      </trkpt>
      <trkpt lat="48.52056" lon="1.96705">
        <ele>163.3</ele>
        <time>2021-06-03T15:27:47Z</time>
      </trkpt>
      <trkpt lat="48.52058" lon="1.96695">
        <ele>163.3</ele>
        <time>2021-06-03T15:27:49Z</time>
      </trkpt>
      <trkpt lat="48.52062" lon="1.96686">
        <ele>163.3</ele>
        <time>2021-06-03T15:27:51Z</time>
      </trkpt>
      <trkpt lat="48.52065" lon="1.96676">
        <ele>163.2</ele>
        <time>2021-06-03T15:27:53Z</time>
      </trkpt>
      <trkpt lat="48.52068" lon="1.96666">
        <ele>163.2</ele>
        <time>2021-06-03T15:27:55Z</time>
      </trkpt>
      <trkpt lat="48.52071" lon="1.96655">
        <ele>163.3</ele>
        <time>2021-06-03T15:27:57Z</time>
      </trkpt>
      <trkpt lat="48.52074" lon="1.96642">
        <ele>163.4</ele>
        <time>2021-06-03T15:27:59Z</time>
      </trkpt>
      <trkpt lat="48.52079" lon="1.96632">
        <ele>163.5</ele>
        <time>2021-06-03T15:28:01Z</time>
      </trkpt>
      <trkpt lat="48.52083" lon="1.96621">
        <ele>163.5</ele>
        <time>2021-06-03T15:28:03Z</time>
      </trkpt>
      <trkpt lat="48.52087" lon="1.96611">
        <ele>163.7</ele>
        <time>2021-06-03T15:28:05Z</time>
      </trkpt>
      <trkpt lat="48.5209" lon="1.96601">
        <ele>163.9</ele>
        <time>2021-06-03T15:28:07Z</time>
      </trkpt>
      <trkpt lat="48.52093" lon="1.96592">
        <ele>164</ele>
        <time>2021-06-03T15:28:09Z</time>
      </trkpt>
      <trkpt lat="48.52097" lon="1.96582">
        <ele>164.2</ele>
        <time>2021-06-03T15:28:11Z</time>
      </trkpt>
      <trkpt lat="48.52102" lon="1.96571">
        <ele>164.3</ele>
        <time>2021-06-03T15:28:13Z</time>
      </trkpt>
      <trkpt lat="48.52107" lon="1.96557">
        <ele>164.5</ele>
        <time>2021-06-03T15:28:15Z</time>
      </trkpt>
      <trkpt lat="48.52111" lon="1.96543">
        <ele>164.7</ele>
        <time>2021-06-03T15:28:17Z</time>
      </trkpt>
      <trkpt lat="48.52116" lon="1.96528">
        <ele>164.8</ele>
        <time>2021-06-03T15:28:19Z</time>
      </trkpt>
      <trkpt lat="48.52123" lon="1.96513">
        <ele>164.9</ele>
        <time>2021-06-03T15:28:21Z</time>
      </trkpt>
      <trkpt lat="48.52129" lon="1.96498">
        <ele>165</ele>
        <time>2021-06-03T15:28:23Z</time>
      </trkpt>
      <trkpt lat="48.52135" lon="1.9648">
        <ele>165.2</ele>
        <time>2021-06-03T15:28:25Z</time>
      </trkpt>
      <trkpt lat="48.52141" lon="1.96463">
        <ele>165.4</ele>
        <time>2021-06-03T15:28:27Z</time>
      </trkpt>
      <trkpt lat="48.52148" lon="1.96449">
        <ele>165.6</ele>
        <time>2021-06-03T15:28:29Z</time>
      </trkpt>
      <trkpt lat="48.52156" lon="1.96436">
        <ele>165.8</ele>
        <time>2021-06-03T15:28:31Z</time>
      </trkpt>
      <trkpt lat="48.52164" lon="1.96427">
        <ele>165.9</ele>
        <time>2021-06-03T15:28:33Z</time>
      </trkpt>
      <trkpt lat="48.52173" lon="1.96418">
        <ele>165.7</ele>
        <time>2021-06-03T15:28:35Z</time>
      </trkpt>
      <trkpt lat="48.52185" lon="1.9641">
        <ele>165.4</ele>
        <time>2021-06-03T15:28:37Z</time>
      </trkpt>
      <trkpt lat="48.52194" lon="1.96403">
        <ele>165.2</ele>
        <time>2021-06-03T15:28:39Z</time>
      </trkpt>
      <trkpt lat="48.522" lon="1.96394">
        <ele>165.2</ele>
        <time>2021-06-03T15:28:41Z</time>
      </trkpt>
      <trkpt lat="48.52206" lon="1.96386">
        <ele>165.1</ele>
        <time>2021-06-03T15:28:43Z</time>
      </trkpt>
      <trkpt lat="48.52213" lon="1.96379">
        <ele>165</ele>
        <time>2021-06-03T15:28:45Z</time>
      </trkpt>
      <trkpt lat="48.52221" lon="1.96373">
        <ele>164.9</ele>
        <time>2021-06-03T15:28:47Z</time>
      </trkpt>
      <trkpt lat="48.52229" lon="1.96366">
        <ele>164.8</ele>
        <time>2021-06-03T15:28:49Z</time>
      </trkpt>
      <trkpt lat="48.52237" lon="1.96358">
        <ele>164.8</ele>
        <time>2021-06-03T15:28:51Z</time>
      </trkpt>
      <trkpt lat="48.52244" lon="1.96351">
        <ele>164.7</ele>
        <time>2021-06-03T15:28:53Z</time>
      </trkpt>
      <trkpt lat="48.52252" lon="1.96341">
        <ele>164.7</ele>
        <time>2021-06-03T15:28:55Z</time>
      </trkpt>
      <trkpt lat="48.52259" lon="1.96333">
        <ele>164.7</ele>
        <time>2021-06-03T15:28:57Z</time>
      </trkpt>
      <trkpt lat="48.52269" lon="1.96325">
        <ele>164.5</ele>
        <time>2021-06-03T15:28:59Z</time>
      </trkpt>
      <trkpt lat="48.52277" lon="1.96317">
        <ele>164.3</ele>
        <time>2021-06-03T15:29:01Z</time>
      </trkpt>
      <trkpt lat="48.52287" lon="1.96309">
        <ele>164.1</ele>
        <time>2021-06-03T15:29:03Z</time>
      </trkpt>
      <trkpt lat="48.52298" lon="1.96301">
        <ele>163.8</ele>
        <time>2021-06-03T15:29:05Z</time>
      </trkpt>
      <trkpt lat="48.52307" lon="1.96292">
        <ele>163.6</ele>
        <time>2021-06-03T15:29:07Z</time>
      </trkpt>
      <trkpt lat="48.52316" lon="1.96282">
        <ele>163.4</ele>
        <time>2021-06-03T15:29:09Z</time>
      </trkpt>
      <trkpt lat="48.52327" lon="1.96274">
        <ele>163</ele>
        <time>2021-06-03T15:29:11Z</time>
      </trkpt>
      <trkpt lat="48.52334" lon="1.96265">
        <ele>162.8</ele>
        <time>2021-06-03T15:29:13Z</time>
      </trkpt>
      <trkpt lat="48.52343" lon="1.96257">
        <ele>162.3</ele>
        <time>2021-06-03T15:29:15Z</time>
      </trkpt>
      <trkpt lat="48.52353" lon="1.96252">
        <ele>161.8</ele>
        <time>2021-06-03T15:29:17Z</time>
      </trkpt>
      <trkpt lat="48.52358" lon="1.96244">
        <ele>161.3</ele>
        <time>2021-06-03T15:29:19Z</time>
      </trkpt>
      <trkpt lat="48.52366" lon="1.9624">
        <ele>160.7</ele>
        <time>2021-06-03T15:29:21Z</time>
      </trkpt>
      <trkpt lat="48.52371" lon="1.96236">
        <ele>160.3</ele>
        <time>2021-06-03T15:29:23Z</time>
      </trkpt>
      <trkpt lat="48.52376" lon="1.96229">
        <ele>159.7</ele>
        <time>2021-06-03T15:29:27Z</time>
      </trkpt>
      <trkpt lat="48.52373" lon="1.96223">
        <ele>159.7</ele>
        <time>2021-06-03T15:29:31Z</time>
      </trkpt>
      <trkpt lat="48.52365" lon="1.96218">
        <ele>160</ele>
        <time>2021-06-03T15:29:35Z</time>
      </trkpt>
      <trkpt lat="48.52361" lon="1.96213">
        <ele>160.2</ele>
        <time>2021-06-03T15:29:37Z</time>
      </trkpt>
      <trkpt lat="48.52363" lon="1.96204">
        <ele>159.7</ele>
        <time>2021-06-03T15:29:39Z</time>
      </trkpt>
      <trkpt lat="48.52366" lon="1.96198">
        <ele>159.3</ele>
        <time>2021-06-03T15:29:41Z</time>
      </trkpt>
      <trkpt lat="48.5237" lon="1.96185">
        <ele>158.6</ele>
        <time>2021-06-03T15:29:45Z</time>
      </trkpt>
      <trkpt lat="48.52372" lon="1.96177">
        <ele>158.1</ele>
        <time>2021-06-03T15:29:47Z</time>
      </trkpt>
      <trkpt lat="48.5237" lon="1.96167">
        <ele>157.9</ele>
        <time>2021-06-03T15:29:51Z</time>
      </trkpt>
      <trkpt lat="48.52381" lon="1.96161">
        <ele>156.8</ele>
        <time>2021-06-03T15:29:55Z</time>
      </trkpt>
      <trkpt lat="48.52386" lon="1.96155">
        <ele>156.1</ele>
        <time>2021-06-03T15:29:57Z</time>
      </trkpt>
      <trkpt lat="48.52396" lon="1.9615">
        <ele>155</ele>
        <time>2021-06-03T15:29:59Z</time>
      </trkpt>
      <trkpt lat="48.524" lon="1.96144">
        <ele>154.4</ele>
        <time>2021-06-03T15:30:01Z</time>
      </trkpt>
      <trkpt lat="48.52402" lon="1.96131">
        <ele>153.7</ele>
        <time>2021-06-03T15:30:05Z</time>
      </trkpt>
      <trkpt lat="48.52402" lon="1.96123">
        <ele>153.3</ele>
        <time>2021-06-03T15:30:07Z</time>
      </trkpt>
      <trkpt lat="48.52401" lon="1.96116">
        <ele>153.1</ele>
        <time>2021-06-03T15:30:09Z</time>
      </trkpt>
      <trkpt lat="48.52397" lon="1.96109">
        <ele>153.2</ele>
        <time>2021-06-03T15:30:13Z</time>
      </trkpt>
      <trkpt lat="48.524" lon="1.96116">
        <ele>153.2</ele>
        <time>2021-06-03T15:30:33Z</time>
      </trkpt>
      <trkpt lat="48.52401" lon="1.96129">
        <ele>153.7</ele>
        <time>2021-06-03T15:30:37Z</time>
      </trkpt>
      <trkpt lat="48.524" lon="1.96138">
        <ele>154.2</ele>
        <time>2021-06-03T15:30:39Z</time>
      </trkpt>
      <trkpt lat="48.52397" lon="1.96144">
        <ele>154.7</ele>
        <time>2021-06-03T15:30:41Z</time>
      </trkpt>
      <trkpt lat="48.524" lon="1.9615">
        <ele>154.7</ele>
        <time>2021-06-03T15:30:43Z</time>
      </trkpt>
      <trkpt lat="48.52406" lon="1.96155">
        <ele>154.4</ele>
        <time>2021-06-03T15:30:45Z</time>
      </trkpt>
      <trkpt lat="48.52413" lon="1.96159">
        <ele>153.9</ele>
        <time>2021-06-03T15:30:47Z</time>
      </trkpt>
      <trkpt lat="48.52423" lon="1.96163">
        <ele>152.7</ele>
        <time>2021-06-03T15:30:49Z</time>
      </trkpt>
      <trkpt lat="48.52431" lon="1.96165">
        <ele>151.5</ele>
        <time>2021-06-03T15:30:51Z</time>
      </trkpt>
      <trkpt lat="48.52437" lon="1.96163">
        <ele>150.4</ele>
        <time>2021-06-03T15:30:53Z</time>
      </trkpt>
      <trkpt lat="48.52446" lon="1.96167">
        <ele>149</ele>
        <time>2021-06-03T15:30:55Z</time>
      </trkpt>
      <trkpt lat="48.52455" lon="1.96162">
        <ele>147.3</ele>
        <time>2021-06-03T15:30:57Z</time>
      </trkpt>
      <trkpt lat="48.52461" lon="1.96153">
        <ele>145.8</ele>
        <time>2021-06-03T15:30:59Z</time>
      </trkpt>
      <trkpt lat="48.52463" lon="1.96141">
        <ele>144.6</ele>
        <time>2021-06-03T15:31:01Z</time>
      </trkpt>
      <trkpt lat="48.52473" lon="1.96126">
        <ele>142</ele>
        <time>2021-06-03T15:31:03Z</time>
      </trkpt>
      <trkpt lat="48.52481" lon="1.96105">
        <ele>139.1</ele>
        <time>2021-06-03T15:31:05Z</time>
      </trkpt>
      <trkpt lat="48.52488" lon="1.96089">
        <ele>136.7</ele>
        <time>2021-06-03T15:31:07Z</time>
      </trkpt>
      <trkpt lat="48.52489" lon="1.96072">
        <ele>135.3</ele>
        <time>2021-06-03T15:31:09Z</time>
      </trkpt>
      <trkpt lat="48.52496" lon="1.96055">
        <ele>132.7</ele>
        <time>2021-06-03T15:31:11Z</time>
      </trkpt>
      <trkpt lat="48.52501" lon="1.96038">
        <ele>130.7</ele>
        <time>2021-06-03T15:31:13Z</time>
      </trkpt>
      <trkpt lat="48.52507" lon="1.96021">
        <ele>129.2</ele>
        <time>2021-06-03T15:31:15Z</time>
      </trkpt>
      <trkpt lat="48.52513" lon="1.96003">
        <ele>127.6</ele>
        <time>2021-06-03T15:31:17Z</time>
      </trkpt>
      <trkpt lat="48.52524" lon="1.95985">
        <ele>126</ele>
        <time>2021-06-03T15:31:19Z</time>
      </trkpt>
      <trkpt lat="48.52528" lon="1.95963">
        <ele>124.6</ele>
        <time>2021-06-03T15:31:21Z</time>
      </trkpt>
      <trkpt lat="48.52535" lon="1.95943">
        <ele>123</ele>
        <time>2021-06-03T15:31:23Z</time>
      </trkpt>
      <trkpt lat="48.52543" lon="1.95931">
        <ele>121.8</ele>
        <time>2021-06-03T15:31:25Z</time>
      </trkpt>
      <trkpt lat="48.52553" lon="1.95925">
        <ele>120.7</ele>
        <time>2021-06-03T15:31:27Z</time>
      </trkpt>
      <trkpt lat="48.52565" lon="1.95919">
        <ele>119.5</ele>
        <time>2021-06-03T15:31:29Z</time>
      </trkpt>
      <trkpt lat="48.52576" lon="1.95909">
        <ele>118.2</ele>
        <time>2021-06-03T15:31:31Z</time>
      </trkpt>
      <trkpt lat="48.52582" lon="1.95903">
        <ele>117.6</ele>
        <time>2021-06-03T15:31:33Z</time>
      </trkpt>
      <trkpt lat="48.52585" lon="1.95908">
        <ele>117.6</ele>
        <time>2021-06-03T15:31:39Z</time>
      </trkpt>
      <trkpt lat="48.52583" lon="1.959">
        <ele>117.4</ele>
        <time>2021-06-03T15:32:05Z</time>
      </trkpt>
      <trkpt lat="48.52582" lon="1.95892">
        <ele>117.2</ele>
        <time>2021-06-03T15:32:07Z</time>
      </trkpt>
      <trkpt lat="48.52579" lon="1.95882">
        <ele>117.1</ele>
        <time>2021-06-03T15:32:09Z</time>
      </trkpt>
      <trkpt lat="48.52576" lon="1.95872">
        <ele>116.9</ele>
        <time>2021-06-03T15:32:11Z</time>
      </trkpt>
      <trkpt lat="48.52574" lon="1.95866">
        <ele>116.8</ele>
        <time>2021-06-03T15:32:13Z</time>
      </trkpt>
      <trkpt lat="48.52572" lon="1.95859">
        <ele>116.8</ele>
        <time>2021-06-03T15:32:15Z</time>
      </trkpt>
      <trkpt lat="48.52568" lon="1.95849">
        <ele>116.7</ele>
        <time>2021-06-03T15:32:19Z</time>
      </trkpt>
      <trkpt lat="48.52564" lon="1.95844">
        <ele>116.8</ele>
        <time>2021-06-03T15:32:21Z</time>
      </trkpt>
      <trkpt lat="48.5256" lon="1.95838">
        <ele>116.9</ele>
        <time>2021-06-03T15:32:23Z</time>
      </trkpt>
      <trkpt lat="48.52556" lon="1.95832">
        <ele>116.9</ele>
        <time>2021-06-03T15:32:25Z</time>
      </trkpt>
      <trkpt lat="48.52552" lon="1.95826">
        <ele>117.1</ele>
        <time>2021-06-03T15:32:27Z</time>
      </trkpt>
      <trkpt lat="48.52549" lon="1.95818">
        <ele>117.3</ele>
        <time>2021-06-03T15:32:29Z</time>
      </trkpt>
      <trkpt lat="48.52545" lon="1.95811">
        <ele>117.4</ele>
        <time>2021-06-03T15:32:31Z</time>
      </trkpt>
      <trkpt lat="48.52542" lon="1.95804">
        <ele>117.5</ele>
        <time>2021-06-03T15:32:33Z</time>
      </trkpt>
      <trkpt lat="48.5254" lon="1.95798">
        <ele>117.4</ele>
        <time>2021-06-03T15:32:35Z</time>
      </trkpt>
      <trkpt lat="48.52537" lon="1.95792">
        <ele>117.5</ele>
        <time>2021-06-03T15:32:37Z</time>
      </trkpt>
      <trkpt lat="48.52534" lon="1.95786">
        <ele>117.5</ele>
        <time>2021-06-03T15:32:39Z</time>
      </trkpt>
      <trkpt lat="48.52531" lon="1.95779">
        <ele>117.6</ele>
        <time>2021-06-03T15:32:41Z</time>
      </trkpt>
      <trkpt lat="48.52528" lon="1.95772">
        <ele>117.5</ele>
        <time>2021-06-03T15:32:43Z</time>
      </trkpt>
      <trkpt lat="48.52522" lon="1.95762">
        <ele>117.5</ele>
        <time>2021-06-03T15:32:47Z</time>
      </trkpt>
      <trkpt lat="48.52519" lon="1.95756">
        <ele>117.5</ele>
        <time>2021-06-03T15:32:49Z</time>
      </trkpt>
      <trkpt lat="48.52516" lon="1.9575">
        <ele>117.4</ele>
        <time>2021-06-03T15:32:51Z</time>
      </trkpt>
      <trkpt lat="48.52513" lon="1.95743">
        <ele>117.3</ele>
        <time>2021-06-03T15:32:53Z</time>
      </trkpt>
      <trkpt lat="48.52507" lon="1.95737">
        <ele>117.3</ele>
        <time>2021-06-03T15:32:55Z</time>
      </trkpt>
      <trkpt lat="48.52501" lon="1.9573">
        <ele>117.3</ele>
        <time>2021-06-03T15:32:57Z</time>
      </trkpt>
      <trkpt lat="48.52493" lon="1.95723">
        <ele>117.1</ele>
        <time>2021-06-03T15:32:59Z</time>
      </trkpt>
      <trkpt lat="48.52483" lon="1.95717">
        <ele>117.1</ele>
        <time>2021-06-03T15:33:01Z</time>
      </trkpt>
      <trkpt lat="48.52468" lon="1.95718">
        <ele>117.3</ele>
        <time>2021-06-03T15:33:03Z</time>
      </trkpt>
      <trkpt lat="48.52455" lon="1.95717">
        <ele>117.5</ele>
        <time>2021-06-03T15:33:05Z</time>
      </trkpt>
      <trkpt lat="48.52441" lon="1.95717">
        <ele>117.7</ele>
        <time>2021-06-03T15:33:07Z</time>
      </trkpt>
      <trkpt lat="48.5243" lon="1.95718">
        <ele>117.9</ele>
        <time>2021-06-03T15:33:09Z</time>
      </trkpt>
      <trkpt lat="48.52417" lon="1.95722">
        <ele>118.3</ele>
        <time>2021-06-03T15:33:11Z</time>
      </trkpt>
      <trkpt lat="48.52404" lon="1.95725">
        <ele>118.7</ele>
        <time>2021-06-03T15:33:13Z</time>
      </trkpt>
      <trkpt lat="48.52392" lon="1.95729">
        <ele>119.2</ele>
        <time>2021-06-03T15:33:15Z</time>
      </trkpt>
      <trkpt lat="48.5238" lon="1.95732">
        <ele>119.6</ele>
        <time>2021-06-03T15:33:17Z</time>
      </trkpt>
      <trkpt lat="48.52368" lon="1.95731">
        <ele>119.8</ele>
        <time>2021-06-03T15:33:19Z</time>
      </trkpt>
      <trkpt lat="48.52358" lon="1.95726">
        <ele>119.6</ele>
        <time>2021-06-03T15:33:21Z</time>
      </trkpt>
      <trkpt lat="48.52349" lon="1.95718">
        <ele>119.1</ele>
        <time>2021-06-03T15:33:23Z</time>
      </trkpt>
      <trkpt lat="48.52341" lon="1.95708">
        <ele>118.4</ele>
        <time>2021-06-03T15:33:25Z</time>
      </trkpt>
      <trkpt lat="48.52331" lon="1.95699">
        <ele>118.2</ele>
        <time>2021-06-03T15:33:27Z</time>
      </trkpt>
      <trkpt lat="48.52321" lon="1.9569">
        <ele>119.5</ele>
        <time>2021-06-03T15:33:29Z</time>
      </trkpt>
      <trkpt lat="48.52313" lon="1.95681">
        <ele>120.5</ele>
        <time>2021-06-03T15:33:31Z</time>
      </trkpt>
      <trkpt lat="48.52304" lon="1.95673">
        <ele>121.8</ele>
        <time>2021-06-03T15:33:33Z</time>
      </trkpt>
      <trkpt lat="48.52295" lon="1.95666">
        <ele>123.3</ele>
        <time>2021-06-03T15:33:35Z</time>
      </trkpt>
      <trkpt lat="48.52291" lon="1.95658">
        <ele>123.7</ele>
        <time>2021-06-03T15:33:37Z</time>
      </trkpt>
      <trkpt lat="48.52284" lon="1.95646">
        <ele>124.4</ele>
        <time>2021-06-03T15:33:39Z</time>
      </trkpt>
      <trkpt lat="48.5228" lon="1.95635">
        <ele>124.6</ele>
        <time>2021-06-03T15:33:41Z</time>
      </trkpt>
      <trkpt lat="48.52276" lon="1.95622">
        <ele>124.3</ele>
        <time>2021-06-03T15:33:43Z</time>
      </trkpt>
      <trkpt lat="48.52272" lon="1.95607">
        <ele>124</ele>
        <time>2021-06-03T15:33:45Z</time>
      </trkpt>
      <trkpt lat="48.5227" lon="1.95594">
        <ele>123.4</ele>
        <time>2021-06-03T15:33:47Z</time>
      </trkpt>
      <trkpt lat="48.52267" lon="1.95582">
        <ele>122.9</ele>
        <time>2021-06-03T15:33:49Z</time>
      </trkpt>
      <trkpt lat="48.52268" lon="1.95573">
        <ele>122.4</ele>
        <time>2021-06-03T15:33:51Z</time>
      </trkpt>
      <trkpt lat="48.52266" lon="1.95566">
        <ele>122.2</ele>
        <time>2021-06-03T15:33:53Z</time>
      </trkpt>
      <trkpt lat="48.52265" lon="1.95556">
        <ele>121.8</ele>
        <time>2021-06-03T15:33:57Z</time>
      </trkpt>
      <trkpt lat="48.52264" lon="1.95542">
        <ele>121.2</ele>
        <time>2021-06-03T15:34:01Z</time>
      </trkpt>
      <trkpt lat="48.52262" lon="1.95532">
        <ele>120.9</ele>
        <time>2021-06-03T15:34:03Z</time>
      </trkpt>
      <trkpt lat="48.52262" lon="1.95522">
        <ele>120.3</ele>
        <time>2021-06-03T15:34:05Z</time>
      </trkpt>
      <trkpt lat="48.5226" lon="1.95515">
        <ele>120.1</ele>
        <time>2021-06-03T15:34:07Z</time>
      </trkpt>
      <trkpt lat="48.5226" lon="1.95501">
        <ele>119.4</ele>
        <time>2021-06-03T15:34:11Z</time>
      </trkpt>
      <trkpt lat="48.52258" lon="1.95494">
        <ele>119.3</ele>
        <time>2021-06-03T15:34:13Z</time>
      </trkpt>
      <trkpt lat="48.52256" lon="1.95488">
        <ele>119.3</ele>
        <time>2021-06-03T15:34:15Z</time>
      </trkpt>
      <trkpt lat="48.52254" lon="1.95475">
        <ele>119.1</ele>
        <time>2021-06-03T15:34:19Z</time>
      </trkpt>
      <trkpt lat="48.52251" lon="1.95464">
        <ele>119</ele>
        <time>2021-06-03T15:34:23Z</time>
      </trkpt>
      <trkpt lat="48.52248" lon="1.95457">
        <ele>118.9</ele>
        <time>2021-06-03T15:34:25Z</time>
      </trkpt>
      <trkpt lat="48.52241" lon="1.95453">
        <ele>118.7</ele>
        <time>2021-06-03T15:34:27Z</time>
      </trkpt>
      <trkpt lat="48.52232" lon="1.95452">
        <ele>118.5</ele>
        <time>2021-06-03T15:34:29Z</time>
      </trkpt>
      <trkpt lat="48.52219" lon="1.95458">
        <ele>118.4</ele>
        <time>2021-06-03T15:34:31Z</time>
      </trkpt>
      <trkpt lat="48.52208" lon="1.95468">
        <ele>118.5</ele>
        <time>2021-06-03T15:34:33Z</time>
      </trkpt>
      <trkpt lat="48.522" lon="1.95479">
        <ele>118.7</ele>
        <time>2021-06-03T15:34:35Z</time>
      </trkpt>
      <trkpt lat="48.52192" lon="1.95487">
        <ele>118.9</ele>
        <time>2021-06-03T15:34:37Z</time>
      </trkpt>
      <trkpt lat="48.52187" lon="1.95494">
        <ele>119</ele>
        <time>2021-06-03T15:34:39Z</time>
      </trkpt>
      <trkpt lat="48.52181" lon="1.95499">
        <ele>119.2</ele>
        <time>2021-06-03T15:34:41Z</time>
      </trkpt>
      <trkpt lat="48.52175" lon="1.955">
        <ele>119.2</ele>
        <time>2021-06-03T15:34:43Z</time>
      </trkpt>
      <trkpt lat="48.52167" lon="1.95499">
        <ele>119</ele>
        <time>2021-06-03T15:34:45Z</time>
      </trkpt>
      <trkpt lat="48.52157" lon="1.95495">
        <ele>119</ele>
        <time>2021-06-03T15:34:47Z</time>
      </trkpt>
      <trkpt lat="48.52147" lon="1.95496">
        <ele>119.3</ele>
        <time>2021-06-03T15:34:49Z</time>
      </trkpt>
      <trkpt lat="48.52137" lon="1.955">
        <ele>119.7</ele>
        <time>2021-06-03T15:34:51Z</time>
      </trkpt>
      <trkpt lat="48.52128" lon="1.95501">
        <ele>120.1</ele>
        <time>2021-06-03T15:34:53Z</time>
      </trkpt>
      <trkpt lat="48.52122" lon="1.95501">
        <ele>120.2</ele>
        <time>2021-06-03T15:34:55Z</time>
      </trkpt>
      <trkpt lat="48.52116" lon="1.95498">
        <ele>120.1</ele>
        <time>2021-06-03T15:34:57Z</time>
      </trkpt>
      <trkpt lat="48.52109" lon="1.95496">
        <ele>120.2</ele>
        <time>2021-06-03T15:34:59Z</time>
      </trkpt>
      <trkpt lat="48.52102" lon="1.95493">
        <ele>120.2</ele>
        <time>2021-06-03T15:35:01Z</time>
      </trkpt>
      <trkpt lat="48.52095" lon="1.95489">
        <ele>120.1</ele>
        <time>2021-06-03T15:35:03Z</time>
      </trkpt>
      <trkpt lat="48.52089" lon="1.95486">
        <ele>120.1</ele>
        <time>2021-06-03T15:35:05Z</time>
      </trkpt>
      <trkpt lat="48.52082" lon="1.95478">
        <ele>119.8</ele>
        <time>2021-06-03T15:35:07Z</time>
      </trkpt>
      <trkpt lat="48.52075" lon="1.95469">
        <ele>119.9</ele>
        <time>2021-06-03T15:35:09Z</time>
      </trkpt>
      <trkpt lat="48.5207" lon="1.95462">
        <ele>119.8</ele>
        <time>2021-06-03T15:35:11Z</time>
      </trkpt>
      <trkpt lat="48.52065" lon="1.9545">
        <ele>119.5</ele>
        <time>2021-06-03T15:35:13Z</time>
      </trkpt>
      <trkpt lat="48.5206" lon="1.95439">
        <ele>119.1</ele>
        <time>2021-06-03T15:35:15Z</time>
      </trkpt>
      <trkpt lat="48.52053" lon="1.95429">
        <ele>118.8</ele>
        <time>2021-06-03T15:35:17Z</time>
      </trkpt>
      <trkpt lat="48.52048" lon="1.95418">
        <ele>118.2</ele>
        <time>2021-06-03T15:35:19Z</time>
      </trkpt>
      <trkpt lat="48.52043" lon="1.95408">
        <ele>118.4</ele>
        <time>2021-06-03T15:35:21Z</time>
      </trkpt>
      <trkpt lat="48.5204" lon="1.95399">
        <ele>118.6</ele>
        <time>2021-06-03T15:35:23Z</time>
      </trkpt>
      <trkpt lat="48.52035" lon="1.9539">
        <ele>118.8</ele>
        <time>2021-06-03T15:35:25Z</time>
      </trkpt>
      <trkpt lat="48.52029" lon="1.95381">
        <ele>119</ele>
        <time>2021-06-03T15:35:27Z</time>
      </trkpt>
      <trkpt lat="48.52026" lon="1.95371">
        <ele>119</ele>
        <time>2021-06-03T15:35:29Z</time>
      </trkpt>
      <trkpt lat="48.52021" lon="1.95362">
        <ele>119.1</ele>
        <time>2021-06-03T15:35:31Z</time>
      </trkpt>
      <trkpt lat="48.52015" lon="1.95352">
        <ele>119.1</ele>
        <time>2021-06-03T15:35:33Z</time>
      </trkpt>
      <trkpt lat="48.5201" lon="1.95343">
        <ele>119.1</ele>
        <time>2021-06-03T15:35:35Z</time>
      </trkpt>
      <trkpt lat="48.52002" lon="1.95334">
        <ele>119</ele>
        <time>2021-06-03T15:35:37Z</time>
      </trkpt>
      <trkpt lat="48.51995" lon="1.95328">
        <ele>119.5</ele>
        <time>2021-06-03T15:35:39Z</time>
      </trkpt>
      <trkpt lat="48.51988" lon="1.95323">
        <ele>120.2</ele>
        <time>2021-06-03T15:35:41Z</time>
      </trkpt>
      <trkpt lat="48.51978" lon="1.95316">
        <ele>121</ele>
        <time>2021-06-03T15:35:43Z</time>
      </trkpt>
      <trkpt lat="48.5197" lon="1.95312">
        <ele>121.8</ele>
        <time>2021-06-03T15:35:45Z</time>
      </trkpt>
      <trkpt lat="48.51962" lon="1.95306">
        <ele>122.4</ele>
        <time>2021-06-03T15:35:47Z</time>
      </trkpt>
      <trkpt lat="48.51954" lon="1.95298">
        <ele>122.9</ele>
        <time>2021-06-03T15:35:49Z</time>
      </trkpt>
      <trkpt lat="48.51948" lon="1.95292">
        <ele>123.3</ele>
        <time>2021-06-03T15:35:51Z</time>
      </trkpt>
      <trkpt lat="48.51941" lon="1.95286">
        <ele>123.7</ele>
        <time>2021-06-03T15:35:53Z</time>
      </trkpt>
      <trkpt lat="48.51933" lon="1.95279">
        <ele>124.1</ele>
        <time>2021-06-03T15:35:55Z</time>
      </trkpt>
      <trkpt lat="48.51926" lon="1.95271">
        <ele>124.4</ele>
        <time>2021-06-03T15:35:57Z</time>
      </trkpt>
      <trkpt lat="48.51918" lon="1.95265">
        <ele>124.8</ele>
        <time>2021-06-03T15:35:59Z</time>
      </trkpt>
      <trkpt lat="48.51911" lon="1.95257">
        <ele>124.7</ele>
        <time>2021-06-03T15:36:01Z</time>
      </trkpt>
      <trkpt lat="48.51904" lon="1.95247">
        <ele>124.4</ele>
        <time>2021-06-03T15:36:03Z</time>
      </trkpt>
      <trkpt lat="48.51897" lon="1.95238">
        <ele>123.9</ele>
        <time>2021-06-03T15:36:05Z</time>
      </trkpt>
      <trkpt lat="48.51891" lon="1.95228">
        <ele>123.5</ele>
        <time>2021-06-03T15:36:07Z</time>
      </trkpt>
      <trkpt lat="48.51883" lon="1.95221">
        <ele>123.1</ele>
        <time>2021-06-03T15:36:09Z</time>
      </trkpt>
      <trkpt lat="48.51876" lon="1.95218">
        <ele>123</ele>
        <time>2021-06-03T15:36:11Z</time>
      </trkpt>
      <trkpt lat="48.51869" lon="1.95213">
        <ele>122.8</ele>
        <time>2021-06-03T15:36:13Z</time>
      </trkpt>
      <trkpt lat="48.51862" lon="1.95209">
        <ele>122.7</ele>
        <time>2021-06-03T15:36:15Z</time>
      </trkpt>
      <trkpt lat="48.51851" lon="1.95205">
        <ele>122.6</ele>
        <time>2021-06-03T15:36:17Z</time>
      </trkpt>
      <trkpt lat="48.51843" lon="1.95202">
        <ele>122.5</ele>
        <time>2021-06-03T15:36:19Z</time>
      </trkpt>
      <trkpt lat="48.51834" lon="1.95196">
        <ele>122.1</ele>
        <time>2021-06-03T15:36:21Z</time>
      </trkpt>
      <trkpt lat="48.51826" lon="1.9519">
        <ele>122.8</ele>
        <time>2021-06-03T15:36:23Z</time>
      </trkpt>
      <trkpt lat="48.51815" lon="1.95189">
        <ele>124.4</ele>
        <time>2021-06-03T15:36:25Z</time>
      </trkpt>
      <trkpt lat="48.51807" lon="1.95184">
        <ele>125.2</ele>
        <time>2021-06-03T15:36:27Z</time>
      </trkpt>
      <trkpt lat="48.51801" lon="1.95178">
        <ele>125.7</ele>
        <time>2021-06-03T15:36:29Z</time>
      </trkpt>
      <trkpt lat="48.518" lon="1.95167">
        <ele>125</ele>
        <time>2021-06-03T15:36:31Z</time>
      </trkpt>
      <trkpt lat="48.51798" lon="1.95156">
        <ele>125.2</ele>
        <time>2021-06-03T15:36:33Z</time>
      </trkpt>
      <trkpt lat="48.51799" lon="1.95149">
        <ele>125</ele>
        <time>2021-06-03T15:36:35Z</time>
      </trkpt>
      <trkpt lat="48.51797" lon="1.95141">
        <ele>125.4</ele>
        <time>2021-06-03T15:36:37Z</time>
      </trkpt>
      <trkpt lat="48.51793" lon="1.95133">
        <ele>126</ele>
        <time>2021-06-03T15:36:39Z</time>
      </trkpt>
      <trkpt lat="48.51786" lon="1.95127">
        <ele>127.2</ele>
        <time>2021-06-03T15:36:41Z</time>
      </trkpt>
      <trkpt lat="48.51781" lon="1.95119">
        <ele>128.1</ele>
        <time>2021-06-03T15:36:43Z</time>
      </trkpt>
      <trkpt lat="48.51776" lon="1.9511">
        <ele>128.9</ele>
        <time>2021-06-03T15:36:45Z</time>
      </trkpt>
      <trkpt lat="48.51774" lon="1.95103">
        <ele>129.1</ele>
        <time>2021-06-03T15:36:47Z</time>
      </trkpt>
      <trkpt lat="48.51775" lon="1.95095">
        <ele>128.9</ele>
        <time>2021-06-03T15:36:49Z</time>
      </trkpt>
      <trkpt lat="48.51777" lon="1.95086">
        <ele>128.5</ele>
        <time>2021-06-03T15:36:51Z</time>
      </trkpt>
      <trkpt lat="48.51781" lon="1.95074">
        <ele>128.3</ele>
        <time>2021-06-03T15:36:53Z</time>
      </trkpt>
      <trkpt lat="48.51786" lon="1.95067">
        <ele>127.8</ele>
        <time>2021-06-03T15:36:55Z</time>
      </trkpt>
      <trkpt lat="48.51793" lon="1.95056">
        <ele>127.3</ele>
        <time>2021-06-03T15:36:57Z</time>
      </trkpt>
      <trkpt lat="48.51798" lon="1.95046">
        <ele>126.9</ele>
        <time>2021-06-03T15:36:59Z</time>
      </trkpt>
      <trkpt lat="48.51804" lon="1.95035">
        <ele>126.4</ele>
        <time>2021-06-03T15:37:01Z</time>
      </trkpt>
      <trkpt lat="48.5181" lon="1.95023">
        <ele>126.1</ele>
        <time>2021-06-03T15:37:03Z</time>
      </trkpt>
      <trkpt lat="48.51814" lon="1.95011">
        <ele>125.9</ele>
        <time>2021-06-03T15:37:05Z</time>
      </trkpt>
      <trkpt lat="48.51818" lon="1.94999">
        <ele>125.7</ele>
        <time>2021-06-03T15:37:07Z</time>
      </trkpt>
      <trkpt lat="48.51824" lon="1.94989">
        <ele>124.9</ele>
        <time>2021-06-03T15:37:09Z</time>
      </trkpt>
      <trkpt lat="48.51826" lon="1.94977">
        <ele>124.6</ele>
        <time>2021-06-03T15:37:11Z</time>
      </trkpt>
      <trkpt lat="48.51828" lon="1.94965">
        <ele>124.4</ele>
        <time>2021-06-03T15:37:13Z</time>
      </trkpt>
      <trkpt lat="48.51829" lon="1.94952">
        <ele>124.4</ele>
        <time>2021-06-03T15:37:15Z</time>
      </trkpt>
      <trkpt lat="48.51829" lon="1.9494">
        <ele>124.5</ele>
        <time>2021-06-03T15:37:17Z</time>
      </trkpt>
      <trkpt lat="48.5183" lon="1.94927">
        <ele>124.4</ele>
        <time>2021-06-03T15:37:19Z</time>
      </trkpt>
      <trkpt lat="48.51831" lon="1.94915">
        <ele>124.4</ele>
        <time>2021-06-03T15:37:21Z</time>
      </trkpt>
      <trkpt lat="48.5183" lon="1.94906">
        <ele>124.3</ele>
        <time>2021-06-03T15:37:23Z</time>
      </trkpt>
      <trkpt lat="48.51829" lon="1.94895">
        <ele>124.1</ele>
        <time>2021-06-03T15:37:25Z</time>
      </trkpt>
      <trkpt lat="48.51828" lon="1.94888">
        <ele>124.1</ele>
        <time>2021-06-03T15:37:27Z</time>
      </trkpt>
      <trkpt lat="48.51827" lon="1.9488">
        <ele>124</ele>
        <time>2021-06-03T15:37:29Z</time>
      </trkpt>
      <trkpt lat="48.51826" lon="1.94868">
        <ele>123.8</ele>
        <time>2021-06-03T15:37:33Z</time>
      </trkpt>
      <trkpt lat="48.51826" lon="1.94858">
        <ele>123.5</ele>
        <time>2021-06-03T15:37:37Z</time>
      </trkpt>
      <trkpt lat="48.51825" lon="1.94848">
        <ele>123.3</ele>
        <time>2021-06-03T15:37:41Z</time>
      </trkpt>
      <trkpt lat="48.51822" lon="1.94839">
        <ele>123.2</ele>
        <time>2021-06-03T15:37:45Z</time>
      </trkpt>
      <trkpt lat="48.51818" lon="1.94832">
        <ele>123.4</ele>
        <time>2021-06-03T15:37:49Z</time>
      </trkpt>
      <trkpt lat="48.51811" lon="1.94826">
        <ele>123.5</ele>
        <time>2021-06-03T15:37:53Z</time>
      </trkpt>
      <trkpt lat="48.51806" lon="1.94825">
        <ele>123.8</ele>
        <time>2021-06-03T15:37:55Z</time>
      </trkpt>
      <trkpt lat="48.51799" lon="1.94825">
        <ele>124.4</ele>
        <time>2021-06-03T15:37:59Z</time>
      </trkpt>
      <trkpt lat="48.51794" lon="1.94828">
        <ele>125.2</ele>
        <time>2021-06-03T15:38:03Z</time>
      </trkpt>
      <trkpt lat="48.51789" lon="1.9483">
        <ele>125.9</ele>
        <time>2021-06-03T15:38:05Z</time>
      </trkpt>
      <trkpt lat="48.51783" lon="1.94832">
        <ele>126.6</ele>
        <time>2021-06-03T15:38:07Z</time>
      </trkpt>
      <trkpt lat="48.51776" lon="1.94835">
        <ele>127.7</ele>
        <time>2021-06-03T15:38:11Z</time>
      </trkpt>
      <trkpt lat="48.51768" lon="1.94838">
        <ele>128.6</ele>
        <time>2021-06-03T15:38:15Z</time>
      </trkpt>
      <trkpt lat="48.51761" lon="1.9484">
        <ele>129.6</ele>
        <time>2021-06-03T15:38:19Z</time>
      </trkpt>
      <trkpt lat="48.51753" lon="1.94842">
        <ele>130.5</ele>
        <time>2021-06-03T15:38:23Z</time>
      </trkpt>
      <trkpt lat="48.51747" lon="1.94842">
        <ele>130.9</ele>
        <time>2021-06-03T15:38:25Z</time>
      </trkpt>
      <trkpt lat="48.51742" lon="1.94844">
        <ele>131.4</ele>
        <time>2021-06-03T15:38:29Z</time>
      </trkpt>
      <trkpt lat="48.51737" lon="1.9484">
        <ele>131.4</ele>
        <time>2021-06-03T15:38:33Z</time>
      </trkpt>
      <trkpt lat="48.5173" lon="1.94841">
        <ele>131.7</ele>
        <time>2021-06-03T15:38:35Z</time>
      </trkpt>
      <trkpt lat="48.51724" lon="1.9484">
        <ele>132</ele>
        <time>2021-06-03T15:38:37Z</time>
      </trkpt>
      <trkpt lat="48.51719" lon="1.94837">
        <ele>131.9</ele>
        <time>2021-06-03T15:38:39Z</time>
      </trkpt>
      <trkpt lat="48.51713" lon="1.94834">
        <ele>131.9</ele>
        <time>2021-06-03T15:38:41Z</time>
      </trkpt>
      <trkpt lat="48.51703" lon="1.94828">
        <ele>131.4</ele>
        <time>2021-06-03T15:38:43Z</time>
      </trkpt>
      <trkpt lat="48.51694" lon="1.94822">
        <ele>131</ele>
        <time>2021-06-03T15:38:45Z</time>
      </trkpt>
      <trkpt lat="48.51683" lon="1.94813">
        <ele>130.2</ele>
        <time>2021-06-03T15:38:47Z</time>
      </trkpt>
      <trkpt lat="48.51673" lon="1.94803">
        <ele>129.4</ele>
        <time>2021-06-03T15:38:49Z</time>
      </trkpt>
      <trkpt lat="48.51663" lon="1.94796">
        <ele>128.9</ele>
        <time>2021-06-03T15:38:51Z</time>
      </trkpt>
      <trkpt lat="48.51656" lon="1.94787">
        <ele>128</ele>
        <time>2021-06-03T15:38:53Z</time>
      </trkpt>
      <trkpt lat="48.51647" lon="1.94775">
        <ele>126.7</ele>
        <time>2021-06-03T15:38:55Z</time>
      </trkpt>
      <trkpt lat="48.51642" lon="1.94759">
        <ele>124.6</ele>
        <time>2021-06-03T15:38:57Z</time>
      </trkpt>
      <trkpt lat="48.51639" lon="1.94739">
        <ele>122.5</ele>
        <time>2021-06-03T15:38:59Z</time>
      </trkpt>
      <trkpt lat="48.51634" lon="1.94723">
        <ele>121.5</ele>
        <time>2021-06-03T15:39:01Z</time>
      </trkpt>
      <trkpt lat="48.51624" lon="1.94708">
        <ele>120.7</ele>
        <time>2021-06-03T15:39:03Z</time>
      </trkpt>
      <trkpt lat="48.51615" lon="1.94699">
        <ele>120.4</ele>
        <time>2021-06-03T15:39:05Z</time>
      </trkpt>
      <trkpt lat="48.51607" lon="1.94695">
        <ele>120.4</ele>
        <time>2021-06-03T15:39:07Z</time>
      </trkpt>
      <trkpt lat="48.51598" lon="1.94695">
        <ele>120.8</ele>
        <time>2021-06-03T15:39:09Z</time>
      </trkpt>
      <trkpt lat="48.5159" lon="1.94698">
        <ele>121.3</ele>
        <time>2021-06-03T15:39:11Z</time>
      </trkpt>
      <trkpt lat="48.51584" lon="1.947">
        <ele>121.8</ele>
        <time>2021-06-03T15:39:13Z</time>
      </trkpt>
      <trkpt lat="48.51576" lon="1.94704">
        <ele>122</ele>
        <time>2021-06-03T15:39:15Z</time>
      </trkpt>
      <trkpt lat="48.5157" lon="1.94712">
        <ele>122.6</ele>
        <time>2021-06-03T15:39:17Z</time>
      </trkpt>
      <trkpt lat="48.51565" lon="1.9472">
        <ele>123.1</ele>
        <time>2021-06-03T15:39:19Z</time>
      </trkpt>
      <trkpt lat="48.51559" lon="1.94726">
        <ele>123.4</ele>
        <time>2021-06-03T15:39:21Z</time>
      </trkpt>
      <trkpt lat="48.51552" lon="1.94733">
        <ele>123.7</ele>
        <time>2021-06-03T15:39:23Z</time>
      </trkpt>
      <trkpt lat="48.51545" lon="1.94742">
        <ele>124.1</ele>
        <time>2021-06-03T15:39:25Z</time>
      </trkpt>
      <trkpt lat="48.51537" lon="1.94752">
        <ele>124.6</ele>
        <time>2021-06-03T15:39:27Z</time>
      </trkpt>
      <trkpt lat="48.51531" lon="1.94756">
        <ele>124.9</ele>
        <time>2021-06-03T15:39:29Z</time>
      </trkpt>
      <trkpt lat="48.51525" lon="1.94762">
        <ele>125.4</ele>
        <time>2021-06-03T15:39:31Z</time>
      </trkpt>
      <trkpt lat="48.51519" lon="1.94767">
        <ele>125.8</ele>
        <time>2021-06-03T15:39:33Z</time>
      </trkpt>
      <trkpt lat="48.5151" lon="1.94771">
        <ele>125.8</ele>
        <time>2021-06-03T15:39:35Z</time>
      </trkpt>
      <trkpt lat="48.51502" lon="1.94778">
        <ele>126.1</ele>
        <time>2021-06-03T15:39:37Z</time>
      </trkpt>
      <trkpt lat="48.51497" lon="1.94782">
        <ele>126.3</ele>
        <time>2021-06-03T15:39:39Z</time>
      </trkpt>
      <trkpt lat="48.51492" lon="1.94783">
        <ele>126.3</ele>
        <time>2021-06-03T15:39:41Z</time>
      </trkpt>
      <trkpt lat="48.51483" lon="1.9479">
        <ele>126.7</ele>
        <time>2021-06-03T15:39:45Z</time>
      </trkpt>
      <trkpt lat="48.51479" lon="1.94793">
        <ele>126.9</ele>
        <time>2021-06-03T15:39:47Z</time>
      </trkpt>
      <trkpt lat="48.51473" lon="1.94797">
        <ele>127</ele>
        <time>2021-06-03T15:39:49Z</time>
      </trkpt>
      <trkpt lat="48.51467" lon="1.94802">
        <ele>127.2</ele>
        <time>2021-06-03T15:39:51Z</time>
      </trkpt>
      <trkpt lat="48.51462" lon="1.94806">
        <ele>127.4</ele>
        <time>2021-06-03T15:39:53Z</time>
      </trkpt>
      <trkpt lat="48.51452" lon="1.94807">
        <ele>127</ele>
        <time>2021-06-03T15:39:55Z</time>
      </trkpt>
      <trkpt lat="48.51444" lon="1.94812">
        <ele>127</ele>
        <time>2021-06-03T15:39:57Z</time>
      </trkpt>
      <trkpt lat="48.51436" lon="1.94815">
        <ele>126.9</ele>
        <time>2021-06-03T15:39:59Z</time>
      </trkpt>
      <trkpt lat="48.51428" lon="1.9482">
        <ele>126.8</ele>
        <time>2021-06-03T15:40:01Z</time>
      </trkpt>
      <trkpt lat="48.51421" lon="1.94825">
        <ele>126.7</ele>
        <time>2021-06-03T15:40:03Z</time>
      </trkpt>
      <trkpt lat="48.51414" lon="1.9483">
        <ele>126.9</ele>
        <time>2021-06-03T15:40:05Z</time>
      </trkpt>
      <trkpt lat="48.51408" lon="1.94834">
        <ele>127.2</ele>
        <time>2021-06-03T15:40:07Z</time>
      </trkpt>
      <trkpt lat="48.51402" lon="1.94838">
        <ele>127.8</ele>
        <time>2021-06-03T15:40:09Z</time>
      </trkpt>
      <trkpt lat="48.51395" lon="1.94843">
        <ele>128.5</ele>
        <time>2021-06-03T15:40:11Z</time>
      </trkpt>
      <trkpt lat="48.51389" lon="1.94848">
        <ele>129.1</ele>
        <time>2021-06-03T15:40:13Z</time>
      </trkpt>
      <trkpt lat="48.51381" lon="1.94851">
        <ele>129.7</ele>
        <time>2021-06-03T15:40:15Z</time>
      </trkpt>
      <trkpt lat="48.51374" lon="1.94857">
        <ele>130.5</ele>
        <time>2021-06-03T15:40:17Z</time>
      </trkpt>
      <trkpt lat="48.51368" lon="1.94862">
        <ele>131.4</ele>
        <time>2021-06-03T15:40:19Z</time>
      </trkpt>
      <trkpt lat="48.51361" lon="1.94865">
        <ele>132</ele>
        <time>2021-06-03T15:40:21Z</time>
      </trkpt>
      <trkpt lat="48.51355" lon="1.94857">
        <ele>131.3</ele>
        <time>2021-06-03T15:40:23Z</time>
      </trkpt>
      <trkpt lat="48.51348" lon="1.94851">
        <ele>130.8</ele>
        <time>2021-06-03T15:40:25Z</time>
      </trkpt>
      <trkpt lat="48.51343" lon="1.94843">
        <ele>130</ele>
        <time>2021-06-03T15:40:29Z</time>
      </trkpt>
      <trkpt lat="48.51343" lon="1.94829">
        <ele>128.6</ele>
        <time>2021-06-03T15:40:33Z</time>
      </trkpt>
      <trkpt lat="48.5134" lon="1.9482">
        <ele>128.3</ele>
        <time>2021-06-03T15:40:35Z</time>
      </trkpt>
      <trkpt lat="48.51337" lon="1.94812">
        <ele>128.1</ele>
        <time>2021-06-03T15:40:37Z</time>
      </trkpt>
      <trkpt lat="48.51333" lon="1.94802">
        <ele>128</ele>
        <time>2021-06-03T15:40:39Z</time>
      </trkpt>
      <trkpt lat="48.51329" lon="1.94793">
        <ele>128.4</ele>
        <time>2021-06-03T15:40:41Z</time>
      </trkpt>
      <trkpt lat="48.51325" lon="1.94785">
        <ele>128.7</ele>
        <time>2021-06-03T15:40:43Z</time>
      </trkpt>
      <trkpt lat="48.5132" lon="1.9478">
        <ele>129.4</ele>
        <time>2021-06-03T15:40:45Z</time>
      </trkpt>
      <trkpt lat="48.51316" lon="1.94772">
        <ele>129.8</ele>
        <time>2021-06-03T15:40:47Z</time>
      </trkpt>
      <trkpt lat="48.51309" lon="1.94766">
        <ele>130.7</ele>
        <time>2021-06-03T15:40:49Z</time>
      </trkpt>
      <trkpt lat="48.51301" lon="1.94756">
        <ele>131.3</ele>
        <time>2021-06-03T15:40:51Z</time>
      </trkpt>
      <trkpt lat="48.51297" lon="1.94748">
        <ele>131.7</ele>
        <time>2021-06-03T15:40:53Z</time>
      </trkpt>
      <trkpt lat="48.51291" lon="1.94743">
        <ele>132.4</ele>
        <time>2021-06-03T15:40:55Z</time>
      </trkpt>
      <trkpt lat="48.51287" lon="1.94736">
        <ele>133.1</ele>
        <time>2021-06-03T15:40:57Z</time>
      </trkpt>
      <trkpt lat="48.51282" lon="1.94729">
        <ele>133.7</ele>
        <time>2021-06-03T15:40:59Z</time>
      </trkpt>
      <trkpt lat="48.51279" lon="1.94722">
        <ele>134.1</ele>
        <time>2021-06-03T15:41:01Z</time>
      </trkpt>
      <trkpt lat="48.51275" lon="1.94712">
        <ele>134.6</ele>
        <time>2021-06-03T15:41:03Z</time>
      </trkpt>
      <trkpt lat="48.51276" lon="1.94702">
        <ele>134.3</ele>
        <time>2021-06-03T15:41:05Z</time>
      </trkpt>
      <trkpt lat="48.51277" lon="1.94694">
        <ele>134.1</ele>
        <time>2021-06-03T15:41:09Z</time>
      </trkpt>
      <trkpt lat="48.51276" lon="1.94681">
        <ele>134.2</ele>
        <time>2021-06-03T15:41:13Z</time>
      </trkpt>
      <trkpt lat="48.51276" lon="1.94668">
        <ele>134</ele>
        <time>2021-06-03T15:41:15Z</time>
      </trkpt>
      <trkpt lat="48.51275" lon="1.94657">
        <ele>134</ele>
        <time>2021-06-03T15:41:17Z</time>
      </trkpt>
      <trkpt lat="48.51276" lon="1.94646">
        <ele>133.8</ele>
        <time>2021-06-03T15:41:19Z</time>
      </trkpt>
      <trkpt lat="48.51276" lon="1.94638">
        <ele>133.8</ele>
        <time>2021-06-03T15:41:21Z</time>
      </trkpt>
      <trkpt lat="48.51277" lon="1.9463">
        <ele>133.5</ele>
        <time>2021-06-03T15:41:23Z</time>
      </trkpt>
      <trkpt lat="48.51279" lon="1.94621">
        <ele>133.1</ele>
        <time>2021-06-03T15:41:25Z</time>
      </trkpt>
      <trkpt lat="48.51282" lon="1.94612">
        <ele>132.5</ele>
        <time>2021-06-03T15:41:27Z</time>
      </trkpt>
      <trkpt lat="48.51283" lon="1.94603">
        <ele>132.2</ele>
        <time>2021-06-03T15:41:29Z</time>
      </trkpt>
      <trkpt lat="48.51282" lon="1.94596">
        <ele>132.4</ele>
        <time>2021-06-03T15:41:31Z</time>
      </trkpt>
      <trkpt lat="48.51282" lon="1.94588">
        <ele>132.2</ele>
        <time>2021-06-03T15:41:33Z</time>
      </trkpt>
      <trkpt lat="48.51286" lon="1.94579">
        <ele>131.6</ele>
        <time>2021-06-03T15:41:35Z</time>
      </trkpt>
      <trkpt lat="48.51292" lon="1.94569">
        <ele>130.4</ele>
        <time>2021-06-03T15:41:39Z</time>
      </trkpt>
      <trkpt lat="48.51295" lon="1.94559">
        <ele>129.7</ele>
        <time>2021-06-03T15:41:41Z</time>
      </trkpt>
      <trkpt lat="48.51297" lon="1.94548">
        <ele>129.1</ele>
        <time>2021-06-03T15:41:43Z</time>
      </trkpt>
      <trkpt lat="48.513" lon="1.94539">
        <ele>128.4</ele>
        <time>2021-06-03T15:41:45Z</time>
      </trkpt>
      <trkpt lat="48.51303" lon="1.94529">
        <ele>127.6</ele>
        <time>2021-06-03T15:41:47Z</time>
      </trkpt>
      <trkpt lat="48.51307" lon="1.94519">
        <ele>126.7</ele>
        <time>2021-06-03T15:41:49Z</time>
      </trkpt>
      <trkpt lat="48.51312" lon="1.94512">
        <ele>125.4</ele>
        <time>2021-06-03T15:41:51Z</time>
      </trkpt>
      <trkpt lat="48.51317" lon="1.94509">
        <ele>124.2</ele>
        <time>2021-06-03T15:41:53Z</time>
      </trkpt>
      <trkpt lat="48.51326" lon="1.94516">
        <ele>122.3</ele>
        <time>2021-06-03T15:41:57Z</time>
      </trkpt>
      <trkpt lat="48.51333" lon="1.94528">
        <ele>121.2</ele>
        <time>2021-06-03T15:41:59Z</time>
      </trkpt>
      <trkpt lat="48.51338" lon="1.94538">
        <ele>121.2</ele>
        <time>2021-06-03T15:42:01Z</time>
      </trkpt>
      <trkpt lat="48.51345" lon="1.94549">
        <ele>121.3</ele>
        <time>2021-06-03T15:42:03Z</time>
      </trkpt>
      <trkpt lat="48.51351" lon="1.94555">
        <ele>121.3</ele>
        <time>2021-06-03T15:42:05Z</time>
      </trkpt>
      <trkpt lat="48.51359" lon="1.94553">
        <ele>120.9</ele>
        <time>2021-06-03T15:42:09Z</time>
      </trkpt>
      <trkpt lat="48.51364" lon="1.94559">
        <ele>120.9</ele>
        <time>2021-06-03T15:42:13Z</time>
      </trkpt>
      <trkpt lat="48.51358" lon="1.94557">
        <ele>121.1</ele>
        <time>2021-06-03T15:42:37Z</time>
      </trkpt>
      <trkpt lat="48.51355" lon="1.94543">
        <ele>120.8</ele>
        <time>2021-06-03T15:42:41Z</time>
      </trkpt>
      <trkpt lat="48.51354" lon="1.94534">
        <ele>120.5</ele>
        <time>2021-06-03T15:42:43Z</time>
      </trkpt>
      <trkpt lat="48.51353" lon="1.94521">
        <ele>120.2</ele>
        <time>2021-06-03T15:42:45Z</time>
      </trkpt>
      <trkpt lat="48.51354" lon="1.94511">
        <ele>119.8</ele>
        <time>2021-06-03T15:42:47Z</time>
      </trkpt>
      <trkpt lat="48.51352" lon="1.945">
        <ele>119.5</ele>
        <time>2021-06-03T15:42:49Z</time>
      </trkpt>
      <trkpt lat="48.51352" lon="1.94486">
        <ele>119.5</ele>
        <time>2021-06-03T15:42:51Z</time>
      </trkpt>
      <trkpt lat="48.51352" lon="1.94473">
        <ele>119.5</ele>
        <time>2021-06-03T15:42:53Z</time>
      </trkpt>
      <trkpt lat="48.51349" lon="1.94459">
        <ele>119.5</ele>
        <time>2021-06-03T15:42:55Z</time>
      </trkpt>
      <trkpt lat="48.51348" lon="1.94446">
        <ele>119.5</ele>
        <time>2021-06-03T15:42:57Z</time>
      </trkpt>
      <trkpt lat="48.51348" lon="1.94436">
        <ele>119.5</ele>
        <time>2021-06-03T15:42:59Z</time>
      </trkpt>
      <trkpt lat="48.51349" lon="1.94424">
        <ele>119.5</ele>
        <time>2021-06-03T15:43:01Z</time>
      </trkpt>
      <trkpt lat="48.5135" lon="1.94411">
        <ele>119.6</ele>
        <time>2021-06-03T15:43:03Z</time>
      </trkpt>
      <trkpt lat="48.51353" lon="1.944">
        <ele>119.9</ele>
        <time>2021-06-03T15:43:05Z</time>
      </trkpt>
      <trkpt lat="48.51355" lon="1.94389">
        <ele>120.2</ele>
        <time>2021-06-03T15:43:07Z</time>
      </trkpt>
      <trkpt lat="48.51359" lon="1.94378">
        <ele>120.4</ele>
        <time>2021-06-03T15:43:09Z</time>
      </trkpt>
      <trkpt lat="48.51363" lon="1.94369">
        <ele>120.4</ele>
        <time>2021-06-03T15:43:11Z</time>
      </trkpt>
      <trkpt lat="48.51366" lon="1.94357">
        <ele>120.6</ele>
        <time>2021-06-03T15:43:13Z</time>
      </trkpt>
      <trkpt lat="48.51369" lon="1.94346">
        <ele>120.7</ele>
        <time>2021-06-03T15:43:15Z</time>
      </trkpt>
      <trkpt lat="48.51372" lon="1.94335">
        <ele>120.7</ele>
        <time>2021-06-03T15:43:17Z</time>
      </trkpt>
      <trkpt lat="48.51376" lon="1.94323">
        <ele>120.6</ele>
        <time>2021-06-03T15:43:19Z</time>
      </trkpt>
      <trkpt lat="48.51379" lon="1.9431">
        <ele>120.7</ele>
        <time>2021-06-03T15:43:21Z</time>
      </trkpt>
      <trkpt lat="48.51381" lon="1.94297">
        <ele>120.8</ele>
        <time>2021-06-03T15:43:23Z</time>
      </trkpt>
      <trkpt lat="48.51385" lon="1.94286">
        <ele>120.7</ele>
        <time>2021-06-03T15:43:25Z</time>
      </trkpt>
      <trkpt lat="48.51387" lon="1.94274">
        <ele>120.7</ele>
        <time>2021-06-03T15:43:27Z</time>
      </trkpt>
      <trkpt lat="48.51387" lon="1.94262">
        <ele>120.9</ele>
        <time>2021-06-03T15:43:29Z</time>
      </trkpt>
      <trkpt lat="48.51386" lon="1.9425">
        <ele>121.3</ele>
        <time>2021-06-03T15:43:31Z</time>
      </trkpt>
      <trkpt lat="48.51388" lon="1.9424">
        <ele>121.2</ele>
        <time>2021-06-03T15:43:33Z</time>
      </trkpt>
      <trkpt lat="48.51387" lon="1.94231">
        <ele>121.4</ele>
        <time>2021-06-03T15:43:35Z</time>
      </trkpt>
      <trkpt lat="48.51385" lon="1.94224">
        <ele>121.7</ele>
        <time>2021-06-03T15:43:37Z</time>
      </trkpt>
      <trkpt lat="48.51382" lon="1.94218">
        <ele>122.1</ele>
        <time>2021-06-03T15:43:39Z</time>
      </trkpt>
      <trkpt lat="48.51379" lon="1.94212">
        <ele>122.5</ele>
        <time>2021-06-03T15:43:41Z</time>
      </trkpt>
      <trkpt lat="48.51376" lon="1.94206">
        <ele>122.9</ele>
        <time>2021-06-03T15:43:43Z</time>
      </trkpt>
      <trkpt lat="48.51372" lon="1.94199">
        <ele>123.4</ele>
        <time>2021-06-03T15:43:45Z</time>
      </trkpt>
      <trkpt lat="48.51367" lon="1.94188">
        <ele>124.3</ele>
        <time>2021-06-03T15:43:49Z</time>
      </trkpt>
      <trkpt lat="48.51364" lon="1.94182">
        <ele>124.7</ele>
        <time>2021-06-03T15:43:51Z</time>
      </trkpt>
      <trkpt lat="48.5136" lon="1.94174">
        <ele>125.4</ele>
        <time>2021-06-03T15:43:55Z</time>
      </trkpt>
      <trkpt lat="48.51354" lon="1.94164">
        <ele>126.3</ele>
        <time>2021-06-03T15:43:59Z</time>
      </trkpt>
      <trkpt lat="48.51349" lon="1.94155">
        <ele>126.9</ele>
        <time>2021-06-03T15:44:03Z</time>
      </trkpt>
      <trkpt lat="48.51344" lon="1.94144">
        <ele>127.5</ele>
        <time>2021-06-03T15:44:07Z</time>
      </trkpt>
      <trkpt lat="48.5134" lon="1.94139">
        <ele>127.9</ele>
        <time>2021-06-03T15:44:09Z</time>
      </trkpt>
      <trkpt lat="48.51335" lon="1.94127">
        <ele>128.4</ele>
        <time>2021-06-03T15:44:13Z</time>
      </trkpt>
      <trkpt lat="48.51332" lon="1.94121">
        <ele>128.8</ele>
        <time>2021-06-03T15:44:15Z</time>
      </trkpt>
      <trkpt lat="48.51326" lon="1.94111">
        <ele>129.6</ele>
        <time>2021-06-03T15:44:19Z</time>
      </trkpt>
      <trkpt lat="48.51323" lon="1.94105">
        <ele>130</ele>
        <time>2021-06-03T15:44:21Z</time>
      </trkpt>
      <trkpt lat="48.5132" lon="1.94099">
        <ele>130.5</ele>
        <time>2021-06-03T15:44:23Z</time>
      </trkpt>
      <trkpt lat="48.51316" lon="1.94092">
        <ele>130.8</ele>
        <time>2021-06-03T15:44:25Z</time>
      </trkpt>
      <trkpt lat="48.51312" lon="1.94083">
        <ele>131.4</ele>
        <time>2021-06-03T15:44:29Z</time>
      </trkpt>
      <trkpt lat="48.51309" lon="1.94077">
        <ele>131.5</ele>
        <time>2021-06-03T15:44:51Z</time>
      </trkpt>
      <trkpt lat="48.51305" lon="1.9407">
        <ele>131.9</ele>
        <time>2021-06-03T15:44:57Z</time>
      </trkpt>
      <trkpt lat="48.51302" lon="1.94062">
        <ele>132</ele>
        <time>2021-06-03T15:44:59Z</time>
      </trkpt>
      <trkpt lat="48.513" lon="1.94053">
        <ele>132.1</ele>
        <time>2021-06-03T15:45:01Z</time>
      </trkpt>
      <trkpt lat="48.51295" lon="1.94046">
        <ele>132.4</ele>
        <time>2021-06-03T15:45:03Z</time>
      </trkpt>
      <trkpt lat="48.51291" lon="1.94034">
        <ele>132.5</ele>
        <time>2021-06-03T15:45:05Z</time>
      </trkpt>
      <trkpt lat="48.51287" lon="1.94023">
        <ele>132.6</ele>
        <time>2021-06-03T15:45:07Z</time>
      </trkpt>
      <trkpt lat="48.51283" lon="1.94011">
        <ele>132.6</ele>
        <time>2021-06-03T15:45:09Z</time>
      </trkpt>
      <trkpt lat="48.51279" lon="1.93996">
        <ele>132.6</ele>
        <time>2021-06-03T15:45:11Z</time>
      </trkpt>
      <trkpt lat="48.51275" lon="1.93983">
        <ele>132.8</ele>
        <time>2021-06-03T15:45:13Z</time>
      </trkpt>
      <trkpt lat="48.51272" lon="1.93972">
        <ele>132.9</ele>
        <time>2021-06-03T15:45:15Z</time>
      </trkpt>
      <trkpt lat="48.51268" lon="1.93961">
        <ele>133.1</ele>
        <time>2021-06-03T15:45:17Z</time>
      </trkpt>
      <trkpt lat="48.51267" lon="1.93951">
        <ele>132.9</ele>
        <time>2021-06-03T15:45:19Z</time>
      </trkpt>
      <trkpt lat="48.51265" lon="1.93939">
        <ele>132.8</ele>
        <time>2021-06-03T15:45:21Z</time>
      </trkpt>
      <trkpt lat="48.51264" lon="1.93928">
        <ele>132.5</ele>
        <time>2021-06-03T15:45:23Z</time>
      </trkpt>
      <trkpt lat="48.5126" lon="1.93919">
        <ele>132.7</ele>
        <time>2021-06-03T15:45:25Z</time>
      </trkpt>
      <trkpt lat="48.51258" lon="1.93908">
        <ele>132.2</ele>
        <time>2021-06-03T15:45:27Z</time>
      </trkpt>
      <trkpt lat="48.51258" lon="1.93898">
        <ele>131.5</ele>
        <time>2021-06-03T15:45:29Z</time>
      </trkpt>
      <trkpt lat="48.51255" lon="1.93885">
        <ele>130.8</ele>
        <time>2021-06-03T15:45:31Z</time>
      </trkpt>
      <trkpt lat="48.5125" lon="1.93867">
        <ele>129.8</ele>
        <time>2021-06-03T15:45:33Z</time>
      </trkpt>
      <trkpt lat="48.51244" lon="1.93848">
        <ele>129.1</ele>
        <time>2021-06-03T15:45:35Z</time>
      </trkpt>
      <trkpt lat="48.51235" lon="1.93828">
        <ele>128.7</ele>
        <time>2021-06-03T15:45:37Z</time>
      </trkpt>
      <trkpt lat="48.51225" lon="1.93811">
        <ele>129.4</ele>
        <time>2021-06-03T15:45:39Z</time>
      </trkpt>
      <trkpt lat="48.51214" lon="1.93789">
        <ele>129.9</ele>
        <time>2021-06-03T15:45:41Z</time>
      </trkpt>
      <trkpt lat="48.51206" lon="1.93768">
        <ele>130.1</ele>
        <time>2021-06-03T15:45:43Z</time>
      </trkpt>
      <trkpt lat="48.51199" lon="1.93748">
        <ele>130.3</ele>
        <time>2021-06-03T15:45:45Z</time>
      </trkpt>
      <trkpt lat="48.51192" lon="1.93729">
        <ele>130.8</ele>
        <time>2021-06-03T15:45:47Z</time>
      </trkpt>
      <trkpt lat="48.51185" lon="1.9371">
        <ele>131.3</ele>
        <time>2021-06-03T15:45:49Z</time>
      </trkpt>
      <trkpt lat="48.51179" lon="1.93691">
        <ele>131.4</ele>
        <time>2021-06-03T15:45:51Z</time>
      </trkpt>
      <trkpt lat="48.51175" lon="1.93671">
        <ele>131.2</ele>
        <time>2021-06-03T15:45:53Z</time>
      </trkpt>
      <trkpt lat="48.51168" lon="1.93652">
        <ele>131.3</ele>
        <time>2021-06-03T15:45:55Z</time>
      </trkpt>
      <trkpt lat="48.51163" lon="1.93635">
        <ele>131.5</ele>
        <time>2021-06-03T15:45:57Z</time>
      </trkpt>
      <trkpt lat="48.51155" lon="1.93622">
        <ele>132</ele>
        <time>2021-06-03T15:45:59Z</time>
      </trkpt>
      <trkpt lat="48.51153" lon="1.93606">
        <ele>131.7</ele>
        <time>2021-06-03T15:46:01Z</time>
      </trkpt>
      <trkpt lat="48.51148" lon="1.93593">
        <ele>131.7</ele>
        <time>2021-06-03T15:46:03Z</time>
      </trkpt>
      <trkpt lat="48.51146" lon="1.93587">
        <ele>131.7</ele>
        <time>2021-06-03T15:46:05Z</time>
      </trkpt>
      <trkpt lat="48.51145" lon="1.9358">
        <ele>131.4</ele>
        <time>2021-06-03T15:46:11Z</time>
      </trkpt>
      <trkpt lat="48.51143" lon="1.93572">
        <ele>131.3</ele>
        <time>2021-06-03T15:46:31Z</time>
      </trkpt>
      <trkpt lat="48.51142" lon="1.93564">
        <ele>131.2</ele>
        <time>2021-06-03T15:46:35Z</time>
      </trkpt>
      <trkpt lat="48.5114" lon="1.93551">
        <ele>130.7</ele>
        <time>2021-06-03T15:46:39Z</time>
      </trkpt>
      <trkpt lat="48.51139" lon="1.93544">
        <ele>130.6</ele>
        <time>2021-06-03T15:46:41Z</time>
      </trkpt>
      <trkpt lat="48.51138" lon="1.93534">
        <ele>130.3</ele>
        <time>2021-06-03T15:46:43Z</time>
      </trkpt>
      <trkpt lat="48.51136" lon="1.93524">
        <ele>130.1</ele>
        <time>2021-06-03T15:46:45Z</time>
      </trkpt>
      <trkpt lat="48.51134" lon="1.93513">
        <ele>129.9</ele>
        <time>2021-06-03T15:46:47Z</time>
      </trkpt>
      <trkpt lat="48.5113" lon="1.93502">
        <ele>129.9</ele>
        <time>2021-06-03T15:46:49Z</time>
      </trkpt>
      <trkpt lat="48.51128" lon="1.9349">
        <ele>130.2</ele>
        <time>2021-06-03T15:46:51Z</time>
      </trkpt>
      <trkpt lat="48.51126" lon="1.93479">
        <ele>130.5</ele>
        <time>2021-06-03T15:46:53Z</time>
      </trkpt>
      <trkpt lat="48.51123" lon="1.93469">
        <ele>130.9</ele>
        <time>2021-06-03T15:46:55Z</time>
      </trkpt>
      <trkpt lat="48.51121" lon="1.93458">
        <ele>131.2</ele>
        <time>2021-06-03T15:46:57Z</time>
      </trkpt>
      <trkpt lat="48.51119" lon="1.93448">
        <ele>131.4</ele>
        <time>2021-06-03T15:46:59Z</time>
      </trkpt>
      <trkpt lat="48.51117" lon="1.93436">
        <ele>131.6</ele>
        <time>2021-06-03T15:47:01Z</time>
      </trkpt>
      <trkpt lat="48.51112" lon="1.93424">
        <ele>131.9</ele>
        <time>2021-06-03T15:47:03Z</time>
      </trkpt>
      <trkpt lat="48.5111" lon="1.93413">
        <ele>132</ele>
        <time>2021-06-03T15:47:05Z</time>
      </trkpt>
      <trkpt lat="48.51109" lon="1.93403">
        <ele>132.1</ele>
        <time>2021-06-03T15:47:07Z</time>
      </trkpt>
      <trkpt lat="48.51104" lon="1.93392">
        <ele>132.3</ele>
        <time>2021-06-03T15:47:09Z</time>
      </trkpt>
      <trkpt lat="48.511" lon="1.93382">
        <ele>132.4</ele>
        <time>2021-06-03T15:47:11Z</time>
      </trkpt>
      <trkpt lat="48.51097" lon="1.93374">
        <ele>132.4</ele>
        <time>2021-06-03T15:47:13Z</time>
      </trkpt>
      <trkpt lat="48.51093" lon="1.93368">
        <ele>132.5</ele>
        <time>2021-06-03T15:47:15Z</time>
      </trkpt>
      <trkpt lat="48.51091" lon="1.93362">
        <ele>132.4</ele>
        <time>2021-06-03T15:47:17Z</time>
      </trkpt>
      <trkpt lat="48.51088" lon="1.93356">
        <ele>132.4</ele>
        <time>2021-06-03T15:47:19Z</time>
      </trkpt>
      <trkpt lat="48.51088" lon="1.93344">
        <ele>132.2</ele>
        <time>2021-06-03T15:47:23Z</time>
      </trkpt>
      <trkpt lat="48.51087" lon="1.93337">
        <ele>132</ele>
        <time>2021-06-03T15:47:25Z</time>
      </trkpt>
      <trkpt lat="48.51086" lon="1.93329">
        <ele>131.9</ele>
        <time>2021-06-03T15:47:27Z</time>
      </trkpt>
      <trkpt lat="48.51085" lon="1.9332">
        <ele>131.8</ele>
        <time>2021-06-03T15:47:29Z</time>
      </trkpt>
      <trkpt lat="48.51084" lon="1.93311">
        <ele>131.7</ele>
        <time>2021-06-03T15:47:31Z</time>
      </trkpt>
      <trkpt lat="48.51082" lon="1.93303">
        <ele>131.8</ele>
        <time>2021-06-03T15:47:33Z</time>
      </trkpt>
      <trkpt lat="48.51081" lon="1.93297">
        <ele>131.9</ele>
        <time>2021-06-03T15:47:35Z</time>
      </trkpt>
      <trkpt lat="48.51079" lon="1.93285">
        <ele>131.9</ele>
        <time>2021-06-03T15:47:39Z</time>
      </trkpt>
      <trkpt lat="48.51079" lon="1.93275">
        <ele>131.8</ele>
        <time>2021-06-03T15:47:41Z</time>
      </trkpt>
      <trkpt lat="48.5108" lon="1.93265">
        <ele>131.5</ele>
        <time>2021-06-03T15:47:43Z</time>
      </trkpt>
      <trkpt lat="48.51081" lon="1.93252">
        <ele>131.2</ele>
        <time>2021-06-03T15:47:45Z</time>
      </trkpt>
      <trkpt lat="48.51079" lon="1.93237">
        <ele>131.2</ele>
        <time>2021-06-03T15:47:47Z</time>
      </trkpt>
      <trkpt lat="48.51075" lon="1.93219">
        <ele>131.3</ele>
        <time>2021-06-03T15:47:49Z</time>
      </trkpt>
      <trkpt lat="48.5107" lon="1.93205">
        <ele>131.5</ele>
        <time>2021-06-03T15:47:51Z</time>
      </trkpt>
      <trkpt lat="48.51063" lon="1.9319">
        <ele>131.7</ele>
        <time>2021-06-03T15:47:53Z</time>
      </trkpt>
      <trkpt lat="48.51054" lon="1.93177">
        <ele>132</ele>
        <time>2021-06-03T15:47:55Z</time>
      </trkpt>
      <trkpt lat="48.51043" lon="1.93167">
        <ele>132.4</ele>
        <time>2021-06-03T15:47:57Z</time>
      </trkpt>
      <trkpt lat="48.51032" lon="1.93158">
        <ele>132.7</ele>
        <time>2021-06-03T15:47:59Z</time>
      </trkpt>
      <trkpt lat="48.51021" lon="1.93152">
        <ele>133</ele>
        <time>2021-06-03T15:48:01Z</time>
      </trkpt>
      <trkpt lat="48.5101" lon="1.93143">
        <ele>132.9</ele>
        <time>2021-06-03T15:48:03Z</time>
      </trkpt>
      <trkpt lat="48.51" lon="1.93135">
        <ele>132.7</ele>
        <time>2021-06-03T15:48:05Z</time>
      </trkpt>
      <trkpt lat="48.50991" lon="1.93129">
        <ele>131.7</ele>
        <time>2021-06-03T15:48:07Z</time>
      </trkpt>
      <trkpt lat="48.50983" lon="1.93124">
        <ele>130.8</ele>
        <time>2021-06-03T15:48:09Z</time>
      </trkpt>
      <trkpt lat="48.50974" lon="1.93114">
        <ele>129.7</ele>
        <time>2021-06-03T15:48:11Z</time>
      </trkpt>
      <trkpt lat="48.50969" lon="1.93102">
        <ele>128.6</ele>
        <time>2021-06-03T15:48:13Z</time>
      </trkpt>
      <trkpt lat="48.50963" lon="1.93087">
        <ele>127.4</ele>
        <time>2021-06-03T15:48:15Z</time>
      </trkpt>
      <trkpt lat="48.50962" lon="1.93074">
        <ele>127.3</ele>
        <time>2021-06-03T15:48:17Z</time>
      </trkpt>
      <trkpt lat="48.50957" lon="1.93064">
        <ele>127.2</ele>
        <time>2021-06-03T15:48:19Z</time>
      </trkpt>
      <trkpt lat="48.50955" lon="1.93057">
        <ele>127.2</ele>
        <time>2021-06-03T15:48:21Z</time>
      </trkpt>
      <trkpt lat="48.50951" lon="1.93052">
        <ele>127</ele>
        <time>2021-06-03T15:48:23Z</time>
      </trkpt>
      <trkpt lat="48.50944" lon="1.93042">
        <ele>126.8</ele>
        <time>2021-06-03T15:48:25Z</time>
      </trkpt>
      <trkpt lat="48.50938" lon="1.93033">
        <ele>126.6</ele>
        <time>2021-06-03T15:48:27Z</time>
      </trkpt>
      <trkpt lat="48.50932" lon="1.93025">
        <ele>126.5</ele>
        <time>2021-06-03T15:48:29Z</time>
      </trkpt>
      <trkpt lat="48.50928" lon="1.93017">
        <ele>126.4</ele>
        <time>2021-06-03T15:48:31Z</time>
      </trkpt>
      <trkpt lat="48.50926" lon="1.93011">
        <ele>126.3</ele>
        <time>2021-06-03T15:48:37Z</time>
      </trkpt>
      <trkpt lat="48.50924" lon="1.93003">
        <ele>126.3</ele>
        <time>2021-06-03T15:48:45Z</time>
      </trkpt>
      <trkpt lat="48.50921" lon="1.92997">
        <ele>126.2</ele>
        <time>2021-06-03T15:49:05Z</time>
      </trkpt>
      <trkpt lat="48.50922" lon="1.92988">
        <ele>126.3</ele>
        <time>2021-06-03T15:49:43Z</time>
      </trkpt>
      <trkpt lat="48.50927" lon="1.92978">
        <ele>126.5</ele>
        <time>2021-06-03T15:49:53Z</time>
      </trkpt>
      <trkpt lat="48.5093" lon="1.92972">
        <ele>126.6</ele>
        <time>2021-06-03T15:49:57Z</time>
      </trkpt>
      <trkpt lat="48.50934" lon="1.92964">
        <ele>126.8</ele>
        <time>2021-06-03T15:50:17Z</time>
      </trkpt>
      <trkpt lat="48.50939" lon="1.92954">
        <ele>127.1</ele>
        <time>2021-06-03T15:50:21Z</time>
      </trkpt>
      <trkpt lat="48.50943" lon="1.92945">
        <ele>127.2</ele>
        <time>2021-06-03T15:50:25Z</time>
      </trkpt>
      <trkpt lat="48.50946" lon="1.92939">
        <ele>127.4</ele>
        <time>2021-06-03T15:51:33Z</time>
      </trkpt>
      <trkpt lat="48.5095" lon="1.92928">
        <ele>127.6</ele>
        <time>2021-06-03T15:51:37Z</time>
      </trkpt>
      <trkpt lat="48.50957" lon="1.92919">
        <ele>127.9</ele>
        <time>2021-06-03T15:51:41Z</time>
      </trkpt>
      <trkpt lat="48.50964" lon="1.92913">
        <ele>128.3</ele>
        <time>2021-06-03T15:51:45Z</time>
      </trkpt>
      <trkpt lat="48.50971" lon="1.92911">
        <ele>128.6</ele>
        <time>2021-06-03T15:51:49Z</time>
      </trkpt>
      <trkpt lat="48.50978" lon="1.92908">
        <ele>128.9</ele>
        <time>2021-06-03T15:51:53Z</time>
      </trkpt>
      <trkpt lat="48.50982" lon="1.92898">
        <ele>128.9</ele>
        <time>2021-06-03T15:51:57Z</time>
      </trkpt>
      <trkpt lat="48.50983" lon="1.92887">
        <ele>128.8</ele>
        <time>2021-06-03T15:52:01Z</time>
      </trkpt>
      <trkpt lat="48.50983" lon="1.92877">
        <ele>128.6</ele>
        <time>2021-06-03T15:52:05Z</time>
      </trkpt>
      <trkpt lat="48.50986" lon="1.92869">
        <ele>128.6</ele>
        <time>2021-06-03T15:52:09Z</time>
      </trkpt>
      <trkpt lat="48.5099" lon="1.92861">
        <ele>128.5</ele>
        <time>2021-06-03T15:52:13Z</time>
      </trkpt>
      <trkpt lat="48.50997" lon="1.9286">
        <ele>128.6</ele>
        <time>2021-06-03T15:52:17Z</time>
      </trkpt>
      <trkpt lat="48.51005" lon="1.92861">
        <ele>128.9</ele>
        <time>2021-06-03T15:52:21Z</time>
      </trkpt>
      <trkpt lat="48.51012" lon="1.92854">
        <ele>129</ele>
        <time>2021-06-03T15:52:25Z</time>
      </trkpt>
      <trkpt lat="48.51012" lon="1.92845">
        <ele>128.9</ele>
        <time>2021-06-03T15:52:27Z</time>
      </trkpt>
      <trkpt lat="48.51011" lon="1.92836">
        <ele>128.7</ele>
        <time>2021-06-03T15:52:29Z</time>
      </trkpt>
      <trkpt lat="48.51009" lon="1.92825">
        <ele>128.5</ele>
        <time>2021-06-03T15:52:31Z</time>
      </trkpt>
      <trkpt lat="48.51006" lon="1.92816">
        <ele>128.3</ele>
        <time>2021-06-03T15:52:33Z</time>
      </trkpt>
      <trkpt lat="48.51004" lon="1.92809">
        <ele>128.1</ele>
        <time>2021-06-03T15:52:35Z</time>
      </trkpt>
      <trkpt lat="48.51002" lon="1.928">
        <ele>127.8</ele>
        <time>2021-06-03T15:52:37Z</time>
      </trkpt>
      <trkpt lat="48.51" lon="1.92791">
        <ele>127.5</ele>
        <time>2021-06-03T15:52:39Z</time>
      </trkpt>
      <trkpt lat="48.50998" lon="1.9278">
        <ele>127.3</ele>
        <time>2021-06-03T15:52:41Z</time>
      </trkpt>
      <trkpt lat="48.50995" lon="1.92769">
        <ele>127.1</ele>
        <time>2021-06-03T15:52:43Z</time>
      </trkpt>
      <trkpt lat="48.50992" lon="1.92758">
        <ele>126.8</ele>
        <time>2021-06-03T15:52:45Z</time>
      </trkpt>
      <trkpt lat="48.5099" lon="1.92747">
        <ele>126.7</ele>
        <time>2021-06-03T15:52:47Z</time>
      </trkpt>
      <trkpt lat="48.50988" lon="1.92735">
        <ele>126.9</ele>
        <time>2021-06-03T15:52:49Z</time>
      </trkpt>
      <trkpt lat="48.50986" lon="1.92723">
        <ele>127</ele>
        <time>2021-06-03T15:52:51Z</time>
      </trkpt>
      <trkpt lat="48.50984" lon="1.9271">
        <ele>127.2</ele>
        <time>2021-06-03T15:52:53Z</time>
      </trkpt>
      <trkpt lat="48.50983" lon="1.92696">
        <ele>127.4</ele>
        <time>2021-06-03T15:52:55Z</time>
      </trkpt>
      <trkpt lat="48.50981" lon="1.92684">
        <ele>127.6</ele>
        <time>2021-06-03T15:52:57Z</time>
      </trkpt>
      <trkpt lat="48.50979" lon="1.92671">
        <ele>127.7</ele>
        <time>2021-06-03T15:52:59Z</time>
      </trkpt>
      <trkpt lat="48.50977" lon="1.92658">
        <ele>128</ele>
        <time>2021-06-03T15:53:01Z</time>
      </trkpt>
      <trkpt lat="48.50974" lon="1.92646">
        <ele>128.5</ele>
        <time>2021-06-03T15:53:03Z</time>
      </trkpt>
      <trkpt lat="48.50972" lon="1.92632">
        <ele>129</ele>
        <time>2021-06-03T15:53:05Z</time>
      </trkpt>
      <trkpt lat="48.5097" lon="1.92619">
        <ele>129.4</ele>
        <time>2021-06-03T15:53:07Z</time>
      </trkpt>
      <trkpt lat="48.50967" lon="1.92605">
        <ele>129.8</ele>
        <time>2021-06-03T15:53:09Z</time>
      </trkpt>
      <trkpt lat="48.50965" lon="1.92591">
        <ele>130.3</ele>
        <time>2021-06-03T15:53:11Z</time>
      </trkpt>
      <trkpt lat="48.50964" lon="1.92577">
        <ele>130.6</ele>
        <time>2021-06-03T15:53:13Z</time>
      </trkpt>
      <trkpt lat="48.50964" lon="1.92563">
        <ele>130.8</ele>
        <time>2021-06-03T15:53:15Z</time>
      </trkpt>
      <trkpt lat="48.50965" lon="1.92551">
        <ele>131</ele>
        <time>2021-06-03T15:53:17Z</time>
      </trkpt>
      <trkpt lat="48.50968" lon="1.9254">
        <ele>131.4</ele>
        <time>2021-06-03T15:53:19Z</time>
      </trkpt>
      <trkpt lat="48.50971" lon="1.92527">
        <ele>131.9</ele>
        <time>2021-06-03T15:53:21Z</time>
      </trkpt>
      <trkpt lat="48.50975" lon="1.92514">
        <ele>132.4</ele>
        <time>2021-06-03T15:53:23Z</time>
      </trkpt>
      <trkpt lat="48.50976" lon="1.92501">
        <ele>132.7</ele>
        <time>2021-06-03T15:53:25Z</time>
      </trkpt>
      <trkpt lat="48.50976" lon="1.92486">
        <ele>133.2</ele>
        <time>2021-06-03T15:53:27Z</time>
      </trkpt>
      <trkpt lat="48.50973" lon="1.92472">
        <ele>133.4</ele>
        <time>2021-06-03T15:53:29Z</time>
      </trkpt>
      <trkpt lat="48.50969" lon="1.92461">
        <ele>133.3</ele>
        <time>2021-06-03T15:53:31Z</time>
      </trkpt>
      <trkpt lat="48.50962" lon="1.92451">
        <ele>132.9</ele>
        <time>2021-06-03T15:53:33Z</time>
      </trkpt>
      <trkpt lat="48.50958" lon="1.9244">
        <ele>132.7</ele>
        <time>2021-06-03T15:53:35Z</time>
      </trkpt>
      <trkpt lat="48.50956" lon="1.92428">
        <ele>132.9</ele>
        <time>2021-06-03T15:53:37Z</time>
      </trkpt>
      <trkpt lat="48.50955" lon="1.92416">
        <ele>133.1</ele>
        <time>2021-06-03T15:53:39Z</time>
      </trkpt>
      <trkpt lat="48.50954" lon="1.92404">
        <ele>133.3</ele>
        <time>2021-06-03T15:53:41Z</time>
      </trkpt>
      <trkpt lat="48.50953" lon="1.92392">
        <ele>133.5</ele>
        <time>2021-06-03T15:53:43Z</time>
      </trkpt>
      <trkpt lat="48.50952" lon="1.92381">
        <ele>133.7</ele>
        <time>2021-06-03T15:53:45Z</time>
      </trkpt>
      <trkpt lat="48.50951" lon="1.92371">
        <ele>133.8</ele>
        <time>2021-06-03T15:53:47Z</time>
      </trkpt>
      <trkpt lat="48.50949" lon="1.92361">
        <ele>133.9</ele>
        <time>2021-06-03T15:53:49Z</time>
      </trkpt>
      <trkpt lat="48.50949" lon="1.92353">
        <ele>134</ele>
        <time>2021-06-03T15:53:51Z</time>
      </trkpt>
      <trkpt lat="48.50947" lon="1.92344">
        <ele>134.1</ele>
        <time>2021-06-03T15:53:53Z</time>
      </trkpt>
      <trkpt lat="48.50946" lon="1.92334">
        <ele>134.2</ele>
        <time>2021-06-03T15:53:55Z</time>
      </trkpt>
      <trkpt lat="48.50944" lon="1.92322">
        <ele>134.2</ele>
        <time>2021-06-03T15:53:57Z</time>
      </trkpt>
      <trkpt lat="48.50943" lon="1.9231">
        <ele>134.2</ele>
        <time>2021-06-03T15:53:59Z</time>
      </trkpt>
      <trkpt lat="48.50941" lon="1.92297">
        <ele>134.2</ele>
        <time>2021-06-03T15:54:01Z</time>
      </trkpt>
      <trkpt lat="48.50941" lon="1.92285">
        <ele>134.4</ele>
        <time>2021-06-03T15:54:03Z</time>
      </trkpt>
      <trkpt lat="48.5094" lon="1.92271">
        <ele>134.5</ele>
        <time>2021-06-03T15:54:05Z</time>
      </trkpt>
      <trkpt lat="48.50939" lon="1.9226">
        <ele>134.5</ele>
        <time>2021-06-03T15:54:07Z</time>
      </trkpt>
      <trkpt lat="48.50937" lon="1.92248">
        <ele>134.5</ele>
        <time>2021-06-03T15:54:09Z</time>
      </trkpt>
      <trkpt lat="48.50936" lon="1.92237">
        <ele>134.6</ele>
        <time>2021-06-03T15:54:11Z</time>
      </trkpt>
      <trkpt lat="48.50935" lon="1.92226">
        <ele>134.6</ele>
        <time>2021-06-03T15:54:13Z</time>
      </trkpt>
      <trkpt lat="48.50934" lon="1.92215">
        <ele>134.7</ele>
        <time>2021-06-03T15:54:15Z</time>
      </trkpt>
      <trkpt lat="48.50934" lon="1.92204">
        <ele>134.9</ele>
        <time>2021-06-03T15:54:17Z</time>
      </trkpt>
      <trkpt lat="48.50933" lon="1.92193">
        <ele>135</ele>
        <time>2021-06-03T15:54:19Z</time>
      </trkpt>
      <trkpt lat="48.50932" lon="1.92184">
        <ele>135.1</ele>
        <time>2021-06-03T15:54:21Z</time>
      </trkpt>
      <trkpt lat="48.50933" lon="1.92173">
        <ele>135.3</ele>
        <time>2021-06-03T15:54:23Z</time>
      </trkpt>
      <trkpt lat="48.50932" lon="1.9216">
        <ele>135.8</ele>
        <time>2021-06-03T15:54:25Z</time>
      </trkpt>
      <trkpt lat="48.50933" lon="1.92147">
        <ele>136.6</ele>
        <time>2021-06-03T15:54:27Z</time>
      </trkpt>
      <trkpt lat="48.50931" lon="1.92135">
        <ele>137</ele>
        <time>2021-06-03T15:54:29Z</time>
      </trkpt>
      <trkpt lat="48.50928" lon="1.92122">
        <ele>137.3</ele>
        <time>2021-06-03T15:54:31Z</time>
      </trkpt>
      <trkpt lat="48.50927" lon="1.92111">
        <ele>137.7</ele>
        <time>2021-06-03T15:54:33Z</time>
      </trkpt>
      <trkpt lat="48.50924" lon="1.92099">
        <ele>138</ele>
        <time>2021-06-03T15:54:35Z</time>
      </trkpt>
      <trkpt lat="48.50923" lon="1.92087">
        <ele>138.6</ele>
        <time>2021-06-03T15:54:37Z</time>
      </trkpt>
      <trkpt lat="48.5092" lon="1.92075">
        <ele>138.5</ele>
        <time>2021-06-03T15:54:39Z</time>
      </trkpt>
      <trkpt lat="48.50916" lon="1.92064">
        <ele>138.2</ele>
        <time>2021-06-03T15:54:41Z</time>
      </trkpt>
      <trkpt lat="48.50911" lon="1.92054">
        <ele>138.1</ele>
        <time>2021-06-03T15:54:43Z</time>
      </trkpt>
      <trkpt lat="48.50907" lon="1.92045">
        <ele>138</ele>
        <time>2021-06-03T15:54:45Z</time>
      </trkpt>
      <trkpt lat="48.50902" lon="1.92036">
        <ele>137.8</ele>
        <time>2021-06-03T15:54:47Z</time>
      </trkpt>
      <trkpt lat="48.509" lon="1.92024">
        <ele>137.7</ele>
        <time>2021-06-03T15:54:49Z</time>
      </trkpt>
      <trkpt lat="48.50897" lon="1.92012">
        <ele>137.6</ele>
        <time>2021-06-03T15:54:51Z</time>
      </trkpt>
      <trkpt lat="48.50893" lon="1.92002">
        <ele>137.3</ele>
        <time>2021-06-03T15:54:53Z</time>
      </trkpt>
      <trkpt lat="48.5089" lon="1.91991">
        <ele>137</ele>
        <time>2021-06-03T15:54:55Z</time>
      </trkpt>
      <trkpt lat="48.50888" lon="1.91979">
        <ele>136.9</ele>
        <time>2021-06-03T15:54:57Z</time>
      </trkpt>
      <trkpt lat="48.50888" lon="1.91969">
        <ele>136.8</ele>
        <time>2021-06-03T15:54:59Z</time>
      </trkpt>
      <trkpt lat="48.50884" lon="1.91956">
        <ele>136.4</ele>
        <time>2021-06-03T15:55:01Z</time>
      </trkpt>
      <trkpt lat="48.50882" lon="1.91946">
        <ele>136.1</ele>
        <time>2021-06-03T15:55:03Z</time>
      </trkpt>
      <trkpt lat="48.50879" lon="1.91937">
        <ele>135.7</ele>
        <time>2021-06-03T15:55:05Z</time>
      </trkpt>
      <trkpt lat="48.50877" lon="1.91927">
        <ele>135.3</ele>
        <time>2021-06-03T15:55:07Z</time>
      </trkpt>
      <trkpt lat="48.50878" lon="1.91917">
        <ele>135.4</ele>
        <time>2021-06-03T15:55:09Z</time>
      </trkpt>
      <trkpt lat="48.50881" lon="1.91911">
        <ele>135.6</ele>
        <time>2021-06-03T15:55:11Z</time>
      </trkpt>
      <trkpt lat="48.50885" lon="1.91904">
        <ele>135.7</ele>
        <time>2021-06-03T15:55:13Z</time>
      </trkpt>
      <trkpt lat="48.50889" lon="1.91898">
        <ele>135.9</ele>
        <time>2021-06-03T15:55:15Z</time>
      </trkpt>
      <trkpt lat="48.50893" lon="1.91893">
        <ele>136</ele>
        <time>2021-06-03T15:55:17Z</time>
      </trkpt>
      <trkpt lat="48.50896" lon="1.91888">
        <ele>136.1</ele>
        <time>2021-06-03T15:55:19Z</time>
      </trkpt>
      <trkpt lat="48.509" lon="1.91882">
        <ele>136.1</ele>
        <time>2021-06-03T15:55:21Z</time>
      </trkpt>
      <trkpt lat="48.50904" lon="1.91875">
        <ele>136</ele>
        <time>2021-06-03T15:55:23Z</time>
      </trkpt>
      <trkpt lat="48.50908" lon="1.91867">
        <ele>135.8</ele>
        <time>2021-06-03T15:55:27Z</time>
      </trkpt>
      <trkpt lat="48.50913" lon="1.91867">
        <ele>136.1</ele>
        <time>2021-06-03T15:55:31Z</time>
      </trkpt>
      <trkpt lat="48.50919" lon="1.91864">
        <ele>136.4</ele>
        <time>2021-06-03T15:55:35Z</time>
      </trkpt>
      <trkpt lat="48.50924" lon="1.91861">
        <ele>136.8</ele>
        <time>2021-06-03T15:55:37Z</time>
      </trkpt>
      <trkpt lat="48.50932" lon="1.91853">
        <ele>137.1</ele>
        <time>2021-06-03T15:55:41Z</time>
      </trkpt>
      <trkpt lat="48.50939" lon="1.91847">
        <ele>137.5</ele>
        <time>2021-06-03T15:55:45Z</time>
      </trkpt>
      <trkpt lat="48.50943" lon="1.91844">
        <ele>137.6</ele>
        <time>2021-06-03T15:55:47Z</time>
      </trkpt>
      <trkpt lat="48.50949" lon="1.91838">
        <ele>137.9</ele>
        <time>2021-06-03T15:55:51Z</time>
      </trkpt>
      <trkpt lat="48.50954" lon="1.91834">
        <ele>138.1</ele>
        <time>2021-06-03T15:55:53Z</time>
      </trkpt>
      <trkpt lat="48.50958" lon="1.9183">
        <ele>138.3</ele>
        <time>2021-06-03T15:55:55Z</time>
      </trkpt>
      <trkpt lat="48.50963" lon="1.91828">
        <ele>138.7</ele>
        <time>2021-06-03T15:55:57Z</time>
      </trkpt>
      <trkpt lat="48.50971" lon="1.91821">
        <ele>139</ele>
        <time>2021-06-03T15:56:01Z</time>
      </trkpt>
      <trkpt lat="48.50975" lon="1.91818">
        <ele>139.2</ele>
        <time>2021-06-03T15:56:03Z</time>
      </trkpt>
      <trkpt lat="48.50979" lon="1.91815">
        <ele>139.4</ele>
        <time>2021-06-03T15:56:05Z</time>
      </trkpt>
      <trkpt lat="48.50983" lon="1.91811">
        <ele>139.5</ele>
        <time>2021-06-03T15:56:07Z</time>
      </trkpt>
      <trkpt lat="48.5099" lon="1.91805">
        <ele>139.7</ele>
        <time>2021-06-03T15:56:11Z</time>
      </trkpt>
      <trkpt lat="48.50997" lon="1.91798">
        <ele>139.8</ele>
        <time>2021-06-03T15:56:15Z</time>
      </trkpt>
      <trkpt lat="48.51003" lon="1.91795">
        <ele>140.2</ele>
        <time>2021-06-03T15:56:19Z</time>
      </trkpt>
      <trkpt lat="48.51011" lon="1.91791">
        <ele>140.9</ele>
        <time>2021-06-03T15:56:23Z</time>
      </trkpt>
      <trkpt lat="48.51016" lon="1.91786">
        <ele>141.1</ele>
        <time>2021-06-03T15:56:27Z</time>
      </trkpt>
      <trkpt lat="48.51022" lon="1.91784">
        <ele>141.8</ele>
        <time>2021-06-03T15:56:31Z</time>
      </trkpt>
      <trkpt lat="48.51029" lon="1.91783">
        <ele>142.6</ele>
        <time>2021-06-03T15:56:35Z</time>
      </trkpt>
      <trkpt lat="48.51034" lon="1.91782">
        <ele>143.2</ele>
        <time>2021-06-03T15:56:39Z</time>
      </trkpt>
      <trkpt lat="48.5104" lon="1.91782">
        <ele>143.9</ele>
        <time>2021-06-03T15:56:43Z</time>
      </trkpt>
      <trkpt lat="48.51046" lon="1.91784">
        <ele>144.9</ele>
        <time>2021-06-03T15:56:47Z</time>
      </trkpt>
      <trkpt lat="48.51053" lon="1.91785">
        <ele>145.9</ele>
        <time>2021-06-03T15:56:53Z</time>
      </trkpt>
      <trkpt lat="48.51059" lon="1.91783">
        <ele>146.6</ele>
        <time>2021-06-03T15:56:59Z</time>
      </trkpt>
      <trkpt lat="48.51066" lon="1.91782">
        <ele>147.4</ele>
        <time>2021-06-03T15:57:05Z</time>
      </trkpt>
      <trkpt lat="48.51071" lon="1.9178">
        <ele>147.8</ele>
        <time>2021-06-03T15:57:09Z</time>
      </trkpt>
      <trkpt lat="48.51075" lon="1.91776">
        <ele>148.1</ele>
        <time>2021-06-03T15:57:13Z</time>
      </trkpt>
      <trkpt lat="48.51079" lon="1.91773">
        <ele>148.4</ele>
        <time>2021-06-03T15:57:17Z</time>
      </trkpt>
      <trkpt lat="48.51085" lon="1.9177">
        <ele>148.8</ele>
        <time>2021-06-03T15:57:23Z</time>
      </trkpt>
      <trkpt lat="48.51089" lon="1.91768">
        <ele>148.9</ele>
        <time>2021-06-03T15:57:27Z</time>
      </trkpt>
      <trkpt lat="48.51095" lon="1.91764">
        <ele>149.1</ele>
        <time>2021-06-03T15:57:33Z</time>
      </trkpt>
      <trkpt lat="48.51102" lon="1.91762">
        <ele>149.4</ele>
        <time>2021-06-03T15:57:39Z</time>
      </trkpt>
      <trkpt lat="48.51107" lon="1.91759">
        <ele>149.5</ele>
        <time>2021-06-03T15:57:43Z</time>
      </trkpt>
      <trkpt lat="48.51113" lon="1.91756">
        <ele>149.9</ele>
        <time>2021-06-03T15:57:47Z</time>
      </trkpt>
      <trkpt lat="48.51119" lon="1.91755">
        <ele>150.2</ele>
        <time>2021-06-03T15:57:51Z</time>
      </trkpt>
      <trkpt lat="48.51125" lon="1.91752">
        <ele>150.6</ele>
        <time>2021-06-03T15:57:55Z</time>
      </trkpt>
      <trkpt lat="48.5113" lon="1.91751">
        <ele>151</ele>
        <time>2021-06-03T15:57:59Z</time>
      </trkpt>
      <trkpt lat="48.51136" lon="1.9175">
        <ele>151.4</ele>
        <time>2021-06-03T15:58:03Z</time>
      </trkpt>
      <trkpt lat="48.5114" lon="1.91746">
        <ele>151.2</ele>
        <time>2021-06-03T15:58:07Z</time>
      </trkpt>
      <trkpt lat="48.51145" lon="1.91744">
        <ele>151.3</ele>
        <time>2021-06-03T15:58:11Z</time>
      </trkpt>
      <trkpt lat="48.5115" lon="1.91742">
        <ele>151.4</ele>
        <time>2021-06-03T15:58:15Z</time>
      </trkpt>
      <trkpt lat="48.51155" lon="1.91742">
        <ele>151.8</ele>
        <time>2021-06-03T15:58:21Z</time>
      </trkpt>
      <trkpt lat="48.51162" lon="1.91744">
        <ele>152.7</ele>
        <time>2021-06-03T15:58:27Z</time>
      </trkpt>
      <trkpt lat="48.51169" lon="1.91744">
        <ele>153.1</ele>
        <time>2021-06-03T15:58:31Z</time>
      </trkpt>
      <trkpt lat="48.51175" lon="1.91745">
        <ele>153.5</ele>
        <time>2021-06-03T15:58:35Z</time>
      </trkpt>
      <trkpt lat="48.51182" lon="1.91749">
        <ele>154.2</ele>
        <time>2021-06-03T15:58:39Z</time>
      </trkpt>
      <trkpt lat="48.51189" lon="1.91752">
        <ele>154.6</ele>
        <time>2021-06-03T15:58:43Z</time>
      </trkpt>
      <trkpt lat="48.51196" lon="1.91755">
        <ele>154.8</ele>
        <time>2021-06-03T15:58:47Z</time>
      </trkpt>
      <trkpt lat="48.51203" lon="1.9176">
        <ele>155.1</ele>
        <time>2021-06-03T15:58:51Z</time>
      </trkpt>
      <trkpt lat="48.51211" lon="1.91765">
        <ele>155.3</ele>
        <time>2021-06-03T15:58:55Z</time>
      </trkpt>
      <trkpt lat="48.51217" lon="1.9177">
        <ele>155.5</ele>
        <time>2021-06-03T15:58:59Z</time>
      </trkpt>
      <trkpt lat="48.51224" lon="1.91775">
        <ele>155.8</ele>
        <time>2021-06-03T15:59:03Z</time>
      </trkpt>
      <trkpt lat="48.51228" lon="1.91779">
        <ele>155.9</ele>
        <time>2021-06-03T15:59:05Z</time>
      </trkpt>
      <trkpt lat="48.51235" lon="1.91785">
        <ele>156.1</ele>
        <time>2021-06-03T15:59:09Z</time>
      </trkpt>
      <trkpt lat="48.51242" lon="1.91792">
        <ele>156.4</ele>
        <time>2021-06-03T15:59:13Z</time>
      </trkpt>
      <trkpt lat="48.51249" lon="1.91798">
        <ele>156.6</ele>
        <time>2021-06-03T15:59:17Z</time>
      </trkpt>
      <trkpt lat="48.51257" lon="1.91805">
        <ele>156.9</ele>
        <time>2021-06-03T15:59:21Z</time>
      </trkpt>
      <trkpt lat="48.51261" lon="1.91809">
        <ele>157.1</ele>
        <time>2021-06-03T15:59:23Z</time>
      </trkpt>
      <trkpt lat="48.51265" lon="1.91812">
        <ele>157.3</ele>
        <time>2021-06-03T15:59:25Z</time>
      </trkpt>
      <trkpt lat="48.51269" lon="1.91816">
        <ele>157.5</ele>
        <time>2021-06-03T15:59:27Z</time>
      </trkpt>
      <trkpt lat="48.51273" lon="1.9182">
        <ele>157.7</ele>
        <time>2021-06-03T15:59:29Z</time>
      </trkpt>
      <trkpt lat="48.51278" lon="1.91824">
        <ele>157.9</ele>
        <time>2021-06-03T15:59:31Z</time>
      </trkpt>
      <trkpt lat="48.51282" lon="1.91828">
        <ele>158.1</ele>
        <time>2021-06-03T15:59:33Z</time>
      </trkpt>
      <trkpt lat="48.51286" lon="1.91832">
        <ele>158.3</ele>
        <time>2021-06-03T15:59:35Z</time>
      </trkpt>
      <trkpt lat="48.5129" lon="1.91836">
        <ele>158.5</ele>
        <time>2021-06-03T15:59:37Z</time>
      </trkpt>
      <trkpt lat="48.51295" lon="1.91839">
        <ele>158.6</ele>
        <time>2021-06-03T15:59:39Z</time>
      </trkpt>
      <trkpt lat="48.51299" lon="1.91843">
        <ele>158.7</ele>
        <time>2021-06-03T15:59:41Z</time>
      </trkpt>
      <trkpt lat="48.51303" lon="1.91848">
        <ele>158.9</ele>
        <time>2021-06-03T15:59:43Z</time>
      </trkpt>
      <trkpt lat="48.51307" lon="1.91852">
        <ele>159</ele>
        <time>2021-06-03T15:59:45Z</time>
      </trkpt>
      <trkpt lat="48.51311" lon="1.91856">
        <ele>159.1</ele>
        <time>2021-06-03T15:59:47Z</time>
      </trkpt>
      <trkpt lat="48.51316" lon="1.91859">
        <ele>159.2</ele>
        <time>2021-06-03T15:59:49Z</time>
      </trkpt>
      <trkpt lat="48.51321" lon="1.91863">
        <ele>159.3</ele>
        <time>2021-06-03T15:59:51Z</time>
      </trkpt>
      <trkpt lat="48.51326" lon="1.91868">
        <ele>159.4</ele>
        <time>2021-06-03T15:59:53Z</time>
      </trkpt>
      <trkpt lat="48.5133" lon="1.91871">
        <ele>159.5</ele>
        <time>2021-06-03T15:59:55Z</time>
      </trkpt>
      <trkpt lat="48.51336" lon="1.91875">
        <ele>159.5</ele>
        <time>2021-06-03T15:59:57Z</time>
      </trkpt>
      <trkpt lat="48.51341" lon="1.91879">
        <ele>159.4</ele>
        <time>2021-06-03T15:59:59Z</time>
      </trkpt>
      <trkpt lat="48.51347" lon="1.91883">
        <ele>159.3</ele>
        <time>2021-06-03T16:00:01Z</time>
      </trkpt>
      <trkpt lat="48.51352" lon="1.91887">
        <ele>159.3</ele>
        <time>2021-06-03T16:00:03Z</time>
      </trkpt>
      <trkpt lat="48.51357" lon="1.91891">
        <ele>159.2</ele>
        <time>2021-06-03T16:00:05Z</time>
      </trkpt>
      <trkpt lat="48.51362" lon="1.91895">
        <ele>159.2</ele>
        <time>2021-06-03T16:00:07Z</time>
      </trkpt>
      <trkpt lat="48.51368" lon="1.91898">
        <ele>159.1</ele>
        <time>2021-06-03T16:00:09Z</time>
      </trkpt>
      <trkpt lat="48.51374" lon="1.91895">
        <ele>159.1</ele>
        <time>2021-06-03T16:00:11Z</time>
      </trkpt>
      <trkpt lat="48.51379" lon="1.9189">
        <ele>159.1</ele>
        <time>2021-06-03T16:00:13Z</time>
      </trkpt>
      <trkpt lat="48.51385" lon="1.91886">
        <ele>159.1</ele>
        <time>2021-06-03T16:00:15Z</time>
      </trkpt>
      <trkpt lat="48.5139" lon="1.91882">
        <ele>159.1</ele>
        <time>2021-06-03T16:00:17Z</time>
      </trkpt>
      <trkpt lat="48.51396" lon="1.91877">
        <ele>159.1</ele>
        <time>2021-06-03T16:00:19Z</time>
      </trkpt>
      <trkpt lat="48.51402" lon="1.91872">
        <ele>159.1</ele>
        <time>2021-06-03T16:00:21Z</time>
      </trkpt>
      <trkpt lat="48.51409" lon="1.91868">
        <ele>159.1</ele>
        <time>2021-06-03T16:00:23Z</time>
      </trkpt>
      <trkpt lat="48.51415" lon="1.91864">
        <ele>159</ele>
        <time>2021-06-03T16:00:25Z</time>
      </trkpt>
      <trkpt lat="48.51422" lon="1.9186">
        <ele>159</ele>
        <time>2021-06-03T16:00:27Z</time>
      </trkpt>
      <trkpt lat="48.51429" lon="1.91855">
        <ele>159</ele>
        <time>2021-06-03T16:00:29Z</time>
      </trkpt>
      <trkpt lat="48.51436" lon="1.9185">
        <ele>159</ele>
        <time>2021-06-03T16:00:31Z</time>
      </trkpt>
      <trkpt lat="48.5144" lon="1.91843">
        <ele>159</ele>
        <time>2021-06-03T16:00:33Z</time>
      </trkpt>
      <trkpt lat="48.51443" lon="1.91834">
        <ele>159</ele>
        <time>2021-06-03T16:00:35Z</time>
      </trkpt>
      <trkpt lat="48.51446" lon="1.91824">
        <ele>158.9</ele>
        <time>2021-06-03T16:00:37Z</time>
      </trkpt>
      <trkpt lat="48.51446" lon="1.91817">
        <ele>158.8</ele>
        <time>2021-06-03T16:00:39Z</time>
      </trkpt>
      <trkpt lat="48.51442" lon="1.9181">
        <ele>158.7</ele>
        <time>2021-06-03T16:00:41Z</time>
      </trkpt>
      <trkpt lat="48.51437" lon="1.91805">
        <ele>158.7</ele>
        <time>2021-06-03T16:00:43Z</time>
      </trkpt>
      <trkpt lat="48.51432" lon="1.91801">
        <ele>158.6</ele>
        <time>2021-06-03T16:00:45Z</time>
      </trkpt>
      <trkpt lat="48.51427" lon="1.91797">
        <ele>158.6</ele>
        <time>2021-06-03T16:00:47Z</time>
      </trkpt>
      <trkpt lat="48.51423" lon="1.91792">
        <ele>158.5</ele>
        <time>2021-06-03T16:00:49Z</time>
      </trkpt>
      <trkpt lat="48.51419" lon="1.91788">
        <ele>158.5</ele>
        <time>2021-06-03T16:00:53Z</time>
      </trkpt>
      <trkpt lat="48.5142" lon="1.91798">
        <ele>158.6</ele>
        <time>2021-06-03T16:00:57Z</time>
      </trkpt>
      <trkpt lat="48.51424" lon="1.91801">
        <ele>158.6</ele>
        <time>2021-06-03T16:00:59Z</time>
      </trkpt>
      <trkpt lat="48.51428" lon="1.91804">
        <ele>158.7</ele>
        <time>2021-06-03T16:01:01Z</time>
      </trkpt>
      <trkpt lat="48.51432" lon="1.91808">
        <ele>158.7</ele>
        <time>2021-06-03T16:01:03Z</time>
      </trkpt>
      <trkpt lat="48.51438" lon="1.91811">
        <ele>158.7</ele>
        <time>2021-06-03T16:01:05Z</time>
      </trkpt>
      <trkpt lat="48.51444" lon="1.91813">
        <ele>158.8</ele>
        <time>2021-06-03T16:01:07Z</time>
      </trkpt>
      <trkpt lat="48.5145" lon="1.91817">
        <ele>158.8</ele>
        <time>2021-06-03T16:01:09Z</time>
      </trkpt>
      <trkpt lat="48.51457" lon="1.91821">
        <ele>158.9</ele>
        <time>2021-06-03T16:01:11Z</time>
      </trkpt>
      <trkpt lat="48.51464" lon="1.91825">
        <ele>158.9</ele>
        <time>2021-06-03T16:01:13Z</time>
      </trkpt>
      <trkpt lat="48.51471" lon="1.91829">
        <ele>158.9</ele>
        <time>2021-06-03T16:01:15Z</time>
      </trkpt>
      <trkpt lat="48.51478" lon="1.91833">
        <ele>159</ele>
        <time>2021-06-03T16:01:17Z</time>
      </trkpt>
      <trkpt lat="48.51485" lon="1.91836">
        <ele>159</ele>
        <time>2021-06-03T16:01:19Z</time>
      </trkpt>
      <trkpt lat="48.51493" lon="1.91839">
        <ele>159</ele>
        <time>2021-06-03T16:01:21Z</time>
      </trkpt>
      <trkpt lat="48.51501" lon="1.91842">
        <ele>159</ele>
        <time>2021-06-03T16:01:23Z</time>
      </trkpt>
      <trkpt lat="48.51508" lon="1.91846">
        <ele>158.9</ele>
        <time>2021-06-03T16:01:25Z</time>
      </trkpt>
      <trkpt lat="48.51516" lon="1.91849">
        <ele>158.8</ele>
        <time>2021-06-03T16:01:27Z</time>
      </trkpt>
      <trkpt lat="48.51525" lon="1.91851">
        <ele>158.7</ele>
        <time>2021-06-03T16:01:29Z</time>
      </trkpt>
      <trkpt lat="48.51533" lon="1.91853">
        <ele>158.6</ele>
        <time>2021-06-03T16:01:31Z</time>
      </trkpt>
      <trkpt lat="48.5154" lon="1.91855">
        <ele>158.5</ele>
        <time>2021-06-03T16:01:33Z</time>
      </trkpt>
      <trkpt lat="48.51548" lon="1.91856">
        <ele>158.4</ele>
        <time>2021-06-03T16:01:35Z</time>
      </trkpt>
      <trkpt lat="48.51555" lon="1.91857">
        <ele>158.3</ele>
        <time>2021-06-03T16:01:37Z</time>
      </trkpt>
      <trkpt lat="48.51564" lon="1.91857">
        <ele>158.2</ele>
        <time>2021-06-03T16:01:39Z</time>
      </trkpt>
      <trkpt lat="48.51572" lon="1.91857">
        <ele>158.1</ele>
        <time>2021-06-03T16:01:41Z</time>
      </trkpt>
      <trkpt lat="48.5158" lon="1.91857">
        <ele>158</ele>
        <time>2021-06-03T16:01:43Z</time>
      </trkpt>
      <trkpt lat="48.51588" lon="1.91857">
        <ele>158</ele>
        <time>2021-06-03T16:01:45Z</time>
      </trkpt>
      <trkpt lat="48.51595" lon="1.91856">
        <ele>157.9</ele>
        <time>2021-06-03T16:01:47Z</time>
      </trkpt>
      <trkpt lat="48.51603" lon="1.91855">
        <ele>157.8</ele>
        <time>2021-06-03T16:01:49Z</time>
      </trkpt>
      <trkpt lat="48.51611" lon="1.91856">
        <ele>157.8</ele>
        <time>2021-06-03T16:01:51Z</time>
      </trkpt>
      <trkpt lat="48.51618" lon="1.91855">
        <ele>157.7</ele>
        <time>2021-06-03T16:01:53Z</time>
      </trkpt>
      <trkpt lat="48.51625" lon="1.91855">
        <ele>157.6</ele>
        <time>2021-06-03T16:01:55Z</time>
      </trkpt>
      <trkpt lat="48.51633" lon="1.91855">
        <ele>157.6</ele>
        <time>2021-06-03T16:01:57Z</time>
      </trkpt>
      <trkpt lat="48.5164" lon="1.91854">
        <ele>157.5</ele>
        <time>2021-06-03T16:01:59Z</time>
      </trkpt>
      <trkpt lat="48.51648" lon="1.91853">
        <ele>157.4</ele>
        <time>2021-06-03T16:02:01Z</time>
      </trkpt>
      <trkpt lat="48.51656" lon="1.91853">
        <ele>157.3</ele>
        <time>2021-06-03T16:02:03Z</time>
      </trkpt>
      <trkpt lat="48.51664" lon="1.91852">
        <ele>157.2</ele>
        <time>2021-06-03T16:02:05Z</time>
      </trkpt>
      <trkpt lat="48.51672" lon="1.91852">
        <ele>157.2</ele>
        <time>2021-06-03T16:02:07Z</time>
      </trkpt>
      <trkpt lat="48.5168" lon="1.91851">
        <ele>157.2</ele>
        <time>2021-06-03T16:02:09Z</time>
      </trkpt>
      <trkpt lat="48.51688" lon="1.9185">
        <ele>157.1</ele>
        <time>2021-06-03T16:02:11Z</time>
      </trkpt>
      <trkpt lat="48.51695" lon="1.91849">
        <ele>157.1</ele>
        <time>2021-06-03T16:02:13Z</time>
      </trkpt>
      <trkpt lat="48.51703" lon="1.91849">
        <ele>157.1</ele>
        <time>2021-06-03T16:02:15Z</time>
      </trkpt>
      <trkpt lat="48.51711" lon="1.91848">
        <ele>157.1</ele>
        <time>2021-06-03T16:02:17Z</time>
      </trkpt>
      <trkpt lat="48.51719" lon="1.91847">
        <ele>157.1</ele>
        <time>2021-06-03T16:02:19Z</time>
      </trkpt>
      <trkpt lat="48.51727" lon="1.91847">
        <ele>157</ele>
        <time>2021-06-03T16:02:21Z</time>
      </trkpt>
      <trkpt lat="48.51736" lon="1.91846">
        <ele>157</ele>
        <time>2021-06-03T16:02:23Z</time>
      </trkpt>
      <trkpt lat="48.51744" lon="1.91845">
        <ele>157</ele>
        <time>2021-06-03T16:02:25Z</time>
      </trkpt>
      <trkpt lat="48.51752" lon="1.91844">
        <ele>157</ele>
        <time>2021-06-03T16:02:27Z</time>
      </trkpt>
      <trkpt lat="48.51761" lon="1.91843">
        <ele>157</ele>
        <time>2021-06-03T16:02:29Z</time>
      </trkpt>
      <trkpt lat="48.51769" lon="1.91842">
        <ele>157</ele>
        <time>2021-06-03T16:02:31Z</time>
      </trkpt>
      <trkpt lat="48.51777" lon="1.9184">
        <ele>157</ele>
        <time>2021-06-03T16:02:33Z</time>
      </trkpt>
      <trkpt lat="48.51786" lon="1.91839">
        <ele>157</ele>
        <time>2021-06-03T16:02:35Z</time>
      </trkpt>
      <trkpt lat="48.51794" lon="1.91837">
        <ele>157</ele>
        <time>2021-06-03T16:02:37Z</time>
      </trkpt>
      <trkpt lat="48.51802" lon="1.91836">
        <ele>157</ele>
        <time>2021-06-03T16:02:39Z</time>
      </trkpt>
      <trkpt lat="48.5181" lon="1.91836">
        <ele>157</ele>
        <time>2021-06-03T16:02:41Z</time>
      </trkpt>
      <trkpt lat="48.51817" lon="1.91835">
        <ele>157</ele>
        <time>2021-06-03T16:02:43Z</time>
      </trkpt>
      <trkpt lat="48.51825" lon="1.91833">
        <ele>157</ele>
        <time>2021-06-03T16:02:45Z</time>
      </trkpt>
      <trkpt lat="48.51833" lon="1.91833">
        <ele>157</ele>
        <time>2021-06-03T16:02:47Z</time>
      </trkpt>
      <trkpt lat="48.51841" lon="1.91831">
        <ele>157.1</ele>
        <time>2021-06-03T16:02:49Z</time>
      </trkpt>
      <trkpt lat="48.51849" lon="1.9183">
        <ele>157.2</ele>
        <time>2021-06-03T16:02:51Z</time>
      </trkpt>
      <trkpt lat="48.51858" lon="1.91829">
        <ele>157.3</ele>
        <time>2021-06-03T16:02:53Z</time>
      </trkpt>
      <trkpt lat="48.51866" lon="1.91827">
        <ele>157.4</ele>
        <time>2021-06-03T16:02:55Z</time>
      </trkpt>
      <trkpt lat="48.51875" lon="1.91826">
        <ele>157.4</ele>
        <time>2021-06-03T16:02:57Z</time>
      </trkpt>
      <trkpt lat="48.51883" lon="1.91824">
        <ele>157.5</ele>
        <time>2021-06-03T16:02:59Z</time>
      </trkpt>
      <trkpt lat="48.5189" lon="1.91823">
        <ele>157.6</ele>
        <time>2021-06-03T16:03:01Z</time>
      </trkpt>
      <trkpt lat="48.51898" lon="1.91821">
        <ele>157.7</ele>
        <time>2021-06-03T16:03:03Z</time>
      </trkpt>
      <trkpt lat="48.51906" lon="1.9182">
        <ele>157.7</ele>
        <time>2021-06-03T16:03:05Z</time>
      </trkpt>
      <trkpt lat="48.51914" lon="1.91819">
        <ele>157.8</ele>
        <time>2021-06-03T16:03:07Z</time>
      </trkpt>
      <trkpt lat="48.51922" lon="1.91817">
        <ele>157.8</ele>
        <time>2021-06-03T16:03:09Z</time>
      </trkpt>
      <trkpt lat="48.5193" lon="1.91816">
        <ele>157.8</ele>
        <time>2021-06-03T16:03:11Z</time>
      </trkpt>
      <trkpt lat="48.51938" lon="1.91814">
        <ele>157.8</ele>
        <time>2021-06-03T16:03:13Z</time>
      </trkpt>
      <trkpt lat="48.51946" lon="1.91812">
        <ele>157.8</ele>
        <time>2021-06-03T16:03:15Z</time>
      </trkpt>
      <trkpt lat="48.51954" lon="1.9181">
        <ele>157.8</ele>
        <time>2021-06-03T16:03:17Z</time>
      </trkpt>
      <trkpt lat="48.51962" lon="1.91809">
        <ele>157.9</ele>
        <time>2021-06-03T16:03:19Z</time>
      </trkpt>
      <trkpt lat="48.51971" lon="1.91808">
        <ele>157.9</ele>
        <time>2021-06-03T16:03:21Z</time>
      </trkpt>
      <trkpt lat="48.51978" lon="1.91807">
        <ele>157.9</ele>
        <time>2021-06-03T16:03:23Z</time>
      </trkpt>
      <trkpt lat="48.51985" lon="1.91805">
        <ele>157.9</ele>
        <time>2021-06-03T16:03:25Z</time>
      </trkpt>
      <trkpt lat="48.51993" lon="1.91804">
        <ele>158</ele>
        <time>2021-06-03T16:03:27Z</time>
      </trkpt>
      <trkpt lat="48.51999" lon="1.91804">
        <ele>158</ele>
        <time>2021-06-03T16:03:29Z</time>
      </trkpt>
      <trkpt lat="48.52006" lon="1.91805">
        <ele>158</ele>
        <time>2021-06-03T16:03:31Z</time>
      </trkpt>
      <trkpt lat="48.52012" lon="1.91804">
        <ele>158.1</ele>
        <time>2021-06-03T16:03:33Z</time>
      </trkpt>
      <trkpt lat="48.52019" lon="1.91803">
        <ele>158.1</ele>
        <time>2021-06-03T16:03:35Z</time>
      </trkpt>
      <trkpt lat="48.52026" lon="1.91801">
        <ele>158.1</ele>
        <time>2021-06-03T16:03:37Z</time>
      </trkpt>
      <trkpt lat="48.52033" lon="1.918">
        <ele>158.2</ele>
        <time>2021-06-03T16:03:39Z</time>
      </trkpt>
      <trkpt lat="48.52039" lon="1.91798">
        <ele>158.2</ele>
        <time>2021-06-03T16:03:41Z</time>
      </trkpt>
      <trkpt lat="48.52046" lon="1.91796">
        <ele>158.2</ele>
        <time>2021-06-03T16:03:43Z</time>
      </trkpt>
      <trkpt lat="48.52052" lon="1.91793">
        <ele>158.3</ele>
        <time>2021-06-03T16:03:45Z</time>
      </trkpt>
      <trkpt lat="48.52058" lon="1.91791">
        <ele>158.4</ele>
        <time>2021-06-03T16:03:47Z</time>
      </trkpt>
      <trkpt lat="48.52064" lon="1.91788">
        <ele>158.4</ele>
        <time>2021-06-03T16:03:49Z</time>
      </trkpt>
      <trkpt lat="48.52071" lon="1.91785">
        <ele>158.5</ele>
        <time>2021-06-03T16:03:51Z</time>
      </trkpt>
      <trkpt lat="48.52077" lon="1.91782">
        <ele>158.6</ele>
        <time>2021-06-03T16:03:53Z</time>
      </trkpt>
      <trkpt lat="48.52083" lon="1.91779">
        <ele>158.7</ele>
        <time>2021-06-03T16:03:55Z</time>
      </trkpt>
      <trkpt lat="48.52089" lon="1.91776">
        <ele>158.8</ele>
        <time>2021-06-03T16:03:57Z</time>
      </trkpt>
      <trkpt lat="48.52095" lon="1.91772">
        <ele>158.9</ele>
        <time>2021-06-03T16:03:59Z</time>
      </trkpt>
      <trkpt lat="48.52101" lon="1.91769">
        <ele>159</ele>
        <time>2021-06-03T16:04:01Z</time>
      </trkpt>
      <trkpt lat="48.52107" lon="1.91765">
        <ele>159.1</ele>
        <time>2021-06-03T16:04:03Z</time>
      </trkpt>
      <trkpt lat="48.52113" lon="1.91762">
        <ele>159.2</ele>
        <time>2021-06-03T16:04:05Z</time>
      </trkpt>
      <trkpt lat="48.5212" lon="1.91759">
        <ele>159.3</ele>
        <time>2021-06-03T16:04:07Z</time>
      </trkpt>
      <trkpt lat="48.52126" lon="1.91756">
        <ele>159.4</ele>
        <time>2021-06-03T16:04:09Z</time>
      </trkpt>
      <trkpt lat="48.52132" lon="1.91753">
        <ele>159.5</ele>
        <time>2021-06-03T16:04:11Z</time>
      </trkpt>
      <trkpt lat="48.52138" lon="1.9175">
        <ele>159.7</ele>
        <time>2021-06-03T16:04:13Z</time>
      </trkpt>
      <trkpt lat="48.52144" lon="1.91747">
        <ele>159.7</ele>
        <time>2021-06-03T16:04:15Z</time>
      </trkpt>
      <trkpt lat="48.5215" lon="1.91744">
        <ele>159.7</ele>
        <time>2021-06-03T16:04:17Z</time>
      </trkpt>
      <trkpt lat="48.52156" lon="1.91741">
        <ele>159.8</ele>
        <time>2021-06-03T16:04:19Z</time>
      </trkpt>
      <trkpt lat="48.52161" lon="1.91737">
        <ele>159.8</ele>
        <time>2021-06-03T16:04:21Z</time>
      </trkpt>
      <trkpt lat="48.52167" lon="1.91734">
        <ele>159.8</ele>
        <time>2021-06-03T16:04:25Z</time>
      </trkpt>
      <trkpt lat="48.52173" lon="1.91733">
        <ele>159.7</ele>
        <time>2021-06-03T16:04:27Z</time>
      </trkpt>
      <trkpt lat="48.52178" lon="1.91734">
        <ele>159.7</ele>
        <time>2021-06-03T16:04:29Z</time>
      </trkpt>
      <trkpt lat="48.52184" lon="1.91734">
        <ele>159.6</ele>
        <time>2021-06-03T16:04:31Z</time>
      </trkpt>
      <trkpt lat="48.52188" lon="1.91735">
        <ele>159.6</ele>
        <time>2021-06-03T16:04:33Z</time>
      </trkpt>
      <trkpt lat="48.52195" lon="1.91734">
        <ele>159.5</ele>
        <time>2021-06-03T16:05:29Z</time>
      </trkpt>
      <trkpt lat="48.52202" lon="1.91734">
        <ele>159.5</ele>
        <time>2021-06-03T16:05:35Z</time>
      </trkpt>
      <trkpt lat="48.52209" lon="1.91733">
        <ele>159.4</ele>
        <time>2021-06-03T16:05:39Z</time>
      </trkpt>
      <trkpt lat="48.52213" lon="1.91733">
        <ele>159.3</ele>
        <time>2021-06-03T16:05:41Z</time>
      </trkpt>
      <trkpt lat="48.52219" lon="1.91734">
        <ele>159.3</ele>
        <time>2021-06-03T16:05:43Z</time>
      </trkpt>
      <trkpt lat="48.52226" lon="1.91733">
        <ele>159.2</ele>
        <time>2021-06-03T16:05:45Z</time>
      </trkpt>
      <trkpt lat="48.52234" lon="1.91733">
        <ele>159.2</ele>
        <time>2021-06-03T16:05:47Z</time>
      </trkpt>
      <trkpt lat="48.52241" lon="1.91734">
        <ele>159.1</ele>
        <time>2021-06-03T16:05:49Z</time>
      </trkpt>
      <trkpt lat="48.52248" lon="1.91736">
        <ele>159</ele>
        <time>2021-06-03T16:05:51Z</time>
      </trkpt>
      <trkpt lat="48.52255" lon="1.91738">
        <ele>158.9</ele>
        <time>2021-06-03T16:05:53Z</time>
      </trkpt>
      <trkpt lat="48.52261" lon="1.9174">
        <ele>158.8</ele>
        <time>2021-06-03T16:05:55Z</time>
      </trkpt>
      <trkpt lat="48.52266" lon="1.91743">
        <ele>158.6</ele>
        <time>2021-06-03T16:05:57Z</time>
      </trkpt>
      <trkpt lat="48.52272" lon="1.91745">
        <ele>158.5</ele>
        <time>2021-06-03T16:05:59Z</time>
      </trkpt>
      <trkpt lat="48.52278" lon="1.91748">
        <ele>158.3</ele>
        <time>2021-06-03T16:06:01Z</time>
      </trkpt>
      <trkpt lat="48.52284" lon="1.9175">
        <ele>158.2</ele>
        <time>2021-06-03T16:06:03Z</time>
      </trkpt>
      <trkpt lat="48.52291" lon="1.91753">
        <ele>158</ele>
        <time>2021-06-03T16:06:05Z</time>
      </trkpt>
      <trkpt lat="48.52299" lon="1.91755">
        <ele>157.9</ele>
        <time>2021-06-03T16:06:07Z</time>
      </trkpt>
      <trkpt lat="48.52306" lon="1.91758">
        <ele>157.7</ele>
        <time>2021-06-03T16:06:09Z</time>
      </trkpt>
      <trkpt lat="48.52312" lon="1.91761">
        <ele>157.6</ele>
        <time>2021-06-03T16:06:11Z</time>
      </trkpt>
      <trkpt lat="48.5232" lon="1.91765">
        <ele>157.5</ele>
        <time>2021-06-03T16:06:13Z</time>
      </trkpt>
      <trkpt lat="48.52328" lon="1.91769">
        <ele>157.3</ele>
        <time>2021-06-03T16:06:15Z</time>
      </trkpt>
      <trkpt lat="48.52336" lon="1.91773">
        <ele>157.2</ele>
        <time>2021-06-03T16:06:17Z</time>
      </trkpt>
      <trkpt lat="48.52344" lon="1.91776">
        <ele>157.1</ele>
        <time>2021-06-03T16:06:19Z</time>
      </trkpt>
      <trkpt lat="48.52353" lon="1.91781">
        <ele>157.1</ele>
        <time>2021-06-03T16:06:21Z</time>
      </trkpt>
      <trkpt lat="48.5236" lon="1.91785">
        <ele>157.1</ele>
        <time>2021-06-03T16:06:23Z</time>
      </trkpt>
      <trkpt lat="48.52365" lon="1.91788">
        <ele>157</ele>
        <time>2021-06-03T16:06:25Z</time>
      </trkpt>
      <trkpt lat="48.52374" lon="1.91796">
        <ele>157.1</ele>
        <time>2021-06-03T16:06:29Z</time>
      </trkpt>
      <trkpt lat="48.52382" lon="1.91797">
        <ele>157.1</ele>
        <time>2021-06-03T16:06:31Z</time>
      </trkpt>
      <trkpt lat="48.5239" lon="1.91798">
        <ele>157</ele>
        <time>2021-06-03T16:06:33Z</time>
      </trkpt>
      <trkpt lat="48.52399" lon="1.91799">
        <ele>156.9</ele>
        <time>2021-06-03T16:06:35Z</time>
      </trkpt>
      <trkpt lat="48.5241" lon="1.91801">
        <ele>156.9</ele>
        <time>2021-06-03T16:06:37Z</time>
      </trkpt>
      <trkpt lat="48.52421" lon="1.91802">
        <ele>156.8</ele>
        <time>2021-06-03T16:06:39Z</time>
      </trkpt>
      <trkpt lat="48.52433" lon="1.91803">
        <ele>156.7</ele>
        <time>2021-06-03T16:06:41Z</time>
      </trkpt>
      <trkpt lat="48.52444" lon="1.91805">
        <ele>156.7</ele>
        <time>2021-06-03T16:06:43Z</time>
      </trkpt>
      <trkpt lat="48.52456" lon="1.91809">
        <ele>156.6</ele>
        <time>2021-06-03T16:06:45Z</time>
      </trkpt>
      <trkpt lat="48.52467" lon="1.91812">
        <ele>156.5</ele>
        <time>2021-06-03T16:06:47Z</time>
      </trkpt>
      <trkpt lat="48.52478" lon="1.91807">
        <ele>156.3</ele>
        <time>2021-06-03T16:06:49Z</time>
      </trkpt>
      <trkpt lat="48.52488" lon="1.91801">
        <ele>156.1</ele>
        <time>2021-06-03T16:06:51Z</time>
      </trkpt>
      <trkpt lat="48.52497" lon="1.91794">
        <ele>156</ele>
        <time>2021-06-03T16:06:53Z</time>
      </trkpt>
      <trkpt lat="48.52506" lon="1.91788">
        <ele>156.2</ele>
        <time>2021-06-03T16:06:55Z</time>
      </trkpt>
      <trkpt lat="48.52514" lon="1.91783">
        <ele>156.5</ele>
        <time>2021-06-03T16:06:57Z</time>
      </trkpt>
      <trkpt lat="48.52522" lon="1.91778">
        <ele>156.8</ele>
        <time>2021-06-03T16:06:59Z</time>
      </trkpt>
      <trkpt lat="48.52529" lon="1.91772">
        <ele>157.1</ele>
        <time>2021-06-03T16:07:01Z</time>
      </trkpt>
      <trkpt lat="48.52536" lon="1.91766">
        <ele>157.3</ele>
        <time>2021-06-03T16:07:03Z</time>
      </trkpt>
      <trkpt lat="48.52543" lon="1.91761">
        <ele>157.5</ele>
        <time>2021-06-03T16:07:05Z</time>
      </trkpt>
      <trkpt lat="48.5255" lon="1.91757">
        <ele>157.8</ele>
        <time>2021-06-03T16:07:07Z</time>
      </trkpt>
      <trkpt lat="48.52558" lon="1.91751">
        <ele>158.1</ele>
        <time>2021-06-03T16:07:09Z</time>
      </trkpt>
      <trkpt lat="48.52566" lon="1.91746">
        <ele>158.4</ele>
        <time>2021-06-03T16:07:11Z</time>
      </trkpt>
      <trkpt lat="48.52573" lon="1.91742">
        <ele>158.7</ele>
        <time>2021-06-03T16:07:13Z</time>
      </trkpt>
      <trkpt lat="48.52581" lon="1.91738">
        <ele>158.9</ele>
        <time>2021-06-03T16:07:15Z</time>
      </trkpt>
      <trkpt lat="48.52589" lon="1.91736">
        <ele>159</ele>
        <time>2021-06-03T16:07:17Z</time>
      </trkpt>
      <trkpt lat="48.52596" lon="1.91734">
        <ele>159</ele>
        <time>2021-06-03T16:07:19Z</time>
      </trkpt>
      <trkpt lat="48.52604" lon="1.91732">
        <ele>159.1</ele>
        <time>2021-06-03T16:07:21Z</time>
      </trkpt>
      <trkpt lat="48.52612" lon="1.9173">
        <ele>159.1</ele>
        <time>2021-06-03T16:07:23Z</time>
      </trkpt>
      <trkpt lat="48.52619" lon="1.91728">
        <ele>159.1</ele>
        <time>2021-06-03T16:07:25Z</time>
      </trkpt>
      <trkpt lat="48.52625" lon="1.91726">
        <ele>159.1</ele>
        <time>2021-06-03T16:07:27Z</time>
      </trkpt>
      <trkpt lat="48.52632" lon="1.91724">
        <ele>159.2</ele>
        <time>2021-06-03T16:07:29Z</time>
      </trkpt>
      <trkpt lat="48.52639" lon="1.91724">
        <ele>159.2</ele>
        <time>2021-06-03T16:07:31Z</time>
      </trkpt>
      <trkpt lat="48.52645" lon="1.91728">
        <ele>159.2</ele>
        <time>2021-06-03T16:07:33Z</time>
      </trkpt>
      <trkpt lat="48.5265" lon="1.91736">
        <ele>159.1</ele>
        <time>2021-06-03T16:07:35Z</time>
      </trkpt>
      <trkpt lat="48.52654" lon="1.91744">
        <ele>159.1</ele>
        <time>2021-06-03T16:07:37Z</time>
      </trkpt>
      <trkpt lat="48.52659" lon="1.91751">
        <ele>159</ele>
        <time>2021-06-03T16:07:39Z</time>
      </trkpt>
      <trkpt lat="48.52664" lon="1.91758">
        <ele>158.9</ele>
        <time>2021-06-03T16:07:41Z</time>
      </trkpt>
      <trkpt lat="48.52668" lon="1.91765">
        <ele>158.8</ele>
        <time>2021-06-03T16:07:43Z</time>
      </trkpt>
      <trkpt lat="48.52673" lon="1.91773">
        <ele>158.7</ele>
        <time>2021-06-03T16:07:45Z</time>
      </trkpt>
      <trkpt lat="48.52679" lon="1.91779">
        <ele>158.6</ele>
        <time>2021-06-03T16:07:47Z</time>
      </trkpt>
      <trkpt lat="48.52686" lon="1.91784">
        <ele>158.5</ele>
        <time>2021-06-03T16:07:49Z</time>
      </trkpt>
      <trkpt lat="48.52693" lon="1.9179">
        <ele>158.4</ele>
        <time>2021-06-03T16:07:51Z</time>
      </trkpt>
      <trkpt lat="48.527" lon="1.91795">
        <ele>158.3</ele>
        <time>2021-06-03T16:07:53Z</time>
      </trkpt>
      <trkpt lat="48.52707" lon="1.918">
        <ele>158.2</ele>
        <time>2021-06-03T16:07:55Z</time>
      </trkpt>
      <trkpt lat="48.52713" lon="1.91804">
        <ele>158.2</ele>
        <time>2021-06-03T16:07:57Z</time>
      </trkpt>
      <trkpt lat="48.52719" lon="1.91808">
        <ele>158.1</ele>
        <time>2021-06-03T16:07:59Z</time>
      </trkpt>
      <trkpt lat="48.52725" lon="1.91812">
        <ele>158.1</ele>
        <time>2021-06-03T16:08:01Z</time>
      </trkpt>
      <trkpt lat="48.52731" lon="1.91817">
        <ele>158</ele>
        <time>2021-06-03T16:08:03Z</time>
      </trkpt>
      <trkpt lat="48.52737" lon="1.91822">
        <ele>158</ele>
        <time>2021-06-03T16:08:05Z</time>
      </trkpt>
      <trkpt lat="48.52744" lon="1.91827">
        <ele>158</ele>
        <time>2021-06-03T16:08:07Z</time>
      </trkpt>
      <trkpt lat="48.52752" lon="1.91831">
        <ele>158</ele>
        <time>2021-06-03T16:08:09Z</time>
      </trkpt>
      <trkpt lat="48.52759" lon="1.91836">
        <ele>157.9</ele>
        <time>2021-06-03T16:08:11Z</time>
      </trkpt>
      <trkpt lat="48.52766" lon="1.91841">
        <ele>157.7</ele>
        <time>2021-06-03T16:08:13Z</time>
      </trkpt>
      <trkpt lat="48.52773" lon="1.91845">
        <ele>157.6</ele>
        <time>2021-06-03T16:08:15Z</time>
      </trkpt>
      <trkpt lat="48.52779" lon="1.9185">
        <ele>157.5</ele>
        <time>2021-06-03T16:08:17Z</time>
      </trkpt>
      <trkpt lat="48.52786" lon="1.91855">
        <ele>157.4</ele>
        <time>2021-06-03T16:08:19Z</time>
      </trkpt>
      <trkpt lat="48.52793" lon="1.9186">
        <ele>157.3</ele>
        <time>2021-06-03T16:08:21Z</time>
      </trkpt>
      <trkpt lat="48.528" lon="1.91865">
        <ele>157.2</ele>
        <time>2021-06-03T16:08:23Z</time>
      </trkpt>
      <trkpt lat="48.52807" lon="1.9187">
        <ele>157.2</ele>
        <time>2021-06-03T16:08:25Z</time>
      </trkpt>
      <trkpt lat="48.52813" lon="1.91875">
        <ele>157.1</ele>
        <time>2021-06-03T16:08:27Z</time>
      </trkpt>
      <trkpt lat="48.5282" lon="1.91879">
        <ele>157.1</ele>
        <time>2021-06-03T16:08:29Z</time>
      </trkpt>
      <trkpt lat="48.52827" lon="1.91884">
        <ele>157</ele>
        <time>2021-06-03T16:08:31Z</time>
      </trkpt>
      <trkpt lat="48.52834" lon="1.91889">
        <ele>157</ele>
        <time>2021-06-03T16:08:33Z</time>
      </trkpt>
      <trkpt lat="48.52841" lon="1.91893">
        <ele>156.9</ele>
        <time>2021-06-03T16:08:35Z</time>
      </trkpt>
      <trkpt lat="48.52848" lon="1.91898">
        <ele>156.9</ele>
        <time>2021-06-03T16:08:37Z</time>
      </trkpt>
      <trkpt lat="48.52855" lon="1.91903">
        <ele>156.8</ele>
        <time>2021-06-03T16:08:39Z</time>
      </trkpt>
      <trkpt lat="48.52862" lon="1.91908">
        <ele>156.7</ele>
        <time>2021-06-03T16:08:41Z</time>
      </trkpt>
      <trkpt lat="48.5287" lon="1.91914">
        <ele>156.6</ele>
        <time>2021-06-03T16:08:43Z</time>
      </trkpt>
      <trkpt lat="48.52877" lon="1.91919">
        <ele>156.5</ele>
        <time>2021-06-03T16:08:45Z</time>
      </trkpt>
      <trkpt lat="48.52885" lon="1.91924">
        <ele>156.4</ele>
        <time>2021-06-03T16:08:47Z</time>
      </trkpt>
      <trkpt lat="48.52892" lon="1.91929">
        <ele>156.3</ele>
        <time>2021-06-03T16:08:49Z</time>
      </trkpt>
      <trkpt lat="48.52899" lon="1.91935">
        <ele>156.2</ele>
        <time>2021-06-03T16:08:51Z</time>
      </trkpt>
      <trkpt lat="48.52907" lon="1.9194">
        <ele>156.1</ele>
        <time>2021-06-03T16:08:53Z</time>
      </trkpt>
      <trkpt lat="48.52914" lon="1.91945">
        <ele>156</ele>
        <time>2021-06-03T16:08:55Z</time>
      </trkpt>
      <trkpt lat="48.52923" lon="1.91951">
        <ele>155.9</ele>
        <time>2021-06-03T16:08:57Z</time>
      </trkpt>
      <trkpt lat="48.5293" lon="1.91956">
        <ele>155.8</ele>
        <time>2021-06-03T16:08:59Z</time>
      </trkpt>
      <trkpt lat="48.52938" lon="1.91962">
        <ele>155.6</ele>
        <time>2021-06-03T16:09:01Z</time>
      </trkpt>
      <trkpt lat="48.52945" lon="1.91967">
        <ele>155.4</ele>
        <time>2021-06-03T16:09:03Z</time>
      </trkpt>
      <trkpt lat="48.52954" lon="1.91974">
        <ele>155.2</ele>
        <time>2021-06-03T16:09:05Z</time>
      </trkpt>
      <trkpt lat="48.52963" lon="1.91979">
        <ele>155</ele>
        <time>2021-06-03T16:09:07Z</time>
      </trkpt>
      <trkpt lat="48.52971" lon="1.91985">
        <ele>154.8</ele>
        <time>2021-06-03T16:09:09Z</time>
      </trkpt>
      <trkpt lat="48.5298" lon="1.91991">
        <ele>154.6</ele>
        <time>2021-06-03T16:09:11Z</time>
      </trkpt>
      <trkpt lat="48.52988" lon="1.91997">
        <ele>154.3</ele>
        <time>2021-06-03T16:09:13Z</time>
      </trkpt>
      <trkpt lat="48.52997" lon="1.92004">
        <ele>154</ele>
        <time>2021-06-03T16:09:15Z</time>
      </trkpt>
      <trkpt lat="48.53005" lon="1.9201">
        <ele>153.6</ele>
        <time>2021-06-03T16:09:17Z</time>
      </trkpt>
      <trkpt lat="48.53014" lon="1.92016">
        <ele>153.1</ele>
        <time>2021-06-03T16:09:19Z</time>
      </trkpt>
      <trkpt lat="48.53024" lon="1.92023">
        <ele>152.6</ele>
        <time>2021-06-03T16:09:21Z</time>
      </trkpt>
      <trkpt lat="48.53034" lon="1.9203">
        <ele>152</ele>
        <time>2021-06-03T16:09:23Z</time>
      </trkpt>
      <trkpt lat="48.53046" lon="1.92038">
        <ele>151.4</ele>
        <time>2021-06-03T16:09:25Z</time>
      </trkpt>
      <trkpt lat="48.53058" lon="1.92047">
        <ele>150.8</ele>
        <time>2021-06-03T16:09:27Z</time>
      </trkpt>
      <trkpt lat="48.53071" lon="1.92056">
        <ele>150.1</ele>
        <time>2021-06-03T16:09:29Z</time>
      </trkpt>
      <trkpt lat="48.53084" lon="1.92065">
        <ele>149.5</ele>
        <time>2021-06-03T16:09:31Z</time>
      </trkpt>
      <trkpt lat="48.53096" lon="1.92074">
        <ele>149.7</ele>
        <time>2021-06-03T16:09:33Z</time>
      </trkpt>
      <trkpt lat="48.53107" lon="1.92083">
        <ele>150.1</ele>
        <time>2021-06-03T16:09:35Z</time>
      </trkpt>
      <trkpt lat="48.53118" lon="1.9209">
        <ele>150.7</ele>
        <time>2021-06-03T16:09:37Z</time>
      </trkpt>
      <trkpt lat="48.53127" lon="1.92097">
        <ele>151.2</ele>
        <time>2021-06-03T16:09:39Z</time>
      </trkpt>
      <trkpt lat="48.53136" lon="1.92102">
        <ele>151.8</ele>
        <time>2021-06-03T16:09:41Z</time>
      </trkpt>
      <trkpt lat="48.53142" lon="1.92107">
        <ele>152.2</ele>
        <time>2021-06-03T16:09:43Z</time>
      </trkpt>
      <trkpt lat="48.53147" lon="1.92113">
        <ele>152.7</ele>
        <time>2021-06-03T16:09:45Z</time>
      </trkpt>
      <trkpt lat="48.53153" lon="1.92122">
        <ele>153.3</ele>
        <time>2021-06-03T16:09:47Z</time>
      </trkpt>
      <trkpt lat="48.53159" lon="1.92129">
        <ele>154</ele>
        <time>2021-06-03T16:09:49Z</time>
      </trkpt>
      <trkpt lat="48.53166" lon="1.92135">
        <ele>154.8</ele>
        <time>2021-06-03T16:09:53Z</time>
      </trkpt>
      <trkpt lat="48.53171" lon="1.92141">
        <ele>155.4</ele>
        <time>2021-06-03T16:09:57Z</time>
      </trkpt>
      <trkpt lat="48.53176" lon="1.92144">
        <ele>155.9</ele>
        <time>2021-06-03T16:10:01Z</time>
      </trkpt>
      <trkpt lat="48.53182" lon="1.92147">
        <ele>156.4</ele>
        <time>2021-06-03T16:10:05Z</time>
      </trkpt>
      <trkpt lat="48.53189" lon="1.92151">
        <ele>156.9</ele>
        <time>2021-06-03T16:10:09Z</time>
      </trkpt>
      <trkpt lat="48.53195" lon="1.92156">
        <ele>157.4</ele>
        <time>2021-06-03T16:10:13Z</time>
      </trkpt>
      <trkpt lat="48.53201" lon="1.92163">
        <ele>158</ele>
        <time>2021-06-03T16:10:17Z</time>
      </trkpt>
      <trkpt lat="48.53205" lon="1.92167">
        <ele>158.3</ele>
        <time>2021-06-03T16:10:19Z</time>
      </trkpt>
      <trkpt lat="48.53211" lon="1.92174">
        <ele>158.8</ele>
        <time>2021-06-03T16:10:23Z</time>
      </trkpt>
      <trkpt lat="48.53217" lon="1.92182">
        <ele>159.4</ele>
        <time>2021-06-03T16:10:27Z</time>
      </trkpt>
      <trkpt lat="48.53221" lon="1.92188">
        <ele>159.8</ele>
        <time>2021-06-03T16:10:31Z</time>
      </trkpt>
      <trkpt lat="48.53227" lon="1.92195">
        <ele>160.3</ele>
        <time>2021-06-03T16:10:35Z</time>
      </trkpt>
      <trkpt lat="48.53231" lon="1.922">
        <ele>160.6</ele>
        <time>2021-06-03T16:10:37Z</time>
      </trkpt>
      <trkpt lat="48.53236" lon="1.92209">
        <ele>161.2</ele>
        <time>2021-06-03T16:10:41Z</time>
      </trkpt>
      <trkpt lat="48.5324" lon="1.92215">
        <ele>161.5</ele>
        <time>2021-06-03T16:10:43Z</time>
      </trkpt>
      <trkpt lat="48.53244" lon="1.9222">
        <ele>161.9</ele>
        <time>2021-06-03T16:10:45Z</time>
      </trkpt>
      <trkpt lat="48.53248" lon="1.92226">
        <ele>162.3</ele>
        <time>2021-06-03T16:10:47Z</time>
      </trkpt>
      <trkpt lat="48.53252" lon="1.92231">
        <ele>162.5</ele>
        <time>2021-06-03T16:10:49Z</time>
      </trkpt>
      <trkpt lat="48.5326" lon="1.92236">
        <ele>162.6</ele>
        <time>2021-06-03T16:10:53Z</time>
      </trkpt>
      <trkpt lat="48.53265" lon="1.9224">
        <ele>162.6</ele>
        <time>2021-06-03T16:10:55Z</time>
      </trkpt>
      <trkpt lat="48.5327" lon="1.92244">
        <ele>162.7</ele>
        <time>2021-06-03T16:10:57Z</time>
      </trkpt>
      <trkpt lat="48.53278" lon="1.92253">
        <ele>162.7</ele>
        <time>2021-06-03T16:11:01Z</time>
      </trkpt>
      <trkpt lat="48.53283" lon="1.92257">
        <ele>162.8</ele>
        <time>2021-06-03T16:11:03Z</time>
      </trkpt>
      <trkpt lat="48.53289" lon="1.92261">
        <ele>162.8</ele>
        <time>2021-06-03T16:11:05Z</time>
      </trkpt>
      <trkpt lat="48.53294" lon="1.92266">
        <ele>162.9</ele>
        <time>2021-06-03T16:11:07Z</time>
      </trkpt>
      <trkpt lat="48.53301" lon="1.92269">
        <ele>162.8</ele>
        <time>2021-06-03T16:11:09Z</time>
      </trkpt>
      <trkpt lat="48.53308" lon="1.92271">
        <ele>162.8</ele>
        <time>2021-06-03T16:11:11Z</time>
      </trkpt>
      <trkpt lat="48.53313" lon="1.92273">
        <ele>162.8</ele>
        <time>2021-06-03T16:11:13Z</time>
      </trkpt>
      <trkpt lat="48.53318" lon="1.92276">
        <ele>162.8</ele>
        <time>2021-06-03T16:11:15Z</time>
      </trkpt>
      <trkpt lat="48.53324" lon="1.92276">
        <ele>162.7</ele>
        <time>2021-06-03T16:11:17Z</time>
      </trkpt>
      <trkpt lat="48.53331" lon="1.92277">
        <ele>162.7</ele>
        <time>2021-06-03T16:11:19Z</time>
      </trkpt>
      <trkpt lat="48.53335" lon="1.92279">
        <ele>162.7</ele>
        <time>2021-06-03T16:11:21Z</time>
      </trkpt>
      <trkpt lat="48.5334" lon="1.92282">
        <ele>162.9</ele>
        <time>2021-06-03T16:11:23Z</time>
      </trkpt>
      <trkpt lat="48.53347" lon="1.92287">
        <ele>163.1</ele>
        <time>2021-06-03T16:11:25Z</time>
      </trkpt>
      <trkpt lat="48.53351" lon="1.92291">
        <ele>163.2</ele>
        <time>2021-06-03T16:11:27Z</time>
      </trkpt>
      <trkpt lat="48.53357" lon="1.92296">
        <ele>163.4</ele>
        <time>2021-06-03T16:11:29Z</time>
      </trkpt>
      <trkpt lat="48.53364" lon="1.92296">
        <ele>163.4</ele>
        <time>2021-06-03T16:11:31Z</time>
      </trkpt>
      <trkpt lat="48.5337" lon="1.92299">
        <ele>163.5</ele>
        <time>2021-06-03T16:11:33Z</time>
      </trkpt>
      <trkpt lat="48.53375" lon="1.92304">
        <ele>163.6</ele>
        <time>2021-06-03T16:11:35Z</time>
      </trkpt>
      <trkpt lat="48.53379" lon="1.9231">
        <ele>163.7</ele>
        <time>2021-06-03T16:11:37Z</time>
      </trkpt>
      <trkpt lat="48.53384" lon="1.92318">
        <ele>163.9</ele>
        <time>2021-06-03T16:11:39Z</time>
      </trkpt>
      <trkpt lat="48.53389" lon="1.92327">
        <ele>163.9</ele>
        <time>2021-06-03T16:11:41Z</time>
      </trkpt>
      <trkpt lat="48.53396" lon="1.92336">
        <ele>164</ele>
        <time>2021-06-03T16:11:43Z</time>
      </trkpt>
      <trkpt lat="48.53402" lon="1.92345">
        <ele>164</ele>
        <time>2021-06-03T16:11:45Z</time>
      </trkpt>
      <trkpt lat="48.53408" lon="1.92353">
        <ele>164</ele>
        <time>2021-06-03T16:11:47Z</time>
      </trkpt>
      <trkpt lat="48.53416" lon="1.9236">
        <ele>164</ele>
        <time>2021-06-03T16:11:49Z</time>
      </trkpt>
      <trkpt lat="48.53423" lon="1.92367">
        <ele>164</ele>
        <time>2021-06-03T16:11:51Z</time>
      </trkpt>
      <trkpt lat="48.53428" lon="1.92376">
        <ele>164.1</ele>
        <time>2021-06-03T16:11:53Z</time>
      </trkpt>
      <trkpt lat="48.53433" lon="1.92384">
        <ele>164.1</ele>
        <time>2021-06-03T16:11:55Z</time>
      </trkpt>
      <trkpt lat="48.53438" lon="1.92393">
        <ele>164.1</ele>
        <time>2021-06-03T16:11:57Z</time>
      </trkpt>
      <trkpt lat="48.53443" lon="1.92398">
        <ele>164.1</ele>
        <time>2021-06-03T16:11:59Z</time>
      </trkpt>
      <trkpt lat="48.53447" lon="1.92403">
        <ele>164.1</ele>
        <time>2021-06-03T16:12:01Z</time>
      </trkpt>
      <trkpt lat="48.5345" lon="1.92413">
        <ele>164</ele>
        <time>2021-06-03T16:12:03Z</time>
      </trkpt>
      <trkpt lat="48.53454" lon="1.92422">
        <ele>164</ele>
        <time>2021-06-03T16:12:05Z</time>
      </trkpt>
      <trkpt lat="48.53458" lon="1.9243">
        <ele>164.1</ele>
        <time>2021-06-03T16:12:07Z</time>
      </trkpt>
      <trkpt lat="48.53462" lon="1.92433">
        <ele>164.1</ele>
        <time>2021-06-03T16:12:09Z</time>
      </trkpt>
      <trkpt lat="48.53467" lon="1.92439">
        <ele>164.2</ele>
        <time>2021-06-03T16:12:11Z</time>
      </trkpt>
      <trkpt lat="48.53472" lon="1.92445">
        <ele>164.2</ele>
        <time>2021-06-03T16:12:13Z</time>
      </trkpt>
      <trkpt lat="48.53478" lon="1.92448">
        <ele>164.3</ele>
        <time>2021-06-03T16:12:15Z</time>
      </trkpt>
      <trkpt lat="48.53484" lon="1.92453">
        <ele>164.4</ele>
        <time>2021-06-03T16:12:17Z</time>
      </trkpt>
      <trkpt lat="48.5349" lon="1.92462">
        <ele>164.5</ele>
        <time>2021-06-03T16:12:19Z</time>
      </trkpt>
      <trkpt lat="48.53494" lon="1.92471">
        <ele>164.6</ele>
        <time>2021-06-03T16:12:21Z</time>
      </trkpt>
      <trkpt lat="48.53499" lon="1.92477">
        <ele>164.7</ele>
        <time>2021-06-03T16:12:23Z</time>
      </trkpt>
      <trkpt lat="48.53504" lon="1.92487">
        <ele>164.8</ele>
        <time>2021-06-03T16:12:25Z</time>
      </trkpt>
      <trkpt lat="48.53507" lon="1.92497">
        <ele>164.9</ele>
        <time>2021-06-03T16:12:27Z</time>
      </trkpt>
      <trkpt lat="48.53512" lon="1.92506">
        <ele>164.9</ele>
        <time>2021-06-03T16:12:29Z</time>
      </trkpt>
      <trkpt lat="48.53518" lon="1.92515">
        <ele>164.8</ele>
        <time>2021-06-03T16:12:31Z</time>
      </trkpt>
      <trkpt lat="48.53522" lon="1.92525">
        <ele>164.8</ele>
        <time>2021-06-03T16:12:33Z</time>
      </trkpt>
      <trkpt lat="48.53528" lon="1.92535">
        <ele>164.8</ele>
        <time>2021-06-03T16:12:35Z</time>
      </trkpt>
      <trkpt lat="48.53533" lon="1.92544">
        <ele>164.8</ele>
        <time>2021-06-03T16:12:37Z</time>
      </trkpt>
      <trkpt lat="48.53536" lon="1.92554">
        <ele>164.8</ele>
        <time>2021-06-03T16:12:39Z</time>
      </trkpt>
      <trkpt lat="48.5354" lon="1.92564">
        <ele>164.9</ele>
        <time>2021-06-03T16:12:41Z</time>
      </trkpt>
      <trkpt lat="48.53545" lon="1.92572">
        <ele>164.9</ele>
        <time>2021-06-03T16:12:43Z</time>
      </trkpt>
      <trkpt lat="48.53551" lon="1.92579">
        <ele>165</ele>
        <time>2021-06-03T16:12:45Z</time>
      </trkpt>
      <trkpt lat="48.53557" lon="1.92584">
        <ele>165</ele>
        <time>2021-06-03T16:12:47Z</time>
      </trkpt>
      <trkpt lat="48.53563" lon="1.92592">
        <ele>165.1</ele>
        <time>2021-06-03T16:12:49Z</time>
      </trkpt>
      <trkpt lat="48.53567" lon="1.92602">
        <ele>165.2</ele>
        <time>2021-06-03T16:12:51Z</time>
      </trkpt>
      <trkpt lat="48.53573" lon="1.92612">
        <ele>165.3</ele>
        <time>2021-06-03T16:12:53Z</time>
      </trkpt>
      <trkpt lat="48.53578" lon="1.92621">
        <ele>165.4</ele>
        <time>2021-06-03T16:12:55Z</time>
      </trkpt>
      <trkpt lat="48.53583" lon="1.92627">
        <ele>165.5</ele>
        <time>2021-06-03T16:12:57Z</time>
      </trkpt>
      <trkpt lat="48.5359" lon="1.92635">
        <ele>165.4</ele>
        <time>2021-06-03T16:12:59Z</time>
      </trkpt>
      <trkpt lat="48.53595" lon="1.92642">
        <ele>165.2</ele>
        <time>2021-06-03T16:13:01Z</time>
      </trkpt>
      <trkpt lat="48.53601" lon="1.92648">
        <ele>165</ele>
        <time>2021-06-03T16:13:03Z</time>
      </trkpt>
      <trkpt lat="48.53607" lon="1.92654">
        <ele>164.8</ele>
        <time>2021-06-03T16:13:05Z</time>
      </trkpt>
      <trkpt lat="48.53616" lon="1.92662">
        <ele>164.4</ele>
        <time>2021-06-03T16:13:07Z</time>
      </trkpt>
      <trkpt lat="48.53622" lon="1.92669">
        <ele>164.1</ele>
        <time>2021-06-03T16:13:09Z</time>
      </trkpt>
      <trkpt lat="48.53628" lon="1.92675">
        <ele>163.9</ele>
        <time>2021-06-03T16:13:11Z</time>
      </trkpt>
      <trkpt lat="48.53635" lon="1.92679">
        <ele>163.6</ele>
        <time>2021-06-03T16:13:13Z</time>
      </trkpt>
      <trkpt lat="48.53645" lon="1.92683">
        <ele>163.2</ele>
        <time>2021-06-03T16:13:15Z</time>
      </trkpt>
      <trkpt lat="48.53655" lon="1.92686">
        <ele>162.8</ele>
        <time>2021-06-03T16:13:17Z</time>
      </trkpt>
      <trkpt lat="48.53664" lon="1.92691">
        <ele>162.4</ele>
        <time>2021-06-03T16:13:19Z</time>
      </trkpt>
      <trkpt lat="48.53676" lon="1.92695">
        <ele>161.8</ele>
        <time>2021-06-03T16:13:21Z</time>
      </trkpt>
      <trkpt lat="48.53688" lon="1.927">
        <ele>161.1</ele>
        <time>2021-06-03T16:13:23Z</time>
      </trkpt>
      <trkpt lat="48.53699" lon="1.92702">
        <ele>160.6</ele>
        <time>2021-06-03T16:13:25Z</time>
      </trkpt>
      <trkpt lat="48.53713" lon="1.92705">
        <ele>159.7</ele>
        <time>2021-06-03T16:13:27Z</time>
      </trkpt>
      <trkpt lat="48.53727" lon="1.92709">
        <ele>158.9</ele>
        <time>2021-06-03T16:13:29Z</time>
      </trkpt>
      <trkpt lat="48.53742" lon="1.92718">
        <ele>157.9</ele>
        <time>2021-06-03T16:13:31Z</time>
      </trkpt>
      <trkpt lat="48.53759" lon="1.92727">
        <ele>156.5</ele>
        <time>2021-06-03T16:13:33Z</time>
      </trkpt>
      <trkpt lat="48.53777" lon="1.92736">
        <ele>154.8</ele>
        <time>2021-06-03T16:13:35Z</time>
      </trkpt>
      <trkpt lat="48.53792" lon="1.9275">
        <ele>153</ele>
        <time>2021-06-03T16:13:37Z</time>
      </trkpt>
      <trkpt lat="48.53809" lon="1.92761">
        <ele>150.3</ele>
        <time>2021-06-03T16:13:39Z</time>
      </trkpt>
      <trkpt lat="48.53828" lon="1.92773">
        <ele>147.6</ele>
        <time>2021-06-03T16:13:41Z</time>
      </trkpt>
      <trkpt lat="48.53847" lon="1.92783">
        <ele>147.1</ele>
        <time>2021-06-03T16:13:43Z</time>
      </trkpt>
      <trkpt lat="48.53867" lon="1.9279">
        <ele>148</ele>
        <time>2021-06-03T16:13:45Z</time>
      </trkpt>
      <trkpt lat="48.53881" lon="1.928">
        <ele>148.7</ele>
        <time>2021-06-03T16:13:47Z</time>
      </trkpt>
      <trkpt lat="48.53893" lon="1.92814">
        <ele>149.4</ele>
        <time>2021-06-03T16:13:49Z</time>
      </trkpt>
      <trkpt lat="48.53899" lon="1.92829">
        <ele>149.9</ele>
        <time>2021-06-03T16:13:51Z</time>
      </trkpt>
      <trkpt lat="48.53904" lon="1.92841">
        <ele>150.7</ele>
        <time>2021-06-03T16:13:53Z</time>
      </trkpt>
      <trkpt lat="48.53908" lon="1.92848">
        <ele>151.5</ele>
        <time>2021-06-03T16:13:55Z</time>
      </trkpt>
      <trkpt lat="48.53911" lon="1.92854">
        <ele>152</ele>
        <time>2021-06-03T16:13:57Z</time>
      </trkpt>
      <trkpt lat="48.53914" lon="1.9286">
        <ele>152.6</ele>
        <time>2021-06-03T16:13:59Z</time>
      </trkpt>
      <trkpt lat="48.53917" lon="1.92869">
        <ele>153.3</ele>
        <time>2021-06-03T16:14:03Z</time>
      </trkpt>
      <trkpt lat="48.53921" lon="1.92878">
        <ele>154</ele>
        <time>2021-06-03T16:14:07Z</time>
      </trkpt>
      <trkpt lat="48.53927" lon="1.92887">
        <ele>155</ele>
        <time>2021-06-03T16:14:11Z</time>
      </trkpt>
      <trkpt lat="48.5393" lon="1.92893">
        <ele>155.5</ele>
        <time>2021-06-03T16:14:13Z</time>
      </trkpt>
      <trkpt lat="48.53932" lon="1.92899">
        <ele>155.9</ele>
        <time>2021-06-03T16:14:15Z</time>
      </trkpt>
      <trkpt lat="48.53937" lon="1.92906">
        <ele>156.6</ele>
        <time>2021-06-03T16:14:19Z</time>
      </trkpt>
      <trkpt lat="48.53942" lon="1.92917">
        <ele>157.4</ele>
        <time>2021-06-03T16:14:23Z</time>
      </trkpt>
      <trkpt lat="48.53948" lon="1.92924">
        <ele>157.8</ele>
        <time>2021-06-03T16:14:27Z</time>
      </trkpt>
      <trkpt lat="48.53954" lon="1.9293">
        <ele>158.3</ele>
        <time>2021-06-03T16:14:31Z</time>
      </trkpt>
      <trkpt lat="48.53959" lon="1.92936">
        <ele>158.7</ele>
        <time>2021-06-03T16:14:35Z</time>
      </trkpt>
      <trkpt lat="48.53964" lon="1.92943">
        <ele>159.1</ele>
        <time>2021-06-03T16:14:39Z</time>
      </trkpt>
      <trkpt lat="48.5397" lon="1.92947">
        <ele>159.6</ele>
        <time>2021-06-03T16:14:43Z</time>
      </trkpt>
      <trkpt lat="48.53975" lon="1.92952">
        <ele>159.9</ele>
        <time>2021-06-03T16:14:47Z</time>
      </trkpt>
      <trkpt lat="48.5398" lon="1.92953">
        <ele>160.3</ele>
        <time>2021-06-03T16:14:51Z</time>
      </trkpt>
      <trkpt lat="48.53986" lon="1.92957">
        <ele>160.8</ele>
        <time>2021-06-03T16:14:55Z</time>
      </trkpt>
      <trkpt lat="48.53992" lon="1.92966">
        <ele>161.1</ele>
        <time>2021-06-03T16:14:59Z</time>
      </trkpt>
      <trkpt lat="48.54" lon="1.92973">
        <ele>161.6</ele>
        <time>2021-06-03T16:15:03Z</time>
      </trkpt>
      <trkpt lat="48.54004" lon="1.92978">
        <ele>161.7</ele>
        <time>2021-06-03T16:15:05Z</time>
      </trkpt>
      <trkpt lat="48.54011" lon="1.92985">
        <ele>162</ele>
        <time>2021-06-03T16:15:09Z</time>
      </trkpt>
      <trkpt lat="48.54018" lon="1.92993">
        <ele>162.2</ele>
        <time>2021-06-03T16:15:13Z</time>
      </trkpt>
      <trkpt lat="48.54026" lon="1.93002">
        <ele>162.5</ele>
        <time>2021-06-03T16:15:17Z</time>
      </trkpt>
      <trkpt lat="48.54029" lon="1.93007">
        <ele>162.3</ele>
        <time>2021-06-03T16:15:19Z</time>
      </trkpt>
      <trkpt lat="48.54035" lon="1.93021">
        <ele>161.7</ele>
        <time>2021-06-03T16:15:23Z</time>
      </trkpt>
      <trkpt lat="48.54038" lon="1.93029">
        <ele>161.4</ele>
        <time>2021-06-03T16:15:25Z</time>
      </trkpt>
      <trkpt lat="48.54044" lon="1.93036">
        <ele>161.2</ele>
        <time>2021-06-03T16:15:27Z</time>
      </trkpt>
      <trkpt lat="48.5405" lon="1.93044">
        <ele>161</ele>
        <time>2021-06-03T16:15:29Z</time>
      </trkpt>
      <trkpt lat="48.54055" lon="1.93052">
        <ele>160.7</ele>
        <time>2021-06-03T16:15:31Z</time>
      </trkpt>
      <trkpt lat="48.5406" lon="1.93062">
        <ele>160.4</ele>
        <time>2021-06-03T16:15:33Z</time>
      </trkpt>
      <trkpt lat="48.54062" lon="1.93069">
        <ele>160</ele>
        <time>2021-06-03T16:15:35Z</time>
      </trkpt>
      <trkpt lat="48.54065" lon="1.93081">
        <ele>159.3</ele>
        <time>2021-06-03T16:15:39Z</time>
      </trkpt>
      <trkpt lat="48.5407" lon="1.93094">
        <ele>158.5</ele>
        <time>2021-06-03T16:15:43Z</time>
      </trkpt>
      <trkpt lat="48.54071" lon="1.93101">
        <ele>158</ele>
        <time>2021-06-03T16:15:45Z</time>
      </trkpt>
      <trkpt lat="48.54074" lon="1.93108">
        <ele>157.5</ele>
        <time>2021-06-03T16:15:47Z</time>
      </trkpt>
      <trkpt lat="48.54076" lon="1.93117">
        <ele>156.9</ele>
        <time>2021-06-03T16:15:49Z</time>
      </trkpt>
      <trkpt lat="48.54078" lon="1.93125">
        <ele>156.3</ele>
        <time>2021-06-03T16:15:51Z</time>
      </trkpt>
      <trkpt lat="48.54077" lon="1.93134">
        <ele>155.5</ele>
        <time>2021-06-03T16:15:53Z</time>
      </trkpt>
      <trkpt lat="48.54078" lon="1.93144">
        <ele>154.8</ele>
        <time>2021-06-03T16:15:55Z</time>
      </trkpt>
      <trkpt lat="48.5408" lon="1.93152">
        <ele>154.2</ele>
        <time>2021-06-03T16:15:57Z</time>
      </trkpt>
      <trkpt lat="48.54084" lon="1.93159">
        <ele>153.7</ele>
        <time>2021-06-03T16:15:59Z</time>
      </trkpt>
      <trkpt lat="48.54087" lon="1.93164">
        <ele>153.1</ele>
        <time>2021-06-03T16:16:01Z</time>
      </trkpt>
      <trkpt lat="48.54091" lon="1.9317">
        <ele>152.7</ele>
        <time>2021-06-03T16:16:03Z</time>
      </trkpt>
      <trkpt lat="48.54094" lon="1.93176">
        <ele>152.3</ele>
        <time>2021-06-03T16:16:05Z</time>
      </trkpt>
      <trkpt lat="48.54097" lon="1.93183">
        <ele>151.9</ele>
        <time>2021-06-03T16:16:07Z</time>
      </trkpt>
      <trkpt lat="48.541" lon="1.93189">
        <ele>151.6</ele>
        <time>2021-06-03T16:16:09Z</time>
      </trkpt>
      <trkpt lat="48.54103" lon="1.93197">
        <ele>151.2</ele>
        <time>2021-06-03T16:16:11Z</time>
      </trkpt>
      <trkpt lat="48.54107" lon="1.93205">
        <ele>150.7</ele>
        <time>2021-06-03T16:16:13Z</time>
      </trkpt>
      <trkpt lat="48.54112" lon="1.93214">
        <ele>150.2</ele>
        <time>2021-06-03T16:16:15Z</time>
      </trkpt>
      <trkpt lat="48.54116" lon="1.93222">
        <ele>149.8</ele>
        <time>2021-06-03T16:16:17Z</time>
      </trkpt>
      <trkpt lat="48.54121" lon="1.93232">
        <ele>149.3</ele>
        <time>2021-06-03T16:16:19Z</time>
      </trkpt>
      <trkpt lat="48.54126" lon="1.93242">
        <ele>148.8</ele>
        <time>2021-06-03T16:16:21Z</time>
      </trkpt>
      <trkpt lat="48.54131" lon="1.93253">
        <ele>148.3</ele>
        <time>2021-06-03T16:16:23Z</time>
      </trkpt>
      <trkpt lat="48.54137" lon="1.93263">
        <ele>147.9</ele>
        <time>2021-06-03T16:16:25Z</time>
      </trkpt>
      <trkpt lat="48.54142" lon="1.93274">
        <ele>147.4</ele>
        <time>2021-06-03T16:16:27Z</time>
      </trkpt>
      <trkpt lat="48.54148" lon="1.93284">
        <ele>147</ele>
        <time>2021-06-03T16:16:29Z</time>
      </trkpt>
      <trkpt lat="48.54154" lon="1.93295">
        <ele>146.5</ele>
        <time>2021-06-03T16:16:31Z</time>
      </trkpt>
      <trkpt lat="48.54161" lon="1.93308">
        <ele>146</ele>
        <time>2021-06-03T16:16:33Z</time>
      </trkpt>
      <trkpt lat="48.54168" lon="1.93321">
        <ele>145.4</ele>
        <time>2021-06-03T16:16:35Z</time>
      </trkpt>
      <trkpt lat="48.54176" lon="1.93337">
        <ele>144.6</ele>
        <time>2021-06-03T16:16:37Z</time>
      </trkpt>
      <trkpt lat="48.54185" lon="1.93353">
        <ele>143.7</ele>
        <time>2021-06-03T16:16:39Z</time>
      </trkpt>
      <trkpt lat="48.54193" lon="1.93369">
        <ele>142.8</ele>
        <time>2021-06-03T16:16:41Z</time>
      </trkpt>
      <trkpt lat="48.54202" lon="1.93386">
        <ele>141.9</ele>
        <time>2021-06-03T16:16:43Z</time>
      </trkpt>
      <trkpt lat="48.5421" lon="1.93403">
        <ele>141.1</ele>
        <time>2021-06-03T16:16:45Z</time>
      </trkpt>
      <trkpt lat="48.54219" lon="1.93419">
        <ele>140.3</ele>
        <time>2021-06-03T16:16:47Z</time>
      </trkpt>
      <trkpt lat="48.54228" lon="1.93435">
        <ele>139.7</ele>
        <time>2021-06-03T16:16:49Z</time>
      </trkpt>
      <trkpt lat="48.54237" lon="1.9345">
        <ele>139.2</ele>
        <time>2021-06-03T16:16:51Z</time>
      </trkpt>
      <trkpt lat="48.54245" lon="1.93466">
        <ele>138.8</ele>
        <time>2021-06-03T16:16:53Z</time>
      </trkpt>
      <trkpt lat="48.54253" lon="1.93481">
        <ele>138.4</ele>
        <time>2021-06-03T16:16:55Z</time>
      </trkpt>
      <trkpt lat="48.5426" lon="1.93495">
        <ele>137.9</ele>
        <time>2021-06-03T16:16:57Z</time>
      </trkpt>
      <trkpt lat="48.54267" lon="1.93511">
        <ele>137.2</ele>
        <time>2021-06-03T16:16:59Z</time>
      </trkpt>
      <trkpt lat="48.54273" lon="1.93528">
        <ele>136.5</ele>
        <time>2021-06-03T16:17:01Z</time>
      </trkpt>
      <trkpt lat="48.54278" lon="1.93544">
        <ele>135.9</ele>
        <time>2021-06-03T16:17:03Z</time>
      </trkpt>
      <trkpt lat="48.54282" lon="1.9356">
        <ele>135.3</ele>
        <time>2021-06-03T16:17:05Z</time>
      </trkpt>
      <trkpt lat="48.54286" lon="1.93575">
        <ele>134.8</ele>
        <time>2021-06-03T16:17:07Z</time>
      </trkpt>
      <trkpt lat="48.5429" lon="1.93589">
        <ele>134.5</ele>
        <time>2021-06-03T16:17:09Z</time>
      </trkpt>
      <trkpt lat="48.54293" lon="1.93602">
        <ele>134.3</ele>
        <time>2021-06-03T16:17:11Z</time>
      </trkpt>
      <trkpt lat="48.54296" lon="1.93614">
        <ele>134.1</ele>
        <time>2021-06-03T16:17:13Z</time>
      </trkpt>
      <trkpt lat="48.543" lon="1.93626">
        <ele>133.9</ele>
        <time>2021-06-03T16:17:15Z</time>
      </trkpt>
      <trkpt lat="48.54305" lon="1.93639">
        <ele>133.7</ele>
        <time>2021-06-03T16:17:17Z</time>
      </trkpt>
      <trkpt lat="48.54311" lon="1.93653">
        <ele>133.4</ele>
        <time>2021-06-03T16:17:19Z</time>
      </trkpt>
      <trkpt lat="48.54318" lon="1.93668">
        <ele>133.2</ele>
        <time>2021-06-03T16:17:21Z</time>
      </trkpt>
      <trkpt lat="48.54327" lon="1.93685">
        <ele>132.9</ele>
        <time>2021-06-03T16:17:23Z</time>
      </trkpt>
      <trkpt lat="48.54335" lon="1.93701">
        <ele>132.6</ele>
        <time>2021-06-03T16:17:25Z</time>
      </trkpt>
      <trkpt lat="48.54344" lon="1.93718">
        <ele>132.3</ele>
        <time>2021-06-03T16:17:27Z</time>
      </trkpt>
      <trkpt lat="48.54352" lon="1.93732">
        <ele>132.1</ele>
        <time>2021-06-03T16:17:29Z</time>
      </trkpt>
      <trkpt lat="48.54357" lon="1.93742">
        <ele>132</ele>
        <time>2021-06-03T16:17:31Z</time>
      </trkpt>
      <trkpt lat="48.54362" lon="1.93751">
        <ele>132</ele>
        <time>2021-06-03T16:17:33Z</time>
      </trkpt>
      <trkpt lat="48.54365" lon="1.93756">
        <ele>131.9</ele>
        <time>2021-06-03T16:17:35Z</time>
      </trkpt>
      <trkpt lat="48.54368" lon="1.93764">
        <ele>131.8</ele>
        <time>2021-06-03T16:17:37Z</time>
      </trkpt>
      <trkpt lat="48.5437" lon="1.93772">
        <ele>131.8</ele>
        <time>2021-06-03T16:17:39Z</time>
      </trkpt>
      <trkpt lat="48.54373" lon="1.9378">
        <ele>131.8</ele>
        <time>2021-06-03T16:17:41Z</time>
      </trkpt>
      <trkpt lat="48.54375" lon="1.93793">
        <ele>131.7</ele>
        <time>2021-06-03T16:17:43Z</time>
      </trkpt>
      <trkpt lat="48.54378" lon="1.93803">
        <ele>131.8</ele>
        <time>2021-06-03T16:17:45Z</time>
      </trkpt>
      <trkpt lat="48.54379" lon="1.93816">
        <ele>131.8</ele>
        <time>2021-06-03T16:17:47Z</time>
      </trkpt>
      <trkpt lat="48.54382" lon="1.93829">
        <ele>131.9</ele>
        <time>2021-06-03T16:17:49Z</time>
      </trkpt>
      <trkpt lat="48.54385" lon="1.93841">
        <ele>132.6</ele>
        <time>2021-06-03T16:17:51Z</time>
      </trkpt>
      <trkpt lat="48.54388" lon="1.93852">
        <ele>133.6</ele>
        <time>2021-06-03T16:17:53Z</time>
      </trkpt>
      <trkpt lat="48.54393" lon="1.93863">
        <ele>134.7</ele>
        <time>2021-06-03T16:17:55Z</time>
      </trkpt>
      <trkpt lat="48.54397" lon="1.93871">
        <ele>135.6</ele>
        <time>2021-06-03T16:17:57Z</time>
      </trkpt>
      <trkpt lat="48.54402" lon="1.93876">
        <ele>136.3</ele>
        <time>2021-06-03T16:17:59Z</time>
      </trkpt>
      <trkpt lat="48.54408" lon="1.9388">
        <ele>137.2</ele>
        <time>2021-06-03T16:18:03Z</time>
      </trkpt>
      <trkpt lat="48.54415" lon="1.93887">
        <ele>138.4</ele>
        <time>2021-06-03T16:18:07Z</time>
      </trkpt>
      <trkpt lat="48.54422" lon="1.93895">
        <ele>139.4</ele>
        <time>2021-06-03T16:18:11Z</time>
      </trkpt>
      <trkpt lat="48.54425" lon="1.93901">
        <ele>140</ele>
        <time>2021-06-03T16:18:13Z</time>
      </trkpt>
      <trkpt lat="48.54429" lon="1.93906">
        <ele>140.7</ele>
        <time>2021-06-03T16:18:15Z</time>
      </trkpt>
      <trkpt lat="48.54434" lon="1.93911">
        <ele>141.4</ele>
        <time>2021-06-03T16:18:17Z</time>
      </trkpt>
      <trkpt lat="48.54439" lon="1.93915">
        <ele>141.9</ele>
        <time>2021-06-03T16:18:19Z</time>
      </trkpt>
      <trkpt lat="48.54443" lon="1.93921">
        <ele>142.8</ele>
        <time>2021-06-03T16:18:21Z</time>
      </trkpt>
      <trkpt lat="48.54446" lon="1.93927">
        <ele>143.6</ele>
        <time>2021-06-03T16:18:23Z</time>
      </trkpt>
      <trkpt lat="48.5445" lon="1.93936">
        <ele>144.9</ele>
        <time>2021-06-03T16:18:27Z</time>
      </trkpt>
      <trkpt lat="48.54458" lon="1.93933">
        <ele>145</ele>
        <time>2021-06-03T16:18:31Z</time>
      </trkpt>
      <trkpt lat="48.54467" lon="1.93935">
        <ele>145.5</ele>
        <time>2021-06-03T16:18:35Z</time>
      </trkpt>
      <trkpt lat="48.54474" lon="1.93933">
        <ele>145.7</ele>
        <time>2021-06-03T16:18:39Z</time>
      </trkpt>
      <trkpt lat="48.54479" lon="1.93934">
        <ele>146</ele>
        <time>2021-06-03T16:18:43Z</time>
      </trkpt>
      <trkpt lat="48.54484" lon="1.93934">
        <ele>146.2</ele>
        <time>2021-06-03T16:18:47Z</time>
      </trkpt>
      <trkpt lat="48.54489" lon="1.93934">
        <ele>146.4</ele>
        <time>2021-06-03T16:18:51Z</time>
      </trkpt>
      <trkpt lat="48.54494" lon="1.93932">
        <ele>146.4</ele>
        <time>2021-06-03T16:18:55Z</time>
      </trkpt>
      <trkpt lat="48.54499" lon="1.93934">
        <ele>146.8</ele>
        <time>2021-06-03T16:18:59Z</time>
      </trkpt>
      <trkpt lat="48.54504" lon="1.93937">
        <ele>147.6</ele>
        <time>2021-06-03T16:19:03Z</time>
      </trkpt>
      <trkpt lat="48.54509" lon="1.93941">
        <ele>148.6</ele>
        <time>2021-06-03T16:19:07Z</time>
      </trkpt>
      <trkpt lat="48.54514" lon="1.93947">
        <ele>149.8</ele>
        <time>2021-06-03T16:19:11Z</time>
      </trkpt>
      <trkpt lat="48.54519" lon="1.93951">
        <ele>150.7</ele>
        <time>2021-06-03T16:19:15Z</time>
      </trkpt>
      <trkpt lat="48.54523" lon="1.93955">
        <ele>151.4</ele>
        <time>2021-06-03T16:19:19Z</time>
      </trkpt>
      <trkpt lat="48.54527" lon="1.93959">
        <ele>152.2</ele>
        <time>2021-06-03T16:19:23Z</time>
      </trkpt>
      <trkpt lat="48.54532" lon="1.93964">
        <ele>153</ele>
        <time>2021-06-03T16:19:27Z</time>
      </trkpt>
      <trkpt lat="48.54537" lon="1.93969">
        <ele>153.9</ele>
        <time>2021-06-03T16:19:31Z</time>
      </trkpt>
      <trkpt lat="48.54542" lon="1.93976">
        <ele>154.8</ele>
        <time>2021-06-03T16:19:37Z</time>
      </trkpt>
      <trkpt lat="48.54545" lon="1.93982">
        <ele>155.4</ele>
        <time>2021-06-03T16:19:41Z</time>
      </trkpt>
      <trkpt lat="48.54549" lon="1.93989">
        <ele>156.2</ele>
        <time>2021-06-03T16:19:47Z</time>
      </trkpt>
      <trkpt lat="48.54553" lon="1.93993">
        <ele>156.8</ele>
        <time>2021-06-03T16:19:53Z</time>
      </trkpt>
      <trkpt lat="48.54558" lon="1.94001">
        <ele>157.5</ele>
        <time>2021-06-03T16:19:59Z</time>
      </trkpt>
      <trkpt lat="48.54562" lon="1.94007">
        <ele>158.3</ele>
        <time>2021-06-03T16:20:03Z</time>
      </trkpt>
      <trkpt lat="48.54567" lon="1.94013">
        <ele>159.1</ele>
        <time>2021-06-03T16:20:09Z</time>
      </trkpt>
      <trkpt lat="48.54571" lon="1.94019">
        <ele>159.8</ele>
        <time>2021-06-03T16:20:13Z</time>
      </trkpt>
      <trkpt lat="48.54576" lon="1.94024">
        <ele>160.5</ele>
        <time>2021-06-03T16:20:19Z</time>
      </trkpt>
      <trkpt lat="48.54581" lon="1.94028">
        <ele>161</ele>
        <time>2021-06-03T16:20:23Z</time>
      </trkpt>
      <trkpt lat="48.54587" lon="1.94033">
        <ele>161.7</ele>
        <time>2021-06-03T16:20:29Z</time>
      </trkpt>
      <trkpt lat="48.54591" lon="1.94039">
        <ele>162.5</ele>
        <time>2021-06-03T16:20:35Z</time>
      </trkpt>
      <trkpt lat="48.54594" lon="1.94045">
        <ele>163.1</ele>
        <time>2021-06-03T16:20:41Z</time>
      </trkpt>
      <trkpt lat="48.54599" lon="1.94049">
        <ele>163.7</ele>
        <time>2021-06-03T16:20:47Z</time>
      </trkpt>
      <trkpt lat="48.54607" lon="1.94053">
        <ele>164.4</ele>
        <time>2021-06-03T16:20:53Z</time>
      </trkpt>
      <trkpt lat="48.54612" lon="1.9405">
        <ele>164.6</ele>
        <time>2021-06-03T16:20:57Z</time>
      </trkpt>
      <trkpt lat="48.54617" lon="1.94047">
        <ele>164.8</ele>
        <time>2021-06-03T16:21:03Z</time>
      </trkpt>
      <trkpt lat="48.54622" lon="1.94045">
        <ele>165.2</ele>
        <time>2021-06-03T16:21:09Z</time>
      </trkpt>
      <trkpt lat="48.54628" lon="1.94043">
        <ele>165.5</ele>
        <time>2021-06-03T16:21:13Z</time>
      </trkpt>
      <trkpt lat="48.54632" lon="1.9404">
        <ele>165.8</ele>
        <time>2021-06-03T16:21:17Z</time>
      </trkpt>
      <trkpt lat="48.54638" lon="1.94036">
        <ele>166.2</ele>
        <time>2021-06-03T16:21:21Z</time>
      </trkpt>
      <trkpt lat="48.54645" lon="1.9403">
        <ele>166.7</ele>
        <time>2021-06-03T16:21:25Z</time>
      </trkpt>
      <trkpt lat="48.54651" lon="1.94026">
        <ele>167.3</ele>
        <time>2021-06-03T16:21:29Z</time>
      </trkpt>
      <trkpt lat="48.54657" lon="1.94022">
        <ele>167.8</ele>
        <time>2021-06-03T16:21:33Z</time>
      </trkpt>
      <trkpt lat="48.54664" lon="1.94019">
        <ele>168.5</ele>
        <time>2021-06-03T16:21:37Z</time>
      </trkpt>
      <trkpt lat="48.54671" lon="1.94014">
        <ele>168.9</ele>
        <time>2021-06-03T16:21:41Z</time>
      </trkpt>
      <trkpt lat="48.54676" lon="1.94011">
        <ele>169</ele>
        <time>2021-06-03T16:21:43Z</time>
      </trkpt>
      <trkpt lat="48.5468" lon="1.94009">
        <ele>169.1</ele>
        <time>2021-06-03T16:21:45Z</time>
      </trkpt>
      <trkpt lat="48.54685" lon="1.94006">
        <ele>169.2</ele>
        <time>2021-06-03T16:21:47Z</time>
      </trkpt>
      <trkpt lat="48.54691" lon="1.94002">
        <ele>169.3</ele>
        <time>2021-06-03T16:21:49Z</time>
      </trkpt>
      <trkpt lat="48.54698" lon="1.93998">
        <ele>169.4</ele>
        <time>2021-06-03T16:21:51Z</time>
      </trkpt>
      <trkpt lat="48.54706" lon="1.93995">
        <ele>169.4</ele>
        <time>2021-06-03T16:21:53Z</time>
      </trkpt>
      <trkpt lat="48.54714" lon="1.93989">
        <ele>169.5</ele>
        <time>2021-06-03T16:21:55Z</time>
      </trkpt>
      <trkpt lat="48.54721" lon="1.93986">
        <ele>169.5</ele>
        <time>2021-06-03T16:21:57Z</time>
      </trkpt>
      <trkpt lat="48.54729" lon="1.93984">
        <ele>169.6</ele>
        <time>2021-06-03T16:21:59Z</time>
      </trkpt>
      <trkpt lat="48.54736" lon="1.93983">
        <ele>169.7</ele>
        <time>2021-06-03T16:22:01Z</time>
      </trkpt>
      <trkpt lat="48.54744" lon="1.93981">
        <ele>169.7</ele>
        <time>2021-06-03T16:22:03Z</time>
      </trkpt>
      <trkpt lat="48.54752" lon="1.93979">
        <ele>169.7</ele>
        <time>2021-06-03T16:22:05Z</time>
      </trkpt>
      <trkpt lat="48.5476" lon="1.93977">
        <ele>169.7</ele>
        <time>2021-06-03T16:22:07Z</time>
      </trkpt>
      <trkpt lat="48.54768" lon="1.93976">
        <ele>169.7</ele>
        <time>2021-06-03T16:22:09Z</time>
      </trkpt>
      <trkpt lat="48.54775" lon="1.93972">
        <ele>169.7</ele>
        <time>2021-06-03T16:22:11Z</time>
      </trkpt>
      <trkpt lat="48.54782" lon="1.93966">
        <ele>169.6</ele>
        <time>2021-06-03T16:22:13Z</time>
      </trkpt>
      <trkpt lat="48.54789" lon="1.93961">
        <ele>169.5</ele>
        <time>2021-06-03T16:22:15Z</time>
      </trkpt>
      <trkpt lat="48.54796" lon="1.93958">
        <ele>169.5</ele>
        <time>2021-06-03T16:22:17Z</time>
      </trkpt>
      <trkpt lat="48.54804" lon="1.9395">
        <ele>169.4</ele>
        <time>2021-06-03T16:22:19Z</time>
      </trkpt>
      <trkpt lat="48.54809" lon="1.9394">
        <ele>169.3</ele>
        <time>2021-06-03T16:22:21Z</time>
      </trkpt>
      <trkpt lat="48.54811" lon="1.93928">
        <ele>169.1</ele>
        <time>2021-06-03T16:22:23Z</time>
      </trkpt>
      <trkpt lat="48.54811" lon="1.93915">
        <ele>169</ele>
        <time>2021-06-03T16:22:25Z</time>
      </trkpt>
      <trkpt lat="48.54814" lon="1.93905">
        <ele>169.2</ele>
        <time>2021-06-03T16:22:27Z</time>
      </trkpt>
      <trkpt lat="48.54815" lon="1.93894">
        <ele>169.3</ele>
        <time>2021-06-03T16:22:29Z</time>
      </trkpt>
      <trkpt lat="48.54816" lon="1.93881">
        <ele>169.5</ele>
        <time>2021-06-03T16:22:31Z</time>
      </trkpt>
      <trkpt lat="48.54816" lon="1.93868">
        <ele>169.7</ele>
        <time>2021-06-03T16:22:33Z</time>
      </trkpt>
      <trkpt lat="48.54816" lon="1.93855">
        <ele>169.9</ele>
        <time>2021-06-03T16:22:35Z</time>
      </trkpt>
      <trkpt lat="48.54814" lon="1.93842">
        <ele>170.1</ele>
        <time>2021-06-03T16:22:37Z</time>
      </trkpt>
      <trkpt lat="48.54814" lon="1.93827">
        <ele>170.2</ele>
        <time>2021-06-03T16:22:39Z</time>
      </trkpt>
      <trkpt lat="48.54814" lon="1.93817">
        <ele>170.1</ele>
        <time>2021-06-03T16:22:41Z</time>
      </trkpt>
      <trkpt lat="48.54816" lon="1.93805">
        <ele>170.1</ele>
        <time>2021-06-03T16:22:43Z</time>
      </trkpt>
      <trkpt lat="48.54817" lon="1.93791">
        <ele>170</ele>
        <time>2021-06-03T16:22:45Z</time>
      </trkpt>
      <trkpt lat="48.54821" lon="1.93777">
        <ele>169.9</ele>
        <time>2021-06-03T16:22:47Z</time>
      </trkpt>
      <trkpt lat="48.54823" lon="1.93763">
        <ele>169.9</ele>
        <time>2021-06-03T16:22:49Z</time>
      </trkpt>
      <trkpt lat="48.54825" lon="1.9375">
        <ele>169.9</ele>
        <time>2021-06-03T16:22:51Z</time>
      </trkpt>
      <trkpt lat="48.54828" lon="1.93737">
        <ele>169.8</ele>
        <time>2021-06-03T16:22:53Z</time>
      </trkpt>
      <trkpt lat="48.5483" lon="1.93725">
        <ele>169.6</ele>
        <time>2021-06-03T16:22:55Z</time>
      </trkpt>
      <trkpt lat="48.54832" lon="1.93713">
        <ele>169.5</ele>
        <time>2021-06-03T16:22:57Z</time>
      </trkpt>
      <trkpt lat="48.54833" lon="1.937">
        <ele>169.4</ele>
        <time>2021-06-03T16:22:59Z</time>
      </trkpt>
      <trkpt lat="48.54834" lon="1.93686">
        <ele>169.2</ele>
        <time>2021-06-03T16:23:01Z</time>
      </trkpt>
      <trkpt lat="48.54836" lon="1.93673">
        <ele>169.1</ele>
        <time>2021-06-03T16:23:03Z</time>
      </trkpt>
      <trkpt lat="48.54839" lon="1.93661">
        <ele>168.9</ele>
        <time>2021-06-03T16:23:05Z</time>
      </trkpt>
      <trkpt lat="48.54843" lon="1.93649">
        <ele>168.5</ele>
        <time>2021-06-03T16:23:07Z</time>
      </trkpt>
      <trkpt lat="48.5485" lon="1.93637">
        <ele>168.2</ele>
        <time>2021-06-03T16:23:09Z</time>
      </trkpt>
      <trkpt lat="48.54856" lon="1.93626">
        <ele>167.9</ele>
        <time>2021-06-03T16:23:11Z</time>
      </trkpt>
      <trkpt lat="48.54862" lon="1.93613">
        <ele>167.6</ele>
        <time>2021-06-03T16:23:13Z</time>
      </trkpt>
      <trkpt lat="48.54867" lon="1.93601">
        <ele>167.4</ele>
        <time>2021-06-03T16:23:15Z</time>
      </trkpt>
      <trkpt lat="48.54872" lon="1.93591">
        <ele>167.1</ele>
        <time>2021-06-03T16:23:17Z</time>
      </trkpt>
      <trkpt lat="48.54877" lon="1.93581">
        <ele>166.9</ele>
        <time>2021-06-03T16:23:19Z</time>
      </trkpt>
      <trkpt lat="48.54882" lon="1.93573">
        <ele>166.5</ele>
        <time>2021-06-03T16:23:21Z</time>
      </trkpt>
      <trkpt lat="48.54888" lon="1.93566">
        <ele>166.3</ele>
        <time>2021-06-03T16:23:23Z</time>
      </trkpt>
      <trkpt lat="48.54896" lon="1.93561">
        <ele>166.2</ele>
        <time>2021-06-03T16:23:25Z</time>
      </trkpt>
      <trkpt lat="48.54904" lon="1.93557">
        <ele>166.3</ele>
        <time>2021-06-03T16:23:27Z</time>
      </trkpt>
      <trkpt lat="48.54911" lon="1.93554">
        <ele>166.4</ele>
        <time>2021-06-03T16:23:29Z</time>
      </trkpt>
      <trkpt lat="48.54919" lon="1.93551">
        <ele>166.5</ele>
        <time>2021-06-03T16:23:31Z</time>
      </trkpt>
      <trkpt lat="48.54926" lon="1.93548">
        <ele>166.4</ele>
        <time>2021-06-03T16:23:33Z</time>
      </trkpt>
      <trkpt lat="48.54935" lon="1.93544">
        <ele>166.4</ele>
        <time>2021-06-03T16:23:35Z</time>
      </trkpt>
      <trkpt lat="48.54944" lon="1.9354">
        <ele>166.4</ele>
        <time>2021-06-03T16:23:37Z</time>
      </trkpt>
      <trkpt lat="48.54953" lon="1.93535">
        <ele>166.4</ele>
        <time>2021-06-03T16:23:39Z</time>
      </trkpt>
      <trkpt lat="48.54963" lon="1.93532">
        <ele>166.6</ele>
        <time>2021-06-03T16:23:41Z</time>
      </trkpt>
      <trkpt lat="48.54972" lon="1.93528">
        <ele>166.7</ele>
        <time>2021-06-03T16:23:43Z</time>
      </trkpt>
      <trkpt lat="48.54982" lon="1.93524">
        <ele>166.8</ele>
        <time>2021-06-03T16:23:45Z</time>
      </trkpt>
      <trkpt lat="48.5499" lon="1.93521">
        <ele>167</ele>
        <time>2021-06-03T16:23:47Z</time>
      </trkpt>
      <trkpt lat="48.54998" lon="1.93517">
        <ele>167.2</ele>
        <time>2021-06-03T16:23:49Z</time>
      </trkpt>
      <trkpt lat="48.55007" lon="1.93514">
        <ele>167.2</ele>
        <time>2021-06-03T16:23:51Z</time>
      </trkpt>
      <trkpt lat="48.55015" lon="1.93511">
        <ele>167.2</ele>
        <time>2021-06-03T16:23:53Z</time>
      </trkpt>
      <trkpt lat="48.55022" lon="1.93508">
        <ele>167.1</ele>
        <time>2021-06-03T16:23:55Z</time>
      </trkpt>
      <trkpt lat="48.55031" lon="1.93504">
        <ele>167.1</ele>
        <time>2021-06-03T16:23:57Z</time>
      </trkpt>
      <trkpt lat="48.5504" lon="1.93501">
        <ele>167</ele>
        <time>2021-06-03T16:23:59Z</time>
      </trkpt>
      <trkpt lat="48.5505" lon="1.93502">
        <ele>167</ele>
        <time>2021-06-03T16:24:01Z</time>
      </trkpt>
      <trkpt lat="48.55061" lon="1.93502">
        <ele>167</ele>
        <time>2021-06-03T16:24:03Z</time>
      </trkpt>
      <trkpt lat="48.55071" lon="1.93506">
        <ele>167.1</ele>
        <time>2021-06-03T16:24:05Z</time>
      </trkpt>
      <trkpt lat="48.5508" lon="1.9351">
        <ele>167.2</ele>
        <time>2021-06-03T16:24:07Z</time>
      </trkpt>
      <trkpt lat="48.55087" lon="1.93509">
        <ele>167.2</ele>
        <time>2021-06-03T16:24:09Z</time>
      </trkpt>
      <trkpt lat="48.55081" lon="1.93508">
        <ele>167.2</ele>
        <time>2021-06-03T16:24:21Z</time>
      </trkpt>
      <trkpt lat="48.55075" lon="1.93506">
        <ele>167.1</ele>
        <time>2021-06-03T16:24:25Z</time>
      </trkpt>
      <trkpt lat="48.55071" lon="1.935">
        <ele>167</ele>
        <time>2021-06-03T16:24:29Z</time>
      </trkpt>
      <trkpt lat="48.55081" lon="1.93492">
        <ele>167</ele>
        <time>2021-06-03T16:24:33Z</time>
      </trkpt>
      <trkpt lat="48.55086" lon="1.93487">
        <ele>167</ele>
        <time>2021-06-03T16:24:35Z</time>
      </trkpt>
      <trkpt lat="48.55093" lon="1.9348">
        <ele>167</ele>
        <time>2021-06-03T16:24:37Z</time>
      </trkpt>
      <trkpt lat="48.55101" lon="1.93471">
        <ele>166.9</ele>
        <time>2021-06-03T16:24:39Z</time>
      </trkpt>
      <trkpt lat="48.55109" lon="1.93461">
        <ele>166.9</ele>
        <time>2021-06-03T16:24:41Z</time>
      </trkpt>
      <trkpt lat="48.55118" lon="1.9345">
        <ele>166.8</ele>
        <time>2021-06-03T16:24:43Z</time>
      </trkpt>
      <trkpt lat="48.55128" lon="1.93443">
        <ele>166.6</ele>
        <time>2021-06-03T16:24:45Z</time>
      </trkpt>
      <trkpt lat="48.55136" lon="1.93433">
        <ele>166.5</ele>
        <time>2021-06-03T16:24:47Z</time>
      </trkpt>
      <trkpt lat="48.55146" lon="1.93423">
        <ele>166.3</ele>
        <time>2021-06-03T16:24:49Z</time>
      </trkpt>
      <trkpt lat="48.55155" lon="1.93413">
        <ele>166.1</ele>
        <time>2021-06-03T16:24:51Z</time>
      </trkpt>
      <trkpt lat="48.55166" lon="1.93402">
        <ele>166</ele>
        <time>2021-06-03T16:24:53Z</time>
      </trkpt>
      <trkpt lat="48.55176" lon="1.93389">
        <ele>165.6</ele>
        <time>2021-06-03T16:24:55Z</time>
      </trkpt>
      <trkpt lat="48.55186" lon="1.93379">
        <ele>165</ele>
        <time>2021-06-03T16:24:57Z</time>
      </trkpt>
      <trkpt lat="48.55197" lon="1.9337">
        <ele>164.2</ele>
        <time>2021-06-03T16:24:59Z</time>
      </trkpt>
      <trkpt lat="48.55205" lon="1.93361">
        <ele>163.4</ele>
        <time>2021-06-03T16:25:01Z</time>
      </trkpt>
      <trkpt lat="48.55213" lon="1.93355">
        <ele>162.5</ele>
        <time>2021-06-03T16:25:03Z</time>
      </trkpt>
      <trkpt lat="48.5522" lon="1.93346">
        <ele>161.6</ele>
        <time>2021-06-03T16:25:05Z</time>
      </trkpt>
      <trkpt lat="48.55227" lon="1.9334">
        <ele>160.6</ele>
        <time>2021-06-03T16:25:07Z</time>
      </trkpt>
      <trkpt lat="48.55233" lon="1.93336">
        <ele>159.8</ele>
        <time>2021-06-03T16:25:09Z</time>
      </trkpt>
      <trkpt lat="48.55238" lon="1.93327">
        <ele>158.8</ele>
        <time>2021-06-03T16:25:11Z</time>
      </trkpt>
      <trkpt lat="48.55239" lon="1.93315">
        <ele>158.1</ele>
        <time>2021-06-03T16:25:13Z</time>
      </trkpt>
      <trkpt lat="48.55234" lon="1.93303">
        <ele>158</ele>
        <time>2021-06-03T16:25:15Z</time>
      </trkpt>
      <trkpt lat="48.55226" lon="1.93294">
        <ele>158.3</ele>
        <time>2021-06-03T16:25:17Z</time>
      </trkpt>
      <trkpt lat="48.55215" lon="1.93284">
        <ele>158.8</ele>
        <time>2021-06-03T16:25:19Z</time>
      </trkpt>
      <trkpt lat="48.55205" lon="1.93277">
        <ele>159.3</ele>
        <time>2021-06-03T16:25:21Z</time>
      </trkpt>
      <trkpt lat="48.55196" lon="1.93272">
        <ele>159.8</ele>
        <time>2021-06-03T16:25:23Z</time>
      </trkpt>
      <trkpt lat="48.55188" lon="1.93267">
        <ele>160.2</ele>
        <time>2021-06-03T16:25:25Z</time>
      </trkpt>
      <trkpt lat="48.55182" lon="1.93262">
        <ele>160.4</ele>
        <time>2021-06-03T16:25:27Z</time>
      </trkpt>
      <trkpt lat="48.55177" lon="1.93259">
        <ele>160.7</ele>
        <time>2021-06-03T16:25:29Z</time>
      </trkpt>
      <trkpt lat="48.5517" lon="1.93258">
        <ele>161.2</ele>
        <time>2021-06-03T16:25:31Z</time>
      </trkpt>
      <trkpt lat="48.55164" lon="1.93258">
        <ele>161.7</ele>
        <time>2021-06-03T16:25:33Z</time>
      </trkpt>
      <trkpt lat="48.55158" lon="1.93257">
        <ele>161.9</ele>
        <time>2021-06-03T16:25:35Z</time>
      </trkpt>
      <trkpt lat="48.55151" lon="1.93254">
        <ele>162.1</ele>
        <time>2021-06-03T16:25:37Z</time>
      </trkpt>
      <trkpt lat="48.55145" lon="1.93252">
        <ele>162.4</ele>
        <time>2021-06-03T16:25:39Z</time>
      </trkpt>
      <trkpt lat="48.55138" lon="1.93251">
        <ele>162.8</ele>
        <time>2021-06-03T16:25:41Z</time>
      </trkpt>
      <trkpt lat="48.55132" lon="1.93246">
        <ele>162.9</ele>
        <time>2021-06-03T16:25:43Z</time>
      </trkpt>
      <trkpt lat="48.55125" lon="1.93245">
        <ele>163.3</ele>
        <time>2021-06-03T16:25:45Z</time>
      </trkpt>
      <trkpt lat="48.55119" lon="1.93241">
        <ele>163.5</ele>
        <time>2021-06-03T16:25:47Z</time>
      </trkpt>
      <trkpt lat="48.55111" lon="1.93239">
        <ele>164</ele>
        <time>2021-06-03T16:25:49Z</time>
      </trkpt>
      <trkpt lat="48.55104" lon="1.93236">
        <ele>164.3</ele>
        <time>2021-06-03T16:25:51Z</time>
      </trkpt>
      <trkpt lat="48.55096" lon="1.93233">
        <ele>164.7</ele>
        <time>2021-06-03T16:25:53Z</time>
      </trkpt>
      <trkpt lat="48.5509" lon="1.9323">
        <ele>165.1</ele>
        <time>2021-06-03T16:25:55Z</time>
      </trkpt>
      <trkpt lat="48.5508" lon="1.93228">
        <ele>165.4</ele>
        <time>2021-06-03T16:25:57Z</time>
      </trkpt>
      <trkpt lat="48.55073" lon="1.93224">
        <ele>165.2</ele>
        <time>2021-06-03T16:25:59Z</time>
      </trkpt>
      <trkpt lat="48.55067" lon="1.93219">
        <ele>164.9</ele>
        <time>2021-06-03T16:26:01Z</time>
      </trkpt>
      <trkpt lat="48.55062" lon="1.93213">
        <ele>164.7</ele>
        <time>2021-06-03T16:26:03Z</time>
      </trkpt>
      <trkpt lat="48.55057" lon="1.93204">
        <ele>164.4</ele>
        <time>2021-06-03T16:26:05Z</time>
      </trkpt>
      <trkpt lat="48.55053" lon="1.93198">
        <ele>164.2</ele>
        <time>2021-06-03T16:26:07Z</time>
      </trkpt>
      <trkpt lat="48.55048" lon="1.93188">
        <ele>164</ele>
        <time>2021-06-03T16:26:09Z</time>
      </trkpt>
      <trkpt lat="48.55044" lon="1.93178">
        <ele>163.7</ele>
        <time>2021-06-03T16:26:11Z</time>
      </trkpt>
      <trkpt lat="48.55038" lon="1.93169">
        <ele>163.5</ele>
        <time>2021-06-03T16:26:13Z</time>
      </trkpt>
      <trkpt lat="48.55033" lon="1.93159">
        <ele>162.9</ele>
        <time>2021-06-03T16:26:15Z</time>
      </trkpt>
      <trkpt lat="48.55031" lon="1.93149">
        <ele>162.4</ele>
        <time>2021-06-03T16:26:17Z</time>
      </trkpt>
      <trkpt lat="48.55025" lon="1.9314">
        <ele>161.8</ele>
        <time>2021-06-03T16:26:19Z</time>
      </trkpt>
      <trkpt lat="48.5502" lon="1.93129">
        <ele>161.2</ele>
        <time>2021-06-03T16:26:21Z</time>
      </trkpt>
      <trkpt lat="48.55012" lon="1.93117">
        <ele>160.6</ele>
        <time>2021-06-03T16:26:23Z</time>
      </trkpt>
      <trkpt lat="48.55005" lon="1.93107">
        <ele>160.1</ele>
        <time>2021-06-03T16:26:25Z</time>
      </trkpt>
      <trkpt lat="48.54996" lon="1.93095">
        <ele>158.9</ele>
        <time>2021-06-03T16:26:27Z</time>
      </trkpt>
      <trkpt lat="48.54985" lon="1.93085">
        <ele>156.8</ele>
        <time>2021-06-03T16:26:29Z</time>
      </trkpt>
      <trkpt lat="48.54973" lon="1.93075">
        <ele>154.2</ele>
        <time>2021-06-03T16:26:31Z</time>
      </trkpt>
      <trkpt lat="48.5496" lon="1.93065">
        <ele>151.6</ele>
        <time>2021-06-03T16:26:33Z</time>
      </trkpt>
      <trkpt lat="48.54947" lon="1.93053">
        <ele>149.2</ele>
        <time>2021-06-03T16:26:35Z</time>
      </trkpt>
      <trkpt lat="48.54933" lon="1.93039">
        <ele>146.8</ele>
        <time>2021-06-03T16:26:37Z</time>
      </trkpt>
      <trkpt lat="48.5492" lon="1.93021">
        <ele>144.9</ele>
        <time>2021-06-03T16:26:39Z</time>
      </trkpt>
      <trkpt lat="48.54909" lon="1.92999">
        <ele>143.3</ele>
        <time>2021-06-03T16:26:41Z</time>
      </trkpt>
      <trkpt lat="48.549" lon="1.92973">
        <ele>142.7</ele>
        <time>2021-06-03T16:26:43Z</time>
      </trkpt>
      <trkpt lat="48.54893" lon="1.92944">
        <ele>142.4</ele>
        <time>2021-06-03T16:26:45Z</time>
      </trkpt>
      <trkpt lat="48.54888" lon="1.92916">
        <ele>142.3</ele>
        <time>2021-06-03T16:26:47Z</time>
      </trkpt>
      <trkpt lat="48.54882" lon="1.92891">
        <ele>142.1</ele>
        <time>2021-06-03T16:26:49Z</time>
      </trkpt>
      <trkpt lat="48.54878" lon="1.92868">
        <ele>142</ele>
        <time>2021-06-03T16:26:51Z</time>
      </trkpt>
      <trkpt lat="48.54872" lon="1.92847">
        <ele>141.7</ele>
        <time>2021-06-03T16:26:53Z</time>
      </trkpt>
      <trkpt lat="48.54868" lon="1.92829">
        <ele>141.6</ele>
        <time>2021-06-03T16:26:55Z</time>
      </trkpt>
      <trkpt lat="48.54863" lon="1.92813">
        <ele>141.6</ele>
        <time>2021-06-03T16:26:57Z</time>
      </trkpt>
      <trkpt lat="48.54856" lon="1.92807">
        <ele>141.3</ele>
        <time>2021-06-03T16:26:59Z</time>
      </trkpt>
      <trkpt lat="48.54847" lon="1.92809">
        <ele>140.6</ele>
        <time>2021-06-03T16:27:01Z</time>
      </trkpt>
      <trkpt lat="48.54839" lon="1.92812">
        <ele>140</ele>
        <time>2021-06-03T16:27:03Z</time>
      </trkpt>
      <trkpt lat="48.54834" lon="1.92818">
        <ele>139.4</ele>
        <time>2021-06-03T16:27:07Z</time>
      </trkpt>
      <trkpt lat="48.5483" lon="1.92814">
        <ele>139.5</ele>
        <time>2021-06-03T16:27:11Z</time>
      </trkpt>
      <trkpt lat="48.54822" lon="1.92817">
        <ele>139.5</ele>
        <time>2021-06-03T16:27:15Z</time>
      </trkpt>
      <trkpt lat="48.54817" lon="1.92815">
        <ele>139.6</ele>
        <time>2021-06-03T16:27:17Z</time>
      </trkpt>
      <trkpt lat="48.54812" lon="1.92813">
        <ele>139.7</ele>
        <time>2021-06-03T16:27:19Z</time>
      </trkpt>
      <trkpt lat="48.54806" lon="1.9281">
        <ele>139.9</ele>
        <time>2021-06-03T16:27:21Z</time>
      </trkpt>
      <trkpt lat="48.54801" lon="1.92807">
        <ele>140</ele>
        <time>2021-06-03T16:27:23Z</time>
      </trkpt>
      <trkpt lat="48.54796" lon="1.92803">
        <ele>140.2</ele>
        <time>2021-06-03T16:27:25Z</time>
      </trkpt>
      <trkpt lat="48.54792" lon="1.92799">
        <ele>140.3</ele>
        <time>2021-06-03T16:27:27Z</time>
      </trkpt>
      <trkpt lat="48.54787" lon="1.92792">
        <ele>140.5</ele>
        <time>2021-06-03T16:27:29Z</time>
      </trkpt>
      <trkpt lat="48.54786" lon="1.92783">
        <ele>140.8</ele>
        <time>2021-06-03T16:27:31Z</time>
      </trkpt>
      <trkpt lat="48.54787" lon="1.92774">
        <ele>141</ele>
        <time>2021-06-03T16:27:33Z</time>
      </trkpt>
      <trkpt lat="48.54789" lon="1.92763">
        <ele>141.2</ele>
        <time>2021-06-03T16:27:35Z</time>
      </trkpt>
      <trkpt lat="48.5479" lon="1.92751">
        <ele>141.5</ele>
        <time>2021-06-03T16:27:37Z</time>
      </trkpt>
      <trkpt lat="48.54791" lon="1.92738">
        <ele>141.9</ele>
        <time>2021-06-03T16:27:39Z</time>
      </trkpt>
      <trkpt lat="48.54792" lon="1.92723">
        <ele>142.3</ele>
        <time>2021-06-03T16:27:41Z</time>
      </trkpt>
      <trkpt lat="48.54795" lon="1.9271">
        <ele>142.7</ele>
        <time>2021-06-03T16:27:43Z</time>
      </trkpt>
      <trkpt lat="48.54799" lon="1.92697">
        <ele>143.1</ele>
        <time>2021-06-03T16:27:45Z</time>
      </trkpt>
      <trkpt lat="48.54803" lon="1.92683">
        <ele>143.5</ele>
        <time>2021-06-03T16:27:47Z</time>
      </trkpt>
      <trkpt lat="48.54807" lon="1.9267">
        <ele>143.9</ele>
        <time>2021-06-03T16:27:49Z</time>
      </trkpt>
      <trkpt lat="48.54811" lon="1.92658">
        <ele>144</ele>
        <time>2021-06-03T16:27:51Z</time>
      </trkpt>
      <trkpt lat="48.54814" lon="1.92645">
        <ele>143.9</ele>
        <time>2021-06-03T16:27:53Z</time>
      </trkpt>
      <trkpt lat="48.54819" lon="1.92632">
        <ele>143.8</ele>
        <time>2021-06-03T16:27:55Z</time>
      </trkpt>
      <trkpt lat="48.54824" lon="1.9262">
        <ele>143.6</ele>
        <time>2021-06-03T16:27:57Z</time>
      </trkpt>
      <trkpt lat="48.54828" lon="1.92605">
        <ele>143.4</ele>
        <time>2021-06-03T16:27:59Z</time>
      </trkpt>
      <trkpt lat="48.54831" lon="1.92591">
        <ele>143.2</ele>
        <time>2021-06-03T16:28:01Z</time>
      </trkpt>
      <trkpt lat="48.54835" lon="1.92577">
        <ele>143.1</ele>
        <time>2021-06-03T16:28:03Z</time>
      </trkpt>
      <trkpt lat="48.54839" lon="1.92564">
        <ele>143.3</ele>
        <time>2021-06-03T16:28:05Z</time>
      </trkpt>
      <trkpt lat="48.54844" lon="1.9255">
        <ele>143.4</ele>
        <time>2021-06-03T16:28:07Z</time>
      </trkpt>
      <trkpt lat="48.54848" lon="1.92536">
        <ele>143.5</ele>
        <time>2021-06-03T16:28:09Z</time>
      </trkpt>
      <trkpt lat="48.54852" lon="1.92523">
        <ele>143.7</ele>
        <time>2021-06-03T16:28:11Z</time>
      </trkpt>
      <trkpt lat="48.54856" lon="1.9251">
        <ele>143.8</ele>
        <time>2021-06-03T16:28:13Z</time>
      </trkpt>
      <trkpt lat="48.54859" lon="1.92497">
        <ele>143.8</ele>
        <time>2021-06-03T16:28:15Z</time>
      </trkpt>
      <trkpt lat="48.54863" lon="1.92485">
        <ele>144</ele>
        <time>2021-06-03T16:28:17Z</time>
      </trkpt>
      <trkpt lat="48.54866" lon="1.92473">
        <ele>144.1</ele>
        <time>2021-06-03T16:28:19Z</time>
      </trkpt>
      <trkpt lat="48.54871" lon="1.92462">
        <ele>144.3</ele>
        <time>2021-06-03T16:28:21Z</time>
      </trkpt>
      <trkpt lat="48.54874" lon="1.9245">
        <ele>144.4</ele>
        <time>2021-06-03T16:28:23Z</time>
      </trkpt>
      <trkpt lat="48.54878" lon="1.92438">
        <ele>144.4</ele>
        <time>2021-06-03T16:28:25Z</time>
      </trkpt>
      <trkpt lat="48.54881" lon="1.92426">
        <ele>144.4</ele>
        <time>2021-06-03T16:28:27Z</time>
      </trkpt>
      <trkpt lat="48.54884" lon="1.92414">
        <ele>144.4</ele>
        <time>2021-06-03T16:28:29Z</time>
      </trkpt>
      <trkpt lat="48.54888" lon="1.92402">
        <ele>144.3</ele>
        <time>2021-06-03T16:28:31Z</time>
      </trkpt>
      <trkpt lat="48.54891" lon="1.9239">
        <ele>144.1</ele>
        <time>2021-06-03T16:28:33Z</time>
      </trkpt>
      <trkpt lat="48.54896" lon="1.92377">
        <ele>143.9</ele>
        <time>2021-06-03T16:28:35Z</time>
      </trkpt>
      <trkpt lat="48.54899" lon="1.92364">
        <ele>143.7</ele>
        <time>2021-06-03T16:28:37Z</time>
      </trkpt>
      <trkpt lat="48.54903" lon="1.92352">
        <ele>143.4</ele>
        <time>2021-06-03T16:28:39Z</time>
      </trkpt>
      <trkpt lat="48.54907" lon="1.92339">
        <ele>143.1</ele>
        <time>2021-06-03T16:28:41Z</time>
      </trkpt>
      <trkpt lat="48.54911" lon="1.92327">
        <ele>142.9</ele>
        <time>2021-06-03T16:28:43Z</time>
      </trkpt>
      <trkpt lat="48.54914" lon="1.92314">
        <ele>142.7</ele>
        <time>2021-06-03T16:28:45Z</time>
      </trkpt>
      <trkpt lat="48.54917" lon="1.92302">
        <ele>142.7</ele>
        <time>2021-06-03T16:28:47Z</time>
      </trkpt>
      <trkpt lat="48.54921" lon="1.9229">
        <ele>142.8</ele>
        <time>2021-06-03T16:28:49Z</time>
      </trkpt>
      <trkpt lat="48.54924" lon="1.92278">
        <ele>142.8</ele>
        <time>2021-06-03T16:28:51Z</time>
      </trkpt>
      <trkpt lat="48.54927" lon="1.92266">
        <ele>142.8</ele>
        <time>2021-06-03T16:28:53Z</time>
      </trkpt>
      <trkpt lat="48.5493" lon="1.92254">
        <ele>142.8</ele>
        <time>2021-06-03T16:28:55Z</time>
      </trkpt>
      <trkpt lat="48.54934" lon="1.92243">
        <ele>142.9</ele>
        <time>2021-06-03T16:28:57Z</time>
      </trkpt>
      <trkpt lat="48.54937" lon="1.92231">
        <ele>143.2</ele>
        <time>2021-06-03T16:28:59Z</time>
      </trkpt>
      <trkpt lat="48.54941" lon="1.9222">
        <ele>143.4</ele>
        <time>2021-06-03T16:29:01Z</time>
      </trkpt>
      <trkpt lat="48.54944" lon="1.92208">
        <ele>143.7</ele>
        <time>2021-06-03T16:29:03Z</time>
      </trkpt>
      <trkpt lat="48.54948" lon="1.92196">
        <ele>143.9</ele>
        <time>2021-06-03T16:29:05Z</time>
      </trkpt>
      <trkpt lat="48.5495" lon="1.92185">
        <ele>144.1</ele>
        <time>2021-06-03T16:29:07Z</time>
      </trkpt>
      <trkpt lat="48.54954" lon="1.92175">
        <ele>144.3</ele>
        <time>2021-06-03T16:29:09Z</time>
      </trkpt>
      <trkpt lat="48.54957" lon="1.92164">
        <ele>144.5</ele>
        <time>2021-06-03T16:29:11Z</time>
      </trkpt>
      <trkpt lat="48.5496" lon="1.92153">
        <ele>144.9</ele>
        <time>2021-06-03T16:29:13Z</time>
      </trkpt>
      <trkpt lat="48.54963" lon="1.92143">
        <ele>145.2</ele>
        <time>2021-06-03T16:29:15Z</time>
      </trkpt>
      <trkpt lat="48.54965" lon="1.92133">
        <ele>145.6</ele>
        <time>2021-06-03T16:29:17Z</time>
      </trkpt>
      <trkpt lat="48.54968" lon="1.92122">
        <ele>145.9</ele>
        <time>2021-06-03T16:29:19Z</time>
      </trkpt>
      <trkpt lat="48.54971" lon="1.92112">
        <ele>146.3</ele>
        <time>2021-06-03T16:29:21Z</time>
      </trkpt>
      <trkpt lat="48.54974" lon="1.92102">
        <ele>146.6</ele>
        <time>2021-06-03T16:29:23Z</time>
      </trkpt>
      <trkpt lat="48.54977" lon="1.92091">
        <ele>147</ele>
        <time>2021-06-03T16:29:25Z</time>
      </trkpt>
      <trkpt lat="48.5498" lon="1.92081">
        <ele>147.4</ele>
        <time>2021-06-03T16:29:27Z</time>
      </trkpt>
      <trkpt lat="48.54983" lon="1.9207">
        <ele>147.7</ele>
        <time>2021-06-03T16:29:29Z</time>
      </trkpt>
      <trkpt lat="48.54986" lon="1.9206">
        <ele>148.1</ele>
        <time>2021-06-03T16:29:31Z</time>
      </trkpt>
      <trkpt lat="48.54989" lon="1.9205">
        <ele>148.4</ele>
        <time>2021-06-03T16:29:33Z</time>
      </trkpt>
      <trkpt lat="48.54992" lon="1.92041">
        <ele>148.8</ele>
        <time>2021-06-03T16:29:35Z</time>
      </trkpt>
      <trkpt lat="48.54993" lon="1.92032">
        <ele>149</ele>
        <time>2021-06-03T16:29:37Z</time>
      </trkpt>
      <trkpt lat="48.54994" lon="1.92021">
        <ele>149.3</ele>
        <time>2021-06-03T16:29:39Z</time>
      </trkpt>
      <trkpt lat="48.54997" lon="1.92005">
        <ele>149.8</ele>
        <time>2021-06-03T16:29:41Z</time>
      </trkpt>
      <trkpt lat="48.54999" lon="1.91997">
        <ele>150</ele>
        <time>2021-06-03T16:29:43Z</time>
      </trkpt>
      <trkpt lat="48.55005" lon="1.91988">
        <ele>149.9</ele>
        <time>2021-06-03T16:29:45Z</time>
      </trkpt>
      <trkpt lat="48.55007" lon="1.91981">
        <ele>149.9</ele>
        <time>2021-06-03T16:29:47Z</time>
      </trkpt>
      <trkpt lat="48.5501" lon="1.91967">
        <ele>149.9</ele>
        <time>2021-06-03T16:29:49Z</time>
      </trkpt>
      <trkpt lat="48.55016" lon="1.91957">
        <ele>149.9</ele>
        <time>2021-06-03T16:29:51Z</time>
      </trkpt>
      <trkpt lat="48.5502" lon="1.91946">
        <ele>149.9</ele>
        <time>2021-06-03T16:29:53Z</time>
      </trkpt>
      <trkpt lat="48.55024" lon="1.91935">
        <ele>149.9</ele>
        <time>2021-06-03T16:29:55Z</time>
      </trkpt>
      <trkpt lat="48.55028" lon="1.91925">
        <ele>150</ele>
        <time>2021-06-03T16:29:57Z</time>
      </trkpt>
      <trkpt lat="48.5503" lon="1.91916">
        <ele>150</ele>
        <time>2021-06-03T16:29:59Z</time>
      </trkpt>
      <trkpt lat="48.55033" lon="1.91908">
        <ele>150.2</ele>
        <time>2021-06-03T16:30:01Z</time>
      </trkpt>
      <trkpt lat="48.55035" lon="1.91898">
        <ele>150.4</ele>
        <time>2021-06-03T16:30:03Z</time>
      </trkpt>
      <trkpt lat="48.55037" lon="1.9189">
        <ele>150.6</ele>
        <time>2021-06-03T16:30:05Z</time>
      </trkpt>
      <trkpt lat="48.55039" lon="1.91882">
        <ele>150.8</ele>
        <time>2021-06-03T16:30:07Z</time>
      </trkpt>
      <trkpt lat="48.55041" lon="1.91874">
        <ele>151</ele>
        <time>2021-06-03T16:30:09Z</time>
      </trkpt>
      <trkpt lat="48.55044" lon="1.91867">
        <ele>151.2</ele>
        <time>2021-06-03T16:30:11Z</time>
      </trkpt>
      <trkpt lat="48.55046" lon="1.91859">
        <ele>151.4</ele>
        <time>2021-06-03T16:30:13Z</time>
      </trkpt>
      <trkpt lat="48.55048" lon="1.91851">
        <ele>151.6</ele>
        <time>2021-06-03T16:30:15Z</time>
      </trkpt>
      <trkpt lat="48.55049" lon="1.91843">
        <ele>151.8</ele>
        <time>2021-06-03T16:30:17Z</time>
      </trkpt>
      <trkpt lat="48.55051" lon="1.91836">
        <ele>151.9</ele>
        <time>2021-06-03T16:30:19Z</time>
      </trkpt>
      <trkpt lat="48.55053" lon="1.91829">
        <ele>152.2</ele>
        <time>2021-06-03T16:30:21Z</time>
      </trkpt>
      <trkpt lat="48.55055" lon="1.91821">
        <ele>152.5</ele>
        <time>2021-06-03T16:30:23Z</time>
      </trkpt>
      <trkpt lat="48.55057" lon="1.91813">
        <ele>152.9</ele>
        <time>2021-06-03T16:30:25Z</time>
      </trkpt>
      <trkpt lat="48.55059" lon="1.91805">
        <ele>153.2</ele>
        <time>2021-06-03T16:30:27Z</time>
      </trkpt>
      <trkpt lat="48.5506" lon="1.91797">
        <ele>153.6</ele>
        <time>2021-06-03T16:30:29Z</time>
      </trkpt>
      <trkpt lat="48.55062" lon="1.91789">
        <ele>154</ele>
        <time>2021-06-03T16:30:31Z</time>
      </trkpt>
      <trkpt lat="48.55064" lon="1.91781">
        <ele>154.4</ele>
        <time>2021-06-03T16:30:33Z</time>
      </trkpt>
      <trkpt lat="48.55065" lon="1.91773">
        <ele>154.7</ele>
        <time>2021-06-03T16:30:35Z</time>
      </trkpt>
      <trkpt lat="48.55066" lon="1.91764">
        <ele>155.2</ele>
        <time>2021-06-03T16:30:37Z</time>
      </trkpt>
      <trkpt lat="48.55067" lon="1.91754">
        <ele>155.6</ele>
        <time>2021-06-03T16:30:39Z</time>
      </trkpt>
      <trkpt lat="48.55069" lon="1.91744">
        <ele>156.1</ele>
        <time>2021-06-03T16:30:41Z</time>
      </trkpt>
      <trkpt lat="48.5507" lon="1.91735">
        <ele>156.4</ele>
        <time>2021-06-03T16:30:43Z</time>
      </trkpt>
      <trkpt lat="48.55071" lon="1.91726">
        <ele>156.8</ele>
        <time>2021-06-03T16:30:45Z</time>
      </trkpt>
      <trkpt lat="48.55072" lon="1.91718">
        <ele>157.1</ele>
        <time>2021-06-03T16:30:47Z</time>
      </trkpt>
      <trkpt lat="48.55072" lon="1.91709">
        <ele>157.5</ele>
        <time>2021-06-03T16:30:49Z</time>
      </trkpt>
      <trkpt lat="48.55072" lon="1.91702">
        <ele>157.8</ele>
        <time>2021-06-03T16:30:51Z</time>
      </trkpt>
      <trkpt lat="48.55073" lon="1.91694">
        <ele>158.1</ele>
        <time>2021-06-03T16:30:53Z</time>
      </trkpt>
      <trkpt lat="48.55074" lon="1.91685">
        <ele>158.4</ele>
        <time>2021-06-03T16:30:55Z</time>
      </trkpt>
      <trkpt lat="48.55074" lon="1.91676">
        <ele>158.7</ele>
        <time>2021-06-03T16:30:57Z</time>
      </trkpt>
      <trkpt lat="48.55075" lon="1.91668">
        <ele>159.1</ele>
        <time>2021-06-03T16:30:59Z</time>
      </trkpt>
      <trkpt lat="48.55075" lon="1.9166">
        <ele>159.4</ele>
        <time>2021-06-03T16:31:01Z</time>
      </trkpt>
      <trkpt lat="48.55075" lon="1.91653">
        <ele>159.6</ele>
        <time>2021-06-03T16:31:03Z</time>
      </trkpt>
      <trkpt lat="48.55075" lon="1.91645">
        <ele>159.9</ele>
        <time>2021-06-03T16:31:05Z</time>
      </trkpt>
      <trkpt lat="48.55076" lon="1.91638">
        <ele>160.2</ele>
        <time>2021-06-03T16:31:07Z</time>
      </trkpt>
      <trkpt lat="48.55075" lon="1.9163">
        <ele>160.5</ele>
        <time>2021-06-03T16:31:09Z</time>
      </trkpt>
      <trkpt lat="48.55075" lon="1.91617">
        <ele>161</ele>
        <time>2021-06-03T16:31:13Z</time>
      </trkpt>
      <trkpt lat="48.55074" lon="1.91609">
        <ele>161.3</ele>
        <time>2021-06-03T16:31:15Z</time>
      </trkpt>
      <trkpt lat="48.55076" lon="1.91601">
        <ele>161.5</ele>
        <time>2021-06-03T16:31:17Z</time>
      </trkpt>
      <trkpt lat="48.55076" lon="1.9159">
        <ele>161.9</ele>
        <time>2021-06-03T16:31:19Z</time>
      </trkpt>
      <trkpt lat="48.55076" lon="1.91579">
        <ele>162.1</ele>
        <time>2021-06-03T16:31:21Z</time>
      </trkpt>
      <trkpt lat="48.55076" lon="1.91569">
        <ele>161.9</ele>
        <time>2021-06-03T16:31:23Z</time>
      </trkpt>
      <trkpt lat="48.55075" lon="1.91558">
        <ele>161.7</ele>
        <time>2021-06-03T16:31:25Z</time>
      </trkpt>
      <trkpt lat="48.55075" lon="1.91546">
        <ele>161.5</ele>
        <time>2021-06-03T16:31:27Z</time>
      </trkpt>
      <trkpt lat="48.55076" lon="1.91533">
        <ele>161.3</ele>
        <time>2021-06-03T16:31:29Z</time>
      </trkpt>
      <trkpt lat="48.55076" lon="1.91522">
        <ele>161</ele>
        <time>2021-06-03T16:31:31Z</time>
      </trkpt>
      <trkpt lat="48.55076" lon="1.91508">
        <ele>160.8</ele>
        <time>2021-06-03T16:31:33Z</time>
      </trkpt>
      <trkpt lat="48.55076" lon="1.91494">
        <ele>160.5</ele>
        <time>2021-06-03T16:31:35Z</time>
      </trkpt>
      <trkpt lat="48.55077" lon="1.91479">
        <ele>160.3</ele>
        <time>2021-06-03T16:31:37Z</time>
      </trkpt>
      <trkpt lat="48.55077" lon="1.91463">
        <ele>160.1</ele>
        <time>2021-06-03T16:31:39Z</time>
      </trkpt>
      <trkpt lat="48.55078" lon="1.91448">
        <ele>159.8</ele>
        <time>2021-06-03T16:31:41Z</time>
      </trkpt>
      <trkpt lat="48.55078" lon="1.9143">
        <ele>159.6</ele>
        <time>2021-06-03T16:31:43Z</time>
      </trkpt>
      <trkpt lat="48.55078" lon="1.91413">
        <ele>159.4</ele>
        <time>2021-06-03T16:31:45Z</time>
      </trkpt>
      <trkpt lat="48.55078" lon="1.91396">
        <ele>158.9</ele>
        <time>2021-06-03T16:31:47Z</time>
      </trkpt>
      <trkpt lat="48.55079" lon="1.91379">
        <ele>158.5</ele>
        <time>2021-06-03T16:31:49Z</time>
      </trkpt>
      <trkpt lat="48.55079" lon="1.91363">
        <ele>158.1</ele>
        <time>2021-06-03T16:31:51Z</time>
      </trkpt>
      <trkpt lat="48.5508" lon="1.91348">
        <ele>157.7</ele>
        <time>2021-06-03T16:31:53Z</time>
      </trkpt>
      <trkpt lat="48.5508" lon="1.91332">
        <ele>157.3</ele>
        <time>2021-06-03T16:31:55Z</time>
      </trkpt>
      <trkpt lat="48.55081" lon="1.91317">
        <ele>157.3</ele>
        <time>2021-06-03T16:31:57Z</time>
      </trkpt>
      <trkpt lat="48.55082" lon="1.91303">
        <ele>157.1</ele>
        <time>2021-06-03T16:31:59Z</time>
      </trkpt>
      <trkpt lat="48.55085" lon="1.91291">
        <ele>156.9</ele>
        <time>2021-06-03T16:32:01Z</time>
      </trkpt>
      <trkpt lat="48.55092" lon="1.91285">
        <ele>156.8</ele>
        <time>2021-06-03T16:32:03Z</time>
      </trkpt>
      <trkpt lat="48.55099" lon="1.91287">
        <ele>156.5</ele>
        <time>2021-06-03T16:32:05Z</time>
      </trkpt>
      <trkpt lat="48.55104" lon="1.91293">
        <ele>156.4</ele>
        <time>2021-06-03T16:32:07Z</time>
      </trkpt>
      <trkpt lat="48.55109" lon="1.91299">
        <ele>156.2</ele>
        <time>2021-06-03T16:32:09Z</time>
      </trkpt>
      <trkpt lat="48.55114" lon="1.91307">
        <ele>156</ele>
        <time>2021-06-03T16:32:11Z</time>
      </trkpt>
      <trkpt lat="48.55117" lon="1.91314">
        <ele>155.9</ele>
        <time>2021-06-03T16:32:13Z</time>
      </trkpt>
      <trkpt lat="48.5512" lon="1.91322">
        <ele>155.8</ele>
        <time>2021-06-03T16:32:15Z</time>
      </trkpt>
      <trkpt lat="48.55123" lon="1.9133">
        <ele>155.6</ele>
        <time>2021-06-03T16:32:17Z</time>
      </trkpt>
      <trkpt lat="48.55126" lon="1.91336">
        <ele>155.5</ele>
        <time>2021-06-03T16:32:19Z</time>
      </trkpt>
      <trkpt lat="48.55127" lon="1.91345">
        <ele>155.5</ele>
        <time>2021-06-03T16:33:17Z</time>
      </trkpt>
      <trkpt lat="48.55129" lon="1.91358">
        <ele>155.5</ele>
        <time>2021-06-03T16:33:21Z</time>
      </trkpt>
      <trkpt lat="48.5513" lon="1.91368">
        <ele>155.4</ele>
        <time>2021-06-03T16:33:23Z</time>
      </trkpt>
      <trkpt lat="48.55132" lon="1.91379">
        <ele>155.4</ele>
        <time>2021-06-03T16:33:25Z</time>
      </trkpt>
      <trkpt lat="48.55134" lon="1.91392">
        <ele>155.3</ele>
        <time>2021-06-03T16:33:27Z</time>
      </trkpt>
      <trkpt lat="48.55135" lon="1.91408">
        <ele>155.2</ele>
        <time>2021-06-03T16:33:29Z</time>
      </trkpt>
      <trkpt lat="48.55137" lon="1.91425">
        <ele>155.3</ele>
        <time>2021-06-03T16:33:31Z</time>
      </trkpt>
      <trkpt lat="48.55138" lon="1.91446">
        <ele>155.7</ele>
        <time>2021-06-03T16:33:33Z</time>
      </trkpt>
      <trkpt lat="48.5514" lon="1.91469">
        <ele>156</ele>
        <time>2021-06-03T16:33:35Z</time>
      </trkpt>
      <trkpt lat="48.55141" lon="1.91491">
        <ele>156.4</ele>
        <time>2021-06-03T16:33:37Z</time>
      </trkpt>
      <trkpt lat="48.55143" lon="1.91512">
        <ele>156.6</ele>
        <time>2021-06-03T16:33:39Z</time>
      </trkpt>
      <trkpt lat="48.55142" lon="1.91532">
        <ele>157</ele>
        <time>2021-06-03T16:33:41Z</time>
      </trkpt>
      <trkpt lat="48.55141" lon="1.91551">
        <ele>157.3</ele>
        <time>2021-06-03T16:33:43Z</time>
      </trkpt>
      <trkpt lat="48.55141" lon="1.9157">
        <ele>157.6</ele>
        <time>2021-06-03T16:33:45Z</time>
      </trkpt>
      <trkpt lat="48.55142" lon="1.91589">
        <ele>157.7</ele>
        <time>2021-06-03T16:33:47Z</time>
      </trkpt>
      <trkpt lat="48.55143" lon="1.91609">
        <ele>157.7</ele>
        <time>2021-06-03T16:33:49Z</time>
      </trkpt>
      <trkpt lat="48.55143" lon="1.91628">
        <ele>157.6</ele>
        <time>2021-06-03T16:33:51Z</time>
      </trkpt>
      <trkpt lat="48.55144" lon="1.91648">
        <ele>157.6</ele>
        <time>2021-06-03T16:33:53Z</time>
      </trkpt>
      <trkpt lat="48.55145" lon="1.91671">
        <ele>157.4</ele>
        <time>2021-06-03T16:33:55Z</time>
      </trkpt>
      <trkpt lat="48.55146" lon="1.91688">
        <ele>156.9</ele>
        <time>2021-06-03T16:33:57Z</time>
      </trkpt>
      <trkpt lat="48.55147" lon="1.91707">
        <ele>156.4</ele>
        <time>2021-06-03T16:33:59Z</time>
      </trkpt>
      <trkpt lat="48.55147" lon="1.91727">
        <ele>155.9</ele>
        <time>2021-06-03T16:34:01Z</time>
      </trkpt>
      <trkpt lat="48.55148" lon="1.91751">
        <ele>155.2</ele>
        <time>2021-06-03T16:34:03Z</time>
      </trkpt>
      <trkpt lat="48.55156" lon="1.91759">
        <ele>154.9</ele>
        <time>2021-06-03T16:34:05Z</time>
      </trkpt>
      <trkpt lat="48.55161" lon="1.91761">
        <ele>154.8</ele>
        <time>2021-06-03T16:34:07Z</time>
      </trkpt>
      <trkpt lat="48.55169" lon="1.91767">
        <ele>154.9</ele>
        <time>2021-06-03T16:34:09Z</time>
      </trkpt>
      <trkpt lat="48.55175" lon="1.91772">
        <ele>155.6</ele>
        <time>2021-06-03T16:34:11Z</time>
      </trkpt>
      <trkpt lat="48.55181" lon="1.91779">
        <ele>156.3</ele>
        <time>2021-06-03T16:34:13Z</time>
      </trkpt>
      <trkpt lat="48.55188" lon="1.91792">
        <ele>156.9</ele>
        <time>2021-06-03T16:34:17Z</time>
      </trkpt>
      <trkpt lat="48.55192" lon="1.91796">
        <ele>157.4</ele>
        <time>2021-06-03T16:34:21Z</time>
      </trkpt>
      <trkpt lat="48.55196" lon="1.91803">
        <ele>158</ele>
        <time>2021-06-03T16:34:29Z</time>
      </trkpt>
      <trkpt lat="48.55202" lon="1.91808">
        <ele>158.7</ele>
        <time>2021-06-03T16:34:35Z</time>
      </trkpt>
      <trkpt lat="48.55205" lon="1.91816">
        <ele>159.1</ele>
        <time>2021-06-03T16:34:39Z</time>
      </trkpt>
      <trkpt lat="48.55207" lon="1.91824">
        <ele>159.3</ele>
        <time>2021-06-03T16:34:43Z</time>
      </trkpt>
      <trkpt lat="48.55209" lon="1.91833">
        <ele>159.6</ele>
        <time>2021-06-03T16:34:47Z</time>
      </trkpt>
      <trkpt lat="48.55208" lon="1.91843">
        <ele>159.6</ele>
        <time>2021-06-03T16:34:51Z</time>
      </trkpt>
      <trkpt lat="48.5521" lon="1.91855">
        <ele>159.8</ele>
        <time>2021-06-03T16:34:55Z</time>
      </trkpt>
      <trkpt lat="48.5521" lon="1.91869">
        <ele>160</ele>
        <time>2021-06-03T16:34:59Z</time>
      </trkpt>
      <trkpt lat="48.55211" lon="1.91877">
        <ele>160.2</ele>
        <time>2021-06-03T16:35:01Z</time>
      </trkpt>
      <trkpt lat="48.55212" lon="1.91884">
        <ele>160.3</ele>
        <time>2021-06-03T16:35:03Z</time>
      </trkpt>
      <trkpt lat="48.55212" lon="1.91893">
        <ele>160.4</ele>
        <time>2021-06-03T16:35:05Z</time>
      </trkpt>
      <trkpt lat="48.55213" lon="1.91905">
        <ele>160.6</ele>
        <time>2021-06-03T16:35:07Z</time>
      </trkpt>
      <trkpt lat="48.55215" lon="1.9192">
        <ele>161</ele>
        <time>2021-06-03T16:35:09Z</time>
      </trkpt>
      <trkpt lat="48.55219" lon="1.91935">
        <ele>161.5</ele>
        <time>2021-06-03T16:35:11Z</time>
      </trkpt>
      <trkpt lat="48.55223" lon="1.91951">
        <ele>162.1</ele>
        <time>2021-06-03T16:35:13Z</time>
      </trkpt>
      <trkpt lat="48.55224" lon="1.9196">
        <ele>162.3</ele>
        <time>2021-06-03T16:35:15Z</time>
      </trkpt>
      <trkpt lat="48.55226" lon="1.91971">
        <ele>162.6</ele>
        <time>2021-06-03T16:35:17Z</time>
      </trkpt>
      <trkpt lat="48.55228" lon="1.9198">
        <ele>162.8</ele>
        <time>2021-06-03T16:35:19Z</time>
      </trkpt>
      <trkpt lat="48.55228" lon="1.9199">
        <ele>162.8</ele>
        <time>2021-06-03T16:35:21Z</time>
      </trkpt>
      <trkpt lat="48.55229" lon="1.92">
        <ele>163</ele>
        <time>2021-06-03T16:35:23Z</time>
      </trkpt>
      <trkpt lat="48.55228" lon="1.9201">
        <ele>162.9</ele>
        <time>2021-06-03T16:35:25Z</time>
      </trkpt>
      <trkpt lat="48.55229" lon="1.9202">
        <ele>163.1</ele>
        <time>2021-06-03T16:35:27Z</time>
      </trkpt>
      <trkpt lat="48.55229" lon="1.92036">
        <ele>163.4</ele>
        <time>2021-06-03T16:35:29Z</time>
      </trkpt>
      <trkpt lat="48.5523" lon="1.92051">
        <ele>163.6</ele>
        <time>2021-06-03T16:35:31Z</time>
      </trkpt>
      <trkpt lat="48.55232" lon="1.92065">
        <ele>164</ele>
        <time>2021-06-03T16:35:33Z</time>
      </trkpt>
      <trkpt lat="48.55232" lon="1.92075">
        <ele>164.2</ele>
        <time>2021-06-03T16:35:35Z</time>
      </trkpt>
      <trkpt lat="48.55233" lon="1.92086">
        <ele>164.4</ele>
        <time>2021-06-03T16:35:37Z</time>
      </trkpt>
      <trkpt lat="48.55233" lon="1.92097">
        <ele>164.6</ele>
        <time>2021-06-03T16:35:39Z</time>
      </trkpt>
      <trkpt lat="48.55234" lon="1.92109">
        <ele>164.9</ele>
        <time>2021-06-03T16:35:41Z</time>
      </trkpt>
      <trkpt lat="48.55235" lon="1.92118">
        <ele>165.3</ele>
        <time>2021-06-03T16:35:43Z</time>
      </trkpt>
      <trkpt lat="48.55238" lon="1.92134">
        <ele>165.8</ele>
        <time>2021-06-03T16:35:47Z</time>
      </trkpt>
      <trkpt lat="48.55238" lon="1.92143">
        <ele>166.1</ele>
        <time>2021-06-03T16:35:49Z</time>
      </trkpt>
      <trkpt lat="48.55238" lon="1.92151">
        <ele>166.2</ele>
        <time>2021-06-03T16:35:51Z</time>
      </trkpt>
      <trkpt lat="48.55239" lon="1.9216">
        <ele>166.4</ele>
        <time>2021-06-03T16:35:53Z</time>
      </trkpt>
      <trkpt lat="48.5524" lon="1.92169">
        <ele>166.7</ele>
        <time>2021-06-03T16:35:55Z</time>
      </trkpt>
      <trkpt lat="48.55241" lon="1.92179">
        <ele>166.9</ele>
        <time>2021-06-03T16:35:57Z</time>
      </trkpt>
      <trkpt lat="48.55242" lon="1.92188">
        <ele>167.1</ele>
        <time>2021-06-03T16:35:59Z</time>
      </trkpt>
      <trkpt lat="48.55244" lon="1.92199">
        <ele>167.3</ele>
        <time>2021-06-03T16:36:01Z</time>
      </trkpt>
      <trkpt lat="48.55245" lon="1.92211">
        <ele>167.5</ele>
        <time>2021-06-03T16:36:03Z</time>
      </trkpt>
      <trkpt lat="48.55245" lon="1.92218">
        <ele>167.5</ele>
        <time>2021-06-03T16:36:05Z</time>
      </trkpt>
      <trkpt lat="48.55246" lon="1.9223">
        <ele>167.6</ele>
        <time>2021-06-03T16:36:07Z</time>
      </trkpt>
      <trkpt lat="48.55248" lon="1.92243">
        <ele>167.8</ele>
        <time>2021-06-03T16:36:09Z</time>
      </trkpt>
      <trkpt lat="48.55251" lon="1.92257">
        <ele>168</ele>
        <time>2021-06-03T16:36:11Z</time>
      </trkpt>
      <trkpt lat="48.55254" lon="1.92266">
        <ele>168</ele>
        <time>2021-06-03T16:36:13Z</time>
      </trkpt>
      <trkpt lat="48.55254" lon="1.92276">
        <ele>168</ele>
        <time>2021-06-03T16:36:15Z</time>
      </trkpt>
      <trkpt lat="48.55256" lon="1.92289">
        <ele>168</ele>
        <time>2021-06-03T16:36:17Z</time>
      </trkpt>
      <trkpt lat="48.55258" lon="1.92302">
        <ele>168</ele>
        <time>2021-06-03T16:36:19Z</time>
      </trkpt>
      <trkpt lat="48.55259" lon="1.92315">
        <ele>168</ele>
        <time>2021-06-03T16:36:21Z</time>
      </trkpt>
      <trkpt lat="48.55259" lon="1.92327">
        <ele>168</ele>
        <time>2021-06-03T16:36:23Z</time>
      </trkpt>
      <trkpt lat="48.55254" lon="1.9234">
        <ele>167.9</ele>
        <time>2021-06-03T16:36:25Z</time>
      </trkpt>
      <trkpt lat="48.55247" lon="1.92354">
        <ele>167.5</ele>
        <time>2021-06-03T16:36:27Z</time>
      </trkpt>
      <trkpt lat="48.55242" lon="1.92366">
        <ele>167.1</ele>
        <time>2021-06-03T16:36:29Z</time>
      </trkpt>
      <trkpt lat="48.55242" lon="1.92379">
        <ele>166.8</ele>
        <time>2021-06-03T16:36:31Z</time>
      </trkpt>
      <trkpt lat="48.55245" lon="1.92393">
        <ele>166.9</ele>
        <time>2021-06-03T16:36:33Z</time>
      </trkpt>
      <trkpt lat="48.55249" lon="1.92406">
        <ele>167</ele>
        <time>2021-06-03T16:36:35Z</time>
      </trkpt>
      <trkpt lat="48.55258" lon="1.92418">
        <ele>167.1</ele>
        <time>2021-06-03T16:36:37Z</time>
      </trkpt>
      <trkpt lat="48.55266" lon="1.92429">
        <ele>166.8</ele>
        <time>2021-06-03T16:36:39Z</time>
      </trkpt>
      <trkpt lat="48.55271" lon="1.92442">
        <ele>166.5</ele>
        <time>2021-06-03T16:36:41Z</time>
      </trkpt>
      <trkpt lat="48.55276" lon="1.92455">
        <ele>166.2</ele>
        <time>2021-06-03T16:36:43Z</time>
      </trkpt>
      <trkpt lat="48.55281" lon="1.92471">
        <ele>165.9</ele>
        <time>2021-06-03T16:36:45Z</time>
      </trkpt>
      <trkpt lat="48.55288" lon="1.92486">
        <ele>165.7</ele>
        <time>2021-06-03T16:36:47Z</time>
      </trkpt>
      <trkpt lat="48.55292" lon="1.925">
        <ele>165.5</ele>
        <time>2021-06-03T16:36:49Z</time>
      </trkpt>
      <trkpt lat="48.55295" lon="1.92519">
        <ele>165.1</ele>
        <time>2021-06-03T16:36:51Z</time>
      </trkpt>
      <trkpt lat="48.55303" lon="1.92533">
        <ele>165.1</ele>
        <time>2021-06-03T16:36:53Z</time>
      </trkpt>
      <trkpt lat="48.5531" lon="1.92546">
        <ele>165</ele>
        <time>2021-06-03T16:36:55Z</time>
      </trkpt>
      <trkpt lat="48.55314" lon="1.92561">
        <ele>164.9</ele>
        <time>2021-06-03T16:36:57Z</time>
      </trkpt>
      <trkpt lat="48.55317" lon="1.92576">
        <ele>164.6</ele>
        <time>2021-06-03T16:36:59Z</time>
      </trkpt>
      <trkpt lat="48.55319" lon="1.92593">
        <ele>164.1</ele>
        <time>2021-06-03T16:37:01Z</time>
      </trkpt>
      <trkpt lat="48.5532" lon="1.92608">
        <ele>163.6</ele>
        <time>2021-06-03T16:37:03Z</time>
      </trkpt>
      <trkpt lat="48.55325" lon="1.92622">
        <ele>163.3</ele>
        <time>2021-06-03T16:37:05Z</time>
      </trkpt>
      <trkpt lat="48.55329" lon="1.92636">
        <ele>162.9</ele>
        <time>2021-06-03T16:37:07Z</time>
      </trkpt>
      <trkpt lat="48.55334" lon="1.92647">
        <ele>162.7</ele>
        <time>2021-06-03T16:37:09Z</time>
      </trkpt>
      <trkpt lat="48.55337" lon="1.92661">
        <ele>162.4</ele>
        <time>2021-06-03T16:37:11Z</time>
      </trkpt>
      <trkpt lat="48.5534" lon="1.92676">
        <ele>162.2</ele>
        <time>2021-06-03T16:37:13Z</time>
      </trkpt>
      <trkpt lat="48.55341" lon="1.92687">
        <ele>162.1</ele>
        <time>2021-06-03T16:37:15Z</time>
      </trkpt>
      <trkpt lat="48.55341" lon="1.92698">
        <ele>162.1</ele>
        <time>2021-06-03T16:37:17Z</time>
      </trkpt>
      <trkpt lat="48.55342" lon="1.92713">
        <ele>162</ele>
        <time>2021-06-03T16:37:19Z</time>
      </trkpt>
      <trkpt lat="48.55343" lon="1.92729">
        <ele>161.9</ele>
        <time>2021-06-03T16:37:21Z</time>
      </trkpt>
      <trkpt lat="48.55345" lon="1.92742">
        <ele>161.9</ele>
        <time>2021-06-03T16:37:23Z</time>
      </trkpt>
      <trkpt lat="48.55346" lon="1.92756">
        <ele>161.8</ele>
        <time>2021-06-03T16:37:25Z</time>
      </trkpt>
      <trkpt lat="48.5535" lon="1.92766">
        <ele>161.9</ele>
        <time>2021-06-03T16:37:27Z</time>
      </trkpt>
      <trkpt lat="48.55352" lon="1.92779">
        <ele>161.9</ele>
        <time>2021-06-03T16:37:29Z</time>
      </trkpt>
      <trkpt lat="48.55355" lon="1.92791">
        <ele>161.9</ele>
        <time>2021-06-03T16:37:31Z</time>
      </trkpt>
      <trkpt lat="48.55358" lon="1.92803">
        <ele>162.1</ele>
        <time>2021-06-03T16:37:33Z</time>
      </trkpt>
      <trkpt lat="48.55365" lon="1.9281">
        <ele>162.6</ele>
        <time>2021-06-03T16:37:35Z</time>
      </trkpt>
      <trkpt lat="48.55369" lon="1.92819">
        <ele>163</ele>
        <time>2021-06-03T16:37:37Z</time>
      </trkpt>
      <trkpt lat="48.55374" lon="1.92828">
        <ele>163.4</ele>
        <time>2021-06-03T16:37:39Z</time>
      </trkpt>
      <trkpt lat="48.5538" lon="1.92838">
        <ele>164</ele>
        <time>2021-06-03T16:37:41Z</time>
      </trkpt>
      <trkpt lat="48.55384" lon="1.92848">
        <ele>164.3</ele>
        <time>2021-06-03T16:37:43Z</time>
      </trkpt>
      <trkpt lat="48.55386" lon="1.92861">
        <ele>164.3</ele>
        <time>2021-06-03T16:37:45Z</time>
      </trkpt>
      <trkpt lat="48.55391" lon="1.92871">
        <ele>164.5</ele>
        <time>2021-06-03T16:37:47Z</time>
      </trkpt>
      <trkpt lat="48.55396" lon="1.92881">
        <ele>164.8</ele>
        <time>2021-06-03T16:37:49Z</time>
      </trkpt>
      <trkpt lat="48.55402" lon="1.9289">
        <ele>165</ele>
        <time>2021-06-03T16:37:51Z</time>
      </trkpt>
      <trkpt lat="48.55408" lon="1.92896">
        <ele>165.2</ele>
        <time>2021-06-03T16:37:53Z</time>
      </trkpt>
      <trkpt lat="48.55415" lon="1.92903">
        <ele>165.4</ele>
        <time>2021-06-03T16:37:55Z</time>
      </trkpt>
      <trkpt lat="48.55419" lon="1.92911">
        <ele>165.3</ele>
        <time>2021-06-03T16:37:57Z</time>
      </trkpt>
      <trkpt lat="48.55422" lon="1.92923">
        <ele>165</ele>
        <time>2021-06-03T16:37:59Z</time>
      </trkpt>
      <trkpt lat="48.5543" lon="1.92932">
        <ele>165</ele>
        <time>2021-06-03T16:38:01Z</time>
      </trkpt>
      <trkpt lat="48.55437" lon="1.92939">
        <ele>165</ele>
        <time>2021-06-03T16:38:03Z</time>
      </trkpt>
      <trkpt lat="48.55442" lon="1.92945">
        <ele>165.1</ele>
        <time>2021-06-03T16:38:05Z</time>
      </trkpt>
      <trkpt lat="48.55449" lon="1.92952">
        <ele>165.1</ele>
        <time>2021-06-03T16:38:07Z</time>
      </trkpt>
      <trkpt lat="48.55456" lon="1.92958">
        <ele>165.2</ele>
        <time>2021-06-03T16:38:09Z</time>
      </trkpt>
      <trkpt lat="48.55464" lon="1.92964">
        <ele>165.3</ele>
        <time>2021-06-03T16:38:11Z</time>
      </trkpt>
      <trkpt lat="48.55473" lon="1.92965">
        <ele>165.6</ele>
        <time>2021-06-03T16:38:13Z</time>
      </trkpt>
      <trkpt lat="48.5548" lon="1.9297">
        <ele>165.7</ele>
        <time>2021-06-03T16:38:15Z</time>
      </trkpt>
      <trkpt lat="48.55484" lon="1.92979">
        <ele>165.7</ele>
        <time>2021-06-03T16:38:17Z</time>
      </trkpt>
      <trkpt lat="48.55488" lon="1.92991">
        <ele>165.7</ele>
        <time>2021-06-03T16:38:19Z</time>
      </trkpt>
      <trkpt lat="48.55492" lon="1.93003">
        <ele>165.6</ele>
        <time>2021-06-03T16:38:21Z</time>
      </trkpt>
      <trkpt lat="48.55495" lon="1.93016">
        <ele>165.3</ele>
        <time>2021-06-03T16:38:23Z</time>
      </trkpt>
      <trkpt lat="48.55502" lon="1.93025">
        <ele>165.1</ele>
        <time>2021-06-03T16:38:25Z</time>
      </trkpt>
      <trkpt lat="48.55507" lon="1.93033">
        <ele>165.1</ele>
        <time>2021-06-03T16:38:27Z</time>
      </trkpt>
      <trkpt lat="48.5551" lon="1.93045">
        <ele>164.7</ele>
        <time>2021-06-03T16:38:29Z</time>
      </trkpt>
      <trkpt lat="48.55511" lon="1.93058">
        <ele>164.4</ele>
        <time>2021-06-03T16:38:31Z</time>
      </trkpt>
      <trkpt lat="48.55517" lon="1.93069">
        <ele>164.2</ele>
        <time>2021-06-03T16:38:33Z</time>
      </trkpt>
      <trkpt lat="48.55521" lon="1.9308">
        <ele>164.1</ele>
        <time>2021-06-03T16:38:35Z</time>
      </trkpt>
      <trkpt lat="48.55526" lon="1.93093">
        <ele>164.1</ele>
        <time>2021-06-03T16:38:37Z</time>
      </trkpt>
      <trkpt lat="48.55531" lon="1.93105">
        <ele>164.2</ele>
        <time>2021-06-03T16:38:39Z</time>
      </trkpt>
      <trkpt lat="48.55539" lon="1.93111">
        <ele>164.5</ele>
        <time>2021-06-03T16:38:41Z</time>
      </trkpt>
      <trkpt lat="48.55548" lon="1.93116">
        <ele>164.9</ele>
        <time>2021-06-03T16:38:43Z</time>
      </trkpt>
      <trkpt lat="48.55555" lon="1.93121">
        <ele>165.3</ele>
        <time>2021-06-03T16:38:45Z</time>
      </trkpt>
      <trkpt lat="48.55563" lon="1.93127">
        <ele>165.7</ele>
        <time>2021-06-03T16:38:47Z</time>
      </trkpt>
      <trkpt lat="48.55569" lon="1.93132">
        <ele>166.1</ele>
        <time>2021-06-03T16:38:49Z</time>
      </trkpt>
      <trkpt lat="48.55577" lon="1.93142">
        <ele>166.6</ele>
        <time>2021-06-03T16:38:51Z</time>
      </trkpt>
      <trkpt lat="48.5558" lon="1.93152">
        <ele>166.8</ele>
        <time>2021-06-03T16:38:53Z</time>
      </trkpt>
      <trkpt lat="48.5558" lon="1.93165">
        <ele>166.8</ele>
        <time>2021-06-03T16:38:55Z</time>
      </trkpt>
      <trkpt lat="48.5557" lon="1.93175">
        <ele>166.1</ele>
        <time>2021-06-03T16:38:57Z</time>
      </trkpt>
      <trkpt lat="48.55563" lon="1.93184">
        <ele>165.7</ele>
        <time>2021-06-03T16:38:59Z</time>
      </trkpt>
      <trkpt lat="48.55562" lon="1.93197">
        <ele>165.7</ele>
        <time>2021-06-03T16:39:01Z</time>
      </trkpt>
      <trkpt lat="48.55565" lon="1.93211">
        <ele>166</ele>
        <time>2021-06-03T16:39:03Z</time>
      </trkpt>
      <trkpt lat="48.5557" lon="1.93224">
        <ele>166.5</ele>
        <time>2021-06-03T16:39:05Z</time>
      </trkpt>
      <trkpt lat="48.55575" lon="1.93235">
        <ele>167</ele>
        <time>2021-06-03T16:39:07Z</time>
      </trkpt>
      <trkpt lat="48.55578" lon="1.93248">
        <ele>167.4</ele>
        <time>2021-06-03T16:39:09Z</time>
      </trkpt>
      <trkpt lat="48.55576" lon="1.93261">
        <ele>166.9</ele>
        <time>2021-06-03T16:39:11Z</time>
      </trkpt>
      <trkpt lat="48.55575" lon="1.93272">
        <ele>166.5</ele>
        <time>2021-06-03T16:39:13Z</time>
      </trkpt>
      <trkpt lat="48.55574" lon="1.93285">
        <ele>166</ele>
        <time>2021-06-03T16:39:15Z</time>
      </trkpt>
      <trkpt lat="48.55574" lon="1.933">
        <ele>165.5</ele>
        <time>2021-06-03T16:39:17Z</time>
      </trkpt>
      <trkpt lat="48.55576" lon="1.93313">
        <ele>165.2</ele>
        <time>2021-06-03T16:39:19Z</time>
      </trkpt>
      <trkpt lat="48.55579" lon="1.93325">
        <ele>165</ele>
        <time>2021-06-03T16:39:21Z</time>
      </trkpt>
      <trkpt lat="48.5558" lon="1.93334">
        <ele>164.8</ele>
        <time>2021-06-03T16:39:23Z</time>
      </trkpt>
      <trkpt lat="48.55582" lon="1.93343">
        <ele>164.7</ele>
        <time>2021-06-03T16:39:25Z</time>
      </trkpt>
      <trkpt lat="48.55584" lon="1.93353">
        <ele>164.6</ele>
        <time>2021-06-03T16:39:27Z</time>
      </trkpt>
      <trkpt lat="48.55586" lon="1.93366">
        <ele>164.4</ele>
        <time>2021-06-03T16:39:29Z</time>
      </trkpt>
      <trkpt lat="48.55593" lon="1.93377">
        <ele>164.6</ele>
        <time>2021-06-03T16:39:31Z</time>
      </trkpt>
      <trkpt lat="48.55597" lon="1.93388">
        <ele>164.7</ele>
        <time>2021-06-03T16:39:33Z</time>
      </trkpt>
      <trkpt lat="48.55602" lon="1.93399">
        <ele>164.9</ele>
        <time>2021-06-03T16:39:35Z</time>
      </trkpt>
      <trkpt lat="48.55607" lon="1.9341">
        <ele>165.1</ele>
        <time>2021-06-03T16:39:37Z</time>
      </trkpt>
      <trkpt lat="48.55607" lon="1.93418">
        <ele>165</ele>
        <time>2021-06-03T16:39:39Z</time>
      </trkpt>
      <trkpt lat="48.55605" lon="1.93429">
        <ele>164.9</ele>
        <time>2021-06-03T16:39:41Z</time>
      </trkpt>
      <trkpt lat="48.55608" lon="1.93444">
        <ele>165.4</ele>
        <time>2021-06-03T16:39:43Z</time>
      </trkpt>
      <trkpt lat="48.55608" lon="1.93457">
        <ele>165.6</ele>
        <time>2021-06-03T16:39:45Z</time>
      </trkpt>
      <trkpt lat="48.55608" lon="1.93471">
        <ele>165.7</ele>
        <time>2021-06-03T16:39:47Z</time>
      </trkpt>
      <trkpt lat="48.55611" lon="1.93482">
        <ele>166.1</ele>
        <time>2021-06-03T16:39:49Z</time>
      </trkpt>
      <trkpt lat="48.5561" lon="1.93495">
        <ele>166.2</ele>
        <time>2021-06-03T16:39:51Z</time>
      </trkpt>
      <trkpt lat="48.55615" lon="1.93507">
        <ele>166.6</ele>
        <time>2021-06-03T16:39:53Z</time>
      </trkpt>
      <trkpt lat="48.55621" lon="1.93519">
        <ele>166.9</ele>
        <time>2021-06-03T16:39:55Z</time>
      </trkpt>
      <trkpt lat="48.55623" lon="1.93531">
        <ele>167</ele>
        <time>2021-06-03T16:39:57Z</time>
      </trkpt>
      <trkpt lat="48.55627" lon="1.93544">
        <ele>167.1</ele>
        <time>2021-06-03T16:39:59Z</time>
      </trkpt>
      <trkpt lat="48.55632" lon="1.93557">
        <ele>167.4</ele>
        <time>2021-06-03T16:40:01Z</time>
      </trkpt>
      <trkpt lat="48.55636" lon="1.93569">
        <ele>167.6</ele>
        <time>2021-06-03T16:40:03Z</time>
      </trkpt>
      <trkpt lat="48.55638" lon="1.93584">
        <ele>167.5</ele>
        <time>2021-06-03T16:40:05Z</time>
      </trkpt>
      <trkpt lat="48.55642" lon="1.93596">
        <ele>167.7</ele>
        <time>2021-06-03T16:40:07Z</time>
      </trkpt>
      <trkpt lat="48.55645" lon="1.93609">
        <ele>167.8</ele>
        <time>2021-06-03T16:40:09Z</time>
      </trkpt>
      <trkpt lat="48.55649" lon="1.93621">
        <ele>167.8</ele>
        <time>2021-06-03T16:40:11Z</time>
      </trkpt>
      <trkpt lat="48.55653" lon="1.93632">
        <ele>167.9</ele>
        <time>2021-06-03T16:40:13Z</time>
      </trkpt>
      <trkpt lat="48.55659" lon="1.93645">
        <ele>168</ele>
        <time>2021-06-03T16:40:15Z</time>
      </trkpt>
      <trkpt lat="48.55664" lon="1.93658">
        <ele>168.1</ele>
        <time>2021-06-03T16:40:17Z</time>
      </trkpt>
      <trkpt lat="48.5567" lon="1.93669">
        <ele>167.9</ele>
        <time>2021-06-03T16:40:19Z</time>
      </trkpt>
      <trkpt lat="48.55676" lon="1.93678">
        <ele>167.6</ele>
        <time>2021-06-03T16:40:21Z</time>
      </trkpt>
      <trkpt lat="48.55683" lon="1.93685">
        <ele>167.4</ele>
        <time>2021-06-03T16:40:23Z</time>
      </trkpt>
      <trkpt lat="48.55688" lon="1.93696">
        <ele>167.1</ele>
        <time>2021-06-03T16:40:25Z</time>
      </trkpt>
      <trkpt lat="48.55694" lon="1.93707">
        <ele>166.9</ele>
        <time>2021-06-03T16:40:27Z</time>
      </trkpt>
      <trkpt lat="48.557" lon="1.93715">
        <ele>166.7</ele>
        <time>2021-06-03T16:40:29Z</time>
      </trkpt>
      <trkpt lat="48.55708" lon="1.93725">
        <ele>166.4</ele>
        <time>2021-06-03T16:40:31Z</time>
      </trkpt>
      <trkpt lat="48.55716" lon="1.93738">
        <ele>166.2</ele>
        <time>2021-06-03T16:40:33Z</time>
      </trkpt>
      <trkpt lat="48.55721" lon="1.93755">
        <ele>165.8</ele>
        <time>2021-06-03T16:40:35Z</time>
      </trkpt>
      <trkpt lat="48.55727" lon="1.93772">
        <ele>165.2</ele>
        <time>2021-06-03T16:40:37Z</time>
      </trkpt>
      <trkpt lat="48.55732" lon="1.93786">
        <ele>164.7</ele>
        <time>2021-06-03T16:40:39Z</time>
      </trkpt>
      <trkpt lat="48.55737" lon="1.93795">
        <ele>164.4</ele>
        <time>2021-06-03T16:40:41Z</time>
      </trkpt>
      <trkpt lat="48.55744" lon="1.93807">
        <ele>164</ele>
        <time>2021-06-03T16:40:43Z</time>
      </trkpt>
      <trkpt lat="48.55749" lon="1.93818">
        <ele>163.5</ele>
        <time>2021-06-03T16:40:45Z</time>
      </trkpt>
      <trkpt lat="48.55751" lon="1.93832">
        <ele>163</ele>
        <time>2021-06-03T16:40:47Z</time>
      </trkpt>
      <trkpt lat="48.55752" lon="1.93848">
        <ele>162.7</ele>
        <time>2021-06-03T16:40:49Z</time>
      </trkpt>
      <trkpt lat="48.55757" lon="1.93865">
        <ele>162.3</ele>
        <time>2021-06-03T16:40:51Z</time>
      </trkpt>
      <trkpt lat="48.55758" lon="1.93877">
        <ele>162.2</ele>
        <time>2021-06-03T16:40:53Z</time>
      </trkpt>
      <trkpt lat="48.55759" lon="1.93888">
        <ele>162.1</ele>
        <time>2021-06-03T16:40:55Z</time>
      </trkpt>
      <trkpt lat="48.55762" lon="1.93898">
        <ele>162</ele>
        <time>2021-06-03T16:40:57Z</time>
      </trkpt>
      <trkpt lat="48.55767" lon="1.93904">
        <ele>162</ele>
        <time>2021-06-03T16:40:59Z</time>
      </trkpt>
      <trkpt lat="48.5577" lon="1.93913">
        <ele>162</ele>
        <time>2021-06-03T16:41:01Z</time>
      </trkpt>
      <trkpt lat="48.55773" lon="1.9392">
        <ele>162.1</ele>
        <time>2021-06-03T16:41:03Z</time>
      </trkpt>
      <trkpt lat="48.55773" lon="1.93931">
        <ele>162.4</ele>
        <time>2021-06-03T16:41:07Z</time>
      </trkpt>
      <trkpt lat="48.55774" lon="1.93943">
        <ele>162.8</ele>
        <time>2021-06-03T16:41:11Z</time>
      </trkpt>
      <trkpt lat="48.55774" lon="1.93952">
        <ele>163</ele>
        <time>2021-06-03T16:41:15Z</time>
      </trkpt>
      <trkpt lat="48.55775" lon="1.9396">
        <ele>163.3</ele>
        <time>2021-06-03T16:41:19Z</time>
      </trkpt>
      <trkpt lat="48.55778" lon="1.93967">
        <ele>163.6</ele>
        <time>2021-06-03T16:41:23Z</time>
      </trkpt>
      <trkpt lat="48.55779" lon="1.93974">
        <ele>163.9</ele>
        <time>2021-06-03T16:41:27Z</time>
      </trkpt>
      <trkpt lat="48.55781" lon="1.93982">
        <ele>164.2</ele>
        <time>2021-06-03T16:41:31Z</time>
      </trkpt>
      <trkpt lat="48.55784" lon="1.93989">
        <ele>164.7</ele>
        <time>2021-06-03T16:41:37Z</time>
      </trkpt>
      <trkpt lat="48.5579" lon="1.93993">
        <ele>165.1</ele>
        <time>2021-06-03T16:41:43Z</time>
      </trkpt>
      <trkpt lat="48.55795" lon="1.93996">
        <ele>165.5</ele>
        <time>2021-06-03T16:41:47Z</time>
      </trkpt>
      <trkpt lat="48.558" lon="1.94003">
        <ele>166</ele>
        <time>2021-06-03T16:41:51Z</time>
      </trkpt>
      <trkpt lat="48.55807" lon="1.9401">
        <ele>166.2</ele>
        <time>2021-06-03T16:41:55Z</time>
      </trkpt>
      <trkpt lat="48.55811" lon="1.94017">
        <ele>166.3</ele>
        <time>2021-06-03T16:41:57Z</time>
      </trkpt>
      <trkpt lat="48.55814" lon="1.94024">
        <ele>166.3</ele>
        <time>2021-06-03T16:41:59Z</time>
      </trkpt>
      <trkpt lat="48.55819" lon="1.94031">
        <ele>166.3</ele>
        <time>2021-06-03T16:42:01Z</time>
      </trkpt>
      <trkpt lat="48.55824" lon="1.94037">
        <ele>166.4</ele>
        <time>2021-06-03T16:42:03Z</time>
      </trkpt>
      <trkpt lat="48.5583" lon="1.94044">
        <ele>166.3</ele>
        <time>2021-06-03T16:42:05Z</time>
      </trkpt>
      <trkpt lat="48.55836" lon="1.94054">
        <ele>165.9</ele>
        <time>2021-06-03T16:42:07Z</time>
      </trkpt>
      <trkpt lat="48.5584" lon="1.94063">
        <ele>165.4</ele>
        <time>2021-06-03T16:42:09Z</time>
      </trkpt>
      <trkpt lat="48.55844" lon="1.94073">
        <ele>164.9</ele>
        <time>2021-06-03T16:42:11Z</time>
      </trkpt>
      <trkpt lat="48.55845" lon="1.94086">
        <ele>164.2</ele>
        <time>2021-06-03T16:42:13Z</time>
      </trkpt>
      <trkpt lat="48.55846" lon="1.94096">
        <ele>163.5</ele>
        <time>2021-06-03T16:42:15Z</time>
      </trkpt>
      <trkpt lat="48.55847" lon="1.94106">
        <ele>162.8</ele>
        <time>2021-06-03T16:42:17Z</time>
      </trkpt>
      <trkpt lat="48.55852" lon="1.94114">
        <ele>162</ele>
        <time>2021-06-03T16:42:19Z</time>
      </trkpt>
      <trkpt lat="48.55856" lon="1.94122">
        <ele>161.3</ele>
        <time>2021-06-03T16:42:21Z</time>
      </trkpt>
      <trkpt lat="48.5586" lon="1.94131">
        <ele>160.5</ele>
        <time>2021-06-03T16:42:25Z</time>
      </trkpt>
      <trkpt lat="48.55859" lon="1.94142">
        <ele>159.8</ele>
        <time>2021-06-03T16:42:27Z</time>
      </trkpt>
      <trkpt lat="48.55865" lon="1.94155">
        <ele>158.6</ele>
        <time>2021-06-03T16:42:29Z</time>
      </trkpt>
      <trkpt lat="48.5587" lon="1.94176">
        <ele>157.4</ele>
        <time>2021-06-03T16:42:31Z</time>
      </trkpt>
      <trkpt lat="48.55874" lon="1.9419">
        <ele>156.7</ele>
        <time>2021-06-03T16:42:33Z</time>
      </trkpt>
      <trkpt lat="48.55881" lon="1.94199">
        <ele>156</ele>
        <time>2021-06-03T16:42:35Z</time>
      </trkpt>
      <trkpt lat="48.55886" lon="1.9421">
        <ele>155.3</ele>
        <time>2021-06-03T16:42:37Z</time>
      </trkpt>
      <trkpt lat="48.5589" lon="1.94219">
        <ele>154.6</ele>
        <time>2021-06-03T16:42:39Z</time>
      </trkpt>
      <trkpt lat="48.55894" lon="1.94228">
        <ele>154</ele>
        <time>2021-06-03T16:42:41Z</time>
      </trkpt>
      <trkpt lat="48.559" lon="1.94235">
        <ele>153.1</ele>
        <time>2021-06-03T16:42:43Z</time>
      </trkpt>
      <trkpt lat="48.55904" lon="1.94245">
        <ele>152.3</ele>
        <time>2021-06-03T16:42:45Z</time>
      </trkpt>
      <trkpt lat="48.55912" lon="1.94252">
        <ele>151.4</ele>
        <time>2021-06-03T16:42:47Z</time>
      </trkpt>
      <trkpt lat="48.55922" lon="1.94261">
        <ele>150.6</ele>
        <time>2021-06-03T16:42:49Z</time>
      </trkpt>
      <trkpt lat="48.55933" lon="1.94273">
        <ele>150.1</ele>
        <time>2021-06-03T16:42:51Z</time>
      </trkpt>
      <trkpt lat="48.55938" lon="1.94281">
        <ele>149.8</ele>
        <time>2021-06-03T16:42:53Z</time>
      </trkpt>
      <trkpt lat="48.55946" lon="1.94288">
        <ele>149.4</ele>
        <time>2021-06-03T16:42:55Z</time>
      </trkpt>
      <trkpt lat="48.55954" lon="1.94303">
        <ele>149.1</ele>
        <time>2021-06-03T16:42:57Z</time>
      </trkpt>
      <trkpt lat="48.55958" lon="1.9432">
        <ele>149</ele>
        <time>2021-06-03T16:42:59Z</time>
      </trkpt>
      <trkpt lat="48.55959" lon="1.94337">
        <ele>149.1</ele>
        <time>2021-06-03T16:43:01Z</time>
      </trkpt>
      <trkpt lat="48.55965" lon="1.94347">
        <ele>149.2</ele>
        <time>2021-06-03T16:43:03Z</time>
      </trkpt>
      <trkpt lat="48.55971" lon="1.94347">
        <ele>149</ele>
        <time>2021-06-03T16:43:05Z</time>
      </trkpt>
      <trkpt lat="48.5598" lon="1.94351">
        <ele>148.8</ele>
        <time>2021-06-03T16:43:07Z</time>
      </trkpt>
      <trkpt lat="48.55985" lon="1.94358">
        <ele>148.8</ele>
        <time>2021-06-03T16:43:09Z</time>
      </trkpt>
      <trkpt lat="48.55988" lon="1.94369">
        <ele>148.8</ele>
        <time>2021-06-03T16:43:11Z</time>
      </trkpt>
      <trkpt lat="48.5599" lon="1.94377">
        <ele>148.9</ele>
        <time>2021-06-03T16:43:13Z</time>
      </trkpt>
      <trkpt lat="48.55993" lon="1.94387">
        <ele>148.9</ele>
        <time>2021-06-03T16:43:17Z</time>
      </trkpt>
      <trkpt lat="48.55994" lon="1.94396">
        <ele>149</ele>
        <time>2021-06-03T16:43:19Z</time>
      </trkpt>
      <trkpt lat="48.55996" lon="1.94402">
        <ele>149</ele>
        <time>2021-06-03T16:43:21Z</time>
      </trkpt>
      <trkpt lat="48.55998" lon="1.94409">
        <ele>149</ele>
        <time>2021-06-03T16:43:23Z</time>
      </trkpt>
      <trkpt lat="48.56001" lon="1.94418">
        <ele>149</ele>
        <time>2021-06-03T16:43:27Z</time>
      </trkpt>
      <trkpt lat="48.56005" lon="1.9443">
        <ele>149.3</ele>
        <time>2021-06-03T16:43:31Z</time>
      </trkpt>
      <trkpt lat="48.56008" lon="1.94441">
        <ele>149.5</ele>
        <time>2021-06-03T16:43:35Z</time>
      </trkpt>
      <trkpt lat="48.56011" lon="1.94451">
        <ele>149.6</ele>
        <time>2021-06-03T16:43:39Z</time>
      </trkpt>
      <trkpt lat="48.56012" lon="1.94461">
        <ele>149.8</ele>
        <time>2021-06-03T16:43:43Z</time>
      </trkpt>
      <trkpt lat="48.56015" lon="1.9447">
        <ele>150</ele>
        <time>2021-06-03T16:43:47Z</time>
      </trkpt>
      <trkpt lat="48.56015" lon="1.94478">
        <ele>150.2</ele>
        <time>2021-06-03T16:43:49Z</time>
      </trkpt>
      <trkpt lat="48.56015" lon="1.9449">
        <ele>150.4</ele>
        <time>2021-06-03T16:43:51Z</time>
      </trkpt>
      <trkpt lat="48.56013" lon="1.945">
        <ele>150.7</ele>
        <time>2021-06-03T16:43:57Z</time>
      </trkpt>
      <trkpt lat="48.56009" lon="1.94511">
        <ele>151</ele>
        <time>2021-06-03T16:44:01Z</time>
      </trkpt>
      <trkpt lat="48.56006" lon="1.94518">
        <ele>151.3</ele>
        <time>2021-06-03T16:44:05Z</time>
      </trkpt>
      <trkpt lat="48.56004" lon="1.94528">
        <ele>151.6</ele>
        <time>2021-06-03T16:44:09Z</time>
      </trkpt>
      <trkpt lat="48.56006" lon="1.94543">
        <ele>151.9</ele>
        <time>2021-06-03T16:44:13Z</time>
      </trkpt>
      <trkpt lat="48.5601" lon="1.94552">
        <ele>152.1</ele>
        <time>2021-06-03T16:44:15Z</time>
      </trkpt>
      <trkpt lat="48.56014" lon="1.94561">
        <ele>152.2</ele>
        <time>2021-06-03T16:44:17Z</time>
      </trkpt>
      <trkpt lat="48.56018" lon="1.94571">
        <ele>152.5</ele>
        <time>2021-06-03T16:44:19Z</time>
      </trkpt>
      <trkpt lat="48.56021" lon="1.94583">
        <ele>152.7</ele>
        <time>2021-06-03T16:44:21Z</time>
      </trkpt>
      <trkpt lat="48.56024" lon="1.94597">
        <ele>153.2</ele>
        <time>2021-06-03T16:44:23Z</time>
      </trkpt>
      <trkpt lat="48.56031" lon="1.94609">
        <ele>153.6</ele>
        <time>2021-06-03T16:44:25Z</time>
      </trkpt>
      <trkpt lat="48.5604" lon="1.94618">
        <ele>153.9</ele>
        <time>2021-06-03T16:44:27Z</time>
      </trkpt>
      <trkpt lat="48.56044" lon="1.9463">
        <ele>154.5</ele>
        <time>2021-06-03T16:44:29Z</time>
      </trkpt>
      <trkpt lat="48.56044" lon="1.94642">
        <ele>155</ele>
        <time>2021-06-03T16:44:31Z</time>
      </trkpt>
      <trkpt lat="48.56047" lon="1.94649">
        <ele>155.3</ele>
        <time>2021-06-03T16:44:33Z</time>
      </trkpt>
      <trkpt lat="48.56049" lon="1.94654">
        <ele>155.6</ele>
        <time>2021-06-03T16:44:39Z</time>
      </trkpt>
      <trkpt lat="48.56047" lon="1.94662">
        <ele>155.9</ele>
        <time>2021-06-03T16:44:57Z</time>
      </trkpt>
      <trkpt lat="48.56044" lon="1.9467">
        <ele>156.2</ele>
        <time>2021-06-03T16:45:01Z</time>
      </trkpt>
      <trkpt lat="48.5604" lon="1.94678">
        <ele>156.6</ele>
        <time>2021-06-03T16:45:05Z</time>
      </trkpt>
      <trkpt lat="48.56038" lon="1.94685">
        <ele>156.9</ele>
        <time>2021-06-03T16:45:07Z</time>
      </trkpt>
      <trkpt lat="48.56033" lon="1.94694">
        <ele>157.2</ele>
        <time>2021-06-03T16:45:11Z</time>
      </trkpt>
      <trkpt lat="48.56031" lon="1.947">
        <ele>157.4</ele>
        <time>2021-06-03T16:45:13Z</time>
      </trkpt>
      <trkpt lat="48.56029" lon="1.94713">
        <ele>157.9</ele>
        <time>2021-06-03T16:45:17Z</time>
      </trkpt>
      <trkpt lat="48.56027" lon="1.9472">
        <ele>158.2</ele>
        <time>2021-06-03T16:45:19Z</time>
      </trkpt>
      <trkpt lat="48.56023" lon="1.94732">
        <ele>158.6</ele>
        <time>2021-06-03T16:45:23Z</time>
      </trkpt>
      <trkpt lat="48.56022" lon="1.94739">
        <ele>158.8</ele>
        <time>2021-06-03T16:45:25Z</time>
      </trkpt>
      <trkpt lat="48.56019" lon="1.94746">
        <ele>159</ele>
        <time>2021-06-03T16:45:27Z</time>
      </trkpt>
      <trkpt lat="48.56015" lon="1.94755">
        <ele>159</ele>
        <time>2021-06-03T16:45:31Z</time>
      </trkpt>
      <trkpt lat="48.56018" lon="1.94767">
        <ele>159.5</ele>
        <time>2021-06-03T16:45:37Z</time>
      </trkpt>
      <trkpt lat="48.56015" lon="1.94774">
        <ele>159.5</ele>
        <time>2021-06-03T16:45:39Z</time>
      </trkpt>
      <trkpt lat="48.56012" lon="1.94783">
        <ele>159.5</ele>
        <time>2021-06-03T16:45:41Z</time>
      </trkpt>
      <trkpt lat="48.56009" lon="1.94799">
        <ele>159.7</ele>
        <time>2021-06-03T16:45:43Z</time>
      </trkpt>
      <trkpt lat="48.55994" lon="1.94807">
        <ele>159.7</ele>
        <time>2021-06-03T16:45:47Z</time>
      </trkpt>
      <trkpt lat="48.55991" lon="1.94814">
        <ele>160.1</ele>
        <time>2021-06-03T16:45:49Z</time>
      </trkpt>
      <trkpt lat="48.55989" lon="1.9482">
        <ele>160.3</ele>
        <time>2021-06-03T16:45:51Z</time>
      </trkpt>
      <trkpt lat="48.55986" lon="1.94834">
        <ele>160.9</ele>
        <time>2021-06-03T16:45:55Z</time>
      </trkpt>
      <trkpt lat="48.55982" lon="1.94841">
        <ele>161.1</ele>
        <time>2021-06-03T16:45:57Z</time>
      </trkpt>
      <trkpt lat="48.55979" lon="1.94849">
        <ele>161.2</ele>
        <time>2021-06-03T16:45:59Z</time>
      </trkpt>
      <trkpt lat="48.55977" lon="1.94855">
        <ele>161.4</ele>
        <time>2021-06-03T16:46:01Z</time>
      </trkpt>
      <trkpt lat="48.55973" lon="1.94866">
        <ele>161.6</ele>
        <time>2021-06-03T16:46:05Z</time>
      </trkpt>
      <trkpt lat="48.55968" lon="1.94878">
        <ele>161.9</ele>
        <time>2021-06-03T16:46:09Z</time>
      </trkpt>
      <trkpt lat="48.55966" lon="1.94884">
        <ele>162.1</ele>
        <time>2021-06-03T16:46:11Z</time>
      </trkpt>
      <trkpt lat="48.55963" lon="1.94893">
        <ele>162.2</ele>
        <time>2021-06-03T16:46:13Z</time>
      </trkpt>
      <trkpt lat="48.5596" lon="1.949">
        <ele>162.4</ele>
        <time>2021-06-03T16:46:15Z</time>
      </trkpt>
      <trkpt lat="48.55958" lon="1.94908">
        <ele>162.5</ele>
        <time>2021-06-03T16:46:17Z</time>
      </trkpt>
      <trkpt lat="48.55956" lon="1.94915">
        <ele>162.6</ele>
        <time>2021-06-03T16:46:19Z</time>
      </trkpt>
      <trkpt lat="48.55953" lon="1.94921">
        <ele>162.8</ele>
        <time>2021-06-03T16:46:21Z</time>
      </trkpt>
      <trkpt lat="48.55951" lon="1.94928">
        <ele>163</ele>
        <time>2021-06-03T16:46:23Z</time>
      </trkpt>
      <trkpt lat="48.55948" lon="1.94935">
        <ele>163.2</ele>
        <time>2021-06-03T16:46:25Z</time>
      </trkpt>
      <trkpt lat="48.55945" lon="1.94942">
        <ele>163.4</ele>
        <time>2021-06-03T16:46:27Z</time>
      </trkpt>
      <trkpt lat="48.55942" lon="1.94949">
        <ele>163.6</ele>
        <time>2021-06-03T16:46:29Z</time>
      </trkpt>
      <trkpt lat="48.5594" lon="1.94956">
        <ele>163.7</ele>
        <time>2021-06-03T16:46:31Z</time>
      </trkpt>
      <trkpt lat="48.55937" lon="1.94963">
        <ele>163.9</ele>
        <time>2021-06-03T16:46:33Z</time>
      </trkpt>
      <trkpt lat="48.55934" lon="1.94976">
        <ele>164.1</ele>
        <time>2021-06-03T16:46:37Z</time>
      </trkpt>
      <trkpt lat="48.55931" lon="1.94984">
        <ele>164.3</ele>
        <time>2021-06-03T16:46:39Z</time>
      </trkpt>
      <trkpt lat="48.55928" lon="1.94993">
        <ele>164.5</ele>
        <time>2021-06-03T16:46:41Z</time>
      </trkpt>
      <trkpt lat="48.55925" lon="1.95">
        <ele>164.6</ele>
        <time>2021-06-03T16:46:43Z</time>
      </trkpt>
      <trkpt lat="48.55921" lon="1.95007">
        <ele>164.9</ele>
        <time>2021-06-03T16:46:45Z</time>
      </trkpt>
      <trkpt lat="48.55918" lon="1.95015">
        <ele>165.3</ele>
        <time>2021-06-03T16:46:47Z</time>
      </trkpt>
      <trkpt lat="48.55915" lon="1.95022">
        <ele>165.7</ele>
        <time>2021-06-03T16:46:49Z</time>
      </trkpt>
      <trkpt lat="48.55912" lon="1.9503">
        <ele>166.1</ele>
        <time>2021-06-03T16:46:51Z</time>
      </trkpt>
      <trkpt lat="48.55909" lon="1.95038">
        <ele>166.5</ele>
        <time>2021-06-03T16:46:53Z</time>
      </trkpt>
      <trkpt lat="48.55906" lon="1.95045">
        <ele>166.9</ele>
        <time>2021-06-03T16:46:55Z</time>
      </trkpt>
      <trkpt lat="48.55903" lon="1.95052">
        <ele>167.4</ele>
        <time>2021-06-03T16:46:57Z</time>
      </trkpt>
      <trkpt lat="48.559" lon="1.9506">
        <ele>167.7</ele>
        <time>2021-06-03T16:46:59Z</time>
      </trkpt>
      <trkpt lat="48.55897" lon="1.95068">
        <ele>168.1</ele>
        <time>2021-06-03T16:47:01Z</time>
      </trkpt>
      <trkpt lat="48.55895" lon="1.95075">
        <ele>168.5</ele>
        <time>2021-06-03T16:47:03Z</time>
      </trkpt>
      <trkpt lat="48.55891" lon="1.95083">
        <ele>168.8</ele>
        <time>2021-06-03T16:47:05Z</time>
      </trkpt>
      <trkpt lat="48.55888" lon="1.9509">
        <ele>169.1</ele>
        <time>2021-06-03T16:47:07Z</time>
      </trkpt>
      <trkpt lat="48.55885" lon="1.95097">
        <ele>169.5</ele>
        <time>2021-06-03T16:47:09Z</time>
      </trkpt>
      <trkpt lat="48.55882" lon="1.95106">
        <ele>169.7</ele>
        <time>2021-06-03T16:47:11Z</time>
      </trkpt>
      <trkpt lat="48.55878" lon="1.95113">
        <ele>170</ele>
        <time>2021-06-03T16:47:13Z</time>
      </trkpt>
      <trkpt lat="48.55876" lon="1.95122">
        <ele>170.2</ele>
        <time>2021-06-03T16:47:15Z</time>
      </trkpt>
      <trkpt lat="48.55871" lon="1.95126">
        <ele>170.5</ele>
        <time>2021-06-03T16:47:17Z</time>
      </trkpt>
      <trkpt lat="48.55867" lon="1.9512">
        <ele>170.7</ele>
        <time>2021-06-03T16:47:19Z</time>
      </trkpt>
      <trkpt lat="48.55866" lon="1.95111">
        <ele>170.7</ele>
        <time>2021-06-03T16:47:21Z</time>
      </trkpt>
      <trkpt lat="48.5587" lon="1.95103">
        <ele>170.5</ele>
        <time>2021-06-03T16:47:23Z</time>
      </trkpt>
      <trkpt lat="48.55873" lon="1.95095">
        <ele>170.2</ele>
        <time>2021-06-03T16:47:25Z</time>
      </trkpt>
      <trkpt lat="48.55874" lon="1.95086">
        <ele>170.1</ele>
        <time>2021-06-03T16:47:27Z</time>
      </trkpt>
      <trkpt lat="48.55877" lon="1.95077">
        <ele>169.8</ele>
        <time>2021-06-03T16:47:29Z</time>
      </trkpt>
      <trkpt lat="48.55879" lon="1.95068">
        <ele>169.5</ele>
        <time>2021-06-03T16:47:31Z</time>
      </trkpt>
      <trkpt lat="48.55882" lon="1.95059">
        <ele>169.1</ele>
        <time>2021-06-03T16:47:33Z</time>
      </trkpt>
      <trkpt lat="48.55885" lon="1.9505">
        <ele>168.7</ele>
        <time>2021-06-03T16:47:35Z</time>
      </trkpt>
      <trkpt lat="48.55889" lon="1.95043">
        <ele>168.3</ele>
        <time>2021-06-03T16:47:37Z</time>
      </trkpt>
      <trkpt lat="48.55893" lon="1.95035">
        <ele>167.8</ele>
        <time>2021-06-03T16:47:39Z</time>
      </trkpt>
      <trkpt lat="48.55896" lon="1.95026">
        <ele>167.4</ele>
        <time>2021-06-03T16:47:41Z</time>
      </trkpt>
      <trkpt lat="48.559" lon="1.95018">
        <ele>167</ele>
        <time>2021-06-03T16:47:43Z</time>
      </trkpt>
      <trkpt lat="48.55903" lon="1.95012">
        <ele>166.5</ele>
        <time>2021-06-03T16:47:45Z</time>
      </trkpt>
      <trkpt lat="48.55906" lon="1.95006">
        <ele>166.2</ele>
        <time>2021-06-03T16:47:47Z</time>
      </trkpt>
      <trkpt lat="48.55906" lon="1.94999">
        <ele>166</ele>
        <time>2021-06-03T16:47:49Z</time>
      </trkpt>
      <trkpt lat="48.55905" lon="1.94992">
        <ele>166.1</ele>
        <time>2021-06-03T16:47:51Z</time>
      </trkpt>
      <trkpt lat="48.55902" lon="1.94983">
        <ele>166.4</ele>
        <time>2021-06-03T16:47:55Z</time>
      </trkpt>
    </trkseg>
  </trk>
</gpx>